<?xml version="1.0" encoding="UTF-8" standalone="no" ?>
<gpx xmlns="http://www.topografix.com/GPX/1/1" xmlns:xsi="http://www.w3.org/2001/XMLSchema-instance" xsi:schemaLocation="http://www.topografix.com/GPX/1/1 http://www.topografix.com/GPX/1/1/gpx.xsd" version="1.1" creator="VisuGPX - https://www.visugpx.com">
  <metadata>
    <name>SE-NE-St Aignan Le Bignon Chateau Thébaud St Fiacre Vertou Basse Goulaine Pirmil</name>
    <desc><![CDATA[SE-NE-St Aignan Le Bignon Chateau Thébaud St Fiacre Vertou Basse Goulaine Pirmil]]></desc>
  </metadata>
  <trk>
    <name><![CDATA[2021-08-23 17:08 +02:00]]></name>
    <trkseg>
      <trkpt lat="47.16776" lon="-1.62654">
        <ele>68</ele>
        <time>2021-08-23T15:08:32.000Z</time>
      </trkpt>
      <trkpt lat="47.16776" lon="-1.62671">
        <ele>72</ele>
        <time>2021-08-23T15:10:58.000Z</time>
      </trkpt>
      <trkpt lat="47.16768" lon="-1.62677">
        <ele>70</ele>
        <time>2021-08-23T15:11:00.000Z</time>
      </trkpt>
      <trkpt lat="47.16757" lon="-1.62671">
        <ele>70</ele>
        <time>2021-08-23T15:11:02.000Z</time>
      </trkpt>
      <trkpt lat="47.16746" lon="-1.62673">
        <ele>71</ele>
        <time>2021-08-23T15:11:04.000Z</time>
      </trkpt>
      <trkpt lat="47.16735" lon="-1.6268">
        <ele>71</ele>
        <time>2021-08-23T15:11:06.000Z</time>
      </trkpt>
      <trkpt lat="47.16725" lon="-1.62687">
        <ele>70</ele>
        <time>2021-08-23T15:11:08.000Z</time>
      </trkpt>
      <trkpt lat="47.16717" lon="-1.62694">
        <ele>70</ele>
        <time>2021-08-23T15:11:10.000Z</time>
      </trkpt>
      <trkpt lat="47.16708" lon="-1.62691">
        <ele>70</ele>
        <time>2021-08-23T15:11:12.000Z</time>
      </trkpt>
      <trkpt lat="47.16701" lon="-1.62675">
        <ele>70</ele>
        <time>2021-08-23T15:11:14.000Z</time>
      </trkpt>
      <trkpt lat="47.16698" lon="-1.62657">
        <ele>70</ele>
        <time>2021-08-23T15:11:16.000Z</time>
      </trkpt>
      <trkpt lat="47.16696" lon="-1.62638">
        <ele>70</ele>
        <time>2021-08-23T15:11:18.000Z</time>
      </trkpt>
      <trkpt lat="47.16695" lon="-1.62617">
        <ele>69</ele>
        <time>2021-08-23T15:11:20.000Z</time>
      </trkpt>
      <trkpt lat="47.16695" lon="-1.62598">
        <ele>69</ele>
        <time>2021-08-23T15:11:22.000Z</time>
      </trkpt>
      <trkpt lat="47.16696" lon="-1.62578">
        <ele>69</ele>
        <time>2021-08-23T15:11:24.000Z</time>
      </trkpt>
      <trkpt lat="47.16698" lon="-1.62559">
        <ele>69</ele>
        <time>2021-08-23T15:11:26.000Z</time>
      </trkpt>
      <trkpt lat="47.16701" lon="-1.62538">
        <ele>69</ele>
        <time>2021-08-23T15:11:28.000Z</time>
      </trkpt>
      <trkpt lat="47.16703" lon="-1.62518">
        <ele>69</ele>
        <time>2021-08-23T15:11:30.000Z</time>
      </trkpt>
      <trkpt lat="47.16707" lon="-1.62498">
        <ele>69</ele>
        <time>2021-08-23T15:11:32.000Z</time>
      </trkpt>
      <trkpt lat="47.1671" lon="-1.6248">
        <ele>68</ele>
        <time>2021-08-23T15:11:34.000Z</time>
      </trkpt>
      <trkpt lat="47.16712" lon="-1.62462">
        <ele>69</ele>
        <time>2021-08-23T15:11:36.000Z</time>
      </trkpt>
      <trkpt lat="47.16714" lon="-1.62444">
        <ele>69</ele>
        <time>2021-08-23T15:11:38.000Z</time>
      </trkpt>
      <trkpt lat="47.16718" lon="-1.62428">
        <ele>70</ele>
        <time>2021-08-23T15:11:40.000Z</time>
      </trkpt>
      <trkpt lat="47.16724" lon="-1.62415">
        <ele>70</ele>
        <time>2021-08-23T15:11:42.000Z</time>
      </trkpt>
      <trkpt lat="47.16719" lon="-1.62405">
        <ele>69</ele>
        <time>2021-08-23T15:11:47.000Z</time>
      </trkpt>
      <trkpt lat="47.16712" lon="-1.62392">
        <ele>70</ele>
        <time>2021-08-23T15:12:07.000Z</time>
      </trkpt>
      <trkpt lat="47.16704" lon="-1.62379">
        <ele>71</ele>
        <time>2021-08-23T15:12:09.000Z</time>
      </trkpt>
      <trkpt lat="47.16694" lon="-1.62368">
        <ele>72</ele>
        <time>2021-08-23T15:12:11.000Z</time>
      </trkpt>
      <trkpt lat="47.16682" lon="-1.62361">
        <ele>72</ele>
        <time>2021-08-23T15:12:13.000Z</time>
      </trkpt>
      <trkpt lat="47.16669" lon="-1.6236">
        <ele>72</ele>
        <time>2021-08-23T15:12:15.000Z</time>
      </trkpt>
      <trkpt lat="47.16658" lon="-1.62364">
        <ele>73</ele>
        <time>2021-08-23T15:12:17.000Z</time>
      </trkpt>
      <trkpt lat="47.16646" lon="-1.62374">
        <ele>74</ele>
        <time>2021-08-23T15:12:19.000Z</time>
      </trkpt>
      <trkpt lat="47.16635" lon="-1.62385">
        <ele>74</ele>
        <time>2021-08-23T15:12:21.000Z</time>
      </trkpt>
      <trkpt lat="47.16626" lon="-1.62397">
        <ele>74</ele>
        <time>2021-08-23T15:12:23.000Z</time>
      </trkpt>
      <trkpt lat="47.16617" lon="-1.62409">
        <ele>72</ele>
        <time>2021-08-23T15:12:25.000Z</time>
      </trkpt>
      <trkpt lat="47.16608" lon="-1.62423">
        <ele>71</ele>
        <time>2021-08-23T15:12:27.000Z</time>
      </trkpt>
      <trkpt lat="47.16601" lon="-1.62438">
        <ele>70</ele>
        <time>2021-08-23T15:12:29.000Z</time>
      </trkpt>
      <trkpt lat="47.16594" lon="-1.62454">
        <ele>70</ele>
        <time>2021-08-23T15:12:31.000Z</time>
      </trkpt>
      <trkpt lat="47.16587" lon="-1.62469">
        <ele>70</ele>
        <time>2021-08-23T15:12:33.000Z</time>
      </trkpt>
      <trkpt lat="47.1658" lon="-1.62485">
        <ele>70</ele>
        <time>2021-08-23T15:12:35.000Z</time>
      </trkpt>
      <trkpt lat="47.16574" lon="-1.62502">
        <ele>71</ele>
        <time>2021-08-23T15:12:37.000Z</time>
      </trkpt>
      <trkpt lat="47.16568" lon="-1.62518">
        <ele>71</ele>
        <time>2021-08-23T15:12:39.000Z</time>
      </trkpt>
      <trkpt lat="47.16561" lon="-1.62532">
        <ele>71</ele>
        <time>2021-08-23T15:12:41.000Z</time>
      </trkpt>
      <trkpt lat="47.16552" lon="-1.62545">
        <ele>72</ele>
        <time>2021-08-23T15:12:43.000Z</time>
      </trkpt>
      <trkpt lat="47.16543" lon="-1.62556">
        <ele>72</ele>
        <time>2021-08-23T15:12:45.000Z</time>
      </trkpt>
      <trkpt lat="47.16532" lon="-1.62564">
        <ele>72</ele>
        <time>2021-08-23T15:12:47.000Z</time>
      </trkpt>
      <trkpt lat="47.1652" lon="-1.62564">
        <ele>72</ele>
        <time>2021-08-23T15:12:49.000Z</time>
      </trkpt>
      <trkpt lat="47.16508" lon="-1.6256">
        <ele>73</ele>
        <time>2021-08-23T15:12:51.000Z</time>
      </trkpt>
      <trkpt lat="47.16497" lon="-1.62555">
        <ele>75</ele>
        <time>2021-08-23T15:12:53.000Z</time>
      </trkpt>
      <trkpt lat="47.16484" lon="-1.62552">
        <ele>76</ele>
        <time>2021-08-23T15:12:55.000Z</time>
      </trkpt>
      <trkpt lat="47.16471" lon="-1.62549">
        <ele>76</ele>
        <time>2021-08-23T15:12:57.000Z</time>
      </trkpt>
      <trkpt lat="47.16458" lon="-1.62546">
        <ele>77</ele>
        <time>2021-08-23T15:12:59.000Z</time>
      </trkpt>
      <trkpt lat="47.16445" lon="-1.62541">
        <ele>77</ele>
        <time>2021-08-23T15:13:01.000Z</time>
      </trkpt>
      <trkpt lat="47.16432" lon="-1.62541">
        <ele>77</ele>
        <time>2021-08-23T15:13:03.000Z</time>
      </trkpt>
      <trkpt lat="47.1642" lon="-1.62552">
        <ele>77</ele>
        <time>2021-08-23T15:13:05.000Z</time>
      </trkpt>
      <trkpt lat="47.16409" lon="-1.62564">
        <ele>76</ele>
        <time>2021-08-23T15:13:07.000Z</time>
      </trkpt>
      <trkpt lat="47.16397" lon="-1.62574">
        <ele>76</ele>
        <time>2021-08-23T15:13:09.000Z</time>
      </trkpt>
      <trkpt lat="47.16384" lon="-1.62581">
        <ele>75</ele>
        <time>2021-08-23T15:13:11.000Z</time>
      </trkpt>
      <trkpt lat="47.16368" lon="-1.62583">
        <ele>75</ele>
        <time>2021-08-23T15:13:13.000Z</time>
      </trkpt>
      <trkpt lat="47.16353" lon="-1.62581">
        <ele>75</ele>
        <time>2021-08-23T15:13:15.000Z</time>
      </trkpt>
      <trkpt lat="47.16338" lon="-1.62576">
        <ele>75</ele>
        <time>2021-08-23T15:13:17.000Z</time>
      </trkpt>
      <trkpt lat="47.16324" lon="-1.62571">
        <ele>76</ele>
        <time>2021-08-23T15:13:19.000Z</time>
      </trkpt>
      <trkpt lat="47.16309" lon="-1.62571">
        <ele>76</ele>
        <time>2021-08-23T15:13:21.000Z</time>
      </trkpt>
      <trkpt lat="47.16297" lon="-1.6258">
        <ele>75</ele>
        <time>2021-08-23T15:13:23.000Z</time>
      </trkpt>
      <trkpt lat="47.16289" lon="-1.62596">
        <ele>75</ele>
        <time>2021-08-23T15:13:25.000Z</time>
      </trkpt>
      <trkpt lat="47.16284" lon="-1.62614">
        <ele>73</ele>
        <time>2021-08-23T15:13:27.000Z</time>
      </trkpt>
      <trkpt lat="47.1628" lon="-1.62634">
        <ele>72</ele>
        <time>2021-08-23T15:13:29.000Z</time>
      </trkpt>
      <trkpt lat="47.16278" lon="-1.62654">
        <ele>72</ele>
        <time>2021-08-23T15:13:31.000Z</time>
      </trkpt>
      <trkpt lat="47.16278" lon="-1.62672">
        <ele>71</ele>
        <time>2021-08-23T15:13:33.000Z</time>
      </trkpt>
      <trkpt lat="47.16279" lon="-1.62689">
        <ele>72</ele>
        <time>2021-08-23T15:13:36.000Z</time>
      </trkpt>
      <trkpt lat="47.16279" lon="-1.62703">
        <ele>72</ele>
        <time>2021-08-23T15:13:48.000Z</time>
      </trkpt>
      <trkpt lat="47.16282" lon="-1.62719">
        <ele>73</ele>
        <time>2021-08-23T15:13:51.000Z</time>
      </trkpt>
      <trkpt lat="47.16272" lon="-1.62735">
        <ele>72</ele>
        <time>2021-08-23T15:13:55.000Z</time>
      </trkpt>
      <trkpt lat="47.16259" lon="-1.62739">
        <ele>72</ele>
        <time>2021-08-23T15:13:57.000Z</time>
      </trkpt>
      <trkpt lat="47.16246" lon="-1.62747">
        <ele>72</ele>
        <time>2021-08-23T15:13:59.000Z</time>
      </trkpt>
      <trkpt lat="47.16232" lon="-1.62754">
        <ele>71</ele>
        <time>2021-08-23T15:14:01.000Z</time>
      </trkpt>
      <trkpt lat="47.16209" lon="-1.62766">
        <ele>70</ele>
        <time>2021-08-23T15:14:04.000Z</time>
      </trkpt>
      <trkpt lat="47.16194" lon="-1.62778">
        <ele>69</ele>
        <time>2021-08-23T15:14:06.000Z</time>
      </trkpt>
      <trkpt lat="47.16179" lon="-1.62791">
        <ele>69</ele>
        <time>2021-08-23T15:14:08.000Z</time>
      </trkpt>
      <trkpt lat="47.16162" lon="-1.62805">
        <ele>69</ele>
        <time>2021-08-23T15:14:10.000Z</time>
      </trkpt>
      <trkpt lat="47.16154" lon="-1.62812">
        <ele>69</ele>
        <time>2021-08-23T15:14:11.000Z</time>
      </trkpt>
      <trkpt lat="47.16138" lon="-1.62825">
        <ele>69</ele>
        <time>2021-08-23T15:14:13.000Z</time>
      </trkpt>
      <trkpt lat="47.1613" lon="-1.62832">
        <ele>69</ele>
        <time>2021-08-23T15:14:14.000Z</time>
      </trkpt>
      <trkpt lat="47.16122" lon="-1.62839">
        <ele>69</ele>
        <time>2021-08-23T15:14:15.000Z</time>
      </trkpt>
      <trkpt lat="47.16107" lon="-1.62851">
        <ele>68</ele>
        <time>2021-08-23T15:14:17.000Z</time>
      </trkpt>
      <trkpt lat="47.16092" lon="-1.62864">
        <ele>68</ele>
        <time>2021-08-23T15:14:19.000Z</time>
      </trkpt>
      <trkpt lat="47.16069" lon="-1.62884">
        <ele>67</ele>
        <time>2021-08-23T15:14:22.000Z</time>
      </trkpt>
      <trkpt lat="47.16054" lon="-1.62897">
        <ele>67</ele>
        <time>2021-08-23T15:14:24.000Z</time>
      </trkpt>
      <trkpt lat="47.16039" lon="-1.6291">
        <ele>67</ele>
        <time>2021-08-23T15:14:26.000Z</time>
      </trkpt>
      <trkpt lat="47.16016" lon="-1.62931">
        <ele>66</ele>
        <time>2021-08-23T15:14:29.000Z</time>
      </trkpt>
      <trkpt lat="47.16008" lon="-1.62938">
        <ele>66</ele>
        <time>2021-08-23T15:14:30.000Z</time>
      </trkpt>
      <trkpt lat="47.16001" lon="-1.62945">
        <ele>65</ele>
        <time>2021-08-23T15:14:31.000Z</time>
      </trkpt>
      <trkpt lat="47.15993" lon="-1.62952">
        <ele>65</ele>
        <time>2021-08-23T15:14:32.000Z</time>
      </trkpt>
      <trkpt lat="47.15985" lon="-1.62959">
        <ele>64</ele>
        <time>2021-08-23T15:14:33.000Z</time>
      </trkpt>
      <trkpt lat="47.15976" lon="-1.62966">
        <ele>64</ele>
        <time>2021-08-23T15:14:34.000Z</time>
      </trkpt>
      <trkpt lat="47.15968" lon="-1.62973">
        <ele>64</ele>
        <time>2021-08-23T15:14:35.000Z</time>
      </trkpt>
      <trkpt lat="47.1596" lon="-1.62981">
        <ele>63</ele>
        <time>2021-08-23T15:14:36.000Z</time>
      </trkpt>
      <trkpt lat="47.15951" lon="-1.62988">
        <ele>63</ele>
        <time>2021-08-23T15:14:37.000Z</time>
      </trkpt>
      <trkpt lat="47.15943" lon="-1.62996">
        <ele>63</ele>
        <time>2021-08-23T15:14:38.000Z</time>
      </trkpt>
      <trkpt lat="47.15935" lon="-1.63003">
        <ele>62</ele>
        <time>2021-08-23T15:14:39.000Z</time>
      </trkpt>
      <trkpt lat="47.15927" lon="-1.63011">
        <ele>62</ele>
        <time>2021-08-23T15:14:40.000Z</time>
      </trkpt>
      <trkpt lat="47.15919" lon="-1.63018">
        <ele>62</ele>
        <time>2021-08-23T15:14:41.000Z</time>
      </trkpt>
      <trkpt lat="47.15911" lon="-1.63025">
        <ele>62</ele>
        <time>2021-08-23T15:14:42.000Z</time>
      </trkpt>
      <trkpt lat="47.15903" lon="-1.63031">
        <ele>62</ele>
        <time>2021-08-23T15:14:43.000Z</time>
      </trkpt>
      <trkpt lat="47.15888" lon="-1.63045">
        <ele>62</ele>
        <time>2021-08-23T15:14:45.000Z</time>
      </trkpt>
      <trkpt lat="47.15873" lon="-1.63059">
        <ele>62</ele>
        <time>2021-08-23T15:14:47.000Z</time>
      </trkpt>
      <trkpt lat="47.15858" lon="-1.63072">
        <ele>62</ele>
        <time>2021-08-23T15:14:49.000Z</time>
      </trkpt>
      <trkpt lat="47.15843" lon="-1.63085">
        <ele>63</ele>
        <time>2021-08-23T15:14:51.000Z</time>
      </trkpt>
      <trkpt lat="47.1583" lon="-1.63097">
        <ele>63</ele>
        <time>2021-08-23T15:14:53.000Z</time>
      </trkpt>
      <trkpt lat="47.15816" lon="-1.63109">
        <ele>63</ele>
        <time>2021-08-23T15:14:55.000Z</time>
      </trkpt>
      <trkpt lat="47.15803" lon="-1.63121">
        <ele>64</ele>
        <time>2021-08-23T15:14:57.000Z</time>
      </trkpt>
      <trkpt lat="47.15789" lon="-1.63133">
        <ele>65</ele>
        <time>2021-08-23T15:14:59.000Z</time>
      </trkpt>
      <trkpt lat="47.15776" lon="-1.63145">
        <ele>65</ele>
        <time>2021-08-23T15:15:01.000Z</time>
      </trkpt>
      <trkpt lat="47.15763" lon="-1.63156">
        <ele>66</ele>
        <time>2021-08-23T15:15:03.000Z</time>
      </trkpt>
      <trkpt lat="47.1575" lon="-1.63168">
        <ele>67</ele>
        <time>2021-08-23T15:15:05.000Z</time>
      </trkpt>
      <trkpt lat="47.15737" lon="-1.63179">
        <ele>67</ele>
        <time>2021-08-23T15:15:07.000Z</time>
      </trkpt>
      <trkpt lat="47.15724" lon="-1.63192">
        <ele>67</ele>
        <time>2021-08-23T15:15:09.000Z</time>
      </trkpt>
      <trkpt lat="47.15711" lon="-1.63204">
        <ele>67</ele>
        <time>2021-08-23T15:15:11.000Z</time>
      </trkpt>
      <trkpt lat="47.15697" lon="-1.63215">
        <ele>67</ele>
        <time>2021-08-23T15:15:13.000Z</time>
      </trkpt>
      <trkpt lat="47.15684" lon="-1.63227">
        <ele>67</ele>
        <time>2021-08-23T15:15:15.000Z</time>
      </trkpt>
      <trkpt lat="47.15671" lon="-1.63238">
        <ele>66</ele>
        <time>2021-08-23T15:15:17.000Z</time>
      </trkpt>
      <trkpt lat="47.15657" lon="-1.6325">
        <ele>66</ele>
        <time>2021-08-23T15:15:19.000Z</time>
      </trkpt>
      <trkpt lat="47.15643" lon="-1.63261">
        <ele>66</ele>
        <time>2021-08-23T15:15:21.000Z</time>
      </trkpt>
      <trkpt lat="47.15629" lon="-1.63274">
        <ele>66</ele>
        <time>2021-08-23T15:15:23.000Z</time>
      </trkpt>
      <trkpt lat="47.15616" lon="-1.63286">
        <ele>66</ele>
        <time>2021-08-23T15:15:25.000Z</time>
      </trkpt>
      <trkpt lat="47.15602" lon="-1.63298">
        <ele>66</ele>
        <time>2021-08-23T15:15:27.000Z</time>
      </trkpt>
      <trkpt lat="47.15589" lon="-1.6331">
        <ele>67</ele>
        <time>2021-08-23T15:15:29.000Z</time>
      </trkpt>
      <trkpt lat="47.15576" lon="-1.63322">
        <ele>68</ele>
        <time>2021-08-23T15:15:31.000Z</time>
      </trkpt>
      <trkpt lat="47.15563" lon="-1.63334">
        <ele>69</ele>
        <time>2021-08-23T15:15:33.000Z</time>
      </trkpt>
      <trkpt lat="47.15551" lon="-1.63345">
        <ele>69</ele>
        <time>2021-08-23T15:15:35.000Z</time>
      </trkpt>
      <trkpt lat="47.15539" lon="-1.63356">
        <ele>69</ele>
        <time>2021-08-23T15:15:37.000Z</time>
      </trkpt>
      <trkpt lat="47.15527" lon="-1.63366">
        <ele>70</ele>
        <time>2021-08-23T15:15:39.000Z</time>
      </trkpt>
      <trkpt lat="47.15516" lon="-1.63377">
        <ele>70</ele>
        <time>2021-08-23T15:15:41.000Z</time>
      </trkpt>
      <trkpt lat="47.15505" lon="-1.63387">
        <ele>71</ele>
        <time>2021-08-23T15:15:43.000Z</time>
      </trkpt>
      <trkpt lat="47.15494" lon="-1.63398">
        <ele>72</ele>
        <time>2021-08-23T15:15:45.000Z</time>
      </trkpt>
      <trkpt lat="47.15482" lon="-1.63408">
        <ele>72</ele>
        <time>2021-08-23T15:15:47.000Z</time>
      </trkpt>
      <trkpt lat="47.15471" lon="-1.63419">
        <ele>72</ele>
        <time>2021-08-23T15:15:49.000Z</time>
      </trkpt>
      <trkpt lat="47.15459" lon="-1.63429">
        <ele>73</ele>
        <time>2021-08-23T15:15:51.000Z</time>
      </trkpt>
      <trkpt lat="47.15448" lon="-1.6344">
        <ele>73</ele>
        <time>2021-08-23T15:15:53.000Z</time>
      </trkpt>
      <trkpt lat="47.15436" lon="-1.6345">
        <ele>73</ele>
        <time>2021-08-23T15:15:55.000Z</time>
      </trkpt>
      <trkpt lat="47.15424" lon="-1.63461">
        <ele>73</ele>
        <time>2021-08-23T15:15:57.000Z</time>
      </trkpt>
      <trkpt lat="47.15413" lon="-1.63471">
        <ele>73</ele>
        <time>2021-08-23T15:15:59.000Z</time>
      </trkpt>
      <trkpt lat="47.15404" lon="-1.63484">
        <ele>73</ele>
        <time>2021-08-23T15:16:01.000Z</time>
      </trkpt>
      <trkpt lat="47.15395" lon="-1.63497">
        <ele>73</ele>
        <time>2021-08-23T15:16:03.000Z</time>
      </trkpt>
      <trkpt lat="47.15385" lon="-1.63507">
        <ele>74</ele>
        <time>2021-08-23T15:16:05.000Z</time>
      </trkpt>
      <trkpt lat="47.15373" lon="-1.63511">
        <ele>74</ele>
        <time>2021-08-23T15:16:07.000Z</time>
      </trkpt>
      <trkpt lat="47.15362" lon="-1.63518">
        <ele>73</ele>
        <time>2021-08-23T15:16:09.000Z</time>
      </trkpt>
      <trkpt lat="47.15351" lon="-1.6353">
        <ele>74</ele>
        <time>2021-08-23T15:16:11.000Z</time>
      </trkpt>
      <trkpt lat="47.15339" lon="-1.6354">
        <ele>74</ele>
        <time>2021-08-23T15:16:13.000Z</time>
      </trkpt>
      <trkpt lat="47.15328" lon="-1.6355">
        <ele>74</ele>
        <time>2021-08-23T15:16:15.000Z</time>
      </trkpt>
      <trkpt lat="47.15316" lon="-1.63559">
        <ele>74</ele>
        <time>2021-08-23T15:16:17.000Z</time>
      </trkpt>
      <trkpt lat="47.15304" lon="-1.63566">
        <ele>74</ele>
        <time>2021-08-23T15:16:19.000Z</time>
      </trkpt>
      <trkpt lat="47.15292" lon="-1.63577">
        <ele>74</ele>
        <time>2021-08-23T15:16:21.000Z</time>
      </trkpt>
      <trkpt lat="47.15279" lon="-1.63588">
        <ele>73</ele>
        <time>2021-08-23T15:16:23.000Z</time>
      </trkpt>
      <trkpt lat="47.15266" lon="-1.63599">
        <ele>73</ele>
        <time>2021-08-23T15:16:25.000Z</time>
      </trkpt>
      <trkpt lat="47.15254" lon="-1.63609">
        <ele>73</ele>
        <time>2021-08-23T15:16:27.000Z</time>
      </trkpt>
      <trkpt lat="47.15242" lon="-1.63621">
        <ele>74</ele>
        <time>2021-08-23T15:16:29.000Z</time>
      </trkpt>
      <trkpt lat="47.15229" lon="-1.63632">
        <ele>73</ele>
        <time>2021-08-23T15:16:31.000Z</time>
      </trkpt>
      <trkpt lat="47.15216" lon="-1.63643">
        <ele>73</ele>
        <time>2021-08-23T15:16:33.000Z</time>
      </trkpt>
      <trkpt lat="47.15203" lon="-1.63654">
        <ele>73</ele>
        <time>2021-08-23T15:16:35.000Z</time>
      </trkpt>
      <trkpt lat="47.1519" lon="-1.63666">
        <ele>73</ele>
        <time>2021-08-23T15:16:37.000Z</time>
      </trkpt>
      <trkpt lat="47.15177" lon="-1.63677">
        <ele>73</ele>
        <time>2021-08-23T15:16:39.000Z</time>
      </trkpt>
      <trkpt lat="47.15164" lon="-1.63689">
        <ele>73</ele>
        <time>2021-08-23T15:16:41.000Z</time>
      </trkpt>
      <trkpt lat="47.15151" lon="-1.63701">
        <ele>73</ele>
        <time>2021-08-23T15:16:43.000Z</time>
      </trkpt>
      <trkpt lat="47.15138" lon="-1.63713">
        <ele>73</ele>
        <time>2021-08-23T15:16:45.000Z</time>
      </trkpt>
      <trkpt lat="47.15126" lon="-1.63725">
        <ele>73</ele>
        <time>2021-08-23T15:16:47.000Z</time>
      </trkpt>
      <trkpt lat="47.15113" lon="-1.63738">
        <ele>72</ele>
        <time>2021-08-23T15:16:49.000Z</time>
      </trkpt>
      <trkpt lat="47.151" lon="-1.63752">
        <ele>72</ele>
        <time>2021-08-23T15:16:51.000Z</time>
      </trkpt>
      <trkpt lat="47.15088" lon="-1.63766">
        <ele>72</ele>
        <time>2021-08-23T15:16:53.000Z</time>
      </trkpt>
      <trkpt lat="47.15076" lon="-1.63781">
        <ele>71</ele>
        <time>2021-08-23T15:16:55.000Z</time>
      </trkpt>
      <trkpt lat="47.15063" lon="-1.63796">
        <ele>71</ele>
        <time>2021-08-23T15:16:57.000Z</time>
      </trkpt>
      <trkpt lat="47.15051" lon="-1.63811">
        <ele>71</ele>
        <time>2021-08-23T15:16:59.000Z</time>
      </trkpt>
      <trkpt lat="47.1504" lon="-1.63827">
        <ele>71</ele>
        <time>2021-08-23T15:17:01.000Z</time>
      </trkpt>
      <trkpt lat="47.15028" lon="-1.63842">
        <ele>71</ele>
        <time>2021-08-23T15:17:03.000Z</time>
      </trkpt>
      <trkpt lat="47.15018" lon="-1.63857">
        <ele>72</ele>
        <time>2021-08-23T15:17:05.000Z</time>
      </trkpt>
      <trkpt lat="47.15008" lon="-1.63873">
        <ele>73</ele>
        <time>2021-08-23T15:17:07.000Z</time>
      </trkpt>
      <trkpt lat="47.14997" lon="-1.63889">
        <ele>74</ele>
        <time>2021-08-23T15:17:09.000Z</time>
      </trkpt>
      <trkpt lat="47.14987" lon="-1.63904">
        <ele>75</ele>
        <time>2021-08-23T15:17:11.000Z</time>
      </trkpt>
      <trkpt lat="47.14977" lon="-1.63919">
        <ele>75</ele>
        <time>2021-08-23T15:17:13.000Z</time>
      </trkpt>
      <trkpt lat="47.14966" lon="-1.63934">
        <ele>77</ele>
        <time>2021-08-23T15:17:15.000Z</time>
      </trkpt>
      <trkpt lat="47.14957" lon="-1.63949">
        <ele>78</ele>
        <time>2021-08-23T15:17:17.000Z</time>
      </trkpt>
      <trkpt lat="47.14947" lon="-1.63966">
        <ele>78</ele>
        <time>2021-08-23T15:17:19.000Z</time>
      </trkpt>
      <trkpt lat="47.14936" lon="-1.63982">
        <ele>77</ele>
        <time>2021-08-23T15:17:21.000Z</time>
      </trkpt>
      <trkpt lat="47.14925" lon="-1.64">
        <ele>76</ele>
        <time>2021-08-23T15:17:23.000Z</time>
      </trkpt>
      <trkpt lat="47.14915" lon="-1.64018">
        <ele>76</ele>
        <time>2021-08-23T15:17:25.000Z</time>
      </trkpt>
      <trkpt lat="47.14904" lon="-1.64035">
        <ele>76</ele>
        <time>2021-08-23T15:17:27.000Z</time>
      </trkpt>
      <trkpt lat="47.14889" lon="-1.64038">
        <ele>75</ele>
        <time>2021-08-23T15:17:29.000Z</time>
      </trkpt>
      <trkpt lat="47.14876" lon="-1.64021">
        <ele>75</ele>
        <time>2021-08-23T15:17:31.000Z</time>
      </trkpt>
      <trkpt lat="47.14866" lon="-1.64002">
        <ele>74</ele>
        <time>2021-08-23T15:17:33.000Z</time>
      </trkpt>
      <trkpt lat="47.14853" lon="-1.63989">
        <ele>74</ele>
        <time>2021-08-23T15:17:35.000Z</time>
      </trkpt>
      <trkpt lat="47.14838" lon="-1.63986">
        <ele>75</ele>
        <time>2021-08-23T15:17:37.000Z</time>
      </trkpt>
      <trkpt lat="47.14823" lon="-1.63987">
        <ele>74</ele>
        <time>2021-08-23T15:17:39.000Z</time>
      </trkpt>
      <trkpt lat="47.1481" lon="-1.63999">
        <ele>73</ele>
        <time>2021-08-23T15:17:41.000Z</time>
      </trkpt>
      <trkpt lat="47.14798" lon="-1.64013">
        <ele>73</ele>
        <time>2021-08-23T15:17:43.000Z</time>
      </trkpt>
      <trkpt lat="47.14785" lon="-1.64025">
        <ele>73</ele>
        <time>2021-08-23T15:17:45.000Z</time>
      </trkpt>
      <trkpt lat="47.14773" lon="-1.64037">
        <ele>72</ele>
        <time>2021-08-23T15:17:47.000Z</time>
      </trkpt>
      <trkpt lat="47.14759" lon="-1.64046">
        <ele>72</ele>
        <time>2021-08-23T15:17:49.000Z</time>
      </trkpt>
      <trkpt lat="47.14744" lon="-1.64053">
        <ele>72</ele>
        <time>2021-08-23T15:17:51.000Z</time>
      </trkpt>
      <trkpt lat="47.14729" lon="-1.64059">
        <ele>72</ele>
        <time>2021-08-23T15:17:53.000Z</time>
      </trkpt>
      <trkpt lat="47.14715" lon="-1.64065">
        <ele>72</ele>
        <time>2021-08-23T15:17:55.000Z</time>
      </trkpt>
      <trkpt lat="47.14701" lon="-1.64071">
        <ele>72</ele>
        <time>2021-08-23T15:17:57.000Z</time>
      </trkpt>
      <trkpt lat="47.14688" lon="-1.64076">
        <ele>72</ele>
        <time>2021-08-23T15:17:59.000Z</time>
      </trkpt>
      <trkpt lat="47.14674" lon="-1.64082">
        <ele>72</ele>
        <time>2021-08-23T15:18:01.000Z</time>
      </trkpt>
      <trkpt lat="47.1466" lon="-1.6409">
        <ele>72</ele>
        <time>2021-08-23T15:18:03.000Z</time>
      </trkpt>
      <trkpt lat="47.14646" lon="-1.64096">
        <ele>72</ele>
        <time>2021-08-23T15:18:05.000Z</time>
      </trkpt>
      <trkpt lat="47.1463" lon="-1.64105">
        <ele>72</ele>
        <time>2021-08-23T15:18:07.000Z</time>
      </trkpt>
      <trkpt lat="47.14616" lon="-1.64113">
        <ele>72</ele>
        <time>2021-08-23T15:18:09.000Z</time>
      </trkpt>
      <trkpt lat="47.14601" lon="-1.64121">
        <ele>73</ele>
        <time>2021-08-23T15:18:11.000Z</time>
      </trkpt>
      <trkpt lat="47.14587" lon="-1.64129">
        <ele>73</ele>
        <time>2021-08-23T15:18:13.000Z</time>
      </trkpt>
      <trkpt lat="47.14572" lon="-1.64138">
        <ele>72</ele>
        <time>2021-08-23T15:18:15.000Z</time>
      </trkpt>
      <trkpt lat="47.14558" lon="-1.64146">
        <ele>72</ele>
        <time>2021-08-23T15:18:17.000Z</time>
      </trkpt>
      <trkpt lat="47.14545" lon="-1.64154">
        <ele>72</ele>
        <time>2021-08-23T15:18:19.000Z</time>
      </trkpt>
      <trkpt lat="47.14532" lon="-1.64163">
        <ele>72</ele>
        <time>2021-08-23T15:18:21.000Z</time>
      </trkpt>
      <trkpt lat="47.14517" lon="-1.64173">
        <ele>72</ele>
        <time>2021-08-23T15:18:23.000Z</time>
      </trkpt>
      <trkpt lat="47.14503" lon="-1.64182">
        <ele>71</ele>
        <time>2021-08-23T15:18:25.000Z</time>
      </trkpt>
      <trkpt lat="47.14488" lon="-1.64192">
        <ele>70</ele>
        <time>2021-08-23T15:18:27.000Z</time>
      </trkpt>
      <trkpt lat="47.14472" lon="-1.64202">
        <ele>70</ele>
        <time>2021-08-23T15:18:29.000Z</time>
      </trkpt>
      <trkpt lat="47.14458" lon="-1.6421">
        <ele>71</ele>
        <time>2021-08-23T15:18:31.000Z</time>
      </trkpt>
      <trkpt lat="47.14445" lon="-1.64215">
        <ele>72</ele>
        <time>2021-08-23T15:18:33.000Z</time>
      </trkpt>
      <trkpt lat="47.14431" lon="-1.64219">
        <ele>74</ele>
        <time>2021-08-23T15:18:35.000Z</time>
      </trkpt>
      <trkpt lat="47.14416" lon="-1.64222">
        <ele>75</ele>
        <time>2021-08-23T15:18:37.000Z</time>
      </trkpt>
      <trkpt lat="47.144" lon="-1.64224">
        <ele>76</ele>
        <time>2021-08-23T15:18:39.000Z</time>
      </trkpt>
      <trkpt lat="47.14383" lon="-1.64226">
        <ele>75</ele>
        <time>2021-08-23T15:18:41.000Z</time>
      </trkpt>
      <trkpt lat="47.14367" lon="-1.64227">
        <ele>76</ele>
        <time>2021-08-23T15:18:43.000Z</time>
      </trkpt>
      <trkpt lat="47.14351" lon="-1.6423">
        <ele>76</ele>
        <time>2021-08-23T15:18:45.000Z</time>
      </trkpt>
      <trkpt lat="47.14335" lon="-1.64233">
        <ele>77</ele>
        <time>2021-08-23T15:18:47.000Z</time>
      </trkpt>
      <trkpt lat="47.1432" lon="-1.64236">
        <ele>77</ele>
        <time>2021-08-23T15:18:49.000Z</time>
      </trkpt>
      <trkpt lat="47.14302" lon="-1.6424">
        <ele>77</ele>
        <time>2021-08-23T15:18:51.000Z</time>
      </trkpt>
      <trkpt lat="47.14287" lon="-1.64246">
        <ele>76</ele>
        <time>2021-08-23T15:18:53.000Z</time>
      </trkpt>
      <trkpt lat="47.14273" lon="-1.64256">
        <ele>75</ele>
        <time>2021-08-23T15:18:55.000Z</time>
      </trkpt>
      <trkpt lat="47.14257" lon="-1.64266">
        <ele>75</ele>
        <time>2021-08-23T15:18:57.000Z</time>
      </trkpt>
      <trkpt lat="47.14241" lon="-1.64278">
        <ele>75</ele>
        <time>2021-08-23T15:18:59.000Z</time>
      </trkpt>
      <trkpt lat="47.14226" lon="-1.64291">
        <ele>74</ele>
        <time>2021-08-23T15:19:01.000Z</time>
      </trkpt>
      <trkpt lat="47.14212" lon="-1.64304">
        <ele>74</ele>
        <time>2021-08-23T15:19:03.000Z</time>
      </trkpt>
      <trkpt lat="47.14199" lon="-1.64318">
        <ele>74</ele>
        <time>2021-08-23T15:19:05.000Z</time>
      </trkpt>
      <trkpt lat="47.14186" lon="-1.64335">
        <ele>73</ele>
        <time>2021-08-23T15:19:07.000Z</time>
      </trkpt>
      <trkpt lat="47.14172" lon="-1.6435">
        <ele>72</ele>
        <time>2021-08-23T15:19:09.000Z</time>
      </trkpt>
      <trkpt lat="47.14157" lon="-1.64364">
        <ele>71</ele>
        <time>2021-08-23T15:19:11.000Z</time>
      </trkpt>
      <trkpt lat="47.14142" lon="-1.64375">
        <ele>71</ele>
        <time>2021-08-23T15:19:13.000Z</time>
      </trkpt>
      <trkpt lat="47.14126" lon="-1.64387">
        <ele>70</ele>
        <time>2021-08-23T15:19:15.000Z</time>
      </trkpt>
      <trkpt lat="47.14111" lon="-1.64399">
        <ele>69</ele>
        <time>2021-08-23T15:19:17.000Z</time>
      </trkpt>
      <trkpt lat="47.14095" lon="-1.64411">
        <ele>66</ele>
        <time>2021-08-23T15:19:19.000Z</time>
      </trkpt>
      <trkpt lat="47.14081" lon="-1.64423">
        <ele>66</ele>
        <time>2021-08-23T15:19:21.000Z</time>
      </trkpt>
      <trkpt lat="47.14067" lon="-1.64434">
        <ele>66</ele>
        <time>2021-08-23T15:19:23.000Z</time>
      </trkpt>
      <trkpt lat="47.14052" lon="-1.64445">
        <ele>65</ele>
        <time>2021-08-23T15:19:25.000Z</time>
      </trkpt>
      <trkpt lat="47.14038" lon="-1.64456">
        <ele>65</ele>
        <time>2021-08-23T15:19:27.000Z</time>
      </trkpt>
      <trkpt lat="47.14023" lon="-1.64468">
        <ele>64</ele>
        <time>2021-08-23T15:19:29.000Z</time>
      </trkpt>
      <trkpt lat="47.14008" lon="-1.64479">
        <ele>64</ele>
        <time>2021-08-23T15:19:31.000Z</time>
      </trkpt>
      <trkpt lat="47.13994" lon="-1.6449">
        <ele>65</ele>
        <time>2021-08-23T15:19:33.000Z</time>
      </trkpt>
      <trkpt lat="47.13981" lon="-1.64502">
        <ele>66</ele>
        <time>2021-08-23T15:19:35.000Z</time>
      </trkpt>
      <trkpt lat="47.13966" lon="-1.64516">
        <ele>65</ele>
        <time>2021-08-23T15:19:37.000Z</time>
      </trkpt>
      <trkpt lat="47.13953" lon="-1.64531">
        <ele>65</ele>
        <time>2021-08-23T15:19:39.000Z</time>
      </trkpt>
      <trkpt lat="47.13939" lon="-1.64545">
        <ele>65</ele>
        <time>2021-08-23T15:19:41.000Z</time>
      </trkpt>
      <trkpt lat="47.13926" lon="-1.64557">
        <ele>64</ele>
        <time>2021-08-23T15:19:43.000Z</time>
      </trkpt>
      <trkpt lat="47.13912" lon="-1.6457">
        <ele>64</ele>
        <time>2021-08-23T15:19:45.000Z</time>
      </trkpt>
      <trkpt lat="47.13898" lon="-1.64581">
        <ele>64</ele>
        <time>2021-08-23T15:19:47.000Z</time>
      </trkpt>
      <trkpt lat="47.13884" lon="-1.64591">
        <ele>64</ele>
        <time>2021-08-23T15:19:49.000Z</time>
      </trkpt>
      <trkpt lat="47.13868" lon="-1.64597">
        <ele>63</ele>
        <time>2021-08-23T15:19:51.000Z</time>
      </trkpt>
      <trkpt lat="47.13852" lon="-1.64601">
        <ele>63</ele>
        <time>2021-08-23T15:19:53.000Z</time>
      </trkpt>
      <trkpt lat="47.13837" lon="-1.64603">
        <ele>64</ele>
        <time>2021-08-23T15:19:55.000Z</time>
      </trkpt>
      <trkpt lat="47.13821" lon="-1.64603">
        <ele>65</ele>
        <time>2021-08-23T15:19:57.000Z</time>
      </trkpt>
      <trkpt lat="47.13806" lon="-1.64602">
        <ele>65</ele>
        <time>2021-08-23T15:19:59.000Z</time>
      </trkpt>
      <trkpt lat="47.13792" lon="-1.646">
        <ele>66</ele>
        <time>2021-08-23T15:20:01.000Z</time>
      </trkpt>
      <trkpt lat="47.13778" lon="-1.64598">
        <ele>66</ele>
        <time>2021-08-23T15:20:03.000Z</time>
      </trkpt>
      <trkpt lat="47.13764" lon="-1.64595">
        <ele>67</ele>
        <time>2021-08-23T15:20:05.000Z</time>
      </trkpt>
      <trkpt lat="47.1375" lon="-1.64592">
        <ele>67</ele>
        <time>2021-08-23T15:20:07.000Z</time>
      </trkpt>
      <trkpt lat="47.13735" lon="-1.64589">
        <ele>67</ele>
        <time>2021-08-23T15:20:09.000Z</time>
      </trkpt>
      <trkpt lat="47.13721" lon="-1.64585">
        <ele>67</ele>
        <time>2021-08-23T15:20:11.000Z</time>
      </trkpt>
      <trkpt lat="47.13708" lon="-1.64581">
        <ele>67</ele>
        <time>2021-08-23T15:20:13.000Z</time>
      </trkpt>
      <trkpt lat="47.13695" lon="-1.64579">
        <ele>68</ele>
        <time>2021-08-23T15:20:15.000Z</time>
      </trkpt>
      <trkpt lat="47.13683" lon="-1.64576">
        <ele>69</ele>
        <time>2021-08-23T15:20:17.000Z</time>
      </trkpt>
      <trkpt lat="47.13669" lon="-1.64573">
        <ele>69</ele>
        <time>2021-08-23T15:20:19.000Z</time>
      </trkpt>
      <trkpt lat="47.13657" lon="-1.6457">
        <ele>69</ele>
        <time>2021-08-23T15:20:21.000Z</time>
      </trkpt>
      <trkpt lat="47.13643" lon="-1.64567">
        <ele>69</ele>
        <time>2021-08-23T15:20:23.000Z</time>
      </trkpt>
      <trkpt lat="47.1363" lon="-1.64564">
        <ele>70</ele>
        <time>2021-08-23T15:20:25.000Z</time>
      </trkpt>
      <trkpt lat="47.13618" lon="-1.64561">
        <ele>70</ele>
        <time>2021-08-23T15:20:27.000Z</time>
      </trkpt>
      <trkpt lat="47.13606" lon="-1.64559">
        <ele>71</ele>
        <time>2021-08-23T15:20:29.000Z</time>
      </trkpt>
      <trkpt lat="47.13594" lon="-1.64559">
        <ele>71</ele>
        <time>2021-08-23T15:20:31.000Z</time>
      </trkpt>
      <trkpt lat="47.13581" lon="-1.64562">
        <ele>71</ele>
        <time>2021-08-23T15:20:33.000Z</time>
      </trkpt>
      <trkpt lat="47.1357" lon="-1.64568">
        <ele>71</ele>
        <time>2021-08-23T15:20:35.000Z</time>
      </trkpt>
      <trkpt lat="47.13558" lon="-1.64576">
        <ele>71</ele>
        <time>2021-08-23T15:20:37.000Z</time>
      </trkpt>
      <trkpt lat="47.13547" lon="-1.64586">
        <ele>70</ele>
        <time>2021-08-23T15:20:39.000Z</time>
      </trkpt>
      <trkpt lat="47.13537" lon="-1.64596">
        <ele>70</ele>
        <time>2021-08-23T15:20:41.000Z</time>
      </trkpt>
      <trkpt lat="47.13526" lon="-1.64607">
        <ele>70</ele>
        <time>2021-08-23T15:20:43.000Z</time>
      </trkpt>
      <trkpt lat="47.13516" lon="-1.64618">
        <ele>69</ele>
        <time>2021-08-23T15:20:45.000Z</time>
      </trkpt>
      <trkpt lat="47.13505" lon="-1.64629">
        <ele>69</ele>
        <time>2021-08-23T15:20:47.000Z</time>
      </trkpt>
      <trkpt lat="47.13495" lon="-1.64638">
        <ele>69</ele>
        <time>2021-08-23T15:20:49.000Z</time>
      </trkpt>
      <trkpt lat="47.13482" lon="-1.64644">
        <ele>70</ele>
        <time>2021-08-23T15:20:51.000Z</time>
      </trkpt>
      <trkpt lat="47.1347" lon="-1.64647">
        <ele>69</ele>
        <time>2021-08-23T15:20:53.000Z</time>
      </trkpt>
      <trkpt lat="47.13457" lon="-1.64647">
        <ele>70</ele>
        <time>2021-08-23T15:20:55.000Z</time>
      </trkpt>
      <trkpt lat="47.13444" lon="-1.64645">
        <ele>70</ele>
        <time>2021-08-23T15:20:57.000Z</time>
      </trkpt>
      <trkpt lat="47.13432" lon="-1.64644">
        <ele>70</ele>
        <time>2021-08-23T15:20:59.000Z</time>
      </trkpt>
      <trkpt lat="47.13421" lon="-1.64643">
        <ele>70</ele>
        <time>2021-08-23T15:21:01.000Z</time>
      </trkpt>
      <trkpt lat="47.1341" lon="-1.64642">
        <ele>70</ele>
        <time>2021-08-23T15:21:03.000Z</time>
      </trkpt>
      <trkpt lat="47.134" lon="-1.64636">
        <ele>71</ele>
        <time>2021-08-23T15:21:06.000Z</time>
      </trkpt>
      <trkpt lat="47.13396" lon="-1.64619">
        <ele>71</ele>
        <time>2021-08-23T15:21:08.000Z</time>
      </trkpt>
      <trkpt lat="47.13393" lon="-1.646">
        <ele>71</ele>
        <time>2021-08-23T15:21:10.000Z</time>
      </trkpt>
      <trkpt lat="47.1339" lon="-1.64582">
        <ele>70</ele>
        <time>2021-08-23T15:21:12.000Z</time>
      </trkpt>
      <trkpt lat="47.13386" lon="-1.64564">
        <ele>71</ele>
        <time>2021-08-23T15:21:14.000Z</time>
      </trkpt>
      <trkpt lat="47.13382" lon="-1.64546">
        <ele>71</ele>
        <time>2021-08-23T15:21:16.000Z</time>
      </trkpt>
      <trkpt lat="47.13376" lon="-1.64528">
        <ele>71</ele>
        <time>2021-08-23T15:21:18.000Z</time>
      </trkpt>
      <trkpt lat="47.13371" lon="-1.64509">
        <ele>70</ele>
        <time>2021-08-23T15:21:20.000Z</time>
      </trkpt>
      <trkpt lat="47.13364" lon="-1.64491">
        <ele>70</ele>
        <time>2021-08-23T15:21:22.000Z</time>
      </trkpt>
      <trkpt lat="47.13356" lon="-1.64474">
        <ele>70</ele>
        <time>2021-08-23T15:21:24.000Z</time>
      </trkpt>
      <trkpt lat="47.13348" lon="-1.64456">
        <ele>70</ele>
        <time>2021-08-23T15:21:26.000Z</time>
      </trkpt>
      <trkpt lat="47.13339" lon="-1.64438">
        <ele>69</ele>
        <time>2021-08-23T15:21:28.000Z</time>
      </trkpt>
      <trkpt lat="47.1333" lon="-1.64419">
        <ele>68</ele>
        <time>2021-08-23T15:21:30.000Z</time>
      </trkpt>
      <trkpt lat="47.13321" lon="-1.64401">
        <ele>68</ele>
        <time>2021-08-23T15:21:32.000Z</time>
      </trkpt>
      <trkpt lat="47.13312" lon="-1.64381">
        <ele>67</ele>
        <time>2021-08-23T15:21:34.000Z</time>
      </trkpt>
      <trkpt lat="47.13303" lon="-1.64362">
        <ele>66</ele>
        <time>2021-08-23T15:21:36.000Z</time>
      </trkpt>
      <trkpt lat="47.13293" lon="-1.64343">
        <ele>66</ele>
        <time>2021-08-23T15:21:38.000Z</time>
      </trkpt>
      <trkpt lat="47.13284" lon="-1.64324">
        <ele>66</ele>
        <time>2021-08-23T15:21:40.000Z</time>
      </trkpt>
      <trkpt lat="47.13274" lon="-1.64305">
        <ele>66</ele>
        <time>2021-08-23T15:21:42.000Z</time>
      </trkpt>
      <trkpt lat="47.13266" lon="-1.64286">
        <ele>65</ele>
        <time>2021-08-23T15:21:44.000Z</time>
      </trkpt>
      <trkpt lat="47.13257" lon="-1.64267">
        <ele>65</ele>
        <time>2021-08-23T15:21:46.000Z</time>
      </trkpt>
      <trkpt lat="47.13248" lon="-1.64247">
        <ele>65</ele>
        <time>2021-08-23T15:21:48.000Z</time>
      </trkpt>
      <trkpt lat="47.1324" lon="-1.64227">
        <ele>65</ele>
        <time>2021-08-23T15:21:50.000Z</time>
      </trkpt>
      <trkpt lat="47.1323" lon="-1.64208">
        <ele>65</ele>
        <time>2021-08-23T15:21:52.000Z</time>
      </trkpt>
      <trkpt lat="47.1322" lon="-1.6419">
        <ele>65</ele>
        <time>2021-08-23T15:21:54.000Z</time>
      </trkpt>
      <trkpt lat="47.13212" lon="-1.6417">
        <ele>65</ele>
        <time>2021-08-23T15:21:56.000Z</time>
      </trkpt>
      <trkpt lat="47.13204" lon="-1.64151">
        <ele>65</ele>
        <time>2021-08-23T15:21:58.000Z</time>
      </trkpt>
      <trkpt lat="47.13195" lon="-1.64132">
        <ele>65</ele>
        <time>2021-08-23T15:22:00.000Z</time>
      </trkpt>
      <trkpt lat="47.13186" lon="-1.64113">
        <ele>64</ele>
        <time>2021-08-23T15:22:02.000Z</time>
      </trkpt>
      <trkpt lat="47.13178" lon="-1.64094">
        <ele>64</ele>
        <time>2021-08-23T15:22:04.000Z</time>
      </trkpt>
      <trkpt lat="47.1317" lon="-1.64075">
        <ele>63</ele>
        <time>2021-08-23T15:22:06.000Z</time>
      </trkpt>
      <trkpt lat="47.13161" lon="-1.64056">
        <ele>63</ele>
        <time>2021-08-23T15:22:08.000Z</time>
      </trkpt>
      <trkpt lat="47.13154" lon="-1.64036">
        <ele>63</ele>
        <time>2021-08-23T15:22:10.000Z</time>
      </trkpt>
      <trkpt lat="47.13146" lon="-1.64016">
        <ele>63</ele>
        <time>2021-08-23T15:22:12.000Z</time>
      </trkpt>
      <trkpt lat="47.13138" lon="-1.63996">
        <ele>62</ele>
        <time>2021-08-23T15:22:14.000Z</time>
      </trkpt>
      <trkpt lat="47.13131" lon="-1.63976">
        <ele>62</ele>
        <time>2021-08-23T15:22:16.000Z</time>
      </trkpt>
      <trkpt lat="47.13123" lon="-1.63956">
        <ele>62</ele>
        <time>2021-08-23T15:22:18.000Z</time>
      </trkpt>
      <trkpt lat="47.13115" lon="-1.63936">
        <ele>61</ele>
        <time>2021-08-23T15:22:20.000Z</time>
      </trkpt>
      <trkpt lat="47.13108" lon="-1.63916">
        <ele>61</ele>
        <time>2021-08-23T15:22:22.000Z</time>
      </trkpt>
      <trkpt lat="47.13101" lon="-1.63897">
        <ele>61</ele>
        <time>2021-08-23T15:22:24.000Z</time>
      </trkpt>
      <trkpt lat="47.13094" lon="-1.63877">
        <ele>61</ele>
        <time>2021-08-23T15:22:26.000Z</time>
      </trkpt>
      <trkpt lat="47.13086" lon="-1.63857">
        <ele>61</ele>
        <time>2021-08-23T15:22:28.000Z</time>
      </trkpt>
      <trkpt lat="47.13078" lon="-1.63838">
        <ele>61</ele>
        <time>2021-08-23T15:22:30.000Z</time>
      </trkpt>
      <trkpt lat="47.1307" lon="-1.63818">
        <ele>60</ele>
        <time>2021-08-23T15:22:32.000Z</time>
      </trkpt>
      <trkpt lat="47.13062" lon="-1.63799">
        <ele>60</ele>
        <time>2021-08-23T15:22:34.000Z</time>
      </trkpt>
      <trkpt lat="47.13053" lon="-1.6378">
        <ele>60</ele>
        <time>2021-08-23T15:22:36.000Z</time>
      </trkpt>
      <trkpt lat="47.13044" lon="-1.63761">
        <ele>60</ele>
        <time>2021-08-23T15:22:38.000Z</time>
      </trkpt>
      <trkpt lat="47.13035" lon="-1.63743">
        <ele>60</ele>
        <time>2021-08-23T15:22:40.000Z</time>
      </trkpt>
      <trkpt lat="47.13026" lon="-1.63725">
        <ele>60</ele>
        <time>2021-08-23T15:22:42.000Z</time>
      </trkpt>
      <trkpt lat="47.13018" lon="-1.63706">
        <ele>60</ele>
        <time>2021-08-23T15:22:44.000Z</time>
      </trkpt>
      <trkpt lat="47.13009" lon="-1.63688">
        <ele>61</ele>
        <time>2021-08-23T15:22:46.000Z</time>
      </trkpt>
      <trkpt lat="47.12999" lon="-1.6367">
        <ele>60</ele>
        <time>2021-08-23T15:22:48.000Z</time>
      </trkpt>
      <trkpt lat="47.12991" lon="-1.6365">
        <ele>59</ele>
        <time>2021-08-23T15:22:50.000Z</time>
      </trkpt>
      <trkpt lat="47.12985" lon="-1.6363">
        <ele>59</ele>
        <time>2021-08-23T15:22:52.000Z</time>
      </trkpt>
      <trkpt lat="47.12979" lon="-1.6361">
        <ele>58</ele>
        <time>2021-08-23T15:22:54.000Z</time>
      </trkpt>
      <trkpt lat="47.12971" lon="-1.63591">
        <ele>58</ele>
        <time>2021-08-23T15:22:56.000Z</time>
      </trkpt>
      <trkpt lat="47.12963" lon="-1.63572">
        <ele>58</ele>
        <time>2021-08-23T15:22:58.000Z</time>
      </trkpt>
      <trkpt lat="47.12955" lon="-1.63553">
        <ele>58</ele>
        <time>2021-08-23T15:23:00.000Z</time>
      </trkpt>
      <trkpt lat="47.12947" lon="-1.63534">
        <ele>58</ele>
        <time>2021-08-23T15:23:02.000Z</time>
      </trkpt>
      <trkpt lat="47.1294" lon="-1.63515">
        <ele>58</ele>
        <time>2021-08-23T15:23:04.000Z</time>
      </trkpt>
      <trkpt lat="47.12933" lon="-1.63495">
        <ele>58</ele>
        <time>2021-08-23T15:23:06.000Z</time>
      </trkpt>
      <trkpt lat="47.12926" lon="-1.63476">
        <ele>57</ele>
        <time>2021-08-23T15:23:08.000Z</time>
      </trkpt>
      <trkpt lat="47.12918" lon="-1.63456">
        <ele>57</ele>
        <time>2021-08-23T15:23:10.000Z</time>
      </trkpt>
      <trkpt lat="47.12911" lon="-1.63436">
        <ele>57</ele>
        <time>2021-08-23T15:23:12.000Z</time>
      </trkpt>
      <trkpt lat="47.12904" lon="-1.63417">
        <ele>57</ele>
        <time>2021-08-23T15:23:14.000Z</time>
      </trkpt>
      <trkpt lat="47.12896" lon="-1.63398">
        <ele>57</ele>
        <time>2021-08-23T15:23:16.000Z</time>
      </trkpt>
      <trkpt lat="47.12888" lon="-1.63378">
        <ele>57</ele>
        <time>2021-08-23T15:23:18.000Z</time>
      </trkpt>
      <trkpt lat="47.1288" lon="-1.63359">
        <ele>56</ele>
        <time>2021-08-23T15:23:20.000Z</time>
      </trkpt>
      <trkpt lat="47.12873" lon="-1.63339">
        <ele>57</ele>
        <time>2021-08-23T15:23:22.000Z</time>
      </trkpt>
      <trkpt lat="47.12865" lon="-1.6332">
        <ele>56</ele>
        <time>2021-08-23T15:23:24.000Z</time>
      </trkpt>
      <trkpt lat="47.12859" lon="-1.63301">
        <ele>56</ele>
        <time>2021-08-23T15:23:26.000Z</time>
      </trkpt>
      <trkpt lat="47.12851" lon="-1.63283">
        <ele>56</ele>
        <time>2021-08-23T15:23:28.000Z</time>
      </trkpt>
      <trkpt lat="47.12844" lon="-1.63264">
        <ele>56</ele>
        <time>2021-08-23T15:23:30.000Z</time>
      </trkpt>
      <trkpt lat="47.12837" lon="-1.63246">
        <ele>57</ele>
        <time>2021-08-23T15:23:32.000Z</time>
      </trkpt>
      <trkpt lat="47.1283" lon="-1.63227">
        <ele>58</ele>
        <time>2021-08-23T15:23:34.000Z</time>
      </trkpt>
      <trkpt lat="47.12824" lon="-1.63209">
        <ele>58</ele>
        <time>2021-08-23T15:23:36.000Z</time>
      </trkpt>
      <trkpt lat="47.12817" lon="-1.63192">
        <ele>59</ele>
        <time>2021-08-23T15:23:38.000Z</time>
      </trkpt>
      <trkpt lat="47.1281" lon="-1.63174">
        <ele>58</ele>
        <time>2021-08-23T15:23:40.000Z</time>
      </trkpt>
      <trkpt lat="47.12803" lon="-1.63157">
        <ele>59</ele>
        <time>2021-08-23T15:23:42.000Z</time>
      </trkpt>
      <trkpt lat="47.12796" lon="-1.63139">
        <ele>59</ele>
        <time>2021-08-23T15:23:44.000Z</time>
      </trkpt>
      <trkpt lat="47.1279" lon="-1.63122">
        <ele>59</ele>
        <time>2021-08-23T15:23:46.000Z</time>
      </trkpt>
      <trkpt lat="47.12782" lon="-1.63104">
        <ele>59</ele>
        <time>2021-08-23T15:23:48.000Z</time>
      </trkpt>
      <trkpt lat="47.12775" lon="-1.63086">
        <ele>58</ele>
        <time>2021-08-23T15:23:50.000Z</time>
      </trkpt>
      <trkpt lat="47.12768" lon="-1.63068">
        <ele>58</ele>
        <time>2021-08-23T15:23:52.000Z</time>
      </trkpt>
      <trkpt lat="47.12761" lon="-1.63051">
        <ele>58</ele>
        <time>2021-08-23T15:23:54.000Z</time>
      </trkpt>
      <trkpt lat="47.12755" lon="-1.63034">
        <ele>59</ele>
        <time>2021-08-23T15:23:56.000Z</time>
      </trkpt>
      <trkpt lat="47.12748" lon="-1.63017">
        <ele>59</ele>
        <time>2021-08-23T15:23:58.000Z</time>
      </trkpt>
      <trkpt lat="47.12741" lon="-1.62999">
        <ele>59</ele>
        <time>2021-08-23T15:24:00.000Z</time>
      </trkpt>
      <trkpt lat="47.12735" lon="-1.62981">
        <ele>59</ele>
        <time>2021-08-23T15:24:02.000Z</time>
      </trkpt>
      <trkpt lat="47.12728" lon="-1.62964">
        <ele>60</ele>
        <time>2021-08-23T15:24:04.000Z</time>
      </trkpt>
      <trkpt lat="47.12721" lon="-1.62947">
        <ele>60</ele>
        <time>2021-08-23T15:24:06.000Z</time>
      </trkpt>
      <trkpt lat="47.12714" lon="-1.6293">
        <ele>60</ele>
        <time>2021-08-23T15:24:08.000Z</time>
      </trkpt>
      <trkpt lat="47.12707" lon="-1.62913">
        <ele>59</ele>
        <time>2021-08-23T15:24:10.000Z</time>
      </trkpt>
      <trkpt lat="47.127" lon="-1.62896">
        <ele>59</ele>
        <time>2021-08-23T15:24:12.000Z</time>
      </trkpt>
      <trkpt lat="47.12694" lon="-1.62879">
        <ele>59</ele>
        <time>2021-08-23T15:24:14.000Z</time>
      </trkpt>
      <trkpt lat="47.12688" lon="-1.62863">
        <ele>60</ele>
        <time>2021-08-23T15:24:16.000Z</time>
      </trkpt>
      <trkpt lat="47.12681" lon="-1.62846">
        <ele>60</ele>
        <time>2021-08-23T15:24:18.000Z</time>
      </trkpt>
      <trkpt lat="47.12674" lon="-1.62831">
        <ele>60</ele>
        <time>2021-08-23T15:24:20.000Z</time>
      </trkpt>
      <trkpt lat="47.12664" lon="-1.62818">
        <ele>60</ele>
        <time>2021-08-23T15:24:22.000Z</time>
      </trkpt>
      <trkpt lat="47.12658" lon="-1.628">
        <ele>60</ele>
        <time>2021-08-23T15:24:24.000Z</time>
      </trkpt>
      <trkpt lat="47.12654" lon="-1.62782">
        <ele>60</ele>
        <time>2021-08-23T15:24:26.000Z</time>
      </trkpt>
      <trkpt lat="47.12647" lon="-1.62765">
        <ele>60</ele>
        <time>2021-08-23T15:24:28.000Z</time>
      </trkpt>
      <trkpt lat="47.12639" lon="-1.6275">
        <ele>60</ele>
        <time>2021-08-23T15:24:30.000Z</time>
      </trkpt>
      <trkpt lat="47.1263" lon="-1.62733">
        <ele>60</ele>
        <time>2021-08-23T15:24:32.000Z</time>
      </trkpt>
      <trkpt lat="47.12622" lon="-1.62717">
        <ele>60</ele>
        <time>2021-08-23T15:24:34.000Z</time>
      </trkpt>
      <trkpt lat="47.12613" lon="-1.627">
        <ele>59</ele>
        <time>2021-08-23T15:24:36.000Z</time>
      </trkpt>
      <trkpt lat="47.12605" lon="-1.62684">
        <ele>59</ele>
        <time>2021-08-23T15:24:38.000Z</time>
      </trkpt>
      <trkpt lat="47.12597" lon="-1.62667">
        <ele>59</ele>
        <time>2021-08-23T15:24:40.000Z</time>
      </trkpt>
      <trkpt lat="47.12589" lon="-1.62651">
        <ele>58</ele>
        <time>2021-08-23T15:24:42.000Z</time>
      </trkpt>
      <trkpt lat="47.12582" lon="-1.62633">
        <ele>58</ele>
        <time>2021-08-23T15:24:44.000Z</time>
      </trkpt>
      <trkpt lat="47.12576" lon="-1.62614">
        <ele>58</ele>
        <time>2021-08-23T15:24:46.000Z</time>
      </trkpt>
      <trkpt lat="47.12571" lon="-1.62595">
        <ele>58</ele>
        <time>2021-08-23T15:24:48.000Z</time>
      </trkpt>
      <trkpt lat="47.12567" lon="-1.62576">
        <ele>58</ele>
        <time>2021-08-23T15:24:50.000Z</time>
      </trkpt>
      <trkpt lat="47.12563" lon="-1.62556">
        <ele>58</ele>
        <time>2021-08-23T15:24:52.000Z</time>
      </trkpt>
      <trkpt lat="47.1256" lon="-1.62536">
        <ele>58</ele>
        <time>2021-08-23T15:24:54.000Z</time>
      </trkpt>
      <trkpt lat="47.12556" lon="-1.62515">
        <ele>57</ele>
        <time>2021-08-23T15:24:56.000Z</time>
      </trkpt>
      <trkpt lat="47.12552" lon="-1.62494">
        <ele>57</ele>
        <time>2021-08-23T15:24:58.000Z</time>
      </trkpt>
      <trkpt lat="47.12548" lon="-1.62473">
        <ele>57</ele>
        <time>2021-08-23T15:25:00.000Z</time>
      </trkpt>
      <trkpt lat="47.12543" lon="-1.62454">
        <ele>58</ele>
        <time>2021-08-23T15:25:02.000Z</time>
      </trkpt>
      <trkpt lat="47.12538" lon="-1.62435">
        <ele>58</ele>
        <time>2021-08-23T15:25:04.000Z</time>
      </trkpt>
      <trkpt lat="47.12532" lon="-1.62416">
        <ele>59</ele>
        <time>2021-08-23T15:25:06.000Z</time>
      </trkpt>
      <trkpt lat="47.12526" lon="-1.62398">
        <ele>59</ele>
        <time>2021-08-23T15:25:08.000Z</time>
      </trkpt>
      <trkpt lat="47.12518" lon="-1.62379">
        <ele>59</ele>
        <time>2021-08-23T15:25:10.000Z</time>
      </trkpt>
      <trkpt lat="47.12511" lon="-1.62361">
        <ele>58</ele>
        <time>2021-08-23T15:25:12.000Z</time>
      </trkpt>
      <trkpt lat="47.12503" lon="-1.62344">
        <ele>59</ele>
        <time>2021-08-23T15:25:14.000Z</time>
      </trkpt>
      <trkpt lat="47.12494" lon="-1.62328">
        <ele>58</ele>
        <time>2021-08-23T15:25:16.000Z</time>
      </trkpt>
      <trkpt lat="47.12485" lon="-1.62313">
        <ele>58</ele>
        <time>2021-08-23T15:25:18.000Z</time>
      </trkpt>
      <trkpt lat="47.12475" lon="-1.62298">
        <ele>58</ele>
        <time>2021-08-23T15:25:20.000Z</time>
      </trkpt>
      <trkpt lat="47.12466" lon="-1.62283">
        <ele>58</ele>
        <time>2021-08-23T15:25:22.000Z</time>
      </trkpt>
      <trkpt lat="47.12457" lon="-1.62268">
        <ele>58</ele>
        <time>2021-08-23T15:25:24.000Z</time>
      </trkpt>
      <trkpt lat="47.12447" lon="-1.62254">
        <ele>58</ele>
        <time>2021-08-23T15:25:26.000Z</time>
      </trkpt>
      <trkpt lat="47.12437" lon="-1.62239">
        <ele>58</ele>
        <time>2021-08-23T15:25:28.000Z</time>
      </trkpt>
      <trkpt lat="47.12427" lon="-1.62224">
        <ele>58</ele>
        <time>2021-08-23T15:25:30.000Z</time>
      </trkpt>
      <trkpt lat="47.12417" lon="-1.62208">
        <ele>57</ele>
        <time>2021-08-23T15:25:32.000Z</time>
      </trkpt>
      <trkpt lat="47.12409" lon="-1.62192">
        <ele>57</ele>
        <time>2021-08-23T15:25:34.000Z</time>
      </trkpt>
      <trkpt lat="47.12401" lon="-1.62174">
        <ele>57</ele>
        <time>2021-08-23T15:25:36.000Z</time>
      </trkpt>
      <trkpt lat="47.12394" lon="-1.62155">
        <ele>57</ele>
        <time>2021-08-23T15:25:38.000Z</time>
      </trkpt>
      <trkpt lat="47.12388" lon="-1.62135">
        <ele>57</ele>
        <time>2021-08-23T15:25:40.000Z</time>
      </trkpt>
      <trkpt lat="47.12385" lon="-1.62115">
        <ele>57</ele>
        <time>2021-08-23T15:25:42.000Z</time>
      </trkpt>
      <trkpt lat="47.12382" lon="-1.62094">
        <ele>57</ele>
        <time>2021-08-23T15:25:44.000Z</time>
      </trkpt>
      <trkpt lat="47.12381" lon="-1.62074">
        <ele>58</ele>
        <time>2021-08-23T15:25:46.000Z</time>
      </trkpt>
      <trkpt lat="47.12381" lon="-1.62054">
        <ele>58</ele>
        <time>2021-08-23T15:25:48.000Z</time>
      </trkpt>
      <trkpt lat="47.12383" lon="-1.62033">
        <ele>58</ele>
        <time>2021-08-23T15:25:50.000Z</time>
      </trkpt>
      <trkpt lat="47.12386" lon="-1.62013">
        <ele>58</ele>
        <time>2021-08-23T15:25:52.000Z</time>
      </trkpt>
      <trkpt lat="47.1239" lon="-1.61993">
        <ele>58</ele>
        <time>2021-08-23T15:25:54.000Z</time>
      </trkpt>
      <trkpt lat="47.12395" lon="-1.61974">
        <ele>58</ele>
        <time>2021-08-23T15:25:56.000Z</time>
      </trkpt>
      <trkpt lat="47.124" lon="-1.61955">
        <ele>58</ele>
        <time>2021-08-23T15:25:58.000Z</time>
      </trkpt>
      <trkpt lat="47.12405" lon="-1.61937">
        <ele>59</ele>
        <time>2021-08-23T15:26:00.000Z</time>
      </trkpt>
      <trkpt lat="47.1241" lon="-1.61918">
        <ele>59</ele>
        <time>2021-08-23T15:26:02.000Z</time>
      </trkpt>
      <trkpt lat="47.12415" lon="-1.619">
        <ele>59</ele>
        <time>2021-08-23T15:26:04.000Z</time>
      </trkpt>
      <trkpt lat="47.12419" lon="-1.61881">
        <ele>59</ele>
        <time>2021-08-23T15:26:06.000Z</time>
      </trkpt>
      <trkpt lat="47.12426" lon="-1.61865">
        <ele>58</ele>
        <time>2021-08-23T15:26:08.000Z</time>
      </trkpt>
      <trkpt lat="47.12431" lon="-1.61847">
        <ele>59</ele>
        <time>2021-08-23T15:26:10.000Z</time>
      </trkpt>
      <trkpt lat="47.12435" lon="-1.61828">
        <ele>59</ele>
        <time>2021-08-23T15:26:12.000Z</time>
      </trkpt>
      <trkpt lat="47.12438" lon="-1.61809">
        <ele>59</ele>
        <time>2021-08-23T15:26:14.000Z</time>
      </trkpt>
      <trkpt lat="47.12443" lon="-1.61792">
        <ele>59</ele>
        <time>2021-08-23T15:26:16.000Z</time>
      </trkpt>
      <trkpt lat="47.12448" lon="-1.61774">
        <ele>59</ele>
        <time>2021-08-23T15:26:18.000Z</time>
      </trkpt>
      <trkpt lat="47.12452" lon="-1.61756">
        <ele>59</ele>
        <time>2021-08-23T15:26:20.000Z</time>
      </trkpt>
      <trkpt lat="47.12457" lon="-1.61738">
        <ele>60</ele>
        <time>2021-08-23T15:26:22.000Z</time>
      </trkpt>
      <trkpt lat="47.12462" lon="-1.6172">
        <ele>60</ele>
        <time>2021-08-23T15:26:24.000Z</time>
      </trkpt>
      <trkpt lat="47.12466" lon="-1.61702">
        <ele>60</ele>
        <time>2021-08-23T15:26:26.000Z</time>
      </trkpt>
      <trkpt lat="47.1247" lon="-1.61683">
        <ele>60</ele>
        <time>2021-08-23T15:26:28.000Z</time>
      </trkpt>
      <trkpt lat="47.12473" lon="-1.61664">
        <ele>60</ele>
        <time>2021-08-23T15:26:30.000Z</time>
      </trkpt>
      <trkpt lat="47.12476" lon="-1.61645">
        <ele>60</ele>
        <time>2021-08-23T15:26:32.000Z</time>
      </trkpt>
      <trkpt lat="47.12477" lon="-1.61626">
        <ele>60</ele>
        <time>2021-08-23T15:26:34.000Z</time>
      </trkpt>
      <trkpt lat="47.12477" lon="-1.61606">
        <ele>60</ele>
        <time>2021-08-23T15:26:36.000Z</time>
      </trkpt>
      <trkpt lat="47.12475" lon="-1.61587">
        <ele>60</ele>
        <time>2021-08-23T15:26:38.000Z</time>
      </trkpt>
      <trkpt lat="47.12473" lon="-1.61568">
        <ele>60</ele>
        <time>2021-08-23T15:26:40.000Z</time>
      </trkpt>
      <trkpt lat="47.1247" lon="-1.61549">
        <ele>60</ele>
        <time>2021-08-23T15:26:42.000Z</time>
      </trkpt>
      <trkpt lat="47.12468" lon="-1.61529">
        <ele>60</ele>
        <time>2021-08-23T15:26:44.000Z</time>
      </trkpt>
      <trkpt lat="47.12466" lon="-1.6151">
        <ele>60</ele>
        <time>2021-08-23T15:26:46.000Z</time>
      </trkpt>
      <trkpt lat="47.12464" lon="-1.61491">
        <ele>60</ele>
        <time>2021-08-23T15:26:48.000Z</time>
      </trkpt>
      <trkpt lat="47.12462" lon="-1.61473">
        <ele>60</ele>
        <time>2021-08-23T15:26:50.000Z</time>
      </trkpt>
      <trkpt lat="47.1246" lon="-1.61454">
        <ele>60</ele>
        <time>2021-08-23T15:26:52.000Z</time>
      </trkpt>
      <trkpt lat="47.12458" lon="-1.61435">
        <ele>60</ele>
        <time>2021-08-23T15:26:54.000Z</time>
      </trkpt>
      <trkpt lat="47.12456" lon="-1.61417">
        <ele>60</ele>
        <time>2021-08-23T15:26:56.000Z</time>
      </trkpt>
      <trkpt lat="47.12455" lon="-1.61398">
        <ele>60</ele>
        <time>2021-08-23T15:26:58.000Z</time>
      </trkpt>
      <trkpt lat="47.12453" lon="-1.6138">
        <ele>61</ele>
        <time>2021-08-23T15:27:00.000Z</time>
      </trkpt>
      <trkpt lat="47.12455" lon="-1.6136">
        <ele>61</ele>
        <time>2021-08-23T15:27:02.000Z</time>
      </trkpt>
      <trkpt lat="47.12458" lon="-1.61341">
        <ele>61</ele>
        <time>2021-08-23T15:27:04.000Z</time>
      </trkpt>
      <trkpt lat="47.12465" lon="-1.61314">
        <ele>61</ele>
        <time>2021-08-23T15:27:07.000Z</time>
      </trkpt>
      <trkpt lat="47.12474" lon="-1.61287">
        <ele>61</ele>
        <time>2021-08-23T15:27:10.000Z</time>
      </trkpt>
      <trkpt lat="47.12483" lon="-1.6126">
        <ele>62</ele>
        <time>2021-08-23T15:27:13.000Z</time>
      </trkpt>
      <trkpt lat="47.12488" lon="-1.61243">
        <ele>62</ele>
        <time>2021-08-23T15:27:15.000Z</time>
      </trkpt>
      <trkpt lat="47.12493" lon="-1.61225">
        <ele>62</ele>
        <time>2021-08-23T15:27:17.000Z</time>
      </trkpt>
      <trkpt lat="47.12496" lon="-1.61206">
        <ele>62</ele>
        <time>2021-08-23T15:27:19.000Z</time>
      </trkpt>
      <trkpt lat="47.12499" lon="-1.61187">
        <ele>62</ele>
        <time>2021-08-23T15:27:21.000Z</time>
      </trkpt>
      <trkpt lat="47.12503" lon="-1.61157">
        <ele>62</ele>
        <time>2021-08-23T15:27:24.000Z</time>
      </trkpt>
      <trkpt lat="47.12505" lon="-1.61137">
        <ele>61</ele>
        <time>2021-08-23T15:27:26.000Z</time>
      </trkpt>
      <trkpt lat="47.12506" lon="-1.61117">
        <ele>61</ele>
        <time>2021-08-23T15:27:28.000Z</time>
      </trkpt>
      <trkpt lat="47.12508" lon="-1.61098">
        <ele>61</ele>
        <time>2021-08-23T15:27:30.000Z</time>
      </trkpt>
      <trkpt lat="47.1251" lon="-1.61078">
        <ele>61</ele>
        <time>2021-08-23T15:27:32.000Z</time>
      </trkpt>
      <trkpt lat="47.12512" lon="-1.61058">
        <ele>61</ele>
        <time>2021-08-23T15:27:34.000Z</time>
      </trkpt>
      <trkpt lat="47.12513" lon="-1.61039">
        <ele>61</ele>
        <time>2021-08-23T15:27:36.000Z</time>
      </trkpt>
      <trkpt lat="47.12515" lon="-1.61019">
        <ele>61</ele>
        <time>2021-08-23T15:27:38.000Z</time>
      </trkpt>
      <trkpt lat="47.12517" lon="-1.60999">
        <ele>61</ele>
        <time>2021-08-23T15:27:40.000Z</time>
      </trkpt>
      <trkpt lat="47.12519" lon="-1.60979">
        <ele>61</ele>
        <time>2021-08-23T15:27:42.000Z</time>
      </trkpt>
      <trkpt lat="47.12521" lon="-1.60959">
        <ele>61</ele>
        <time>2021-08-23T15:27:44.000Z</time>
      </trkpt>
      <trkpt lat="47.12522" lon="-1.60939">
        <ele>61</ele>
        <time>2021-08-23T15:27:46.000Z</time>
      </trkpt>
      <trkpt lat="47.12524" lon="-1.6092">
        <ele>61</ele>
        <time>2021-08-23T15:27:48.000Z</time>
      </trkpt>
      <trkpt lat="47.12526" lon="-1.609">
        <ele>61</ele>
        <time>2021-08-23T15:27:50.000Z</time>
      </trkpt>
      <trkpt lat="47.12528" lon="-1.6088">
        <ele>61</ele>
        <time>2021-08-23T15:27:52.000Z</time>
      </trkpt>
      <trkpt lat="47.12529" lon="-1.6086">
        <ele>61</ele>
        <time>2021-08-23T15:27:54.000Z</time>
      </trkpt>
      <trkpt lat="47.12531" lon="-1.60841">
        <ele>61</ele>
        <time>2021-08-23T15:27:56.000Z</time>
      </trkpt>
      <trkpt lat="47.12533" lon="-1.60821">
        <ele>61</ele>
        <time>2021-08-23T15:27:58.000Z</time>
      </trkpt>
      <trkpt lat="47.12535" lon="-1.60803">
        <ele>61</ele>
        <time>2021-08-23T15:28:00.000Z</time>
      </trkpt>
      <trkpt lat="47.12537" lon="-1.60782">
        <ele>61</ele>
        <time>2021-08-23T15:28:02.000Z</time>
      </trkpt>
      <trkpt lat="47.12539" lon="-1.60762">
        <ele>61</ele>
        <time>2021-08-23T15:28:04.000Z</time>
      </trkpt>
      <trkpt lat="47.1254" lon="-1.60742">
        <ele>60</ele>
        <time>2021-08-23T15:28:06.000Z</time>
      </trkpt>
      <trkpt lat="47.12541" lon="-1.60722">
        <ele>60</ele>
        <time>2021-08-23T15:28:08.000Z</time>
      </trkpt>
      <trkpt lat="47.12541" lon="-1.60702">
        <ele>60</ele>
        <time>2021-08-23T15:28:10.000Z</time>
      </trkpt>
      <trkpt lat="47.12541" lon="-1.60682">
        <ele>60</ele>
        <time>2021-08-23T15:28:12.000Z</time>
      </trkpt>
      <trkpt lat="47.12541" lon="-1.60662">
        <ele>60</ele>
        <time>2021-08-23T15:28:14.000Z</time>
      </trkpt>
      <trkpt lat="47.1254" lon="-1.60642">
        <ele>60</ele>
        <time>2021-08-23T15:28:16.000Z</time>
      </trkpt>
      <trkpt lat="47.1254" lon="-1.60622">
        <ele>60</ele>
        <time>2021-08-23T15:28:18.000Z</time>
      </trkpt>
      <trkpt lat="47.1254" lon="-1.60603">
        <ele>60</ele>
        <time>2021-08-23T15:28:20.000Z</time>
      </trkpt>
      <trkpt lat="47.12539" lon="-1.60583">
        <ele>60</ele>
        <time>2021-08-23T15:28:22.000Z</time>
      </trkpt>
      <trkpt lat="47.12539" lon="-1.60564">
        <ele>60</ele>
        <time>2021-08-23T15:28:24.000Z</time>
      </trkpt>
      <trkpt lat="47.12538" lon="-1.60543">
        <ele>60</ele>
        <time>2021-08-23T15:28:26.000Z</time>
      </trkpt>
      <trkpt lat="47.12536" lon="-1.60523">
        <ele>60</ele>
        <time>2021-08-23T15:28:28.000Z</time>
      </trkpt>
      <trkpt lat="47.12535" lon="-1.60503">
        <ele>60</ele>
        <time>2021-08-23T15:28:30.000Z</time>
      </trkpt>
      <trkpt lat="47.12532" lon="-1.60483">
        <ele>60</ele>
        <time>2021-08-23T15:28:32.000Z</time>
      </trkpt>
      <trkpt lat="47.12529" lon="-1.60463">
        <ele>60</ele>
        <time>2021-08-23T15:28:34.000Z</time>
      </trkpt>
      <trkpt lat="47.12526" lon="-1.60444">
        <ele>59</ele>
        <time>2021-08-23T15:28:36.000Z</time>
      </trkpt>
      <trkpt lat="47.12523" lon="-1.60425">
        <ele>59</ele>
        <time>2021-08-23T15:28:38.000Z</time>
      </trkpt>
      <trkpt lat="47.12519" lon="-1.60405">
        <ele>59</ele>
        <time>2021-08-23T15:28:40.000Z</time>
      </trkpt>
      <trkpt lat="47.12515" lon="-1.60386">
        <ele>59</ele>
        <time>2021-08-23T15:28:42.000Z</time>
      </trkpt>
      <trkpt lat="47.12511" lon="-1.60367">
        <ele>58</ele>
        <time>2021-08-23T15:28:44.000Z</time>
      </trkpt>
      <trkpt lat="47.12507" lon="-1.60347">
        <ele>58</ele>
        <time>2021-08-23T15:28:46.000Z</time>
      </trkpt>
      <trkpt lat="47.12503" lon="-1.60327">
        <ele>58</ele>
        <time>2021-08-23T15:28:48.000Z</time>
      </trkpt>
      <trkpt lat="47.12499" lon="-1.60306">
        <ele>57</ele>
        <time>2021-08-23T15:28:50.000Z</time>
      </trkpt>
      <trkpt lat="47.12496" lon="-1.60287">
        <ele>57</ele>
        <time>2021-08-23T15:28:52.000Z</time>
      </trkpt>
      <trkpt lat="47.12492" lon="-1.60268">
        <ele>57</ele>
        <time>2021-08-23T15:28:54.000Z</time>
      </trkpt>
      <trkpt lat="47.12488" lon="-1.60249">
        <ele>57</ele>
        <time>2021-08-23T15:28:56.000Z</time>
      </trkpt>
      <trkpt lat="47.12485" lon="-1.6023">
        <ele>57</ele>
        <time>2021-08-23T15:28:58.000Z</time>
      </trkpt>
      <trkpt lat="47.12482" lon="-1.60212">
        <ele>58</ele>
        <time>2021-08-23T15:29:00.000Z</time>
      </trkpt>
      <trkpt lat="47.12479" lon="-1.60193">
        <ele>58</ele>
        <time>2021-08-23T15:29:02.000Z</time>
      </trkpt>
      <trkpt lat="47.12477" lon="-1.60174">
        <ele>58</ele>
        <time>2021-08-23T15:29:04.000Z</time>
      </trkpt>
      <trkpt lat="47.12476" lon="-1.60155">
        <ele>58</ele>
        <time>2021-08-23T15:29:06.000Z</time>
      </trkpt>
      <trkpt lat="47.12475" lon="-1.60134">
        <ele>58</ele>
        <time>2021-08-23T15:29:08.000Z</time>
      </trkpt>
      <trkpt lat="47.12474" lon="-1.60114">
        <ele>58</ele>
        <time>2021-08-23T15:29:10.000Z</time>
      </trkpt>
      <trkpt lat="47.12473" lon="-1.60094">
        <ele>58</ele>
        <time>2021-08-23T15:29:12.000Z</time>
      </trkpt>
      <trkpt lat="47.12472" lon="-1.60074">
        <ele>58</ele>
        <time>2021-08-23T15:29:14.000Z</time>
      </trkpt>
      <trkpt lat="47.12472" lon="-1.60054">
        <ele>58</ele>
        <time>2021-08-23T15:29:16.000Z</time>
      </trkpt>
      <trkpt lat="47.12471" lon="-1.60034">
        <ele>58</ele>
        <time>2021-08-23T15:29:18.000Z</time>
      </trkpt>
      <trkpt lat="47.1247" lon="-1.60014">
        <ele>58</ele>
        <time>2021-08-23T15:29:20.000Z</time>
      </trkpt>
      <trkpt lat="47.12469" lon="-1.59994">
        <ele>58</ele>
        <time>2021-08-23T15:29:22.000Z</time>
      </trkpt>
      <trkpt lat="47.12468" lon="-1.59974">
        <ele>58</ele>
        <time>2021-08-23T15:29:24.000Z</time>
      </trkpt>
      <trkpt lat="47.12467" lon="-1.59954">
        <ele>58</ele>
        <time>2021-08-23T15:29:26.000Z</time>
      </trkpt>
      <trkpt lat="47.12467" lon="-1.59933">
        <ele>59</ele>
        <time>2021-08-23T15:29:28.000Z</time>
      </trkpt>
      <trkpt lat="47.12466" lon="-1.59912">
        <ele>59</ele>
        <time>2021-08-23T15:29:30.000Z</time>
      </trkpt>
      <trkpt lat="47.12464" lon="-1.59891">
        <ele>60</ele>
        <time>2021-08-23T15:29:32.000Z</time>
      </trkpt>
      <trkpt lat="47.12463" lon="-1.59871">
        <ele>60</ele>
        <time>2021-08-23T15:29:34.000Z</time>
      </trkpt>
      <trkpt lat="47.12463" lon="-1.5985">
        <ele>60</ele>
        <time>2021-08-23T15:29:36.000Z</time>
      </trkpt>
      <trkpt lat="47.12461" lon="-1.59829">
        <ele>60</ele>
        <time>2021-08-23T15:29:38.000Z</time>
      </trkpt>
      <trkpt lat="47.1246" lon="-1.59808">
        <ele>60</ele>
        <time>2021-08-23T15:29:40.000Z</time>
      </trkpt>
      <trkpt lat="47.12459" lon="-1.59788">
        <ele>61</ele>
        <time>2021-08-23T15:29:42.000Z</time>
      </trkpt>
      <trkpt lat="47.12458" lon="-1.59767">
        <ele>60</ele>
        <time>2021-08-23T15:29:44.000Z</time>
      </trkpt>
      <trkpt lat="47.12457" lon="-1.59747">
        <ele>60</ele>
        <time>2021-08-23T15:29:46.000Z</time>
      </trkpt>
      <trkpt lat="47.12456" lon="-1.59727">
        <ele>60</ele>
        <time>2021-08-23T15:29:48.000Z</time>
      </trkpt>
      <trkpt lat="47.12455" lon="-1.59707">
        <ele>60</ele>
        <time>2021-08-23T15:29:50.000Z</time>
      </trkpt>
      <trkpt lat="47.12454" lon="-1.59687">
        <ele>60</ele>
        <time>2021-08-23T15:29:52.000Z</time>
      </trkpt>
      <trkpt lat="47.12453" lon="-1.59668">
        <ele>60</ele>
        <time>2021-08-23T15:29:54.000Z</time>
      </trkpt>
      <trkpt lat="47.12452" lon="-1.59648">
        <ele>60</ele>
        <time>2021-08-23T15:29:56.000Z</time>
      </trkpt>
      <trkpt lat="47.12451" lon="-1.59627">
        <ele>59</ele>
        <time>2021-08-23T15:29:58.000Z</time>
      </trkpt>
      <trkpt lat="47.1245" lon="-1.59607">
        <ele>59</ele>
        <time>2021-08-23T15:30:00.000Z</time>
      </trkpt>
      <trkpt lat="47.12449" lon="-1.59588">
        <ele>59</ele>
        <time>2021-08-23T15:30:02.000Z</time>
      </trkpt>
      <trkpt lat="47.12448" lon="-1.59567">
        <ele>59</ele>
        <time>2021-08-23T15:30:04.000Z</time>
      </trkpt>
      <trkpt lat="47.12447" lon="-1.59547">
        <ele>59</ele>
        <time>2021-08-23T15:30:06.000Z</time>
      </trkpt>
      <trkpt lat="47.12446" lon="-1.59526">
        <ele>59</ele>
        <time>2021-08-23T15:30:08.000Z</time>
      </trkpt>
      <trkpt lat="47.12445" lon="-1.59505">
        <ele>59</ele>
        <time>2021-08-23T15:30:10.000Z</time>
      </trkpt>
      <trkpt lat="47.12444" lon="-1.59484">
        <ele>59</ele>
        <time>2021-08-23T15:30:12.000Z</time>
      </trkpt>
      <trkpt lat="47.12443" lon="-1.59462">
        <ele>59</ele>
        <time>2021-08-23T15:30:14.000Z</time>
      </trkpt>
      <trkpt lat="47.12442" lon="-1.5944">
        <ele>59</ele>
        <time>2021-08-23T15:30:16.000Z</time>
      </trkpt>
      <trkpt lat="47.12441" lon="-1.59418">
        <ele>58</ele>
        <time>2021-08-23T15:30:18.000Z</time>
      </trkpt>
      <trkpt lat="47.1244" lon="-1.59396">
        <ele>58</ele>
        <time>2021-08-23T15:30:20.000Z</time>
      </trkpt>
      <trkpt lat="47.12439" lon="-1.59375">
        <ele>58</ele>
        <time>2021-08-23T15:30:22.000Z</time>
      </trkpt>
      <trkpt lat="47.12437" lon="-1.59353">
        <ele>57</ele>
        <time>2021-08-23T15:30:24.000Z</time>
      </trkpt>
      <trkpt lat="47.12436" lon="-1.59332">
        <ele>57</ele>
        <time>2021-08-23T15:30:26.000Z</time>
      </trkpt>
      <trkpt lat="47.12435" lon="-1.5931">
        <ele>57</ele>
        <time>2021-08-23T15:30:28.000Z</time>
      </trkpt>
      <trkpt lat="47.12434" lon="-1.59289">
        <ele>57</ele>
        <time>2021-08-23T15:30:30.000Z</time>
      </trkpt>
      <trkpt lat="47.12433" lon="-1.59269">
        <ele>57</ele>
        <time>2021-08-23T15:30:32.000Z</time>
      </trkpt>
      <trkpt lat="47.12432" lon="-1.59248">
        <ele>57</ele>
        <time>2021-08-23T15:30:34.000Z</time>
      </trkpt>
      <trkpt lat="47.1243" lon="-1.59228">
        <ele>57</ele>
        <time>2021-08-23T15:30:36.000Z</time>
      </trkpt>
      <trkpt lat="47.12427" lon="-1.59208">
        <ele>57</ele>
        <time>2021-08-23T15:30:38.000Z</time>
      </trkpt>
      <trkpt lat="47.12424" lon="-1.59188">
        <ele>57</ele>
        <time>2021-08-23T15:30:40.000Z</time>
      </trkpt>
      <trkpt lat="47.12426" lon="-1.59168">
        <ele>57</ele>
        <time>2021-08-23T15:30:42.000Z</time>
      </trkpt>
      <trkpt lat="47.12427" lon="-1.59147">
        <ele>56</ele>
        <time>2021-08-23T15:30:44.000Z</time>
      </trkpt>
      <trkpt lat="47.12428" lon="-1.59127">
        <ele>56</ele>
        <time>2021-08-23T15:30:46.000Z</time>
      </trkpt>
      <trkpt lat="47.12427" lon="-1.59106">
        <ele>56</ele>
        <time>2021-08-23T15:30:48.000Z</time>
      </trkpt>
      <trkpt lat="47.12426" lon="-1.59085">
        <ele>56</ele>
        <time>2021-08-23T15:30:50.000Z</time>
      </trkpt>
      <trkpt lat="47.12425" lon="-1.59066">
        <ele>56</ele>
        <time>2021-08-23T15:30:52.000Z</time>
      </trkpt>
      <trkpt lat="47.12424" lon="-1.59046">
        <ele>57</ele>
        <time>2021-08-23T15:30:54.000Z</time>
      </trkpt>
      <trkpt lat="47.12423" lon="-1.59026">
        <ele>57</ele>
        <time>2021-08-23T15:30:56.000Z</time>
      </trkpt>
      <trkpt lat="47.12422" lon="-1.59007">
        <ele>58</ele>
        <time>2021-08-23T15:30:58.000Z</time>
      </trkpt>
      <trkpt lat="47.12421" lon="-1.58989">
        <ele>58</ele>
        <time>2021-08-23T15:31:00.000Z</time>
      </trkpt>
      <trkpt lat="47.1242" lon="-1.58971">
        <ele>58</ele>
        <time>2021-08-23T15:31:02.000Z</time>
      </trkpt>
      <trkpt lat="47.12419" lon="-1.58953">
        <ele>59</ele>
        <time>2021-08-23T15:31:04.000Z</time>
      </trkpt>
      <trkpt lat="47.12418" lon="-1.58936">
        <ele>60</ele>
        <time>2021-08-23T15:31:06.000Z</time>
      </trkpt>
      <trkpt lat="47.12417" lon="-1.58918">
        <ele>60</ele>
        <time>2021-08-23T15:31:08.000Z</time>
      </trkpt>
      <trkpt lat="47.12416" lon="-1.58902">
        <ele>60</ele>
        <time>2021-08-23T15:31:10.000Z</time>
      </trkpt>
      <trkpt lat="47.12414" lon="-1.58885">
        <ele>61</ele>
        <time>2021-08-23T15:31:12.000Z</time>
      </trkpt>
      <trkpt lat="47.12412" lon="-1.58867">
        <ele>61</ele>
        <time>2021-08-23T15:31:14.000Z</time>
      </trkpt>
      <trkpt lat="47.1241" lon="-1.58849">
        <ele>61</ele>
        <time>2021-08-23T15:31:16.000Z</time>
      </trkpt>
      <trkpt lat="47.12409" lon="-1.58831">
        <ele>61</ele>
        <time>2021-08-23T15:31:18.000Z</time>
      </trkpt>
      <trkpt lat="47.12406" lon="-1.58813">
        <ele>61</ele>
        <time>2021-08-23T15:31:20.000Z</time>
      </trkpt>
      <trkpt lat="47.12403" lon="-1.58796">
        <ele>61</ele>
        <time>2021-08-23T15:31:22.000Z</time>
      </trkpt>
      <trkpt lat="47.124" lon="-1.58778">
        <ele>61</ele>
        <time>2021-08-23T15:31:24.000Z</time>
      </trkpt>
      <trkpt lat="47.12397" lon="-1.5876">
        <ele>61</ele>
        <time>2021-08-23T15:31:26.000Z</time>
      </trkpt>
      <trkpt lat="47.12394" lon="-1.58742">
        <ele>61</ele>
        <time>2021-08-23T15:31:28.000Z</time>
      </trkpt>
      <trkpt lat="47.1239" lon="-1.58724">
        <ele>61</ele>
        <time>2021-08-23T15:31:30.000Z</time>
      </trkpt>
      <trkpt lat="47.12386" lon="-1.58705">
        <ele>61</ele>
        <time>2021-08-23T15:31:32.000Z</time>
      </trkpt>
      <trkpt lat="47.12382" lon="-1.58686">
        <ele>61</ele>
        <time>2021-08-23T15:31:34.000Z</time>
      </trkpt>
      <trkpt lat="47.12378" lon="-1.58666">
        <ele>61</ele>
        <time>2021-08-23T15:31:36.000Z</time>
      </trkpt>
      <trkpt lat="47.12373" lon="-1.58647">
        <ele>60</ele>
        <time>2021-08-23T15:31:38.000Z</time>
      </trkpt>
      <trkpt lat="47.12369" lon="-1.58627">
        <ele>60</ele>
        <time>2021-08-23T15:31:40.000Z</time>
      </trkpt>
      <trkpt lat="47.12365" lon="-1.58607">
        <ele>60</ele>
        <time>2021-08-23T15:31:42.000Z</time>
      </trkpt>
      <trkpt lat="47.12361" lon="-1.58586">
        <ele>59</ele>
        <time>2021-08-23T15:31:44.000Z</time>
      </trkpt>
      <trkpt lat="47.12356" lon="-1.58566">
        <ele>59</ele>
        <time>2021-08-23T15:31:46.000Z</time>
      </trkpt>
      <trkpt lat="47.12351" lon="-1.58546">
        <ele>59</ele>
        <time>2021-08-23T15:31:48.000Z</time>
      </trkpt>
      <trkpt lat="47.12346" lon="-1.58526">
        <ele>59</ele>
        <time>2021-08-23T15:31:50.000Z</time>
      </trkpt>
      <trkpt lat="47.12342" lon="-1.58507">
        <ele>58</ele>
        <time>2021-08-23T15:31:52.000Z</time>
      </trkpt>
      <trkpt lat="47.12337" lon="-1.58488">
        <ele>58</ele>
        <time>2021-08-23T15:31:54.000Z</time>
      </trkpt>
      <trkpt lat="47.12333" lon="-1.58471">
        <ele>59</ele>
        <time>2021-08-23T15:31:56.000Z</time>
      </trkpt>
      <trkpt lat="47.12328" lon="-1.58457">
        <ele>59</ele>
        <time>2021-08-23T15:31:58.000Z</time>
      </trkpt>
      <trkpt lat="47.12322" lon="-1.58447">
        <ele>59</ele>
        <time>2021-08-23T15:32:00.000Z</time>
      </trkpt>
      <trkpt lat="47.12316" lon="-1.58433">
        <ele>59</ele>
        <time>2021-08-23T15:32:04.000Z</time>
      </trkpt>
      <trkpt lat="47.12309" lon="-1.58419">
        <ele>59</ele>
        <time>2021-08-23T15:32:08.000Z</time>
      </trkpt>
      <trkpt lat="47.12303" lon="-1.58407">
        <ele>58</ele>
        <time>2021-08-23T15:32:13.000Z</time>
      </trkpt>
      <trkpt lat="47.123" lon="-1.58393">
        <ele>59</ele>
        <time>2021-08-23T15:32:20.000Z</time>
      </trkpt>
      <trkpt lat="47.12299" lon="-1.58374">
        <ele>59</ele>
        <time>2021-08-23T15:32:22.000Z</time>
      </trkpt>
      <trkpt lat="47.12298" lon="-1.58356">
        <ele>60</ele>
        <time>2021-08-23T15:32:24.000Z</time>
      </trkpt>
      <trkpt lat="47.12293" lon="-1.58344">
        <ele>60</ele>
        <time>2021-08-23T15:32:26.000Z</time>
      </trkpt>
      <trkpt lat="47.12283" lon="-1.58333">
        <ele>61</ele>
        <time>2021-08-23T15:32:28.000Z</time>
      </trkpt>
      <trkpt lat="47.12273" lon="-1.58324">
        <ele>61</ele>
        <time>2021-08-23T15:32:30.000Z</time>
      </trkpt>
      <trkpt lat="47.12262" lon="-1.58316">
        <ele>59</ele>
        <time>2021-08-23T15:32:32.000Z</time>
      </trkpt>
      <trkpt lat="47.12253" lon="-1.58306">
        <ele>60</ele>
        <time>2021-08-23T15:32:34.000Z</time>
      </trkpt>
      <trkpt lat="47.12244" lon="-1.58296">
        <ele>59</ele>
        <time>2021-08-23T15:32:36.000Z</time>
      </trkpt>
      <trkpt lat="47.12233" lon="-1.58284">
        <ele>58</ele>
        <time>2021-08-23T15:32:38.000Z</time>
      </trkpt>
      <trkpt lat="47.12222" lon="-1.58273">
        <ele>58</ele>
        <time>2021-08-23T15:32:40.000Z</time>
      </trkpt>
      <trkpt lat="47.12212" lon="-1.58263">
        <ele>57</ele>
        <time>2021-08-23T15:32:42.000Z</time>
      </trkpt>
      <trkpt lat="47.12203" lon="-1.58253">
        <ele>57</ele>
        <time>2021-08-23T15:32:44.000Z</time>
      </trkpt>
      <trkpt lat="47.12198" lon="-1.58237">
        <ele>57</ele>
        <time>2021-08-23T15:32:46.000Z</time>
      </trkpt>
      <trkpt lat="47.12201" lon="-1.58216">
        <ele>57</ele>
        <time>2021-08-23T15:32:48.000Z</time>
      </trkpt>
      <trkpt lat="47.12203" lon="-1.58194">
        <ele>58</ele>
        <time>2021-08-23T15:32:50.000Z</time>
      </trkpt>
      <trkpt lat="47.12203" lon="-1.58174">
        <ele>58</ele>
        <time>2021-08-23T15:32:52.000Z</time>
      </trkpt>
      <trkpt lat="47.12207" lon="-1.58155">
        <ele>58</ele>
        <time>2021-08-23T15:32:54.000Z</time>
      </trkpt>
      <trkpt lat="47.12213" lon="-1.58138">
        <ele>58</ele>
        <time>2021-08-23T15:32:56.000Z</time>
      </trkpt>
      <trkpt lat="47.1222" lon="-1.58122">
        <ele>58</ele>
        <time>2021-08-23T15:32:58.000Z</time>
      </trkpt>
      <trkpt lat="47.12227" lon="-1.58105">
        <ele>58</ele>
        <time>2021-08-23T15:33:00.000Z</time>
      </trkpt>
      <trkpt lat="47.12234" lon="-1.58089">
        <ele>58</ele>
        <time>2021-08-23T15:33:02.000Z</time>
      </trkpt>
      <trkpt lat="47.12241" lon="-1.58072">
        <ele>58</ele>
        <time>2021-08-23T15:33:04.000Z</time>
      </trkpt>
      <trkpt lat="47.12244" lon="-1.58054">
        <ele>59</ele>
        <time>2021-08-23T15:33:06.000Z</time>
      </trkpt>
      <trkpt lat="47.12243" lon="-1.58035">
        <ele>59</ele>
        <time>2021-08-23T15:33:08.000Z</time>
      </trkpt>
      <trkpt lat="47.12238" lon="-1.58018">
        <ele>59</ele>
        <time>2021-08-23T15:33:10.000Z</time>
      </trkpt>
      <trkpt lat="47.12229" lon="-1.58004">
        <ele>59</ele>
        <time>2021-08-23T15:33:12.000Z</time>
      </trkpt>
      <trkpt lat="47.1222" lon="-1.57989">
        <ele>59</ele>
        <time>2021-08-23T15:33:14.000Z</time>
      </trkpt>
      <trkpt lat="47.12211" lon="-1.57974">
        <ele>60</ele>
        <time>2021-08-23T15:33:16.000Z</time>
      </trkpt>
      <trkpt lat="47.12203" lon="-1.57958">
        <ele>60</ele>
        <time>2021-08-23T15:33:18.000Z</time>
      </trkpt>
      <trkpt lat="47.12194" lon="-1.57943">
        <ele>60</ele>
        <time>2021-08-23T15:33:20.000Z</time>
      </trkpt>
      <trkpt lat="47.12188" lon="-1.57926">
        <ele>61</ele>
        <time>2021-08-23T15:33:22.000Z</time>
      </trkpt>
      <trkpt lat="47.12184" lon="-1.57907">
        <ele>61</ele>
        <time>2021-08-23T15:33:24.000Z</time>
      </trkpt>
      <trkpt lat="47.12182" lon="-1.57889">
        <ele>61</ele>
        <time>2021-08-23T15:33:26.000Z</time>
      </trkpt>
      <trkpt lat="47.12181" lon="-1.57869">
        <ele>61</ele>
        <time>2021-08-23T15:33:28.000Z</time>
      </trkpt>
      <trkpt lat="47.12181" lon="-1.5785">
        <ele>62</ele>
        <time>2021-08-23T15:33:30.000Z</time>
      </trkpt>
      <trkpt lat="47.1218" lon="-1.57832">
        <ele>62</ele>
        <time>2021-08-23T15:33:32.000Z</time>
      </trkpt>
      <trkpt lat="47.12179" lon="-1.57813">
        <ele>63</ele>
        <time>2021-08-23T15:33:34.000Z</time>
      </trkpt>
      <trkpt lat="47.12179" lon="-1.57795">
        <ele>63</ele>
        <time>2021-08-23T15:33:36.000Z</time>
      </trkpt>
      <trkpt lat="47.12179" lon="-1.57777">
        <ele>63</ele>
        <time>2021-08-23T15:33:38.000Z</time>
      </trkpt>
      <trkpt lat="47.12179" lon="-1.57759">
        <ele>64</ele>
        <time>2021-08-23T15:33:40.000Z</time>
      </trkpt>
      <trkpt lat="47.12178" lon="-1.57741">
        <ele>64</ele>
        <time>2021-08-23T15:33:42.000Z</time>
      </trkpt>
      <trkpt lat="47.12178" lon="-1.57723">
        <ele>64</ele>
        <time>2021-08-23T15:33:44.000Z</time>
      </trkpt>
      <trkpt lat="47.12178" lon="-1.57705">
        <ele>64</ele>
        <time>2021-08-23T15:33:46.000Z</time>
      </trkpt>
      <trkpt lat="47.12177" lon="-1.57686">
        <ele>64</ele>
        <time>2021-08-23T15:33:48.000Z</time>
      </trkpt>
      <trkpt lat="47.12177" lon="-1.57667">
        <ele>64</ele>
        <time>2021-08-23T15:33:50.000Z</time>
      </trkpt>
      <trkpt lat="47.12177" lon="-1.57649">
        <ele>64</ele>
        <time>2021-08-23T15:33:52.000Z</time>
      </trkpt>
      <trkpt lat="47.12177" lon="-1.57629">
        <ele>64</ele>
        <time>2021-08-23T15:33:54.000Z</time>
      </trkpt>
      <trkpt lat="47.12177" lon="-1.57609">
        <ele>63</ele>
        <time>2021-08-23T15:33:56.000Z</time>
      </trkpt>
      <trkpt lat="47.12176" lon="-1.5759">
        <ele>63</ele>
        <time>2021-08-23T15:33:58.000Z</time>
      </trkpt>
      <trkpt lat="47.12175" lon="-1.5757">
        <ele>63</ele>
        <time>2021-08-23T15:34:00.000Z</time>
      </trkpt>
      <trkpt lat="47.12175" lon="-1.5755">
        <ele>62</ele>
        <time>2021-08-23T15:34:02.000Z</time>
      </trkpt>
      <trkpt lat="47.12173" lon="-1.57531">
        <ele>62</ele>
        <time>2021-08-23T15:34:04.000Z</time>
      </trkpt>
      <trkpt lat="47.12171" lon="-1.57512">
        <ele>62</ele>
        <time>2021-08-23T15:34:06.000Z</time>
      </trkpt>
      <trkpt lat="47.12169" lon="-1.57492">
        <ele>62</ele>
        <time>2021-08-23T15:34:08.000Z</time>
      </trkpt>
      <trkpt lat="47.12165" lon="-1.57473">
        <ele>62</ele>
        <time>2021-08-23T15:34:10.000Z</time>
      </trkpt>
      <trkpt lat="47.12162" lon="-1.57453">
        <ele>62</ele>
        <time>2021-08-23T15:34:12.000Z</time>
      </trkpt>
      <trkpt lat="47.12158" lon="-1.57434">
        <ele>61</ele>
        <time>2021-08-23T15:34:14.000Z</time>
      </trkpt>
      <trkpt lat="47.12155" lon="-1.57415">
        <ele>61</ele>
        <time>2021-08-23T15:34:16.000Z</time>
      </trkpt>
      <trkpt lat="47.12151" lon="-1.57395">
        <ele>61</ele>
        <time>2021-08-23T15:34:18.000Z</time>
      </trkpt>
      <trkpt lat="47.12148" lon="-1.57375">
        <ele>61</ele>
        <time>2021-08-23T15:34:20.000Z</time>
      </trkpt>
      <trkpt lat="47.12145" lon="-1.57355">
        <ele>61</ele>
        <time>2021-08-23T15:34:22.000Z</time>
      </trkpt>
      <trkpt lat="47.12142" lon="-1.57335">
        <ele>60</ele>
        <time>2021-08-23T15:34:24.000Z</time>
      </trkpt>
      <trkpt lat="47.12139" lon="-1.57314">
        <ele>60</ele>
        <time>2021-08-23T15:34:26.000Z</time>
      </trkpt>
      <trkpt lat="47.12134" lon="-1.57295">
        <ele>61</ele>
        <time>2021-08-23T15:34:28.000Z</time>
      </trkpt>
      <trkpt lat="47.12129" lon="-1.57274">
        <ele>60</ele>
        <time>2021-08-23T15:34:30.000Z</time>
      </trkpt>
      <trkpt lat="47.12125" lon="-1.57253">
        <ele>60</ele>
        <time>2021-08-23T15:34:32.000Z</time>
      </trkpt>
      <trkpt lat="47.12121" lon="-1.57232">
        <ele>59</ele>
        <time>2021-08-23T15:34:34.000Z</time>
      </trkpt>
      <trkpt lat="47.12116" lon="-1.57212">
        <ele>58</ele>
        <time>2021-08-23T15:34:36.000Z</time>
      </trkpt>
      <trkpt lat="47.12112" lon="-1.57191">
        <ele>58</ele>
        <time>2021-08-23T15:34:38.000Z</time>
      </trkpt>
      <trkpt lat="47.12108" lon="-1.5717">
        <ele>58</ele>
        <time>2021-08-23T15:34:40.000Z</time>
      </trkpt>
      <trkpt lat="47.12104" lon="-1.57149">
        <ele>57</ele>
        <time>2021-08-23T15:34:42.000Z</time>
      </trkpt>
      <trkpt lat="47.121" lon="-1.57129">
        <ele>58</ele>
        <time>2021-08-23T15:34:44.000Z</time>
      </trkpt>
      <trkpt lat="47.12096" lon="-1.57107">
        <ele>58</ele>
        <time>2021-08-23T15:34:46.000Z</time>
      </trkpt>
      <trkpt lat="47.12092" lon="-1.57085">
        <ele>58</ele>
        <time>2021-08-23T15:34:48.000Z</time>
      </trkpt>
      <trkpt lat="47.12088" lon="-1.57063">
        <ele>58</ele>
        <time>2021-08-23T15:34:50.000Z</time>
      </trkpt>
      <trkpt lat="47.12084" lon="-1.57041">
        <ele>58</ele>
        <time>2021-08-23T15:34:52.000Z</time>
      </trkpt>
      <trkpt lat="47.1208" lon="-1.57022">
        <ele>58</ele>
        <time>2021-08-23T15:34:54.000Z</time>
      </trkpt>
      <trkpt lat="47.12077" lon="-1.57001">
        <ele>58</ele>
        <time>2021-08-23T15:34:56.000Z</time>
      </trkpt>
      <trkpt lat="47.12072" lon="-1.56981">
        <ele>57</ele>
        <time>2021-08-23T15:34:58.000Z</time>
      </trkpt>
      <trkpt lat="47.12068" lon="-1.5696">
        <ele>57</ele>
        <time>2021-08-23T15:35:00.000Z</time>
      </trkpt>
      <trkpt lat="47.12064" lon="-1.56941">
        <ele>58</ele>
        <time>2021-08-23T15:35:02.000Z</time>
      </trkpt>
      <trkpt lat="47.12061" lon="-1.56921">
        <ele>58</ele>
        <time>2021-08-23T15:35:04.000Z</time>
      </trkpt>
      <trkpt lat="47.12057" lon="-1.56902">
        <ele>58</ele>
        <time>2021-08-23T15:35:06.000Z</time>
      </trkpt>
      <trkpt lat="47.12053" lon="-1.56883">
        <ele>59</ele>
        <time>2021-08-23T15:35:08.000Z</time>
      </trkpt>
      <trkpt lat="47.1205" lon="-1.56864">
        <ele>60</ele>
        <time>2021-08-23T15:35:10.000Z</time>
      </trkpt>
      <trkpt lat="47.12046" lon="-1.56844">
        <ele>60</ele>
        <time>2021-08-23T15:35:12.000Z</time>
      </trkpt>
      <trkpt lat="47.12042" lon="-1.56826">
        <ele>60</ele>
        <time>2021-08-23T15:35:14.000Z</time>
      </trkpt>
      <trkpt lat="47.12038" lon="-1.56808">
        <ele>61</ele>
        <time>2021-08-23T15:35:16.000Z</time>
      </trkpt>
      <trkpt lat="47.12035" lon="-1.56789">
        <ele>61</ele>
        <time>2021-08-23T15:35:18.000Z</time>
      </trkpt>
      <trkpt lat="47.12031" lon="-1.56771">
        <ele>62</ele>
        <time>2021-08-23T15:35:20.000Z</time>
      </trkpt>
      <trkpt lat="47.12028" lon="-1.56754">
        <ele>62</ele>
        <time>2021-08-23T15:35:22.000Z</time>
      </trkpt>
      <trkpt lat="47.12024" lon="-1.56736">
        <ele>63</ele>
        <time>2021-08-23T15:35:24.000Z</time>
      </trkpt>
      <trkpt lat="47.12021" lon="-1.56718">
        <ele>63</ele>
        <time>2021-08-23T15:35:26.000Z</time>
      </trkpt>
      <trkpt lat="47.12018" lon="-1.56701">
        <ele>64</ele>
        <time>2021-08-23T15:35:28.000Z</time>
      </trkpt>
      <trkpt lat="47.12015" lon="-1.56684">
        <ele>64</ele>
        <time>2021-08-23T15:35:30.000Z</time>
      </trkpt>
      <trkpt lat="47.12011" lon="-1.56667">
        <ele>65</ele>
        <time>2021-08-23T15:35:32.000Z</time>
      </trkpt>
      <trkpt lat="47.12008" lon="-1.5665">
        <ele>65</ele>
        <time>2021-08-23T15:35:34.000Z</time>
      </trkpt>
      <trkpt lat="47.12005" lon="-1.56634">
        <ele>65</ele>
        <time>2021-08-23T15:35:36.000Z</time>
      </trkpt>
      <trkpt lat="47.12001" lon="-1.56617">
        <ele>65</ele>
        <time>2021-08-23T15:35:38.000Z</time>
      </trkpt>
      <trkpt lat="47.11998" lon="-1.566">
        <ele>65</ele>
        <time>2021-08-23T15:35:40.000Z</time>
      </trkpt>
      <trkpt lat="47.11995" lon="-1.56582">
        <ele>65</ele>
        <time>2021-08-23T15:35:42.000Z</time>
      </trkpt>
      <trkpt lat="47.11991" lon="-1.56563">
        <ele>65</ele>
        <time>2021-08-23T15:35:44.000Z</time>
      </trkpt>
      <trkpt lat="47.11987" lon="-1.56545">
        <ele>65</ele>
        <time>2021-08-23T15:35:46.000Z</time>
      </trkpt>
      <trkpt lat="47.11983" lon="-1.56527">
        <ele>65</ele>
        <time>2021-08-23T15:35:48.000Z</time>
      </trkpt>
      <trkpt lat="47.11979" lon="-1.56508">
        <ele>65</ele>
        <time>2021-08-23T15:35:50.000Z</time>
      </trkpt>
      <trkpt lat="47.11975" lon="-1.5649">
        <ele>65</ele>
        <time>2021-08-23T15:35:52.000Z</time>
      </trkpt>
      <trkpt lat="47.1197" lon="-1.56471">
        <ele>65</ele>
        <time>2021-08-23T15:35:54.000Z</time>
      </trkpt>
      <trkpt lat="47.11965" lon="-1.56453">
        <ele>65</ele>
        <time>2021-08-23T15:35:56.000Z</time>
      </trkpt>
      <trkpt lat="47.11961" lon="-1.56435">
        <ele>65</ele>
        <time>2021-08-23T15:35:58.000Z</time>
      </trkpt>
      <trkpt lat="47.11956" lon="-1.56416">
        <ele>64</ele>
        <time>2021-08-23T15:36:00.000Z</time>
      </trkpt>
      <trkpt lat="47.11951" lon="-1.56398">
        <ele>64</ele>
        <time>2021-08-23T15:36:02.000Z</time>
      </trkpt>
      <trkpt lat="47.11946" lon="-1.5638">
        <ele>64</ele>
        <time>2021-08-23T15:36:04.000Z</time>
      </trkpt>
      <trkpt lat="47.11941" lon="-1.56361">
        <ele>64</ele>
        <time>2021-08-23T15:36:06.000Z</time>
      </trkpt>
      <trkpt lat="47.11937" lon="-1.56342">
        <ele>64</ele>
        <time>2021-08-23T15:36:08.000Z</time>
      </trkpt>
      <trkpt lat="47.11932" lon="-1.56322">
        <ele>64</ele>
        <time>2021-08-23T15:36:10.000Z</time>
      </trkpt>
      <trkpt lat="47.11927" lon="-1.56303">
        <ele>64</ele>
        <time>2021-08-23T15:36:12.000Z</time>
      </trkpt>
      <trkpt lat="47.11922" lon="-1.56285">
        <ele>64</ele>
        <time>2021-08-23T15:36:14.000Z</time>
      </trkpt>
      <trkpt lat="47.11917" lon="-1.56266">
        <ele>64</ele>
        <time>2021-08-23T15:36:16.000Z</time>
      </trkpt>
      <trkpt lat="47.11913" lon="-1.56248">
        <ele>64</ele>
        <time>2021-08-23T15:36:18.000Z</time>
      </trkpt>
      <trkpt lat="47.11908" lon="-1.56229">
        <ele>64</ele>
        <time>2021-08-23T15:36:20.000Z</time>
      </trkpt>
      <trkpt lat="47.11903" lon="-1.5621">
        <ele>64</ele>
        <time>2021-08-23T15:36:22.000Z</time>
      </trkpt>
      <trkpt lat="47.11898" lon="-1.56191">
        <ele>64</ele>
        <time>2021-08-23T15:36:24.000Z</time>
      </trkpt>
      <trkpt lat="47.11893" lon="-1.56172">
        <ele>64</ele>
        <time>2021-08-23T15:36:26.000Z</time>
      </trkpt>
      <trkpt lat="47.11888" lon="-1.56153">
        <ele>64</ele>
        <time>2021-08-23T15:36:28.000Z</time>
      </trkpt>
      <trkpt lat="47.11883" lon="-1.56134">
        <ele>64</ele>
        <time>2021-08-23T15:36:30.000Z</time>
      </trkpt>
      <trkpt lat="47.11879" lon="-1.56115">
        <ele>65</ele>
        <time>2021-08-23T15:36:32.000Z</time>
      </trkpt>
      <trkpt lat="47.11874" lon="-1.56097">
        <ele>65</ele>
        <time>2021-08-23T15:36:34.000Z</time>
      </trkpt>
      <trkpt lat="47.1187" lon="-1.56078">
        <ele>65</ele>
        <time>2021-08-23T15:36:36.000Z</time>
      </trkpt>
      <trkpt lat="47.11867" lon="-1.56058">
        <ele>65</ele>
        <time>2021-08-23T15:36:38.000Z</time>
      </trkpt>
      <trkpt lat="47.11864" lon="-1.56038">
        <ele>65</ele>
        <time>2021-08-23T15:36:40.000Z</time>
      </trkpt>
      <trkpt lat="47.11862" lon="-1.56019">
        <ele>65</ele>
        <time>2021-08-23T15:36:42.000Z</time>
      </trkpt>
      <trkpt lat="47.11859" lon="-1.56">
        <ele>65</ele>
        <time>2021-08-23T15:36:44.000Z</time>
      </trkpt>
      <trkpt lat="47.11857" lon="-1.5598">
        <ele>66</ele>
        <time>2021-08-23T15:36:46.000Z</time>
      </trkpt>
      <trkpt lat="47.11856" lon="-1.55961">
        <ele>66</ele>
        <time>2021-08-23T15:36:48.000Z</time>
      </trkpt>
      <trkpt lat="47.11855" lon="-1.55942">
        <ele>66</ele>
        <time>2021-08-23T15:36:50.000Z</time>
      </trkpt>
      <trkpt lat="47.11853" lon="-1.55922">
        <ele>66</ele>
        <time>2021-08-23T15:36:52.000Z</time>
      </trkpt>
      <trkpt lat="47.11852" lon="-1.55902">
        <ele>66</ele>
        <time>2021-08-23T15:36:54.000Z</time>
      </trkpt>
      <trkpt lat="47.1185" lon="-1.55882">
        <ele>67</ele>
        <time>2021-08-23T15:36:56.000Z</time>
      </trkpt>
      <trkpt lat="47.11849" lon="-1.55862">
        <ele>67</ele>
        <time>2021-08-23T15:36:58.000Z</time>
      </trkpt>
      <trkpt lat="47.11847" lon="-1.55843">
        <ele>67</ele>
        <time>2021-08-23T15:37:00.000Z</time>
      </trkpt>
      <trkpt lat="47.11846" lon="-1.55823">
        <ele>68</ele>
        <time>2021-08-23T15:37:02.000Z</time>
      </trkpt>
      <trkpt lat="47.11845" lon="-1.55803">
        <ele>68</ele>
        <time>2021-08-23T15:37:04.000Z</time>
      </trkpt>
      <trkpt lat="47.11843" lon="-1.55784">
        <ele>68</ele>
        <time>2021-08-23T15:37:06.000Z</time>
      </trkpt>
      <trkpt lat="47.11842" lon="-1.55764">
        <ele>67</ele>
        <time>2021-08-23T15:37:08.000Z</time>
      </trkpt>
      <trkpt lat="47.11841" lon="-1.55744">
        <ele>67</ele>
        <time>2021-08-23T15:37:10.000Z</time>
      </trkpt>
      <trkpt lat="47.11839" lon="-1.55725">
        <ele>67</ele>
        <time>2021-08-23T15:37:12.000Z</time>
      </trkpt>
      <trkpt lat="47.11838" lon="-1.55705">
        <ele>67</ele>
        <time>2021-08-23T15:37:14.000Z</time>
      </trkpt>
      <trkpt lat="47.11837" lon="-1.55686">
        <ele>67</ele>
        <time>2021-08-23T15:37:16.000Z</time>
      </trkpt>
      <trkpt lat="47.11836" lon="-1.55666">
        <ele>66</ele>
        <time>2021-08-23T15:37:18.000Z</time>
      </trkpt>
      <trkpt lat="47.11835" lon="-1.55647">
        <ele>66</ele>
        <time>2021-08-23T15:37:20.000Z</time>
      </trkpt>
      <trkpt lat="47.11833" lon="-1.55628">
        <ele>66</ele>
        <time>2021-08-23T15:37:22.000Z</time>
      </trkpt>
      <trkpt lat="47.11831" lon="-1.55608">
        <ele>66</ele>
        <time>2021-08-23T15:37:24.000Z</time>
      </trkpt>
      <trkpt lat="47.1183" lon="-1.55588">
        <ele>66</ele>
        <time>2021-08-23T15:37:26.000Z</time>
      </trkpt>
      <trkpt lat="47.11828" lon="-1.55567">
        <ele>66</ele>
        <time>2021-08-23T15:37:28.000Z</time>
      </trkpt>
      <trkpt lat="47.11827" lon="-1.55547">
        <ele>66</ele>
        <time>2021-08-23T15:37:30.000Z</time>
      </trkpt>
      <trkpt lat="47.11825" lon="-1.55527">
        <ele>66</ele>
        <time>2021-08-23T15:37:32.000Z</time>
      </trkpt>
      <trkpt lat="47.11824" lon="-1.55507">
        <ele>65</ele>
        <time>2021-08-23T15:37:34.000Z</time>
      </trkpt>
      <trkpt lat="47.11823" lon="-1.55488">
        <ele>66</ele>
        <time>2021-08-23T15:37:36.000Z</time>
      </trkpt>
      <trkpt lat="47.11821" lon="-1.55468">
        <ele>65</ele>
        <time>2021-08-23T15:37:38.000Z</time>
      </trkpt>
      <trkpt lat="47.1182" lon="-1.55447">
        <ele>65</ele>
        <time>2021-08-23T15:37:40.000Z</time>
      </trkpt>
      <trkpt lat="47.1182" lon="-1.55427">
        <ele>66</ele>
        <time>2021-08-23T15:37:42.000Z</time>
      </trkpt>
      <trkpt lat="47.11818" lon="-1.55408">
        <ele>66</ele>
        <time>2021-08-23T15:37:44.000Z</time>
      </trkpt>
      <trkpt lat="47.11818" lon="-1.55388">
        <ele>66</ele>
        <time>2021-08-23T15:37:46.000Z</time>
      </trkpt>
      <trkpt lat="47.11817" lon="-1.55369">
        <ele>67</ele>
        <time>2021-08-23T15:37:48.000Z</time>
      </trkpt>
      <trkpt lat="47.11817" lon="-1.55349">
        <ele>67</ele>
        <time>2021-08-23T15:37:50.000Z</time>
      </trkpt>
      <trkpt lat="47.11817" lon="-1.5533">
        <ele>66</ele>
        <time>2021-08-23T15:37:52.000Z</time>
      </trkpt>
      <trkpt lat="47.11817" lon="-1.55311">
        <ele>67</ele>
        <time>2021-08-23T15:37:54.000Z</time>
      </trkpt>
      <trkpt lat="47.11816" lon="-1.55292">
        <ele>67</ele>
        <time>2021-08-23T15:37:56.000Z</time>
      </trkpt>
      <trkpt lat="47.11816" lon="-1.55273">
        <ele>66</ele>
        <time>2021-08-23T15:37:58.000Z</time>
      </trkpt>
      <trkpt lat="47.11816" lon="-1.55255">
        <ele>67</ele>
        <time>2021-08-23T15:38:00.000Z</time>
      </trkpt>
      <trkpt lat="47.11815" lon="-1.55236">
        <ele>67</ele>
        <time>2021-08-23T15:38:02.000Z</time>
      </trkpt>
      <trkpt lat="47.11814" lon="-1.55216">
        <ele>67</ele>
        <time>2021-08-23T15:38:04.000Z</time>
      </trkpt>
      <trkpt lat="47.11814" lon="-1.55196">
        <ele>67</ele>
        <time>2021-08-23T15:38:06.000Z</time>
      </trkpt>
      <trkpt lat="47.11813" lon="-1.55177">
        <ele>67</ele>
        <time>2021-08-23T15:38:08.000Z</time>
      </trkpt>
      <trkpt lat="47.11812" lon="-1.55157">
        <ele>67</ele>
        <time>2021-08-23T15:38:10.000Z</time>
      </trkpt>
      <trkpt lat="47.11811" lon="-1.55138">
        <ele>68</ele>
        <time>2021-08-23T15:38:12.000Z</time>
      </trkpt>
      <trkpt lat="47.1181" lon="-1.55119">
        <ele>68</ele>
        <time>2021-08-23T15:38:14.000Z</time>
      </trkpt>
      <trkpt lat="47.11808" lon="-1.55099">
        <ele>68</ele>
        <time>2021-08-23T15:38:16.000Z</time>
      </trkpt>
      <trkpt lat="47.11805" lon="-1.55079">
        <ele>67</ele>
        <time>2021-08-23T15:38:18.000Z</time>
      </trkpt>
      <trkpt lat="47.11802" lon="-1.55059">
        <ele>68</ele>
        <time>2021-08-23T15:38:20.000Z</time>
      </trkpt>
      <trkpt lat="47.11799" lon="-1.55039">
        <ele>67</ele>
        <time>2021-08-23T15:38:22.000Z</time>
      </trkpt>
      <trkpt lat="47.11796" lon="-1.5502">
        <ele>68</ele>
        <time>2021-08-23T15:38:24.000Z</time>
      </trkpt>
      <trkpt lat="47.11792" lon="-1.55001">
        <ele>68</ele>
        <time>2021-08-23T15:38:26.000Z</time>
      </trkpt>
      <trkpt lat="47.11788" lon="-1.54982">
        <ele>68</ele>
        <time>2021-08-23T15:38:28.000Z</time>
      </trkpt>
      <trkpt lat="47.11783" lon="-1.54963">
        <ele>68</ele>
        <time>2021-08-23T15:38:30.000Z</time>
      </trkpt>
      <trkpt lat="47.11778" lon="-1.54942">
        <ele>67</ele>
        <time>2021-08-23T15:38:32.000Z</time>
      </trkpt>
      <trkpt lat="47.11773" lon="-1.54923">
        <ele>67</ele>
        <time>2021-08-23T15:38:34.000Z</time>
      </trkpt>
      <trkpt lat="47.11767" lon="-1.54904">
        <ele>68</ele>
        <time>2021-08-23T15:38:36.000Z</time>
      </trkpt>
      <trkpt lat="47.11762" lon="-1.54885">
        <ele>68</ele>
        <time>2021-08-23T15:38:38.000Z</time>
      </trkpt>
      <trkpt lat="47.11756" lon="-1.54867">
        <ele>68</ele>
        <time>2021-08-23T15:38:40.000Z</time>
      </trkpt>
      <trkpt lat="47.11751" lon="-1.54849">
        <ele>68</ele>
        <time>2021-08-23T15:38:42.000Z</time>
      </trkpt>
      <trkpt lat="47.11745" lon="-1.5483">
        <ele>68</ele>
        <time>2021-08-23T15:38:44.000Z</time>
      </trkpt>
      <trkpt lat="47.1174" lon="-1.54812">
        <ele>68</ele>
        <time>2021-08-23T15:38:46.000Z</time>
      </trkpt>
      <trkpt lat="47.11734" lon="-1.54793">
        <ele>68</ele>
        <time>2021-08-23T15:38:48.000Z</time>
      </trkpt>
      <trkpt lat="47.11728" lon="-1.54775">
        <ele>68</ele>
        <time>2021-08-23T15:38:50.000Z</time>
      </trkpt>
      <trkpt lat="47.11723" lon="-1.54757">
        <ele>69</ele>
        <time>2021-08-23T15:38:52.000Z</time>
      </trkpt>
      <trkpt lat="47.11717" lon="-1.54739">
        <ele>68</ele>
        <time>2021-08-23T15:38:54.000Z</time>
      </trkpt>
      <trkpt lat="47.11711" lon="-1.5472">
        <ele>69</ele>
        <time>2021-08-23T15:38:56.000Z</time>
      </trkpt>
      <trkpt lat="47.11706" lon="-1.54701">
        <ele>69</ele>
        <time>2021-08-23T15:38:58.000Z</time>
      </trkpt>
      <trkpt lat="47.117" lon="-1.54683">
        <ele>69</ele>
        <time>2021-08-23T15:39:00.000Z</time>
      </trkpt>
      <trkpt lat="47.11694" lon="-1.54665">
        <ele>69</ele>
        <time>2021-08-23T15:39:02.000Z</time>
      </trkpt>
      <trkpt lat="47.11689" lon="-1.54646">
        <ele>70</ele>
        <time>2021-08-23T15:39:04.000Z</time>
      </trkpt>
      <trkpt lat="47.11683" lon="-1.54628">
        <ele>70</ele>
        <time>2021-08-23T15:39:06.000Z</time>
      </trkpt>
      <trkpt lat="47.11677" lon="-1.54609">
        <ele>70</ele>
        <time>2021-08-23T15:39:08.000Z</time>
      </trkpt>
      <trkpt lat="47.11672" lon="-1.54591">
        <ele>71</ele>
        <time>2021-08-23T15:39:10.000Z</time>
      </trkpt>
      <trkpt lat="47.11665" lon="-1.54572">
        <ele>71</ele>
        <time>2021-08-23T15:39:12.000Z</time>
      </trkpt>
      <trkpt lat="47.11659" lon="-1.54553">
        <ele>71</ele>
        <time>2021-08-23T15:39:14.000Z</time>
      </trkpt>
      <trkpt lat="47.11653" lon="-1.54535">
        <ele>71</ele>
        <time>2021-08-23T15:39:16.000Z</time>
      </trkpt>
      <trkpt lat="47.11647" lon="-1.54516">
        <ele>71</ele>
        <time>2021-08-23T15:39:18.000Z</time>
      </trkpt>
      <trkpt lat="47.1164" lon="-1.54497">
        <ele>72</ele>
        <time>2021-08-23T15:39:20.000Z</time>
      </trkpt>
      <trkpt lat="47.11634" lon="-1.54478">
        <ele>72</ele>
        <time>2021-08-23T15:39:22.000Z</time>
      </trkpt>
      <trkpt lat="47.11628" lon="-1.54458">
        <ele>72</ele>
        <time>2021-08-23T15:39:24.000Z</time>
      </trkpt>
      <trkpt lat="47.11621" lon="-1.5444">
        <ele>72</ele>
        <time>2021-08-23T15:39:26.000Z</time>
      </trkpt>
      <trkpt lat="47.11614" lon="-1.54421">
        <ele>72</ele>
        <time>2021-08-23T15:39:28.000Z</time>
      </trkpt>
      <trkpt lat="47.11608" lon="-1.54402">
        <ele>72</ele>
        <time>2021-08-23T15:39:30.000Z</time>
      </trkpt>
      <trkpt lat="47.11602" lon="-1.54384">
        <ele>72</ele>
        <time>2021-08-23T15:39:32.000Z</time>
      </trkpt>
      <trkpt lat="47.11596" lon="-1.54366">
        <ele>72</ele>
        <time>2021-08-23T15:39:34.000Z</time>
      </trkpt>
      <trkpt lat="47.1159" lon="-1.54347">
        <ele>73</ele>
        <time>2021-08-23T15:39:36.000Z</time>
      </trkpt>
      <trkpt lat="47.11584" lon="-1.54329">
        <ele>73</ele>
        <time>2021-08-23T15:39:38.000Z</time>
      </trkpt>
      <trkpt lat="47.11578" lon="-1.54312">
        <ele>73</ele>
        <time>2021-08-23T15:39:40.000Z</time>
      </trkpt>
      <trkpt lat="47.11573" lon="-1.54297">
        <ele>73</ele>
        <time>2021-08-23T15:39:42.000Z</time>
      </trkpt>
      <trkpt lat="47.11567" lon="-1.54282">
        <ele>73</ele>
        <time>2021-08-23T15:39:44.000Z</time>
      </trkpt>
      <trkpt lat="47.11564" lon="-1.54268">
        <ele>73</ele>
        <time>2021-08-23T15:39:46.000Z</time>
      </trkpt>
      <trkpt lat="47.11569" lon="-1.54252">
        <ele>73</ele>
        <time>2021-08-23T15:39:48.000Z</time>
      </trkpt>
      <trkpt lat="47.11581" lon="-1.54244">
        <ele>73</ele>
        <time>2021-08-23T15:39:50.000Z</time>
      </trkpt>
      <trkpt lat="47.11592" lon="-1.54236">
        <ele>73</ele>
        <time>2021-08-23T15:39:52.000Z</time>
      </trkpt>
      <trkpt lat="47.11604" lon="-1.54228">
        <ele>73</ele>
        <time>2021-08-23T15:39:54.000Z</time>
      </trkpt>
      <trkpt lat="47.11616" lon="-1.5422">
        <ele>74</ele>
        <time>2021-08-23T15:39:56.000Z</time>
      </trkpt>
      <trkpt lat="47.11627" lon="-1.5421">
        <ele>74</ele>
        <time>2021-08-23T15:39:58.000Z</time>
      </trkpt>
      <trkpt lat="47.11636" lon="-1.54197">
        <ele>74</ele>
        <time>2021-08-23T15:40:00.000Z</time>
      </trkpt>
      <trkpt lat="47.11643" lon="-1.54182">
        <ele>74</ele>
        <time>2021-08-23T15:40:02.000Z</time>
      </trkpt>
      <trkpt lat="47.11645" lon="-1.54165">
        <ele>74</ele>
        <time>2021-08-23T15:40:04.000Z</time>
      </trkpt>
      <trkpt lat="47.11653" lon="-1.54151">
        <ele>74</ele>
        <time>2021-08-23T15:40:06.000Z</time>
      </trkpt>
      <trkpt lat="47.11666" lon="-1.54147">
        <ele>73</ele>
        <time>2021-08-23T15:40:08.000Z</time>
      </trkpt>
      <trkpt lat="47.11678" lon="-1.54138">
        <ele>73</ele>
        <time>2021-08-23T15:40:10.000Z</time>
      </trkpt>
      <trkpt lat="47.11689" lon="-1.54128">
        <ele>73</ele>
        <time>2021-08-23T15:40:12.000Z</time>
      </trkpt>
      <trkpt lat="47.11698" lon="-1.54114">
        <ele>73</ele>
        <time>2021-08-23T15:40:14.000Z</time>
      </trkpt>
      <trkpt lat="47.11705" lon="-1.54098">
        <ele>73</ele>
        <time>2021-08-23T15:40:16.000Z</time>
      </trkpt>
      <trkpt lat="47.11711" lon="-1.54082">
        <ele>74</ele>
        <time>2021-08-23T15:40:18.000Z</time>
      </trkpt>
      <trkpt lat="47.11717" lon="-1.54067">
        <ele>74</ele>
        <time>2021-08-23T15:40:20.000Z</time>
      </trkpt>
      <trkpt lat="47.11723" lon="-1.54053">
        <ele>75</ele>
        <time>2021-08-23T15:40:22.000Z</time>
      </trkpt>
      <trkpt lat="47.11729" lon="-1.54038">
        <ele>75</ele>
        <time>2021-08-23T15:40:24.000Z</time>
      </trkpt>
      <trkpt lat="47.11734" lon="-1.54024">
        <ele>75</ele>
        <time>2021-08-23T15:40:26.000Z</time>
      </trkpt>
      <trkpt lat="47.1174" lon="-1.5401">
        <ele>76</ele>
        <time>2021-08-23T15:40:28.000Z</time>
      </trkpt>
      <trkpt lat="47.11746" lon="-1.53995">
        <ele>76</ele>
        <time>2021-08-23T15:40:30.000Z</time>
      </trkpt>
      <trkpt lat="47.11752" lon="-1.53981">
        <ele>75</ele>
        <time>2021-08-23T15:40:32.000Z</time>
      </trkpt>
      <trkpt lat="47.11758" lon="-1.53966">
        <ele>75</ele>
        <time>2021-08-23T15:40:34.000Z</time>
      </trkpt>
      <trkpt lat="47.11763" lon="-1.53951">
        <ele>74</ele>
        <time>2021-08-23T15:40:36.000Z</time>
      </trkpt>
      <trkpt lat="47.11769" lon="-1.53935">
        <ele>74</ele>
        <time>2021-08-23T15:40:38.000Z</time>
      </trkpt>
      <trkpt lat="47.11776" lon="-1.53919">
        <ele>74</ele>
        <time>2021-08-23T15:40:40.000Z</time>
      </trkpt>
      <trkpt lat="47.11783" lon="-1.53902">
        <ele>74</ele>
        <time>2021-08-23T15:40:42.000Z</time>
      </trkpt>
      <trkpt lat="47.11795" lon="-1.53879">
        <ele>73</ele>
        <time>2021-08-23T15:40:45.000Z</time>
      </trkpt>
      <trkpt lat="47.11804" lon="-1.53864">
        <ele>73</ele>
        <time>2021-08-23T15:40:47.000Z</time>
      </trkpt>
      <trkpt lat="47.11813" lon="-1.53849">
        <ele>73</ele>
        <time>2021-08-23T15:40:49.000Z</time>
      </trkpt>
      <trkpt lat="47.11822" lon="-1.53834">
        <ele>72</ele>
        <time>2021-08-23T15:40:51.000Z</time>
      </trkpt>
      <trkpt lat="47.1183" lon="-1.53819">
        <ele>72</ele>
        <time>2021-08-23T15:40:53.000Z</time>
      </trkpt>
      <trkpt lat="47.11838" lon="-1.53803">
        <ele>72</ele>
        <time>2021-08-23T15:40:55.000Z</time>
      </trkpt>
      <trkpt lat="47.11846" lon="-1.53787">
        <ele>71</ele>
        <time>2021-08-23T15:40:57.000Z</time>
      </trkpt>
      <trkpt lat="47.11852" lon="-1.53771">
        <ele>71</ele>
        <time>2021-08-23T15:40:59.000Z</time>
      </trkpt>
      <trkpt lat="47.11859" lon="-1.53754">
        <ele>71</ele>
        <time>2021-08-23T15:41:01.000Z</time>
      </trkpt>
      <trkpt lat="47.11866" lon="-1.53736">
        <ele>70</ele>
        <time>2021-08-23T15:41:03.000Z</time>
      </trkpt>
      <trkpt lat="47.11872" lon="-1.53717">
        <ele>69</ele>
        <time>2021-08-23T15:41:05.000Z</time>
      </trkpt>
      <trkpt lat="47.1188" lon="-1.537">
        <ele>69</ele>
        <time>2021-08-23T15:41:07.000Z</time>
      </trkpt>
      <trkpt lat="47.11888" lon="-1.53685">
        <ele>69</ele>
        <time>2021-08-23T15:41:09.000Z</time>
      </trkpt>
      <trkpt lat="47.11896" lon="-1.53668">
        <ele>69</ele>
        <time>2021-08-23T15:41:11.000Z</time>
      </trkpt>
      <trkpt lat="47.11905" lon="-1.53653">
        <ele>68</ele>
        <time>2021-08-23T15:41:13.000Z</time>
      </trkpt>
      <trkpt lat="47.11913" lon="-1.53638">
        <ele>68</ele>
        <time>2021-08-23T15:41:15.000Z</time>
      </trkpt>
      <trkpt lat="47.11922" lon="-1.53622">
        <ele>67</ele>
        <time>2021-08-23T15:41:17.000Z</time>
      </trkpt>
      <trkpt lat="47.1193" lon="-1.53605">
        <ele>66</ele>
        <time>2021-08-23T15:41:19.000Z</time>
      </trkpt>
      <trkpt lat="47.11938" lon="-1.53589">
        <ele>66</ele>
        <time>2021-08-23T15:41:21.000Z</time>
      </trkpt>
      <trkpt lat="47.11947" lon="-1.53573">
        <ele>65</ele>
        <time>2021-08-23T15:41:23.000Z</time>
      </trkpt>
      <trkpt lat="47.11956" lon="-1.53557">
        <ele>65</ele>
        <time>2021-08-23T15:41:25.000Z</time>
      </trkpt>
      <trkpt lat="47.11964" lon="-1.53542">
        <ele>65</ele>
        <time>2021-08-23T15:41:27.000Z</time>
      </trkpt>
      <trkpt lat="47.11973" lon="-1.53525">
        <ele>64</ele>
        <time>2021-08-23T15:41:29.000Z</time>
      </trkpt>
      <trkpt lat="47.11981" lon="-1.53509">
        <ele>64</ele>
        <time>2021-08-23T15:41:31.000Z</time>
      </trkpt>
      <trkpt lat="47.1199" lon="-1.53493">
        <ele>64</ele>
        <time>2021-08-23T15:41:33.000Z</time>
      </trkpt>
      <trkpt lat="47.11999" lon="-1.53477">
        <ele>63</ele>
        <time>2021-08-23T15:41:35.000Z</time>
      </trkpt>
      <trkpt lat="47.12008" lon="-1.53461">
        <ele>63</ele>
        <time>2021-08-23T15:41:37.000Z</time>
      </trkpt>
      <trkpt lat="47.12016" lon="-1.53446">
        <ele>63</ele>
        <time>2021-08-23T15:41:39.000Z</time>
      </trkpt>
      <trkpt lat="47.12024" lon="-1.53429">
        <ele>63</ele>
        <time>2021-08-23T15:41:41.000Z</time>
      </trkpt>
      <trkpt lat="47.12033" lon="-1.53413">
        <ele>62</ele>
        <time>2021-08-23T15:41:43.000Z</time>
      </trkpt>
      <trkpt lat="47.12042" lon="-1.53397">
        <ele>62</ele>
        <time>2021-08-23T15:41:45.000Z</time>
      </trkpt>
      <trkpt lat="47.1205" lon="-1.53382">
        <ele>62</ele>
        <time>2021-08-23T15:41:47.000Z</time>
      </trkpt>
      <trkpt lat="47.12059" lon="-1.53366">
        <ele>61</ele>
        <time>2021-08-23T15:41:49.000Z</time>
      </trkpt>
      <trkpt lat="47.12067" lon="-1.53349">
        <ele>61</ele>
        <time>2021-08-23T15:41:51.000Z</time>
      </trkpt>
      <trkpt lat="47.12076" lon="-1.53332">
        <ele>60</ele>
        <time>2021-08-23T15:41:53.000Z</time>
      </trkpt>
      <trkpt lat="47.12085" lon="-1.53315">
        <ele>60</ele>
        <time>2021-08-23T15:41:55.000Z</time>
      </trkpt>
      <trkpt lat="47.12094" lon="-1.53299">
        <ele>60</ele>
        <time>2021-08-23T15:41:57.000Z</time>
      </trkpt>
      <trkpt lat="47.12102" lon="-1.53283">
        <ele>60</ele>
        <time>2021-08-23T15:41:59.000Z</time>
      </trkpt>
      <trkpt lat="47.12111" lon="-1.53266">
        <ele>60</ele>
        <time>2021-08-23T15:42:01.000Z</time>
      </trkpt>
      <trkpt lat="47.1212" lon="-1.53248">
        <ele>60</ele>
        <time>2021-08-23T15:42:03.000Z</time>
      </trkpt>
      <trkpt lat="47.12129" lon="-1.53232">
        <ele>59</ele>
        <time>2021-08-23T15:42:05.000Z</time>
      </trkpt>
      <trkpt lat="47.12138" lon="-1.53216">
        <ele>59</ele>
        <time>2021-08-23T15:42:07.000Z</time>
      </trkpt>
      <trkpt lat="47.12146" lon="-1.532">
        <ele>60</ele>
        <time>2021-08-23T15:42:09.000Z</time>
      </trkpt>
      <trkpt lat="47.12155" lon="-1.53184">
        <ele>60</ele>
        <time>2021-08-23T15:42:11.000Z</time>
      </trkpt>
      <trkpt lat="47.12163" lon="-1.53169">
        <ele>60</ele>
        <time>2021-08-23T15:42:13.000Z</time>
      </trkpt>
      <trkpt lat="47.12171" lon="-1.53153">
        <ele>59</ele>
        <time>2021-08-23T15:42:15.000Z</time>
      </trkpt>
      <trkpt lat="47.12179" lon="-1.53138">
        <ele>60</ele>
        <time>2021-08-23T15:42:17.000Z</time>
      </trkpt>
      <trkpt lat="47.12187" lon="-1.53122">
        <ele>60</ele>
        <time>2021-08-23T15:42:19.000Z</time>
      </trkpt>
      <trkpt lat="47.12195" lon="-1.53107">
        <ele>59</ele>
        <time>2021-08-23T15:42:21.000Z</time>
      </trkpt>
      <trkpt lat="47.12203" lon="-1.53092">
        <ele>59</ele>
        <time>2021-08-23T15:42:23.000Z</time>
      </trkpt>
      <trkpt lat="47.1221" lon="-1.53077">
        <ele>60</ele>
        <time>2021-08-23T15:42:25.000Z</time>
      </trkpt>
      <trkpt lat="47.12218" lon="-1.53064">
        <ele>59</ele>
        <time>2021-08-23T15:42:27.000Z</time>
      </trkpt>
      <trkpt lat="47.12225" lon="-1.53049">
        <ele>60</ele>
        <time>2021-08-23T15:42:29.000Z</time>
      </trkpt>
      <trkpt lat="47.12233" lon="-1.53035">
        <ele>60</ele>
        <time>2021-08-23T15:42:31.000Z</time>
      </trkpt>
      <trkpt lat="47.1224" lon="-1.53021">
        <ele>60</ele>
        <time>2021-08-23T15:42:33.000Z</time>
      </trkpt>
      <trkpt lat="47.12248" lon="-1.53007">
        <ele>61</ele>
        <time>2021-08-23T15:42:35.000Z</time>
      </trkpt>
      <trkpt lat="47.12255" lon="-1.52994">
        <ele>61</ele>
        <time>2021-08-23T15:42:37.000Z</time>
      </trkpt>
      <trkpt lat="47.12262" lon="-1.5298">
        <ele>61</ele>
        <time>2021-08-23T15:42:39.000Z</time>
      </trkpt>
      <trkpt lat="47.1227" lon="-1.52967">
        <ele>61</ele>
        <time>2021-08-23T15:42:41.000Z</time>
      </trkpt>
      <trkpt lat="47.12277" lon="-1.52954">
        <ele>62</ele>
        <time>2021-08-23T15:42:43.000Z</time>
      </trkpt>
      <trkpt lat="47.12284" lon="-1.52941">
        <ele>62</ele>
        <time>2021-08-23T15:42:45.000Z</time>
      </trkpt>
      <trkpt lat="47.12291" lon="-1.52928">
        <ele>62</ele>
        <time>2021-08-23T15:42:47.000Z</time>
      </trkpt>
      <trkpt lat="47.12298" lon="-1.52915">
        <ele>63</ele>
        <time>2021-08-23T15:42:49.000Z</time>
      </trkpt>
      <trkpt lat="47.12305" lon="-1.52902">
        <ele>63</ele>
        <time>2021-08-23T15:42:51.000Z</time>
      </trkpt>
      <trkpt lat="47.12312" lon="-1.5289">
        <ele>63</ele>
        <time>2021-08-23T15:42:53.000Z</time>
      </trkpt>
      <trkpt lat="47.1232" lon="-1.52878">
        <ele>63</ele>
        <time>2021-08-23T15:42:55.000Z</time>
      </trkpt>
      <trkpt lat="47.12328" lon="-1.52866">
        <ele>64</ele>
        <time>2021-08-23T15:42:57.000Z</time>
      </trkpt>
      <trkpt lat="47.12336" lon="-1.52854">
        <ele>64</ele>
        <time>2021-08-23T15:42:59.000Z</time>
      </trkpt>
      <trkpt lat="47.12345" lon="-1.52843">
        <ele>64</ele>
        <time>2021-08-23T15:43:01.000Z</time>
      </trkpt>
      <trkpt lat="47.12353" lon="-1.52833">
        <ele>64</ele>
        <time>2021-08-23T15:43:03.000Z</time>
      </trkpt>
      <trkpt lat="47.12363" lon="-1.52825">
        <ele>64</ele>
        <time>2021-08-23T15:43:05.000Z</time>
      </trkpt>
      <trkpt lat="47.12371" lon="-1.52816">
        <ele>65</ele>
        <time>2021-08-23T15:43:07.000Z</time>
      </trkpt>
      <trkpt lat="47.12379" lon="-1.52808">
        <ele>65</ele>
        <time>2021-08-23T15:43:09.000Z</time>
      </trkpt>
      <trkpt lat="47.12388" lon="-1.528">
        <ele>66</ele>
        <time>2021-08-23T15:43:11.000Z</time>
      </trkpt>
      <trkpt lat="47.12396" lon="-1.52792">
        <ele>66</ele>
        <time>2021-08-23T15:43:13.000Z</time>
      </trkpt>
      <trkpt lat="47.12405" lon="-1.52783">
        <ele>66</ele>
        <time>2021-08-23T15:43:15.000Z</time>
      </trkpt>
      <trkpt lat="47.12413" lon="-1.52775">
        <ele>66</ele>
        <time>2021-08-23T15:43:17.000Z</time>
      </trkpt>
      <trkpt lat="47.12422" lon="-1.52766">
        <ele>67</ele>
        <time>2021-08-23T15:43:19.000Z</time>
      </trkpt>
      <trkpt lat="47.12431" lon="-1.52758">
        <ele>68</ele>
        <time>2021-08-23T15:43:21.000Z</time>
      </trkpt>
      <trkpt lat="47.1244" lon="-1.5275">
        <ele>68</ele>
        <time>2021-08-23T15:43:23.000Z</time>
      </trkpt>
      <trkpt lat="47.12449" lon="-1.52744">
        <ele>68</ele>
        <time>2021-08-23T15:43:25.000Z</time>
      </trkpt>
      <trkpt lat="47.12459" lon="-1.52738">
        <ele>68</ele>
        <time>2021-08-23T15:43:27.000Z</time>
      </trkpt>
      <trkpt lat="47.12468" lon="-1.52735">
        <ele>69</ele>
        <time>2021-08-23T15:43:29.000Z</time>
      </trkpt>
      <trkpt lat="47.12477" lon="-1.52731">
        <ele>69</ele>
        <time>2021-08-23T15:43:31.000Z</time>
      </trkpt>
      <trkpt lat="47.12487" lon="-1.52729">
        <ele>70</ele>
        <time>2021-08-23T15:43:33.000Z</time>
      </trkpt>
      <trkpt lat="47.125" lon="-1.52727">
        <ele>71</ele>
        <time>2021-08-23T15:43:36.000Z</time>
      </trkpt>
      <trkpt lat="47.1251" lon="-1.52718">
        <ele>72</ele>
        <time>2021-08-23T15:43:39.000Z</time>
      </trkpt>
      <trkpt lat="47.12503" lon="-1.52704">
        <ele>75</ele>
        <time>2021-08-23T15:43:44.000Z</time>
      </trkpt>
      <trkpt lat="47.12493" lon="-1.527">
        <ele>75</ele>
        <time>2021-08-23T15:43:46.000Z</time>
      </trkpt>
      <trkpt lat="47.12484" lon="-1.52697">
        <ele>75</ele>
        <time>2021-08-23T15:43:48.000Z</time>
      </trkpt>
      <trkpt lat="47.12474" lon="-1.52696">
        <ele>75</ele>
        <time>2021-08-23T15:43:50.000Z</time>
      </trkpt>
      <trkpt lat="47.12464" lon="-1.52694">
        <ele>75</ele>
        <time>2021-08-23T15:43:52.000Z</time>
      </trkpt>
      <trkpt lat="47.12453" lon="-1.52692">
        <ele>74</ele>
        <time>2021-08-23T15:43:54.000Z</time>
      </trkpt>
      <trkpt lat="47.12443" lon="-1.5269">
        <ele>74</ele>
        <time>2021-08-23T15:43:56.000Z</time>
      </trkpt>
      <trkpt lat="47.12431" lon="-1.52688">
        <ele>74</ele>
        <time>2021-08-23T15:43:58.000Z</time>
      </trkpt>
      <trkpt lat="47.1242" lon="-1.52685">
        <ele>74</ele>
        <time>2021-08-23T15:44:00.000Z</time>
      </trkpt>
      <trkpt lat="47.12408" lon="-1.52683">
        <ele>74</ele>
        <time>2021-08-23T15:44:02.000Z</time>
      </trkpt>
      <trkpt lat="47.12395" lon="-1.52681">
        <ele>73</ele>
        <time>2021-08-23T15:44:04.000Z</time>
      </trkpt>
      <trkpt lat="47.12381" lon="-1.52678">
        <ele>73</ele>
        <time>2021-08-23T15:44:06.000Z</time>
      </trkpt>
      <trkpt lat="47.12367" lon="-1.52674">
        <ele>72</ele>
        <time>2021-08-23T15:44:08.000Z</time>
      </trkpt>
      <trkpt lat="47.12352" lon="-1.5267">
        <ele>71</ele>
        <time>2021-08-23T15:44:10.000Z</time>
      </trkpt>
      <trkpt lat="47.12335" lon="-1.52665">
        <ele>70</ele>
        <time>2021-08-23T15:44:12.000Z</time>
      </trkpt>
      <trkpt lat="47.12319" lon="-1.52659">
        <ele>69</ele>
        <time>2021-08-23T15:44:14.000Z</time>
      </trkpt>
      <trkpt lat="47.12303" lon="-1.52652">
        <ele>69</ele>
        <time>2021-08-23T15:44:16.000Z</time>
      </trkpt>
      <trkpt lat="47.12286" lon="-1.52644">
        <ele>68</ele>
        <time>2021-08-23T15:44:18.000Z</time>
      </trkpt>
      <trkpt lat="47.1227" lon="-1.52635">
        <ele>68</ele>
        <time>2021-08-23T15:44:20.000Z</time>
      </trkpt>
      <trkpt lat="47.12255" lon="-1.52626">
        <ele>68</ele>
        <time>2021-08-23T15:44:22.000Z</time>
      </trkpt>
      <trkpt lat="47.12239" lon="-1.52617">
        <ele>67</ele>
        <time>2021-08-23T15:44:24.000Z</time>
      </trkpt>
      <trkpt lat="47.12223" lon="-1.52609">
        <ele>67</ele>
        <time>2021-08-23T15:44:26.000Z</time>
      </trkpt>
      <trkpt lat="47.12207" lon="-1.52602">
        <ele>66</ele>
        <time>2021-08-23T15:44:28.000Z</time>
      </trkpt>
      <trkpt lat="47.12191" lon="-1.52597">
        <ele>66</ele>
        <time>2021-08-23T15:44:30.000Z</time>
      </trkpt>
      <trkpt lat="47.12175" lon="-1.52594">
        <ele>66</ele>
        <time>2021-08-23T15:44:32.000Z</time>
      </trkpt>
      <trkpt lat="47.12159" lon="-1.52593">
        <ele>65</ele>
        <time>2021-08-23T15:44:34.000Z</time>
      </trkpt>
      <trkpt lat="47.12142" lon="-1.52593">
        <ele>65</ele>
        <time>2021-08-23T15:44:36.000Z</time>
      </trkpt>
      <trkpt lat="47.12126" lon="-1.52593">
        <ele>64</ele>
        <time>2021-08-23T15:44:38.000Z</time>
      </trkpt>
      <trkpt lat="47.12111" lon="-1.52593">
        <ele>65</ele>
        <time>2021-08-23T15:44:40.000Z</time>
      </trkpt>
      <trkpt lat="47.12095" lon="-1.52593">
        <ele>65</ele>
        <time>2021-08-23T15:44:42.000Z</time>
      </trkpt>
      <trkpt lat="47.12078" lon="-1.52594">
        <ele>65</ele>
        <time>2021-08-23T15:44:44.000Z</time>
      </trkpt>
      <trkpt lat="47.12061" lon="-1.52593">
        <ele>64</ele>
        <time>2021-08-23T15:44:46.000Z</time>
      </trkpt>
      <trkpt lat="47.12045" lon="-1.52593">
        <ele>64</ele>
        <time>2021-08-23T15:44:48.000Z</time>
      </trkpt>
      <trkpt lat="47.12029" lon="-1.52593">
        <ele>64</ele>
        <time>2021-08-23T15:44:50.000Z</time>
      </trkpt>
      <trkpt lat="47.12013" lon="-1.52591">
        <ele>64</ele>
        <time>2021-08-23T15:44:52.000Z</time>
      </trkpt>
      <trkpt lat="47.11997" lon="-1.52586">
        <ele>63</ele>
        <time>2021-08-23T15:44:54.000Z</time>
      </trkpt>
      <trkpt lat="47.11982" lon="-1.52579">
        <ele>62</ele>
        <time>2021-08-23T15:44:56.000Z</time>
      </trkpt>
      <trkpt lat="47.11965" lon="-1.52572">
        <ele>61</ele>
        <time>2021-08-23T15:44:58.000Z</time>
      </trkpt>
      <trkpt lat="47.1195" lon="-1.52564">
        <ele>61</ele>
        <time>2021-08-23T15:45:00.000Z</time>
      </trkpt>
      <trkpt lat="47.11935" lon="-1.52555">
        <ele>61</ele>
        <time>2021-08-23T15:45:02.000Z</time>
      </trkpt>
      <trkpt lat="47.11919" lon="-1.52543">
        <ele>60</ele>
        <time>2021-08-23T15:45:04.000Z</time>
      </trkpt>
      <trkpt lat="47.11905" lon="-1.5253">
        <ele>59</ele>
        <time>2021-08-23T15:45:06.000Z</time>
      </trkpt>
      <trkpt lat="47.11892" lon="-1.52517">
        <ele>60</ele>
        <time>2021-08-23T15:45:08.000Z</time>
      </trkpt>
      <trkpt lat="47.11879" lon="-1.52503">
        <ele>59</ele>
        <time>2021-08-23T15:45:10.000Z</time>
      </trkpt>
      <trkpt lat="47.11869" lon="-1.52488">
        <ele>60</ele>
        <time>2021-08-23T15:45:12.000Z</time>
      </trkpt>
      <trkpt lat="47.11858" lon="-1.52474">
        <ele>60</ele>
        <time>2021-08-23T15:45:14.000Z</time>
      </trkpt>
      <trkpt lat="47.11849" lon="-1.52461">
        <ele>61</ele>
        <time>2021-08-23T15:45:16.000Z</time>
      </trkpt>
      <trkpt lat="47.1184" lon="-1.52449">
        <ele>62</ele>
        <time>2021-08-23T15:45:18.000Z</time>
      </trkpt>
      <trkpt lat="47.11831" lon="-1.52437">
        <ele>62</ele>
        <time>2021-08-23T15:45:20.000Z</time>
      </trkpt>
      <trkpt lat="47.11821" lon="-1.52425">
        <ele>62</ele>
        <time>2021-08-23T15:45:22.000Z</time>
      </trkpt>
      <trkpt lat="47.11812" lon="-1.52413">
        <ele>63</ele>
        <time>2021-08-23T15:45:24.000Z</time>
      </trkpt>
      <trkpt lat="47.11804" lon="-1.52401">
        <ele>63</ele>
        <time>2021-08-23T15:45:26.000Z</time>
      </trkpt>
      <trkpt lat="47.11794" lon="-1.52389">
        <ele>64</ele>
        <time>2021-08-23T15:45:28.000Z</time>
      </trkpt>
      <trkpt lat="47.11786" lon="-1.52377">
        <ele>65</ele>
        <time>2021-08-23T15:45:30.000Z</time>
      </trkpt>
      <trkpt lat="47.11777" lon="-1.52365">
        <ele>65</ele>
        <time>2021-08-23T15:45:32.000Z</time>
      </trkpt>
      <trkpt lat="47.11768" lon="-1.52353">
        <ele>66</ele>
        <time>2021-08-23T15:45:34.000Z</time>
      </trkpt>
      <trkpt lat="47.11759" lon="-1.52341">
        <ele>66</ele>
        <time>2021-08-23T15:45:36.000Z</time>
      </trkpt>
      <trkpt lat="47.11751" lon="-1.5233">
        <ele>67</ele>
        <time>2021-08-23T15:45:38.000Z</time>
      </trkpt>
      <trkpt lat="47.11742" lon="-1.52319">
        <ele>67</ele>
        <time>2021-08-23T15:45:40.000Z</time>
      </trkpt>
      <trkpt lat="47.11733" lon="-1.52308">
        <ele>68</ele>
        <time>2021-08-23T15:45:42.000Z</time>
      </trkpt>
      <trkpt lat="47.11724" lon="-1.52298">
        <ele>68</ele>
        <time>2021-08-23T15:45:44.000Z</time>
      </trkpt>
      <trkpt lat="47.11715" lon="-1.5229">
        <ele>68</ele>
        <time>2021-08-23T15:45:46.000Z</time>
      </trkpt>
      <trkpt lat="47.11706" lon="-1.52283">
        <ele>68</ele>
        <time>2021-08-23T15:45:48.000Z</time>
      </trkpt>
      <trkpt lat="47.11694" lon="-1.52277">
        <ele>68</ele>
        <time>2021-08-23T15:45:50.000Z</time>
      </trkpt>
      <trkpt lat="47.1168" lon="-1.52269">
        <ele>67</ele>
        <time>2021-08-23T15:45:52.000Z</time>
      </trkpt>
      <trkpt lat="47.11665" lon="-1.52261">
        <ele>66</ele>
        <time>2021-08-23T15:45:54.000Z</time>
      </trkpt>
      <trkpt lat="47.1165" lon="-1.52252">
        <ele>65</ele>
        <time>2021-08-23T15:45:56.000Z</time>
      </trkpt>
      <trkpt lat="47.11635" lon="-1.52243">
        <ele>65</ele>
        <time>2021-08-23T15:45:58.000Z</time>
      </trkpt>
      <trkpt lat="47.11619" lon="-1.52234">
        <ele>63</ele>
        <time>2021-08-23T15:46:00.000Z</time>
      </trkpt>
      <trkpt lat="47.11604" lon="-1.52223">
        <ele>63</ele>
        <time>2021-08-23T15:46:02.000Z</time>
      </trkpt>
      <trkpt lat="47.11589" lon="-1.5221">
        <ele>62</ele>
        <time>2021-08-23T15:46:04.000Z</time>
      </trkpt>
      <trkpt lat="47.11576" lon="-1.52194">
        <ele>62</ele>
        <time>2021-08-23T15:46:06.000Z</time>
      </trkpt>
      <trkpt lat="47.11569" lon="-1.52184">
        <ele>62</ele>
        <time>2021-08-23T15:46:07.000Z</time>
      </trkpt>
      <trkpt lat="47.11558" lon="-1.52165">
        <ele>62</ele>
        <time>2021-08-23T15:46:09.000Z</time>
      </trkpt>
      <trkpt lat="47.11547" lon="-1.52145">
        <ele>61</ele>
        <time>2021-08-23T15:46:11.000Z</time>
      </trkpt>
      <trkpt lat="47.11536" lon="-1.52126">
        <ele>61</ele>
        <time>2021-08-23T15:46:13.000Z</time>
      </trkpt>
      <trkpt lat="47.11525" lon="-1.52107">
        <ele>61</ele>
        <time>2021-08-23T15:46:15.000Z</time>
      </trkpt>
      <trkpt lat="47.11515" lon="-1.52088">
        <ele>61</ele>
        <time>2021-08-23T15:46:17.000Z</time>
      </trkpt>
      <trkpt lat="47.11504" lon="-1.52069">
        <ele>61</ele>
        <time>2021-08-23T15:46:19.000Z</time>
      </trkpt>
      <trkpt lat="47.11494" lon="-1.52051">
        <ele>61</ele>
        <time>2021-08-23T15:46:21.000Z</time>
      </trkpt>
      <trkpt lat="47.11483" lon="-1.52032">
        <ele>60</ele>
        <time>2021-08-23T15:46:23.000Z</time>
      </trkpt>
      <trkpt lat="47.11474" lon="-1.52015">
        <ele>60</ele>
        <time>2021-08-23T15:46:25.000Z</time>
      </trkpt>
      <trkpt lat="47.11464" lon="-1.51998">
        <ele>60</ele>
        <time>2021-08-23T15:46:27.000Z</time>
      </trkpt>
      <trkpt lat="47.11454" lon="-1.51981">
        <ele>61</ele>
        <time>2021-08-23T15:46:29.000Z</time>
      </trkpt>
      <trkpt lat="47.11444" lon="-1.51964">
        <ele>60</ele>
        <time>2021-08-23T15:46:31.000Z</time>
      </trkpt>
      <trkpt lat="47.11434" lon="-1.51947">
        <ele>61</ele>
        <time>2021-08-23T15:46:33.000Z</time>
      </trkpt>
      <trkpt lat="47.11425" lon="-1.5193">
        <ele>60</ele>
        <time>2021-08-23T15:46:35.000Z</time>
      </trkpt>
      <trkpt lat="47.11416" lon="-1.51913">
        <ele>60</ele>
        <time>2021-08-23T15:46:37.000Z</time>
      </trkpt>
      <trkpt lat="47.11407" lon="-1.51897">
        <ele>60</ele>
        <time>2021-08-23T15:46:39.000Z</time>
      </trkpt>
      <trkpt lat="47.11398" lon="-1.5188">
        <ele>61</ele>
        <time>2021-08-23T15:46:41.000Z</time>
      </trkpt>
      <trkpt lat="47.11388" lon="-1.51864">
        <ele>61</ele>
        <time>2021-08-23T15:46:43.000Z</time>
      </trkpt>
      <trkpt lat="47.11379" lon="-1.51847">
        <ele>61</ele>
        <time>2021-08-23T15:46:45.000Z</time>
      </trkpt>
      <trkpt lat="47.11369" lon="-1.5183">
        <ele>61</ele>
        <time>2021-08-23T15:46:47.000Z</time>
      </trkpt>
      <trkpt lat="47.11359" lon="-1.51813">
        <ele>61</ele>
        <time>2021-08-23T15:46:49.000Z</time>
      </trkpt>
      <trkpt lat="47.11348" lon="-1.51798">
        <ele>60</ele>
        <time>2021-08-23T15:46:51.000Z</time>
      </trkpt>
      <trkpt lat="47.11337" lon="-1.51784">
        <ele>60</ele>
        <time>2021-08-23T15:46:53.000Z</time>
      </trkpt>
      <trkpt lat="47.11324" lon="-1.51773">
        <ele>59</ele>
        <time>2021-08-23T15:46:55.000Z</time>
      </trkpt>
      <trkpt lat="47.11312" lon="-1.51762">
        <ele>60</ele>
        <time>2021-08-23T15:46:57.000Z</time>
      </trkpt>
      <trkpt lat="47.11299" lon="-1.51752">
        <ele>60</ele>
        <time>2021-08-23T15:46:59.000Z</time>
      </trkpt>
      <trkpt lat="47.11287" lon="-1.51742">
        <ele>60</ele>
        <time>2021-08-23T15:47:01.000Z</time>
      </trkpt>
      <trkpt lat="47.11276" lon="-1.51732">
        <ele>60</ele>
        <time>2021-08-23T15:47:03.000Z</time>
      </trkpt>
      <trkpt lat="47.11264" lon="-1.51722">
        <ele>61</ele>
        <time>2021-08-23T15:47:05.000Z</time>
      </trkpt>
      <trkpt lat="47.11253" lon="-1.51712">
        <ele>61</ele>
        <time>2021-08-23T15:47:07.000Z</time>
      </trkpt>
      <trkpt lat="47.11242" lon="-1.51702">
        <ele>61</ele>
        <time>2021-08-23T15:47:09.000Z</time>
      </trkpt>
      <trkpt lat="47.1123" lon="-1.51692">
        <ele>62</ele>
        <time>2021-08-23T15:47:11.000Z</time>
      </trkpt>
      <trkpt lat="47.11219" lon="-1.51681">
        <ele>62</ele>
        <time>2021-08-23T15:47:13.000Z</time>
      </trkpt>
      <trkpt lat="47.11207" lon="-1.51671">
        <ele>62</ele>
        <time>2021-08-23T15:47:15.000Z</time>
      </trkpt>
      <trkpt lat="47.11197" lon="-1.5166">
        <ele>62</ele>
        <time>2021-08-23T15:47:17.000Z</time>
      </trkpt>
      <trkpt lat="47.11187" lon="-1.51648">
        <ele>62</ele>
        <time>2021-08-23T15:47:19.000Z</time>
      </trkpt>
      <trkpt lat="47.11177" lon="-1.51635">
        <ele>63</ele>
        <time>2021-08-23T15:47:21.000Z</time>
      </trkpt>
      <trkpt lat="47.11168" lon="-1.5162">
        <ele>63</ele>
        <time>2021-08-23T15:47:23.000Z</time>
      </trkpt>
      <trkpt lat="47.11159" lon="-1.51606">
        <ele>64</ele>
        <time>2021-08-23T15:47:25.000Z</time>
      </trkpt>
      <trkpt lat="47.1115" lon="-1.51593">
        <ele>64</ele>
        <time>2021-08-23T15:47:27.000Z</time>
      </trkpt>
      <trkpt lat="47.11141" lon="-1.51579">
        <ele>65</ele>
        <time>2021-08-23T15:47:29.000Z</time>
      </trkpt>
      <trkpt lat="47.11133" lon="-1.51566">
        <ele>66</ele>
        <time>2021-08-23T15:47:31.000Z</time>
      </trkpt>
      <trkpt lat="47.11124" lon="-1.51552">
        <ele>66</ele>
        <time>2021-08-23T15:47:33.000Z</time>
      </trkpt>
      <trkpt lat="47.11115" lon="-1.51539">
        <ele>67</ele>
        <time>2021-08-23T15:47:35.000Z</time>
      </trkpt>
      <trkpt lat="47.11107" lon="-1.51525">
        <ele>68</ele>
        <time>2021-08-23T15:47:37.000Z</time>
      </trkpt>
      <trkpt lat="47.11098" lon="-1.51511">
        <ele>68</ele>
        <time>2021-08-23T15:47:39.000Z</time>
      </trkpt>
      <trkpt lat="47.11089" lon="-1.51499">
        <ele>69</ele>
        <time>2021-08-23T15:47:41.000Z</time>
      </trkpt>
      <trkpt lat="47.1108" lon="-1.51487">
        <ele>69</ele>
        <time>2021-08-23T15:47:43.000Z</time>
      </trkpt>
      <trkpt lat="47.1107" lon="-1.51476">
        <ele>69</ele>
        <time>2021-08-23T15:47:45.000Z</time>
      </trkpt>
      <trkpt lat="47.1106" lon="-1.51466">
        <ele>69</ele>
        <time>2021-08-23T15:47:47.000Z</time>
      </trkpt>
      <trkpt lat="47.1105" lon="-1.51456">
        <ele>69</ele>
        <time>2021-08-23T15:47:49.000Z</time>
      </trkpt>
      <trkpt lat="47.11039" lon="-1.51446">
        <ele>69</ele>
        <time>2021-08-23T15:47:51.000Z</time>
      </trkpt>
      <trkpt lat="47.11029" lon="-1.51434">
        <ele>69</ele>
        <time>2021-08-23T15:47:53.000Z</time>
      </trkpt>
      <trkpt lat="47.11018" lon="-1.51424">
        <ele>69</ele>
        <time>2021-08-23T15:47:55.000Z</time>
      </trkpt>
      <trkpt lat="47.11006" lon="-1.51415">
        <ele>69</ele>
        <time>2021-08-23T15:47:57.000Z</time>
      </trkpt>
      <trkpt lat="47.10994" lon="-1.51404">
        <ele>70</ele>
        <time>2021-08-23T15:47:59.000Z</time>
      </trkpt>
      <trkpt lat="47.10982" lon="-1.51393">
        <ele>70</ele>
        <time>2021-08-23T15:48:01.000Z</time>
      </trkpt>
      <trkpt lat="47.10969" lon="-1.51381">
        <ele>70</ele>
        <time>2021-08-23T15:48:03.000Z</time>
      </trkpt>
      <trkpt lat="47.10957" lon="-1.5137">
        <ele>70</ele>
        <time>2021-08-23T15:48:05.000Z</time>
      </trkpt>
      <trkpt lat="47.10945" lon="-1.51358">
        <ele>70</ele>
        <time>2021-08-23T15:48:07.000Z</time>
      </trkpt>
      <trkpt lat="47.10933" lon="-1.51347">
        <ele>70</ele>
        <time>2021-08-23T15:48:09.000Z</time>
      </trkpt>
      <trkpt lat="47.10921" lon="-1.51335">
        <ele>70</ele>
        <time>2021-08-23T15:48:11.000Z</time>
      </trkpt>
      <trkpt lat="47.10909" lon="-1.51323">
        <ele>70</ele>
        <time>2021-08-23T15:48:13.000Z</time>
      </trkpt>
      <trkpt lat="47.10897" lon="-1.51312">
        <ele>70</ele>
        <time>2021-08-23T15:48:15.000Z</time>
      </trkpt>
      <trkpt lat="47.10885" lon="-1.513">
        <ele>70</ele>
        <time>2021-08-23T15:48:17.000Z</time>
      </trkpt>
      <trkpt lat="47.10873" lon="-1.51289">
        <ele>70</ele>
        <time>2021-08-23T15:48:19.000Z</time>
      </trkpt>
      <trkpt lat="47.10861" lon="-1.51277">
        <ele>70</ele>
        <time>2021-08-23T15:48:21.000Z</time>
      </trkpt>
      <trkpt lat="47.10849" lon="-1.51265">
        <ele>70</ele>
        <time>2021-08-23T15:48:23.000Z</time>
      </trkpt>
      <trkpt lat="47.10836" lon="-1.51254">
        <ele>70</ele>
        <time>2021-08-23T15:48:25.000Z</time>
      </trkpt>
      <trkpt lat="47.10824" lon="-1.51242">
        <ele>70</ele>
        <time>2021-08-23T15:48:27.000Z</time>
      </trkpt>
      <trkpt lat="47.10812" lon="-1.5123">
        <ele>70</ele>
        <time>2021-08-23T15:48:29.000Z</time>
      </trkpt>
      <trkpt lat="47.108" lon="-1.51219">
        <ele>70</ele>
        <time>2021-08-23T15:48:31.000Z</time>
      </trkpt>
      <trkpt lat="47.10788" lon="-1.51207">
        <ele>71</ele>
        <time>2021-08-23T15:48:33.000Z</time>
      </trkpt>
      <trkpt lat="47.10777" lon="-1.51196">
        <ele>71</ele>
        <time>2021-08-23T15:48:35.000Z</time>
      </trkpt>
      <trkpt lat="47.10765" lon="-1.51184">
        <ele>71</ele>
        <time>2021-08-23T15:48:37.000Z</time>
      </trkpt>
      <trkpt lat="47.10752" lon="-1.51173">
        <ele>71</ele>
        <time>2021-08-23T15:48:39.000Z</time>
      </trkpt>
      <trkpt lat="47.10741" lon="-1.51162">
        <ele>70</ele>
        <time>2021-08-23T15:48:41.000Z</time>
      </trkpt>
      <trkpt lat="47.10729" lon="-1.51151">
        <ele>71</ele>
        <time>2021-08-23T15:48:43.000Z</time>
      </trkpt>
      <trkpt lat="47.10717" lon="-1.51139">
        <ele>70</ele>
        <time>2021-08-23T15:48:45.000Z</time>
      </trkpt>
      <trkpt lat="47.10705" lon="-1.51126">
        <ele>70</ele>
        <time>2021-08-23T15:48:47.000Z</time>
      </trkpt>
      <trkpt lat="47.10694" lon="-1.51113">
        <ele>70</ele>
        <time>2021-08-23T15:48:49.000Z</time>
      </trkpt>
      <trkpt lat="47.10684" lon="-1.51095">
        <ele>69</ele>
        <time>2021-08-23T15:48:51.000Z</time>
      </trkpt>
      <trkpt lat="47.10677" lon="-1.51076">
        <ele>69</ele>
        <time>2021-08-23T15:48:53.000Z</time>
      </trkpt>
      <trkpt lat="47.1067" lon="-1.51055">
        <ele>68</ele>
        <time>2021-08-23T15:48:55.000Z</time>
      </trkpt>
      <trkpt lat="47.10662" lon="-1.51034">
        <ele>67</ele>
        <time>2021-08-23T15:48:57.000Z</time>
      </trkpt>
      <trkpt lat="47.10654" lon="-1.51014">
        <ele>67</ele>
        <time>2021-08-23T15:48:59.000Z</time>
      </trkpt>
      <trkpt lat="47.10644" lon="-1.50995">
        <ele>67</ele>
        <time>2021-08-23T15:49:01.000Z</time>
      </trkpt>
      <trkpt lat="47.10631" lon="-1.50979">
        <ele>67</ele>
        <time>2021-08-23T15:49:03.000Z</time>
      </trkpt>
      <trkpt lat="47.10617" lon="-1.50964">
        <ele>66</ele>
        <time>2021-08-23T15:49:05.000Z</time>
      </trkpt>
      <trkpt lat="47.10603" lon="-1.50949">
        <ele>65</ele>
        <time>2021-08-23T15:49:07.000Z</time>
      </trkpt>
      <trkpt lat="47.10589" lon="-1.50934">
        <ele>64</ele>
        <time>2021-08-23T15:49:09.000Z</time>
      </trkpt>
      <trkpt lat="47.10575" lon="-1.50919">
        <ele>64</ele>
        <time>2021-08-23T15:49:11.000Z</time>
      </trkpt>
      <trkpt lat="47.10562" lon="-1.50903">
        <ele>63</ele>
        <time>2021-08-23T15:49:13.000Z</time>
      </trkpt>
      <trkpt lat="47.10549" lon="-1.50888">
        <ele>63</ele>
        <time>2021-08-23T15:49:15.000Z</time>
      </trkpt>
      <trkpt lat="47.10536" lon="-1.50873">
        <ele>63</ele>
        <time>2021-08-23T15:49:17.000Z</time>
      </trkpt>
      <trkpt lat="47.10525" lon="-1.50856">
        <ele>64</ele>
        <time>2021-08-23T15:49:19.000Z</time>
      </trkpt>
      <trkpt lat="47.10514" lon="-1.50837">
        <ele>64</ele>
        <time>2021-08-23T15:49:21.000Z</time>
      </trkpt>
      <trkpt lat="47.10503" lon="-1.50817">
        <ele>63</ele>
        <time>2021-08-23T15:49:23.000Z</time>
      </trkpt>
      <trkpt lat="47.10491" lon="-1.50797">
        <ele>63</ele>
        <time>2021-08-23T15:49:25.000Z</time>
      </trkpt>
      <trkpt lat="47.1048" lon="-1.50777">
        <ele>62</ele>
        <time>2021-08-23T15:49:27.000Z</time>
      </trkpt>
      <trkpt lat="47.1047" lon="-1.50756">
        <ele>62</ele>
        <time>2021-08-23T15:49:29.000Z</time>
      </trkpt>
      <trkpt lat="47.10462" lon="-1.50734">
        <ele>62</ele>
        <time>2021-08-23T15:49:31.000Z</time>
      </trkpt>
      <trkpt lat="47.10457" lon="-1.50712">
        <ele>62</ele>
        <time>2021-08-23T15:49:33.000Z</time>
      </trkpt>
      <trkpt lat="47.10451" lon="-1.5069">
        <ele>62</ele>
        <time>2021-08-23T15:49:35.000Z</time>
      </trkpt>
      <trkpt lat="47.10444" lon="-1.50669">
        <ele>62</ele>
        <time>2021-08-23T15:49:37.000Z</time>
      </trkpt>
      <trkpt lat="47.10436" lon="-1.50649">
        <ele>62</ele>
        <time>2021-08-23T15:49:39.000Z</time>
      </trkpt>
      <trkpt lat="47.10425" lon="-1.50635">
        <ele>62</ele>
        <time>2021-08-23T15:49:41.000Z</time>
      </trkpt>
      <trkpt lat="47.10412" lon="-1.50623">
        <ele>61</ele>
        <time>2021-08-23T15:49:43.000Z</time>
      </trkpt>
      <trkpt lat="47.10398" lon="-1.50612">
        <ele>61</ele>
        <time>2021-08-23T15:49:45.000Z</time>
      </trkpt>
      <trkpt lat="47.10387" lon="-1.50601">
        <ele>61</ele>
        <time>2021-08-23T15:49:47.000Z</time>
      </trkpt>
      <trkpt lat="47.10376" lon="-1.50586">
        <ele>61</ele>
        <time>2021-08-23T15:49:49.000Z</time>
      </trkpt>
      <trkpt lat="47.10366" lon="-1.5057">
        <ele>62</ele>
        <time>2021-08-23T15:49:51.000Z</time>
      </trkpt>
      <trkpt lat="47.10356" lon="-1.50555">
        <ele>62</ele>
        <time>2021-08-23T15:49:53.000Z</time>
      </trkpt>
      <trkpt lat="47.10347" lon="-1.50539">
        <ele>62</ele>
        <time>2021-08-23T15:49:55.000Z</time>
      </trkpt>
      <trkpt lat="47.10337" lon="-1.50523">
        <ele>62</ele>
        <time>2021-08-23T15:49:57.000Z</time>
      </trkpt>
      <trkpt lat="47.10327" lon="-1.50507">
        <ele>63</ele>
        <time>2021-08-23T15:49:59.000Z</time>
      </trkpt>
      <trkpt lat="47.10318" lon="-1.50491">
        <ele>63</ele>
        <time>2021-08-23T15:50:01.000Z</time>
      </trkpt>
      <trkpt lat="47.10308" lon="-1.50475">
        <ele>63</ele>
        <time>2021-08-23T15:50:03.000Z</time>
      </trkpt>
      <trkpt lat="47.10299" lon="-1.5046">
        <ele>64</ele>
        <time>2021-08-23T15:50:05.000Z</time>
      </trkpt>
      <trkpt lat="47.10291" lon="-1.50445">
        <ele>64</ele>
        <time>2021-08-23T15:50:07.000Z</time>
      </trkpt>
      <trkpt lat="47.10281" lon="-1.5043">
        <ele>65</ele>
        <time>2021-08-23T15:50:09.000Z</time>
      </trkpt>
      <trkpt lat="47.10272" lon="-1.50415">
        <ele>65</ele>
        <time>2021-08-23T15:50:11.000Z</time>
      </trkpt>
      <trkpt lat="47.10263" lon="-1.504">
        <ele>65</ele>
        <time>2021-08-23T15:50:13.000Z</time>
      </trkpt>
      <trkpt lat="47.10254" lon="-1.50384">
        <ele>65</ele>
        <time>2021-08-23T15:50:15.000Z</time>
      </trkpt>
      <trkpt lat="47.10244" lon="-1.50369">
        <ele>65</ele>
        <time>2021-08-23T15:50:17.000Z</time>
      </trkpt>
      <trkpt lat="47.10235" lon="-1.50355">
        <ele>65</ele>
        <time>2021-08-23T15:50:19.000Z</time>
      </trkpt>
      <trkpt lat="47.10226" lon="-1.5034">
        <ele>66</ele>
        <time>2021-08-23T15:50:21.000Z</time>
      </trkpt>
      <trkpt lat="47.10217" lon="-1.50325">
        <ele>67</ele>
        <time>2021-08-23T15:50:23.000Z</time>
      </trkpt>
      <trkpt lat="47.10207" lon="-1.50312">
        <ele>68</ele>
        <time>2021-08-23T15:50:25.000Z</time>
      </trkpt>
      <trkpt lat="47.10197" lon="-1.503">
        <ele>68</ele>
        <time>2021-08-23T15:50:27.000Z</time>
      </trkpt>
      <trkpt lat="47.10186" lon="-1.50291">
        <ele>68</ele>
        <time>2021-08-23T15:50:29.000Z</time>
      </trkpt>
      <trkpt lat="47.10174" lon="-1.50282">
        <ele>69</ele>
        <time>2021-08-23T15:50:31.000Z</time>
      </trkpt>
      <trkpt lat="47.10162" lon="-1.50273">
        <ele>69</ele>
        <time>2021-08-23T15:50:33.000Z</time>
      </trkpt>
      <trkpt lat="47.10151" lon="-1.50265">
        <ele>69</ele>
        <time>2021-08-23T15:50:35.000Z</time>
      </trkpt>
      <trkpt lat="47.10139" lon="-1.50257">
        <ele>69</ele>
        <time>2021-08-23T15:50:37.000Z</time>
      </trkpt>
      <trkpt lat="47.10127" lon="-1.50248">
        <ele>69</ele>
        <time>2021-08-23T15:50:39.000Z</time>
      </trkpt>
      <trkpt lat="47.10116" lon="-1.50238">
        <ele>69</ele>
        <time>2021-08-23T15:50:41.000Z</time>
      </trkpt>
      <trkpt lat="47.10105" lon="-1.50228">
        <ele>70</ele>
        <time>2021-08-23T15:50:43.000Z</time>
      </trkpt>
      <trkpt lat="47.10096" lon="-1.50217">
        <ele>70</ele>
        <time>2021-08-23T15:50:45.000Z</time>
      </trkpt>
      <trkpt lat="47.10089" lon="-1.50202">
        <ele>70</ele>
        <time>2021-08-23T15:50:47.000Z</time>
      </trkpt>
      <trkpt lat="47.10084" lon="-1.50186">
        <ele>70</ele>
        <time>2021-08-23T15:50:49.000Z</time>
      </trkpt>
      <trkpt lat="47.10082" lon="-1.50169">
        <ele>70</ele>
        <time>2021-08-23T15:50:51.000Z</time>
      </trkpt>
      <trkpt lat="47.1008" lon="-1.50151">
        <ele>70</ele>
        <time>2021-08-23T15:50:53.000Z</time>
      </trkpt>
      <trkpt lat="47.10079" lon="-1.50134">
        <ele>71</ele>
        <time>2021-08-23T15:50:55.000Z</time>
      </trkpt>
      <trkpt lat="47.10079" lon="-1.50116">
        <ele>70</ele>
        <time>2021-08-23T15:50:57.000Z</time>
      </trkpt>
      <trkpt lat="47.10078" lon="-1.50098">
        <ele>70</ele>
        <time>2021-08-23T15:50:59.000Z</time>
      </trkpt>
      <trkpt lat="47.10078" lon="-1.50081">
        <ele>71</ele>
        <time>2021-08-23T15:51:01.000Z</time>
      </trkpt>
      <trkpt lat="47.10077" lon="-1.50063">
        <ele>71</ele>
        <time>2021-08-23T15:51:03.000Z</time>
      </trkpt>
      <trkpt lat="47.10076" lon="-1.50045">
        <ele>71</ele>
        <time>2021-08-23T15:51:05.000Z</time>
      </trkpt>
      <trkpt lat="47.10076" lon="-1.50027">
        <ele>71</ele>
        <time>2021-08-23T15:51:07.000Z</time>
      </trkpt>
      <trkpt lat="47.10076" lon="-1.5001">
        <ele>71</ele>
        <time>2021-08-23T15:51:09.000Z</time>
      </trkpt>
      <trkpt lat="47.10075" lon="-1.49994">
        <ele>71</ele>
        <time>2021-08-23T15:51:11.000Z</time>
      </trkpt>
      <trkpt lat="47.10075" lon="-1.49976">
        <ele>71</ele>
        <time>2021-08-23T15:51:13.000Z</time>
      </trkpt>
      <trkpt lat="47.10074" lon="-1.49957">
        <ele>71</ele>
        <time>2021-08-23T15:51:15.000Z</time>
      </trkpt>
      <trkpt lat="47.10073" lon="-1.49939">
        <ele>71</ele>
        <time>2021-08-23T15:51:17.000Z</time>
      </trkpt>
      <trkpt lat="47.10071" lon="-1.4992">
        <ele>71</ele>
        <time>2021-08-23T15:51:19.000Z</time>
      </trkpt>
      <trkpt lat="47.10068" lon="-1.49901">
        <ele>71</ele>
        <time>2021-08-23T15:51:21.000Z</time>
      </trkpt>
      <trkpt lat="47.10063" lon="-1.49882">
        <ele>70</ele>
        <time>2021-08-23T15:51:23.000Z</time>
      </trkpt>
      <trkpt lat="47.10057" lon="-1.49864">
        <ele>70</ele>
        <time>2021-08-23T15:51:25.000Z</time>
      </trkpt>
      <trkpt lat="47.1005" lon="-1.49846">
        <ele>70</ele>
        <time>2021-08-23T15:51:27.000Z</time>
      </trkpt>
      <trkpt lat="47.10043" lon="-1.49828">
        <ele>70</ele>
        <time>2021-08-23T15:51:29.000Z</time>
      </trkpt>
      <trkpt lat="47.10034" lon="-1.49811">
        <ele>70</ele>
        <time>2021-08-23T15:51:31.000Z</time>
      </trkpt>
      <trkpt lat="47.10027" lon="-1.49793">
        <ele>70</ele>
        <time>2021-08-23T15:51:33.000Z</time>
      </trkpt>
      <trkpt lat="47.10019" lon="-1.49775">
        <ele>70</ele>
        <time>2021-08-23T15:51:35.000Z</time>
      </trkpt>
      <trkpt lat="47.10011" lon="-1.49757">
        <ele>69</ele>
        <time>2021-08-23T15:51:37.000Z</time>
      </trkpt>
      <trkpt lat="47.10004" lon="-1.4974">
        <ele>69</ele>
        <time>2021-08-23T15:51:39.000Z</time>
      </trkpt>
      <trkpt lat="47.09996" lon="-1.49722">
        <ele>69</ele>
        <time>2021-08-23T15:51:41.000Z</time>
      </trkpt>
      <trkpt lat="47.09988" lon="-1.49705">
        <ele>70</ele>
        <time>2021-08-23T15:51:43.000Z</time>
      </trkpt>
      <trkpt lat="47.09981" lon="-1.49688">
        <ele>70</ele>
        <time>2021-08-23T15:51:45.000Z</time>
      </trkpt>
      <trkpt lat="47.09973" lon="-1.49671">
        <ele>70</ele>
        <time>2021-08-23T15:51:47.000Z</time>
      </trkpt>
      <trkpt lat="47.09966" lon="-1.49655">
        <ele>71</ele>
        <time>2021-08-23T15:51:49.000Z</time>
      </trkpt>
      <trkpt lat="47.09958" lon="-1.49639">
        <ele>71</ele>
        <time>2021-08-23T15:51:51.000Z</time>
      </trkpt>
      <trkpt lat="47.09952" lon="-1.49623">
        <ele>71</ele>
        <time>2021-08-23T15:51:53.000Z</time>
      </trkpt>
      <trkpt lat="47.09945" lon="-1.49608">
        <ele>71</ele>
        <time>2021-08-23T15:51:55.000Z</time>
      </trkpt>
      <trkpt lat="47.09938" lon="-1.49592">
        <ele>72</ele>
        <time>2021-08-23T15:51:57.000Z</time>
      </trkpt>
      <trkpt lat="47.09931" lon="-1.49577">
        <ele>72</ele>
        <time>2021-08-23T15:51:59.000Z</time>
      </trkpt>
      <trkpt lat="47.09925" lon="-1.49561">
        <ele>72</ele>
        <time>2021-08-23T15:52:01.000Z</time>
      </trkpt>
      <trkpt lat="47.09918" lon="-1.49546">
        <ele>72</ele>
        <time>2021-08-23T15:52:03.000Z</time>
      </trkpt>
      <trkpt lat="47.09912" lon="-1.49531">
        <ele>72</ele>
        <time>2021-08-23T15:52:05.000Z</time>
      </trkpt>
      <trkpt lat="47.09905" lon="-1.49516">
        <ele>72</ele>
        <time>2021-08-23T15:52:07.000Z</time>
      </trkpt>
      <trkpt lat="47.09898" lon="-1.495">
        <ele>72</ele>
        <time>2021-08-23T15:52:09.000Z</time>
      </trkpt>
      <trkpt lat="47.09892" lon="-1.49484">
        <ele>72</ele>
        <time>2021-08-23T15:52:11.000Z</time>
      </trkpt>
      <trkpt lat="47.09887" lon="-1.49468">
        <ele>73</ele>
        <time>2021-08-23T15:52:13.000Z</time>
      </trkpt>
      <trkpt lat="47.09881" lon="-1.49453">
        <ele>74</ele>
        <time>2021-08-23T15:52:15.000Z</time>
      </trkpt>
      <trkpt lat="47.09876" lon="-1.49438">
        <ele>74</ele>
        <time>2021-08-23T15:52:17.000Z</time>
      </trkpt>
      <trkpt lat="47.09875" lon="-1.49421">
        <ele>73</ele>
        <time>2021-08-23T15:52:19.000Z</time>
      </trkpt>
      <trkpt lat="47.09873" lon="-1.49402">
        <ele>73</ele>
        <time>2021-08-23T15:52:21.000Z</time>
      </trkpt>
      <trkpt lat="47.0987" lon="-1.49383">
        <ele>74</ele>
        <time>2021-08-23T15:52:23.000Z</time>
      </trkpt>
      <trkpt lat="47.09867" lon="-1.49365">
        <ele>74</ele>
        <time>2021-08-23T15:52:25.000Z</time>
      </trkpt>
      <trkpt lat="47.09864" lon="-1.49347">
        <ele>74</ele>
        <time>2021-08-23T15:52:27.000Z</time>
      </trkpt>
      <trkpt lat="47.09862" lon="-1.49329">
        <ele>74</ele>
        <time>2021-08-23T15:52:29.000Z</time>
      </trkpt>
      <trkpt lat="47.0986" lon="-1.49312">
        <ele>75</ele>
        <time>2021-08-23T15:52:31.000Z</time>
      </trkpt>
      <trkpt lat="47.09857" lon="-1.49294">
        <ele>74</ele>
        <time>2021-08-23T15:52:33.000Z</time>
      </trkpt>
      <trkpt lat="47.09856" lon="-1.49277">
        <ele>74</ele>
        <time>2021-08-23T15:52:35.000Z</time>
      </trkpt>
      <trkpt lat="47.09856" lon="-1.4926">
        <ele>74</ele>
        <time>2021-08-23T15:52:37.000Z</time>
      </trkpt>
      <trkpt lat="47.09855" lon="-1.49242">
        <ele>74</ele>
        <time>2021-08-23T15:52:39.000Z</time>
      </trkpt>
      <trkpt lat="47.09854" lon="-1.49223">
        <ele>74</ele>
        <time>2021-08-23T15:52:41.000Z</time>
      </trkpt>
      <trkpt lat="47.09854" lon="-1.49204">
        <ele>73</ele>
        <time>2021-08-23T15:52:43.000Z</time>
      </trkpt>
      <trkpt lat="47.09853" lon="-1.49185">
        <ele>73</ele>
        <time>2021-08-23T15:52:45.000Z</time>
      </trkpt>
      <trkpt lat="47.09853" lon="-1.49166">
        <ele>73</ele>
        <time>2021-08-23T15:52:47.000Z</time>
      </trkpt>
      <trkpt lat="47.09852" lon="-1.49147">
        <ele>73</ele>
        <time>2021-08-23T15:52:49.000Z</time>
      </trkpt>
      <trkpt lat="47.09851" lon="-1.49129">
        <ele>73</ele>
        <time>2021-08-23T15:52:51.000Z</time>
      </trkpt>
      <trkpt lat="47.09851" lon="-1.49111">
        <ele>73</ele>
        <time>2021-08-23T15:52:53.000Z</time>
      </trkpt>
      <trkpt lat="47.09852" lon="-1.49094">
        <ele>72</ele>
        <time>2021-08-23T15:52:55.000Z</time>
      </trkpt>
      <trkpt lat="47.09854" lon="-1.49076">
        <ele>73</ele>
        <time>2021-08-23T15:52:57.000Z</time>
      </trkpt>
      <trkpt lat="47.0985" lon="-1.4906">
        <ele>73</ele>
        <time>2021-08-23T15:52:59.000Z</time>
      </trkpt>
      <trkpt lat="47.09845" lon="-1.49044">
        <ele>73</ele>
        <time>2021-08-23T15:53:01.000Z</time>
      </trkpt>
      <trkpt lat="47.09839" lon="-1.49029">
        <ele>73</ele>
        <time>2021-08-23T15:53:03.000Z</time>
      </trkpt>
      <trkpt lat="47.09832" lon="-1.49013">
        <ele>72</ele>
        <time>2021-08-23T15:53:05.000Z</time>
      </trkpt>
      <trkpt lat="47.09826" lon="-1.48997">
        <ele>72</ele>
        <time>2021-08-23T15:53:07.000Z</time>
      </trkpt>
      <trkpt lat="47.09822" lon="-1.48981">
        <ele>72</ele>
        <time>2021-08-23T15:53:09.000Z</time>
      </trkpt>
      <trkpt lat="47.09818" lon="-1.48966">
        <ele>71</ele>
        <time>2021-08-23T15:53:11.000Z</time>
      </trkpt>
      <trkpt lat="47.0981" lon="-1.4896">
        <ele>71</ele>
        <time>2021-08-23T15:53:13.000Z</time>
      </trkpt>
      <trkpt lat="47.09799" lon="-1.48962">
        <ele>70</ele>
        <time>2021-08-23T15:53:16.000Z</time>
      </trkpt>
      <trkpt lat="47.09795" lon="-1.48946">
        <ele>71</ele>
        <time>2021-08-23T15:53:22.000Z</time>
      </trkpt>
      <trkpt lat="47.09796" lon="-1.48931">
        <ele>71</ele>
        <time>2021-08-23T15:53:24.000Z</time>
      </trkpt>
      <trkpt lat="47.09799" lon="-1.48915">
        <ele>71</ele>
        <time>2021-08-23T15:53:26.000Z</time>
      </trkpt>
      <trkpt lat="47.098" lon="-1.48898">
        <ele>71</ele>
        <time>2021-08-23T15:53:28.000Z</time>
      </trkpt>
      <trkpt lat="47.09794" lon="-1.4888">
        <ele>71</ele>
        <time>2021-08-23T15:53:30.000Z</time>
      </trkpt>
      <trkpt lat="47.09786" lon="-1.48861">
        <ele>71</ele>
        <time>2021-08-23T15:53:32.000Z</time>
      </trkpt>
      <trkpt lat="47.09779" lon="-1.48843">
        <ele>71</ele>
        <time>2021-08-23T15:53:34.000Z</time>
      </trkpt>
      <trkpt lat="47.09772" lon="-1.48824">
        <ele>70</ele>
        <time>2021-08-23T15:53:36.000Z</time>
      </trkpt>
      <trkpt lat="47.09767" lon="-1.48806">
        <ele>70</ele>
        <time>2021-08-23T15:53:38.000Z</time>
      </trkpt>
      <trkpt lat="47.09763" lon="-1.48787">
        <ele>70</ele>
        <time>2021-08-23T15:53:40.000Z</time>
      </trkpt>
      <trkpt lat="47.09763" lon="-1.48768">
        <ele>70</ele>
        <time>2021-08-23T15:53:42.000Z</time>
      </trkpt>
      <trkpt lat="47.09769" lon="-1.48751">
        <ele>70</ele>
        <time>2021-08-23T15:53:44.000Z</time>
      </trkpt>
      <trkpt lat="47.09779" lon="-1.48739">
        <ele>71</ele>
        <time>2021-08-23T15:53:46.000Z</time>
      </trkpt>
      <trkpt lat="47.09788" lon="-1.48725">
        <ele>71</ele>
        <time>2021-08-23T15:53:48.000Z</time>
      </trkpt>
      <trkpt lat="47.09796" lon="-1.48711">
        <ele>71</ele>
        <time>2021-08-23T15:53:50.000Z</time>
      </trkpt>
      <trkpt lat="47.09804" lon="-1.48697">
        <ele>71</ele>
        <time>2021-08-23T15:53:52.000Z</time>
      </trkpt>
      <trkpt lat="47.09811" lon="-1.48682">
        <ele>71</ele>
        <time>2021-08-23T15:53:54.000Z</time>
      </trkpt>
      <trkpt lat="47.09822" lon="-1.48662">
        <ele>70</ele>
        <time>2021-08-23T15:53:57.000Z</time>
      </trkpt>
      <trkpt lat="47.09831" lon="-1.48648">
        <ele>70</ele>
        <time>2021-08-23T15:53:59.000Z</time>
      </trkpt>
      <trkpt lat="47.09839" lon="-1.48633">
        <ele>69</ele>
        <time>2021-08-23T15:54:01.000Z</time>
      </trkpt>
      <trkpt lat="47.09847" lon="-1.48618">
        <ele>70</ele>
        <time>2021-08-23T15:54:03.000Z</time>
      </trkpt>
      <trkpt lat="47.09854" lon="-1.48604">
        <ele>70</ele>
        <time>2021-08-23T15:54:05.000Z</time>
      </trkpt>
      <trkpt lat="47.09859" lon="-1.48587">
        <ele>69</ele>
        <time>2021-08-23T15:54:07.000Z</time>
      </trkpt>
      <trkpt lat="47.09864" lon="-1.4857">
        <ele>69</ele>
        <time>2021-08-23T15:54:09.000Z</time>
      </trkpt>
      <trkpt lat="47.09866" lon="-1.48552">
        <ele>70</ele>
        <time>2021-08-23T15:54:11.000Z</time>
      </trkpt>
      <trkpt lat="47.09867" lon="-1.48535">
        <ele>69</ele>
        <time>2021-08-23T15:54:13.000Z</time>
      </trkpt>
      <trkpt lat="47.09867" lon="-1.48517">
        <ele>70</ele>
        <time>2021-08-23T15:54:15.000Z</time>
      </trkpt>
      <trkpt lat="47.09866" lon="-1.48499">
        <ele>70</ele>
        <time>2021-08-23T15:54:17.000Z</time>
      </trkpt>
      <trkpt lat="47.09865" lon="-1.4848">
        <ele>70</ele>
        <time>2021-08-23T15:54:19.000Z</time>
      </trkpt>
      <trkpt lat="47.09863" lon="-1.48463">
        <ele>70</ele>
        <time>2021-08-23T15:54:21.000Z</time>
      </trkpt>
      <trkpt lat="47.09859" lon="-1.48444">
        <ele>70</ele>
        <time>2021-08-23T15:54:23.000Z</time>
      </trkpt>
      <trkpt lat="47.09857" lon="-1.48426">
        <ele>70</ele>
        <time>2021-08-23T15:54:25.000Z</time>
      </trkpt>
      <trkpt lat="47.09856" lon="-1.48408">
        <ele>70</ele>
        <time>2021-08-23T15:54:27.000Z</time>
      </trkpt>
      <trkpt lat="47.09854" lon="-1.4839">
        <ele>70</ele>
        <time>2021-08-23T15:54:29.000Z</time>
      </trkpt>
      <trkpt lat="47.09853" lon="-1.48371">
        <ele>70</ele>
        <time>2021-08-23T15:54:31.000Z</time>
      </trkpt>
      <trkpt lat="47.09851" lon="-1.48353">
        <ele>70</ele>
        <time>2021-08-23T15:54:33.000Z</time>
      </trkpt>
      <trkpt lat="47.09849" lon="-1.48336">
        <ele>70</ele>
        <time>2021-08-23T15:54:35.000Z</time>
      </trkpt>
      <trkpt lat="47.09849" lon="-1.48317">
        <ele>70</ele>
        <time>2021-08-23T15:54:37.000Z</time>
      </trkpt>
      <trkpt lat="47.09848" lon="-1.48298">
        <ele>71</ele>
        <time>2021-08-23T15:54:39.000Z</time>
      </trkpt>
      <trkpt lat="47.09845" lon="-1.48279">
        <ele>71</ele>
        <time>2021-08-23T15:54:41.000Z</time>
      </trkpt>
      <trkpt lat="47.09843" lon="-1.48262">
        <ele>70</ele>
        <time>2021-08-23T15:54:43.000Z</time>
      </trkpt>
      <trkpt lat="47.09841" lon="-1.48242">
        <ele>71</ele>
        <time>2021-08-23T15:54:45.000Z</time>
      </trkpt>
      <trkpt lat="47.09839" lon="-1.48215">
        <ele>71</ele>
        <time>2021-08-23T15:54:48.000Z</time>
      </trkpt>
      <trkpt lat="47.09838" lon="-1.48197">
        <ele>71</ele>
        <time>2021-08-23T15:54:50.000Z</time>
      </trkpt>
      <trkpt lat="47.09839" lon="-1.48178">
        <ele>71</ele>
        <time>2021-08-23T15:54:52.000Z</time>
      </trkpt>
      <trkpt lat="47.0984" lon="-1.48159">
        <ele>71</ele>
        <time>2021-08-23T15:54:54.000Z</time>
      </trkpt>
      <trkpt lat="47.09841" lon="-1.48141">
        <ele>72</ele>
        <time>2021-08-23T15:54:56.000Z</time>
      </trkpt>
      <trkpt lat="47.09842" lon="-1.48122">
        <ele>72</ele>
        <time>2021-08-23T15:54:58.000Z</time>
      </trkpt>
      <trkpt lat="47.09841" lon="-1.48103">
        <ele>72</ele>
        <time>2021-08-23T15:55:00.000Z</time>
      </trkpt>
      <trkpt lat="47.0984" lon="-1.48084">
        <ele>71</ele>
        <time>2021-08-23T15:55:02.000Z</time>
      </trkpt>
      <trkpt lat="47.0984" lon="-1.48064">
        <ele>71</ele>
        <time>2021-08-23T15:55:04.000Z</time>
      </trkpt>
      <trkpt lat="47.09838" lon="-1.48045">
        <ele>71</ele>
        <time>2021-08-23T15:55:06.000Z</time>
      </trkpt>
      <trkpt lat="47.09837" lon="-1.48026">
        <ele>70</ele>
        <time>2021-08-23T15:55:08.000Z</time>
      </trkpt>
      <trkpt lat="47.09834" lon="-1.48008">
        <ele>71</ele>
        <time>2021-08-23T15:55:10.000Z</time>
      </trkpt>
      <trkpt lat="47.09833" lon="-1.47989">
        <ele>71</ele>
        <time>2021-08-23T15:55:12.000Z</time>
      </trkpt>
      <trkpt lat="47.09832" lon="-1.47971">
        <ele>71</ele>
        <time>2021-08-23T15:55:14.000Z</time>
      </trkpt>
      <trkpt lat="47.09831" lon="-1.47954">
        <ele>71</ele>
        <time>2021-08-23T15:55:16.000Z</time>
      </trkpt>
      <trkpt lat="47.0983" lon="-1.47935">
        <ele>71</ele>
        <time>2021-08-23T15:55:18.000Z</time>
      </trkpt>
      <trkpt lat="47.09828" lon="-1.47917">
        <ele>72</ele>
        <time>2021-08-23T15:55:20.000Z</time>
      </trkpt>
      <trkpt lat="47.09827" lon="-1.479">
        <ele>72</ele>
        <time>2021-08-23T15:55:22.000Z</time>
      </trkpt>
      <trkpt lat="47.09826" lon="-1.47882">
        <ele>72</ele>
        <time>2021-08-23T15:55:24.000Z</time>
      </trkpt>
      <trkpt lat="47.09824" lon="-1.47865">
        <ele>72</ele>
        <time>2021-08-23T15:55:26.000Z</time>
      </trkpt>
      <trkpt lat="47.09823" lon="-1.47846">
        <ele>72</ele>
        <time>2021-08-23T15:55:28.000Z</time>
      </trkpt>
      <trkpt lat="47.09821" lon="-1.47829">
        <ele>72</ele>
        <time>2021-08-23T15:55:30.000Z</time>
      </trkpt>
      <trkpt lat="47.0982" lon="-1.47811">
        <ele>72</ele>
        <time>2021-08-23T15:55:32.000Z</time>
      </trkpt>
      <trkpt lat="47.09819" lon="-1.47793">
        <ele>72</ele>
        <time>2021-08-23T15:55:34.000Z</time>
      </trkpt>
      <trkpt lat="47.09818" lon="-1.47776">
        <ele>72</ele>
        <time>2021-08-23T15:55:36.000Z</time>
      </trkpt>
      <trkpt lat="47.09817" lon="-1.47758">
        <ele>72</ele>
        <time>2021-08-23T15:55:38.000Z</time>
      </trkpt>
      <trkpt lat="47.09816" lon="-1.4774">
        <ele>72</ele>
        <time>2021-08-23T15:55:40.000Z</time>
      </trkpt>
      <trkpt lat="47.09816" lon="-1.47722">
        <ele>72</ele>
        <time>2021-08-23T15:55:42.000Z</time>
      </trkpt>
      <trkpt lat="47.09816" lon="-1.47704">
        <ele>72</ele>
        <time>2021-08-23T15:55:44.000Z</time>
      </trkpt>
      <trkpt lat="47.09817" lon="-1.47687">
        <ele>72</ele>
        <time>2021-08-23T15:55:46.000Z</time>
      </trkpt>
      <trkpt lat="47.09818" lon="-1.4767">
        <ele>73</ele>
        <time>2021-08-23T15:55:48.000Z</time>
      </trkpt>
      <trkpt lat="47.0982" lon="-1.47653">
        <ele>73</ele>
        <time>2021-08-23T15:55:50.000Z</time>
      </trkpt>
      <trkpt lat="47.09822" lon="-1.47638">
        <ele>73</ele>
        <time>2021-08-23T15:55:52.000Z</time>
      </trkpt>
      <trkpt lat="47.09824" lon="-1.47624">
        <ele>73</ele>
        <time>2021-08-23T15:55:54.000Z</time>
      </trkpt>
      <trkpt lat="47.09827" lon="-1.47611">
        <ele>73</ele>
        <time>2021-08-23T15:55:56.000Z</time>
      </trkpt>
      <trkpt lat="47.09831" lon="-1.47598">
        <ele>74</ele>
        <time>2021-08-23T15:55:58.000Z</time>
      </trkpt>
      <trkpt lat="47.09834" lon="-1.47586">
        <ele>74</ele>
        <time>2021-08-23T15:56:00.000Z</time>
      </trkpt>
      <trkpt lat="47.09838" lon="-1.47573">
        <ele>74</ele>
        <time>2021-08-23T15:56:02.000Z</time>
      </trkpt>
      <trkpt lat="47.09842" lon="-1.47561">
        <ele>75</ele>
        <time>2021-08-23T15:56:04.000Z</time>
      </trkpt>
      <trkpt lat="47.09847" lon="-1.47549">
        <ele>75</ele>
        <time>2021-08-23T15:56:06.000Z</time>
      </trkpt>
      <trkpt lat="47.09852" lon="-1.47538">
        <ele>76</ele>
        <time>2021-08-23T15:56:08.000Z</time>
      </trkpt>
      <trkpt lat="47.09857" lon="-1.47526">
        <ele>77</ele>
        <time>2021-08-23T15:56:10.000Z</time>
      </trkpt>
      <trkpt lat="47.09865" lon="-1.4751">
        <ele>77</ele>
        <time>2021-08-23T15:56:13.000Z</time>
      </trkpt>
      <trkpt lat="47.0987" lon="-1.47499">
        <ele>78</ele>
        <time>2021-08-23T15:56:15.000Z</time>
      </trkpt>
      <trkpt lat="47.09878" lon="-1.47484">
        <ele>79</ele>
        <time>2021-08-23T15:56:18.000Z</time>
      </trkpt>
      <trkpt lat="47.09884" lon="-1.47473">
        <ele>79</ele>
        <time>2021-08-23T15:56:20.000Z</time>
      </trkpt>
      <trkpt lat="47.0989" lon="-1.47463">
        <ele>80</ele>
        <time>2021-08-23T15:56:22.000Z</time>
      </trkpt>
      <trkpt lat="47.09898" lon="-1.47448">
        <ele>81</ele>
        <time>2021-08-23T15:56:25.000Z</time>
      </trkpt>
      <trkpt lat="47.09907" lon="-1.47432">
        <ele>81</ele>
        <time>2021-08-23T15:56:28.000Z</time>
      </trkpt>
      <trkpt lat="47.09912" lon="-1.47421">
        <ele>82</ele>
        <time>2021-08-23T15:56:30.000Z</time>
      </trkpt>
      <trkpt lat="47.09918" lon="-1.47411">
        <ele>82</ele>
        <time>2021-08-23T15:56:32.000Z</time>
      </trkpt>
      <trkpt lat="47.09924" lon="-1.47399">
        <ele>83</ele>
        <time>2021-08-23T15:56:34.000Z</time>
      </trkpt>
      <trkpt lat="47.0993" lon="-1.47389">
        <ele>83</ele>
        <time>2021-08-23T15:56:36.000Z</time>
      </trkpt>
      <trkpt lat="47.09935" lon="-1.47378">
        <ele>84</ele>
        <time>2021-08-23T15:56:38.000Z</time>
      </trkpt>
      <trkpt lat="47.09944" lon="-1.47363">
        <ele>84</ele>
        <time>2021-08-23T15:56:41.000Z</time>
      </trkpt>
      <trkpt lat="47.09952" lon="-1.47348">
        <ele>85</ele>
        <time>2021-08-23T15:56:44.000Z</time>
      </trkpt>
      <trkpt lat="47.0996" lon="-1.47333">
        <ele>85</ele>
        <time>2021-08-23T15:56:47.000Z</time>
      </trkpt>
      <trkpt lat="47.09969" lon="-1.47318">
        <ele>85</ele>
        <time>2021-08-23T15:56:50.000Z</time>
      </trkpt>
      <trkpt lat="47.09976" lon="-1.47304">
        <ele>85</ele>
        <time>2021-08-23T15:56:53.000Z</time>
      </trkpt>
      <trkpt lat="47.09985" lon="-1.47288">
        <ele>86</ele>
        <time>2021-08-23T15:56:56.000Z</time>
      </trkpt>
      <trkpt lat="47.0999" lon="-1.47278">
        <ele>86</ele>
        <time>2021-08-23T15:56:58.000Z</time>
      </trkpt>
      <trkpt lat="47.09996" lon="-1.47267">
        <ele>86</ele>
        <time>2021-08-23T15:57:00.000Z</time>
      </trkpt>
      <trkpt lat="47.10002" lon="-1.47256">
        <ele>86</ele>
        <time>2021-08-23T15:57:02.000Z</time>
      </trkpt>
      <trkpt lat="47.10008" lon="-1.47245">
        <ele>86</ele>
        <time>2021-08-23T15:57:04.000Z</time>
      </trkpt>
      <trkpt lat="47.10014" lon="-1.47233">
        <ele>85</ele>
        <time>2021-08-23T15:57:06.000Z</time>
      </trkpt>
      <trkpt lat="47.1002" lon="-1.47222">
        <ele>86</ele>
        <time>2021-08-23T15:57:08.000Z</time>
      </trkpt>
      <trkpt lat="47.10026" lon="-1.47208">
        <ele>85</ele>
        <time>2021-08-23T15:57:10.000Z</time>
      </trkpt>
      <trkpt lat="47.10033" lon="-1.47195">
        <ele>85</ele>
        <time>2021-08-23T15:57:12.000Z</time>
      </trkpt>
      <trkpt lat="47.1004" lon="-1.47183">
        <ele>84</ele>
        <time>2021-08-23T15:57:14.000Z</time>
      </trkpt>
      <trkpt lat="47.10048" lon="-1.47169">
        <ele>84</ele>
        <time>2021-08-23T15:57:16.000Z</time>
      </trkpt>
      <trkpt lat="47.10055" lon="-1.47155">
        <ele>83</ele>
        <time>2021-08-23T15:57:18.000Z</time>
      </trkpt>
      <trkpt lat="47.10061" lon="-1.4714">
        <ele>83</ele>
        <time>2021-08-23T15:57:20.000Z</time>
      </trkpt>
      <trkpt lat="47.10068" lon="-1.47124">
        <ele>82</ele>
        <time>2021-08-23T15:57:22.000Z</time>
      </trkpt>
      <trkpt lat="47.10073" lon="-1.47108">
        <ele>82</ele>
        <time>2021-08-23T15:57:24.000Z</time>
      </trkpt>
      <trkpt lat="47.10079" lon="-1.47091">
        <ele>82</ele>
        <time>2021-08-23T15:57:26.000Z</time>
      </trkpt>
      <trkpt lat="47.10084" lon="-1.47074">
        <ele>81</ele>
        <time>2021-08-23T15:57:28.000Z</time>
      </trkpt>
      <trkpt lat="47.10089" lon="-1.47057">
        <ele>81</ele>
        <time>2021-08-23T15:57:30.000Z</time>
      </trkpt>
      <trkpt lat="47.10093" lon="-1.4704">
        <ele>81</ele>
        <time>2021-08-23T15:57:32.000Z</time>
      </trkpt>
      <trkpt lat="47.10098" lon="-1.47024">
        <ele>81</ele>
        <time>2021-08-23T15:57:34.000Z</time>
      </trkpt>
      <trkpt lat="47.10102" lon="-1.47008">
        <ele>81</ele>
        <time>2021-08-23T15:57:36.000Z</time>
      </trkpt>
      <trkpt lat="47.10106" lon="-1.46993">
        <ele>81</ele>
        <time>2021-08-23T15:57:38.000Z</time>
      </trkpt>
      <trkpt lat="47.1011" lon="-1.46977">
        <ele>81</ele>
        <time>2021-08-23T15:57:40.000Z</time>
      </trkpt>
      <trkpt lat="47.10114" lon="-1.46963">
        <ele>82</ele>
        <time>2021-08-23T15:57:42.000Z</time>
      </trkpt>
      <trkpt lat="47.10117" lon="-1.46949">
        <ele>82</ele>
        <time>2021-08-23T15:57:44.000Z</time>
      </trkpt>
      <trkpt lat="47.10121" lon="-1.46935">
        <ele>82</ele>
        <time>2021-08-23T15:57:46.000Z</time>
      </trkpt>
      <trkpt lat="47.10125" lon="-1.46921">
        <ele>83</ele>
        <time>2021-08-23T15:57:48.000Z</time>
      </trkpt>
      <trkpt lat="47.10128" lon="-1.46907">
        <ele>83</ele>
        <time>2021-08-23T15:57:50.000Z</time>
      </trkpt>
      <trkpt lat="47.10132" lon="-1.46893">
        <ele>83</ele>
        <time>2021-08-23T15:57:52.000Z</time>
      </trkpt>
      <trkpt lat="47.10135" lon="-1.46878">
        <ele>83</ele>
        <time>2021-08-23T15:57:54.000Z</time>
      </trkpt>
      <trkpt lat="47.10139" lon="-1.46864">
        <ele>84</ele>
        <time>2021-08-23T15:57:56.000Z</time>
      </trkpt>
      <trkpt lat="47.10143" lon="-1.4685">
        <ele>84</ele>
        <time>2021-08-23T15:57:58.000Z</time>
      </trkpt>
      <trkpt lat="47.10146" lon="-1.46835">
        <ele>84</ele>
        <time>2021-08-23T15:58:00.000Z</time>
      </trkpt>
      <trkpt lat="47.1015" lon="-1.46821">
        <ele>85</ele>
        <time>2021-08-23T15:58:02.000Z</time>
      </trkpt>
      <trkpt lat="47.10153" lon="-1.46807">
        <ele>85</ele>
        <time>2021-08-23T15:58:04.000Z</time>
      </trkpt>
      <trkpt lat="47.10157" lon="-1.46793">
        <ele>86</ele>
        <time>2021-08-23T15:58:06.000Z</time>
      </trkpt>
      <trkpt lat="47.10159" lon="-1.4678">
        <ele>86</ele>
        <time>2021-08-23T15:58:08.000Z</time>
      </trkpt>
      <trkpt lat="47.10162" lon="-1.46766">
        <ele>87</ele>
        <time>2021-08-23T15:58:10.000Z</time>
      </trkpt>
      <trkpt lat="47.10164" lon="-1.46753">
        <ele>87</ele>
        <time>2021-08-23T15:58:12.000Z</time>
      </trkpt>
      <trkpt lat="47.10166" lon="-1.46739">
        <ele>87</ele>
        <time>2021-08-23T15:58:14.000Z</time>
      </trkpt>
      <trkpt lat="47.10167" lon="-1.46724">
        <ele>88</ele>
        <time>2021-08-23T15:58:16.000Z</time>
      </trkpt>
      <trkpt lat="47.10169" lon="-1.46711">
        <ele>88</ele>
        <time>2021-08-23T15:58:18.000Z</time>
      </trkpt>
      <trkpt lat="47.10171" lon="-1.46697">
        <ele>88</ele>
        <time>2021-08-23T15:58:20.000Z</time>
      </trkpt>
      <trkpt lat="47.10173" lon="-1.46683">
        <ele>88</ele>
        <time>2021-08-23T15:58:22.000Z</time>
      </trkpt>
      <trkpt lat="47.10176" lon="-1.46664">
        <ele>87</ele>
        <time>2021-08-23T15:58:25.000Z</time>
      </trkpt>
      <trkpt lat="47.10178" lon="-1.46651">
        <ele>88</ele>
        <time>2021-08-23T15:58:27.000Z</time>
      </trkpt>
      <trkpt lat="47.10179" lon="-1.46637">
        <ele>88</ele>
        <time>2021-08-23T15:58:29.000Z</time>
      </trkpt>
      <trkpt lat="47.10182" lon="-1.46618">
        <ele>88</ele>
        <time>2021-08-23T15:58:32.000Z</time>
      </trkpt>
      <trkpt lat="47.10185" lon="-1.46605">
        <ele>89</ele>
        <time>2021-08-23T15:58:34.000Z</time>
      </trkpt>
      <trkpt lat="47.10187" lon="-1.46593">
        <ele>89</ele>
        <time>2021-08-23T15:58:36.000Z</time>
      </trkpt>
      <trkpt lat="47.10189" lon="-1.46579">
        <ele>89</ele>
        <time>2021-08-23T15:58:38.000Z</time>
      </trkpt>
      <trkpt lat="47.1019" lon="-1.46565">
        <ele>89</ele>
        <time>2021-08-23T15:58:40.000Z</time>
      </trkpt>
      <trkpt lat="47.10191" lon="-1.46552">
        <ele>89</ele>
        <time>2021-08-23T15:58:42.000Z</time>
      </trkpt>
      <trkpt lat="47.10192" lon="-1.46539">
        <ele>89</ele>
        <time>2021-08-23T15:58:44.000Z</time>
      </trkpt>
      <trkpt lat="47.10193" lon="-1.46524">
        <ele>90</ele>
        <time>2021-08-23T15:58:46.000Z</time>
      </trkpt>
      <trkpt lat="47.10194" lon="-1.46505">
        <ele>91</ele>
        <time>2021-08-23T15:58:49.000Z</time>
      </trkpt>
      <trkpt lat="47.10195" lon="-1.46485">
        <ele>92</ele>
        <time>2021-08-23T15:58:52.000Z</time>
      </trkpt>
      <trkpt lat="47.10196" lon="-1.46466">
        <ele>92</ele>
        <time>2021-08-23T15:58:55.000Z</time>
      </trkpt>
      <trkpt lat="47.10197" lon="-1.46453">
        <ele>93</ele>
        <time>2021-08-23T15:58:57.000Z</time>
      </trkpt>
      <trkpt lat="47.10198" lon="-1.46439">
        <ele>94</ele>
        <time>2021-08-23T15:58:59.000Z</time>
      </trkpt>
      <trkpt lat="47.10199" lon="-1.46426">
        <ele>94</ele>
        <time>2021-08-23T15:59:01.000Z</time>
      </trkpt>
      <trkpt lat="47.102" lon="-1.46412">
        <ele>94</ele>
        <time>2021-08-23T15:59:03.000Z</time>
      </trkpt>
      <trkpt lat="47.10201" lon="-1.46399">
        <ele>95</ele>
        <time>2021-08-23T15:59:05.000Z</time>
      </trkpt>
      <trkpt lat="47.10204" lon="-1.4638">
        <ele>95</ele>
        <time>2021-08-23T15:59:08.000Z</time>
      </trkpt>
      <trkpt lat="47.10208" lon="-1.46362">
        <ele>96</ele>
        <time>2021-08-23T15:59:11.000Z</time>
      </trkpt>
      <trkpt lat="47.10214" lon="-1.46345">
        <ele>97</ele>
        <time>2021-08-23T15:59:14.000Z</time>
      </trkpt>
      <trkpt lat="47.10222" lon="-1.4633">
        <ele>97</ele>
        <time>2021-08-23T15:59:17.000Z</time>
      </trkpt>
      <trkpt lat="47.10231" lon="-1.46316">
        <ele>98</ele>
        <time>2021-08-23T15:59:20.000Z</time>
      </trkpt>
      <trkpt lat="47.1024" lon="-1.46302">
        <ele>98</ele>
        <time>2021-08-23T15:59:23.000Z</time>
      </trkpt>
      <trkpt lat="47.10247" lon="-1.46292">
        <ele>98</ele>
        <time>2021-08-23T15:59:25.000Z</time>
      </trkpt>
      <trkpt lat="47.10256" lon="-1.46278">
        <ele>98</ele>
        <time>2021-08-23T15:59:28.000Z</time>
      </trkpt>
      <trkpt lat="47.10262" lon="-1.46268">
        <ele>98</ele>
        <time>2021-08-23T15:59:30.000Z</time>
      </trkpt>
      <trkpt lat="47.10269" lon="-1.46258">
        <ele>98</ele>
        <time>2021-08-23T15:59:32.000Z</time>
      </trkpt>
      <trkpt lat="47.10275" lon="-1.46249">
        <ele>98</ele>
        <time>2021-08-23T15:59:34.000Z</time>
      </trkpt>
      <trkpt lat="47.10284" lon="-1.46235">
        <ele>98</ele>
        <time>2021-08-23T15:59:37.000Z</time>
      </trkpt>
      <trkpt lat="47.1029" lon="-1.46222">
        <ele>98</ele>
        <time>2021-08-23T15:59:40.000Z</time>
      </trkpt>
      <trkpt lat="47.10287" lon="-1.46209">
        <ele>99</ele>
        <time>2021-08-23T15:59:44.000Z</time>
      </trkpt>
      <trkpt lat="47.10282" lon="-1.46197">
        <ele>98</ele>
        <time>2021-08-23T15:59:46.000Z</time>
      </trkpt>
      <trkpt lat="47.10276" lon="-1.46185">
        <ele>99</ele>
        <time>2021-08-23T15:59:48.000Z</time>
      </trkpt>
      <trkpt lat="47.10268" lon="-1.46172">
        <ele>98</ele>
        <time>2021-08-23T15:59:50.000Z</time>
      </trkpt>
      <trkpt lat="47.10261" lon="-1.46158">
        <ele>99</ele>
        <time>2021-08-23T15:59:52.000Z</time>
      </trkpt>
      <trkpt lat="47.10253" lon="-1.46144">
        <ele>99</ele>
        <time>2021-08-23T15:59:54.000Z</time>
      </trkpt>
      <trkpt lat="47.10244" lon="-1.4613">
        <ele>100</ele>
        <time>2021-08-23T15:59:56.000Z</time>
      </trkpt>
      <trkpt lat="47.10236" lon="-1.46116">
        <ele>100</ele>
        <time>2021-08-23T15:59:58.000Z</time>
      </trkpt>
      <trkpt lat="47.10227" lon="-1.46101">
        <ele>100</ele>
        <time>2021-08-23T16:00:00.000Z</time>
      </trkpt>
      <trkpt lat="47.10219" lon="-1.46087">
        <ele>101</ele>
        <time>2021-08-23T16:00:02.000Z</time>
      </trkpt>
      <trkpt lat="47.10211" lon="-1.46071">
        <ele>101</ele>
        <time>2021-08-23T16:00:04.000Z</time>
      </trkpt>
      <trkpt lat="47.10203" lon="-1.46057">
        <ele>101</ele>
        <time>2021-08-23T16:00:06.000Z</time>
      </trkpt>
      <trkpt lat="47.10195" lon="-1.46042">
        <ele>101</ele>
        <time>2021-08-23T16:00:08.000Z</time>
      </trkpt>
      <trkpt lat="47.10187" lon="-1.46028">
        <ele>101</ele>
        <time>2021-08-23T16:00:10.000Z</time>
      </trkpt>
      <trkpt lat="47.10178" lon="-1.46014">
        <ele>102</ele>
        <time>2021-08-23T16:00:12.000Z</time>
      </trkpt>
      <trkpt lat="47.10169" lon="-1.45998">
        <ele>101</ele>
        <time>2021-08-23T16:00:14.000Z</time>
      </trkpt>
      <trkpt lat="47.10161" lon="-1.45983">
        <ele>101</ele>
        <time>2021-08-23T16:00:16.000Z</time>
      </trkpt>
      <trkpt lat="47.10153" lon="-1.45968">
        <ele>101</ele>
        <time>2021-08-23T16:00:18.000Z</time>
      </trkpt>
      <trkpt lat="47.10145" lon="-1.45952">
        <ele>101</ele>
        <time>2021-08-23T16:00:20.000Z</time>
      </trkpt>
      <trkpt lat="47.10136" lon="-1.45938">
        <ele>101</ele>
        <time>2021-08-23T16:00:22.000Z</time>
      </trkpt>
      <trkpt lat="47.10128" lon="-1.45923">
        <ele>101</ele>
        <time>2021-08-23T16:00:24.000Z</time>
      </trkpt>
      <trkpt lat="47.1012" lon="-1.45908">
        <ele>101</ele>
        <time>2021-08-23T16:00:26.000Z</time>
      </trkpt>
      <trkpt lat="47.10112" lon="-1.45894">
        <ele>101</ele>
        <time>2021-08-23T16:00:28.000Z</time>
      </trkpt>
      <trkpt lat="47.10104" lon="-1.45878">
        <ele>101</ele>
        <time>2021-08-23T16:00:30.000Z</time>
      </trkpt>
      <trkpt lat="47.10095" lon="-1.45864">
        <ele>101</ele>
        <time>2021-08-23T16:00:32.000Z</time>
      </trkpt>
      <trkpt lat="47.10087" lon="-1.45848">
        <ele>101</ele>
        <time>2021-08-23T16:00:34.000Z</time>
      </trkpt>
      <trkpt lat="47.10079" lon="-1.45833">
        <ele>101</ele>
        <time>2021-08-23T16:00:36.000Z</time>
      </trkpt>
      <trkpt lat="47.10071" lon="-1.45817">
        <ele>101</ele>
        <time>2021-08-23T16:00:38.000Z</time>
      </trkpt>
      <trkpt lat="47.10063" lon="-1.45802">
        <ele>101</ele>
        <time>2021-08-23T16:00:40.000Z</time>
      </trkpt>
      <trkpt lat="47.10054" lon="-1.45786">
        <ele>100</ele>
        <time>2021-08-23T16:00:42.000Z</time>
      </trkpt>
      <trkpt lat="47.10045" lon="-1.45769">
        <ele>100</ele>
        <time>2021-08-23T16:00:44.000Z</time>
      </trkpt>
      <trkpt lat="47.10037" lon="-1.45752">
        <ele>100</ele>
        <time>2021-08-23T16:00:46.000Z</time>
      </trkpt>
      <trkpt lat="47.10028" lon="-1.45735">
        <ele>100</ele>
        <time>2021-08-23T16:00:48.000Z</time>
      </trkpt>
      <trkpt lat="47.10019" lon="-1.45718">
        <ele>100</ele>
        <time>2021-08-23T16:00:50.000Z</time>
      </trkpt>
      <trkpt lat="47.10009" lon="-1.45699">
        <ele>100</ele>
        <time>2021-08-23T16:00:52.000Z</time>
      </trkpt>
      <trkpt lat="47.1" lon="-1.45681">
        <ele>100</ele>
        <time>2021-08-23T16:00:54.000Z</time>
      </trkpt>
      <trkpt lat="47.09991" lon="-1.45663">
        <ele>100</ele>
        <time>2021-08-23T16:00:56.000Z</time>
      </trkpt>
      <trkpt lat="47.09982" lon="-1.45646">
        <ele>100</ele>
        <time>2021-08-23T16:00:58.000Z</time>
      </trkpt>
      <trkpt lat="47.09973" lon="-1.45628">
        <ele>100</ele>
        <time>2021-08-23T16:01:00.000Z</time>
      </trkpt>
      <trkpt lat="47.09965" lon="-1.45611">
        <ele>100</ele>
        <time>2021-08-23T16:01:02.000Z</time>
      </trkpt>
      <trkpt lat="47.09956" lon="-1.45594">
        <ele>100</ele>
        <time>2021-08-23T16:01:04.000Z</time>
      </trkpt>
      <trkpt lat="47.09947" lon="-1.45577">
        <ele>100</ele>
        <time>2021-08-23T16:01:06.000Z</time>
      </trkpt>
      <trkpt lat="47.09939" lon="-1.45561">
        <ele>100</ele>
        <time>2021-08-23T16:01:08.000Z</time>
      </trkpt>
      <trkpt lat="47.09931" lon="-1.45544">
        <ele>100</ele>
        <time>2021-08-23T16:01:10.000Z</time>
      </trkpt>
      <trkpt lat="47.09923" lon="-1.45526">
        <ele>99</ele>
        <time>2021-08-23T16:01:12.000Z</time>
      </trkpt>
      <trkpt lat="47.09914" lon="-1.45508">
        <ele>99</ele>
        <time>2021-08-23T16:01:14.000Z</time>
      </trkpt>
      <trkpt lat="47.09906" lon="-1.4549">
        <ele>99</ele>
        <time>2021-08-23T16:01:16.000Z</time>
      </trkpt>
      <trkpt lat="47.09898" lon="-1.45471">
        <ele>99</ele>
        <time>2021-08-23T16:01:18.000Z</time>
      </trkpt>
      <trkpt lat="47.0989" lon="-1.45453">
        <ele>99</ele>
        <time>2021-08-23T16:01:20.000Z</time>
      </trkpt>
      <trkpt lat="47.09882" lon="-1.45435">
        <ele>98</ele>
        <time>2021-08-23T16:01:22.000Z</time>
      </trkpt>
      <trkpt lat="47.09874" lon="-1.45416">
        <ele>98</ele>
        <time>2021-08-23T16:01:24.000Z</time>
      </trkpt>
      <trkpt lat="47.09866" lon="-1.45397">
        <ele>98</ele>
        <time>2021-08-23T16:01:26.000Z</time>
      </trkpt>
      <trkpt lat="47.09857" lon="-1.45379">
        <ele>98</ele>
        <time>2021-08-23T16:01:28.000Z</time>
      </trkpt>
      <trkpt lat="47.09849" lon="-1.45362">
        <ele>98</ele>
        <time>2021-08-23T16:01:30.000Z</time>
      </trkpt>
      <trkpt lat="47.09841" lon="-1.45343">
        <ele>98</ele>
        <time>2021-08-23T16:01:32.000Z</time>
      </trkpt>
      <trkpt lat="47.09833" lon="-1.45324">
        <ele>98</ele>
        <time>2021-08-23T16:01:34.000Z</time>
      </trkpt>
      <trkpt lat="47.09825" lon="-1.45305">
        <ele>98</ele>
        <time>2021-08-23T16:01:36.000Z</time>
      </trkpt>
      <trkpt lat="47.09817" lon="-1.45287">
        <ele>98</ele>
        <time>2021-08-23T16:01:38.000Z</time>
      </trkpt>
      <trkpt lat="47.09809" lon="-1.45269">
        <ele>98</ele>
        <time>2021-08-23T16:01:40.000Z</time>
      </trkpt>
      <trkpt lat="47.098" lon="-1.4525">
        <ele>98</ele>
        <time>2021-08-23T16:01:42.000Z</time>
      </trkpt>
      <trkpt lat="47.09792" lon="-1.45232">
        <ele>98</ele>
        <time>2021-08-23T16:01:44.000Z</time>
      </trkpt>
      <trkpt lat="47.09784" lon="-1.45213">
        <ele>97</ele>
        <time>2021-08-23T16:01:46.000Z</time>
      </trkpt>
      <trkpt lat="47.09776" lon="-1.45196">
        <ele>97</ele>
        <time>2021-08-23T16:01:48.000Z</time>
      </trkpt>
      <trkpt lat="47.09768" lon="-1.45178">
        <ele>98</ele>
        <time>2021-08-23T16:01:50.000Z</time>
      </trkpt>
      <trkpt lat="47.0976" lon="-1.45161">
        <ele>98</ele>
        <time>2021-08-23T16:01:52.000Z</time>
      </trkpt>
      <trkpt lat="47.09752" lon="-1.45143">
        <ele>98</ele>
        <time>2021-08-23T16:01:54.000Z</time>
      </trkpt>
      <trkpt lat="47.09744" lon="-1.45126">
        <ele>98</ele>
        <time>2021-08-23T16:01:56.000Z</time>
      </trkpt>
      <trkpt lat="47.09736" lon="-1.45109">
        <ele>98</ele>
        <time>2021-08-23T16:01:58.000Z</time>
      </trkpt>
      <trkpt lat="47.09727" lon="-1.4509">
        <ele>98</ele>
        <time>2021-08-23T16:02:00.000Z</time>
      </trkpt>
      <trkpt lat="47.09719" lon="-1.45072">
        <ele>98</ele>
        <time>2021-08-23T16:02:02.000Z</time>
      </trkpt>
      <trkpt lat="47.0971" lon="-1.45055">
        <ele>98</ele>
        <time>2021-08-23T16:02:04.000Z</time>
      </trkpt>
      <trkpt lat="47.09703" lon="-1.45038">
        <ele>97</ele>
        <time>2021-08-23T16:02:06.000Z</time>
      </trkpt>
      <trkpt lat="47.09695" lon="-1.4502">
        <ele>97</ele>
        <time>2021-08-23T16:02:08.000Z</time>
      </trkpt>
      <trkpt lat="47.09687" lon="-1.45004">
        <ele>97</ele>
        <time>2021-08-23T16:02:10.000Z</time>
      </trkpt>
      <trkpt lat="47.09678" lon="-1.4499">
        <ele>97</ele>
        <time>2021-08-23T16:02:12.000Z</time>
      </trkpt>
      <trkpt lat="47.09669" lon="-1.44976">
        <ele>97</ele>
        <time>2021-08-23T16:02:14.000Z</time>
      </trkpt>
      <trkpt lat="47.0966" lon="-1.44962">
        <ele>97</ele>
        <time>2021-08-23T16:02:16.000Z</time>
      </trkpt>
      <trkpt lat="47.09646" lon="-1.44953">
        <ele>98</ele>
        <time>2021-08-23T16:02:18.000Z</time>
      </trkpt>
      <trkpt lat="47.09634" lon="-1.44941">
        <ele>98</ele>
        <time>2021-08-23T16:02:20.000Z</time>
      </trkpt>
      <trkpt lat="47.09631" lon="-1.4492">
        <ele>98</ele>
        <time>2021-08-23T16:02:22.000Z</time>
      </trkpt>
      <trkpt lat="47.09636" lon="-1.44901">
        <ele>98</ele>
        <time>2021-08-23T16:02:24.000Z</time>
      </trkpt>
      <trkpt lat="47.09647" lon="-1.44887">
        <ele>98</ele>
        <time>2021-08-23T16:02:26.000Z</time>
      </trkpt>
      <trkpt lat="47.0966" lon="-1.44877">
        <ele>98</ele>
        <time>2021-08-23T16:02:28.000Z</time>
      </trkpt>
      <trkpt lat="47.0967" lon="-1.44863">
        <ele>97</ele>
        <time>2021-08-23T16:02:30.000Z</time>
      </trkpt>
      <trkpt lat="47.09678" lon="-1.44845">
        <ele>97</ele>
        <time>2021-08-23T16:02:32.000Z</time>
      </trkpt>
      <trkpt lat="47.09685" lon="-1.44827">
        <ele>96</ele>
        <time>2021-08-23T16:02:34.000Z</time>
      </trkpt>
      <trkpt lat="47.09686" lon="-1.44806">
        <ele>97</ele>
        <time>2021-08-23T16:02:36.000Z</time>
      </trkpt>
      <trkpt lat="47.09683" lon="-1.44787">
        <ele>96</ele>
        <time>2021-08-23T16:02:38.000Z</time>
      </trkpt>
      <trkpt lat="47.09678" lon="-1.4477">
        <ele>96</ele>
        <time>2021-08-23T16:02:40.000Z</time>
      </trkpt>
      <trkpt lat="47.0967" lon="-1.44757">
        <ele>96</ele>
        <time>2021-08-23T16:02:42.000Z</time>
      </trkpt>
      <trkpt lat="47.09662" lon="-1.44744">
        <ele>96</ele>
        <time>2021-08-23T16:02:44.000Z</time>
      </trkpt>
      <trkpt lat="47.09654" lon="-1.4473">
        <ele>96</ele>
        <time>2021-08-23T16:02:46.000Z</time>
      </trkpt>
      <trkpt lat="47.09649" lon="-1.44714">
        <ele>96</ele>
        <time>2021-08-23T16:02:48.000Z</time>
      </trkpt>
      <trkpt lat="47.09647" lon="-1.44697">
        <ele>96</ele>
        <time>2021-08-23T16:02:50.000Z</time>
      </trkpt>
      <trkpt lat="47.09646" lon="-1.44681">
        <ele>96</ele>
        <time>2021-08-23T16:02:52.000Z</time>
      </trkpt>
      <trkpt lat="47.09648" lon="-1.44665">
        <ele>96</ele>
        <time>2021-08-23T16:02:54.000Z</time>
      </trkpt>
      <trkpt lat="47.09651" lon="-1.4465">
        <ele>96</ele>
        <time>2021-08-23T16:02:56.000Z</time>
      </trkpt>
      <trkpt lat="47.09656" lon="-1.44636">
        <ele>96</ele>
        <time>2021-08-23T16:02:58.000Z</time>
      </trkpt>
      <trkpt lat="47.09663" lon="-1.44624">
        <ele>97</ele>
        <time>2021-08-23T16:03:00.000Z</time>
      </trkpt>
      <trkpt lat="47.09671" lon="-1.44613">
        <ele>97</ele>
        <time>2021-08-23T16:03:02.000Z</time>
      </trkpt>
      <trkpt lat="47.09681" lon="-1.44604">
        <ele>97</ele>
        <time>2021-08-23T16:03:04.000Z</time>
      </trkpt>
      <trkpt lat="47.09692" lon="-1.44596">
        <ele>97</ele>
        <time>2021-08-23T16:03:06.000Z</time>
      </trkpt>
      <trkpt lat="47.09703" lon="-1.44588">
        <ele>97</ele>
        <time>2021-08-23T16:03:08.000Z</time>
      </trkpt>
      <trkpt lat="47.09714" lon="-1.44582">
        <ele>96</ele>
        <time>2021-08-23T16:03:10.000Z</time>
      </trkpt>
      <trkpt lat="47.09725" lon="-1.44575">
        <ele>96</ele>
        <time>2021-08-23T16:03:12.000Z</time>
      </trkpt>
      <trkpt lat="47.09736" lon="-1.4457">
        <ele>96</ele>
        <time>2021-08-23T16:03:14.000Z</time>
      </trkpt>
      <trkpt lat="47.09748" lon="-1.44564">
        <ele>96</ele>
        <time>2021-08-23T16:03:16.000Z</time>
      </trkpt>
      <trkpt lat="47.09761" lon="-1.44558">
        <ele>95</ele>
        <time>2021-08-23T16:03:18.000Z</time>
      </trkpt>
      <trkpt lat="47.09774" lon="-1.44552">
        <ele>95</ele>
        <time>2021-08-23T16:03:20.000Z</time>
      </trkpt>
      <trkpt lat="47.09787" lon="-1.44546">
        <ele>94</ele>
        <time>2021-08-23T16:03:22.000Z</time>
      </trkpt>
      <trkpt lat="47.098" lon="-1.44541">
        <ele>94</ele>
        <time>2021-08-23T16:03:24.000Z</time>
      </trkpt>
      <trkpt lat="47.09813" lon="-1.44536">
        <ele>94</ele>
        <time>2021-08-23T16:03:26.000Z</time>
      </trkpt>
      <trkpt lat="47.09827" lon="-1.44531">
        <ele>93</ele>
        <time>2021-08-23T16:03:28.000Z</time>
      </trkpt>
      <trkpt lat="47.09841" lon="-1.44526">
        <ele>92</ele>
        <time>2021-08-23T16:03:30.000Z</time>
      </trkpt>
      <trkpt lat="47.09856" lon="-1.4452">
        <ele>91</ele>
        <time>2021-08-23T16:03:32.000Z</time>
      </trkpt>
      <trkpt lat="47.09871" lon="-1.44514">
        <ele>90</ele>
        <time>2021-08-23T16:03:34.000Z</time>
      </trkpt>
      <trkpt lat="47.09887" lon="-1.44508">
        <ele>90</ele>
        <time>2021-08-23T16:03:36.000Z</time>
      </trkpt>
      <trkpt lat="47.09902" lon="-1.44502">
        <ele>89</ele>
        <time>2021-08-23T16:03:38.000Z</time>
      </trkpt>
      <trkpt lat="47.09918" lon="-1.44496">
        <ele>88</ele>
        <time>2021-08-23T16:03:40.000Z</time>
      </trkpt>
      <trkpt lat="47.09934" lon="-1.4449">
        <ele>88</ele>
        <time>2021-08-23T16:03:42.000Z</time>
      </trkpt>
      <trkpt lat="47.0995" lon="-1.44484">
        <ele>87</ele>
        <time>2021-08-23T16:03:44.000Z</time>
      </trkpt>
      <trkpt lat="47.09966" lon="-1.44479">
        <ele>86</ele>
        <time>2021-08-23T16:03:46.000Z</time>
      </trkpt>
      <trkpt lat="47.09982" lon="-1.44472">
        <ele>85</ele>
        <time>2021-08-23T16:03:48.000Z</time>
      </trkpt>
      <trkpt lat="47.09999" lon="-1.44466">
        <ele>84</ele>
        <time>2021-08-23T16:03:50.000Z</time>
      </trkpt>
      <trkpt lat="47.10015" lon="-1.4446">
        <ele>83</ele>
        <time>2021-08-23T16:03:52.000Z</time>
      </trkpt>
      <trkpt lat="47.10031" lon="-1.44454">
        <ele>82</ele>
        <time>2021-08-23T16:03:54.000Z</time>
      </trkpt>
      <trkpt lat="47.10048" lon="-1.44447">
        <ele>81</ele>
        <time>2021-08-23T16:03:56.000Z</time>
      </trkpt>
      <trkpt lat="47.10064" lon="-1.44441">
        <ele>80</ele>
        <time>2021-08-23T16:03:58.000Z</time>
      </trkpt>
      <trkpt lat="47.1008" lon="-1.44436">
        <ele>80</ele>
        <time>2021-08-23T16:04:00.000Z</time>
      </trkpt>
      <trkpt lat="47.10096" lon="-1.4443">
        <ele>80</ele>
        <time>2021-08-23T16:04:02.000Z</time>
      </trkpt>
      <trkpt lat="47.10111" lon="-1.44423">
        <ele>80</ele>
        <time>2021-08-23T16:04:04.000Z</time>
      </trkpt>
      <trkpt lat="47.10126" lon="-1.44413">
        <ele>79</ele>
        <time>2021-08-23T16:04:06.000Z</time>
      </trkpt>
      <trkpt lat="47.10141" lon="-1.44401">
        <ele>78</ele>
        <time>2021-08-23T16:04:08.000Z</time>
      </trkpt>
      <trkpt lat="47.10153" lon="-1.44387">
        <ele>78</ele>
        <time>2021-08-23T16:04:10.000Z</time>
      </trkpt>
      <trkpt lat="47.10166" lon="-1.44373">
        <ele>78</ele>
        <time>2021-08-23T16:04:12.000Z</time>
      </trkpt>
      <trkpt lat="47.10178" lon="-1.44358">
        <ele>78</ele>
        <time>2021-08-23T16:04:14.000Z</time>
      </trkpt>
      <trkpt lat="47.1019" lon="-1.44345">
        <ele>78</ele>
        <time>2021-08-23T16:04:16.000Z</time>
      </trkpt>
      <trkpt lat="47.10201" lon="-1.44332">
        <ele>79</ele>
        <time>2021-08-23T16:04:18.000Z</time>
      </trkpt>
      <trkpt lat="47.10212" lon="-1.44319">
        <ele>78</ele>
        <time>2021-08-23T16:04:20.000Z</time>
      </trkpt>
      <trkpt lat="47.10222" lon="-1.44308">
        <ele>78</ele>
        <time>2021-08-23T16:04:22.000Z</time>
      </trkpt>
      <trkpt lat="47.10232" lon="-1.44295">
        <ele>78</ele>
        <time>2021-08-23T16:04:24.000Z</time>
      </trkpt>
      <trkpt lat="47.10242" lon="-1.44283">
        <ele>78</ele>
        <time>2021-08-23T16:04:26.000Z</time>
      </trkpt>
      <trkpt lat="47.10253" lon="-1.44271">
        <ele>78</ele>
        <time>2021-08-23T16:04:28.000Z</time>
      </trkpt>
      <trkpt lat="47.10264" lon="-1.44259">
        <ele>78</ele>
        <time>2021-08-23T16:04:30.000Z</time>
      </trkpt>
      <trkpt lat="47.10275" lon="-1.44248">
        <ele>78</ele>
        <time>2021-08-23T16:04:32.000Z</time>
      </trkpt>
      <trkpt lat="47.10286" lon="-1.44238">
        <ele>78</ele>
        <time>2021-08-23T16:04:34.000Z</time>
      </trkpt>
      <trkpt lat="47.10298" lon="-1.4423">
        <ele>78</ele>
        <time>2021-08-23T16:04:36.000Z</time>
      </trkpt>
      <trkpt lat="47.10311" lon="-1.44223">
        <ele>78</ele>
        <time>2021-08-23T16:04:38.000Z</time>
      </trkpt>
      <trkpt lat="47.10324" lon="-1.44217">
        <ele>79</ele>
        <time>2021-08-23T16:04:40.000Z</time>
      </trkpt>
      <trkpt lat="47.10336" lon="-1.4421">
        <ele>78</ele>
        <time>2021-08-23T16:04:42.000Z</time>
      </trkpt>
      <trkpt lat="47.10349" lon="-1.44204">
        <ele>79</ele>
        <time>2021-08-23T16:04:44.000Z</time>
      </trkpt>
      <trkpt lat="47.10361" lon="-1.44199">
        <ele>79</ele>
        <time>2021-08-23T16:04:46.000Z</time>
      </trkpt>
      <trkpt lat="47.10373" lon="-1.44193">
        <ele>80</ele>
        <time>2021-08-23T16:04:48.000Z</time>
      </trkpt>
      <trkpt lat="47.10384" lon="-1.44189">
        <ele>80</ele>
        <time>2021-08-23T16:04:50.000Z</time>
      </trkpt>
      <trkpt lat="47.10396" lon="-1.44183">
        <ele>79</ele>
        <time>2021-08-23T16:04:52.000Z</time>
      </trkpt>
      <trkpt lat="47.10408" lon="-1.44177">
        <ele>78</ele>
        <time>2021-08-23T16:04:54.000Z</time>
      </trkpt>
      <trkpt lat="47.10419" lon="-1.44172">
        <ele>78</ele>
        <time>2021-08-23T16:04:56.000Z</time>
      </trkpt>
      <trkpt lat="47.10431" lon="-1.44167">
        <ele>78</ele>
        <time>2021-08-23T16:04:58.000Z</time>
      </trkpt>
      <trkpt lat="47.10442" lon="-1.44162">
        <ele>77</ele>
        <time>2021-08-23T16:05:00.000Z</time>
      </trkpt>
      <trkpt lat="47.10453" lon="-1.44157">
        <ele>77</ele>
        <time>2021-08-23T16:05:02.000Z</time>
      </trkpt>
      <trkpt lat="47.10464" lon="-1.44151">
        <ele>78</ele>
        <time>2021-08-23T16:05:04.000Z</time>
      </trkpt>
      <trkpt lat="47.10475" lon="-1.44146">
        <ele>78</ele>
        <time>2021-08-23T16:05:06.000Z</time>
      </trkpt>
      <trkpt lat="47.10485" lon="-1.4414">
        <ele>78</ele>
        <time>2021-08-23T16:05:08.000Z</time>
      </trkpt>
      <trkpt lat="47.10495" lon="-1.44133">
        <ele>79</ele>
        <time>2021-08-23T16:05:10.000Z</time>
      </trkpt>
      <trkpt lat="47.10506" lon="-1.44126">
        <ele>80</ele>
        <time>2021-08-23T16:05:12.000Z</time>
      </trkpt>
      <trkpt lat="47.10515" lon="-1.44119">
        <ele>80</ele>
        <time>2021-08-23T16:05:14.000Z</time>
      </trkpt>
      <trkpt lat="47.10526" lon="-1.44111">
        <ele>80</ele>
        <time>2021-08-23T16:05:16.000Z</time>
      </trkpt>
      <trkpt lat="47.10536" lon="-1.44103">
        <ele>80</ele>
        <time>2021-08-23T16:05:18.000Z</time>
      </trkpt>
      <trkpt lat="47.10546" lon="-1.44094">
        <ele>80</ele>
        <time>2021-08-23T16:05:20.000Z</time>
      </trkpt>
      <trkpt lat="47.10556" lon="-1.44085">
        <ele>80</ele>
        <time>2021-08-23T16:05:22.000Z</time>
      </trkpt>
      <trkpt lat="47.10566" lon="-1.44076">
        <ele>80</ele>
        <time>2021-08-23T16:05:24.000Z</time>
      </trkpt>
      <trkpt lat="47.10575" lon="-1.44067">
        <ele>80</ele>
        <time>2021-08-23T16:05:26.000Z</time>
      </trkpt>
      <trkpt lat="47.10584" lon="-1.44057">
        <ele>80</ele>
        <time>2021-08-23T16:05:28.000Z</time>
      </trkpt>
      <trkpt lat="47.10594" lon="-1.44049">
        <ele>80</ele>
        <time>2021-08-23T16:05:30.000Z</time>
      </trkpt>
      <trkpt lat="47.10603" lon="-1.44041">
        <ele>81</ele>
        <time>2021-08-23T16:05:32.000Z</time>
      </trkpt>
      <trkpt lat="47.10613" lon="-1.44035">
        <ele>81</ele>
        <time>2021-08-23T16:05:34.000Z</time>
      </trkpt>
      <trkpt lat="47.10622" lon="-1.44029">
        <ele>81</ele>
        <time>2021-08-23T16:05:36.000Z</time>
      </trkpt>
      <trkpt lat="47.10631" lon="-1.44024">
        <ele>81</ele>
        <time>2021-08-23T16:05:38.000Z</time>
      </trkpt>
      <trkpt lat="47.1064" lon="-1.44018">
        <ele>82</ele>
        <time>2021-08-23T16:05:40.000Z</time>
      </trkpt>
      <trkpt lat="47.10649" lon="-1.44012">
        <ele>83</ele>
        <time>2021-08-23T16:05:42.000Z</time>
      </trkpt>
      <trkpt lat="47.10657" lon="-1.44007">
        <ele>83</ele>
        <time>2021-08-23T16:05:44.000Z</time>
      </trkpt>
      <trkpt lat="47.10666" lon="-1.44003">
        <ele>84</ele>
        <time>2021-08-23T16:05:46.000Z</time>
      </trkpt>
      <trkpt lat="47.10675" lon="-1.43998">
        <ele>84</ele>
        <time>2021-08-23T16:05:48.000Z</time>
      </trkpt>
      <trkpt lat="47.10684" lon="-1.43993">
        <ele>84</ele>
        <time>2021-08-23T16:05:50.000Z</time>
      </trkpt>
      <trkpt lat="47.10692" lon="-1.43989">
        <ele>84</ele>
        <time>2021-08-23T16:05:52.000Z</time>
      </trkpt>
      <trkpt lat="47.10701" lon="-1.43984">
        <ele>85</ele>
        <time>2021-08-23T16:05:54.000Z</time>
      </trkpt>
      <trkpt lat="47.10713" lon="-1.43975">
        <ele>84</ele>
        <time>2021-08-23T16:05:57.000Z</time>
      </trkpt>
      <trkpt lat="47.10721" lon="-1.43967">
        <ele>84</ele>
        <time>2021-08-23T16:05:59.000Z</time>
      </trkpt>
      <trkpt lat="47.10729" lon="-1.4396">
        <ele>85</ele>
        <time>2021-08-23T16:06:01.000Z</time>
      </trkpt>
      <trkpt lat="47.10737" lon="-1.43952">
        <ele>85</ele>
        <time>2021-08-23T16:06:03.000Z</time>
      </trkpt>
      <trkpt lat="47.10744" lon="-1.43943">
        <ele>85</ele>
        <time>2021-08-23T16:06:05.000Z</time>
      </trkpt>
      <trkpt lat="47.10752" lon="-1.43935">
        <ele>85</ele>
        <time>2021-08-23T16:06:07.000Z</time>
      </trkpt>
      <trkpt lat="47.10759" lon="-1.43927">
        <ele>85</ele>
        <time>2021-08-23T16:06:09.000Z</time>
      </trkpt>
      <trkpt lat="47.10771" lon="-1.43918">
        <ele>86</ele>
        <time>2021-08-23T16:06:12.000Z</time>
      </trkpt>
      <trkpt lat="47.10779" lon="-1.43912">
        <ele>86</ele>
        <time>2021-08-23T16:06:14.000Z</time>
      </trkpt>
      <trkpt lat="47.10787" lon="-1.43904">
        <ele>86</ele>
        <time>2021-08-23T16:06:16.000Z</time>
      </trkpt>
      <trkpt lat="47.10798" lon="-1.43894">
        <ele>86</ele>
        <time>2021-08-23T16:06:19.000Z</time>
      </trkpt>
      <trkpt lat="47.10806" lon="-1.43888">
        <ele>87</ele>
        <time>2021-08-23T16:06:21.000Z</time>
      </trkpt>
      <trkpt lat="47.10817" lon="-1.43878">
        <ele>87</ele>
        <time>2021-08-23T16:06:24.000Z</time>
      </trkpt>
      <trkpt lat="47.10829" lon="-1.43869">
        <ele>87</ele>
        <time>2021-08-23T16:06:27.000Z</time>
      </trkpt>
      <trkpt lat="47.10837" lon="-1.4386">
        <ele>87</ele>
        <time>2021-08-23T16:06:29.000Z</time>
      </trkpt>
      <trkpt lat="47.10845" lon="-1.43851">
        <ele>87</ele>
        <time>2021-08-23T16:06:31.000Z</time>
      </trkpt>
      <trkpt lat="47.10853" lon="-1.43843">
        <ele>87</ele>
        <time>2021-08-23T16:06:33.000Z</time>
      </trkpt>
      <trkpt lat="47.10861" lon="-1.43836">
        <ele>88</ele>
        <time>2021-08-23T16:06:35.000Z</time>
      </trkpt>
      <trkpt lat="47.10869" lon="-1.43829">
        <ele>88</ele>
        <time>2021-08-23T16:06:37.000Z</time>
      </trkpt>
      <trkpt lat="47.10878" lon="-1.43823">
        <ele>88</ele>
        <time>2021-08-23T16:06:39.000Z</time>
      </trkpt>
      <trkpt lat="47.10886" lon="-1.43815">
        <ele>89</ele>
        <time>2021-08-23T16:06:41.000Z</time>
      </trkpt>
      <trkpt lat="47.10894" lon="-1.43806">
        <ele>89</ele>
        <time>2021-08-23T16:06:43.000Z</time>
      </trkpt>
      <trkpt lat="47.10902" lon="-1.43798">
        <ele>89</ele>
        <time>2021-08-23T16:06:45.000Z</time>
      </trkpt>
      <trkpt lat="47.1091" lon="-1.4379">
        <ele>89</ele>
        <time>2021-08-23T16:06:47.000Z</time>
      </trkpt>
      <trkpt lat="47.10917" lon="-1.43782">
        <ele>90</ele>
        <time>2021-08-23T16:06:49.000Z</time>
      </trkpt>
      <trkpt lat="47.10925" lon="-1.43775">
        <ele>90</ele>
        <time>2021-08-23T16:06:51.000Z</time>
      </trkpt>
      <trkpt lat="47.10932" lon="-1.43767">
        <ele>90</ele>
        <time>2021-08-23T16:06:53.000Z</time>
      </trkpt>
      <trkpt lat="47.1094" lon="-1.4376">
        <ele>90</ele>
        <time>2021-08-23T16:06:55.000Z</time>
      </trkpt>
      <trkpt lat="47.10948" lon="-1.43751">
        <ele>90</ele>
        <time>2021-08-23T16:06:57.000Z</time>
      </trkpt>
      <trkpt lat="47.10956" lon="-1.43743">
        <ele>90</ele>
        <time>2021-08-23T16:06:59.000Z</time>
      </trkpt>
      <trkpt lat="47.10963" lon="-1.43735">
        <ele>90</ele>
        <time>2021-08-23T16:07:01.000Z</time>
      </trkpt>
      <trkpt lat="47.10971" lon="-1.43728">
        <ele>91</ele>
        <time>2021-08-23T16:07:03.000Z</time>
      </trkpt>
      <trkpt lat="47.10979" lon="-1.4372">
        <ele>91</ele>
        <time>2021-08-23T16:07:05.000Z</time>
      </trkpt>
      <trkpt lat="47.1099" lon="-1.43708">
        <ele>91</ele>
        <time>2021-08-23T16:07:08.000Z</time>
      </trkpt>
      <trkpt lat="47.10997" lon="-1.437">
        <ele>91</ele>
        <time>2021-08-23T16:07:10.000Z</time>
      </trkpt>
      <trkpt lat="47.11008" lon="-1.43687">
        <ele>91</ele>
        <time>2021-08-23T16:07:13.000Z</time>
      </trkpt>
      <trkpt lat="47.11015" lon="-1.43679">
        <ele>91</ele>
        <time>2021-08-23T16:07:15.000Z</time>
      </trkpt>
      <trkpt lat="47.11025" lon="-1.43667">
        <ele>92</ele>
        <time>2021-08-23T16:07:18.000Z</time>
      </trkpt>
      <trkpt lat="47.11035" lon="-1.43654">
        <ele>91</ele>
        <time>2021-08-23T16:07:21.000Z</time>
      </trkpt>
      <trkpt lat="47.11044" lon="-1.4364">
        <ele>92</ele>
        <time>2021-08-23T16:07:24.000Z</time>
      </trkpt>
      <trkpt lat="47.1105" lon="-1.43631">
        <ele>93</ele>
        <time>2021-08-23T16:07:26.000Z</time>
      </trkpt>
      <trkpt lat="47.11058" lon="-1.43622">
        <ele>93</ele>
        <time>2021-08-23T16:07:28.000Z</time>
      </trkpt>
      <trkpt lat="47.11065" lon="-1.43614">
        <ele>93</ele>
        <time>2021-08-23T16:07:30.000Z</time>
      </trkpt>
      <trkpt lat="47.11076" lon="-1.43601">
        <ele>93</ele>
        <time>2021-08-23T16:07:33.000Z</time>
      </trkpt>
      <trkpt lat="47.11084" lon="-1.43593">
        <ele>93</ele>
        <time>2021-08-23T16:07:35.000Z</time>
      </trkpt>
      <trkpt lat="47.11092" lon="-1.43586">
        <ele>93</ele>
        <time>2021-08-23T16:07:37.000Z</time>
      </trkpt>
      <trkpt lat="47.111" lon="-1.43578">
        <ele>94</ele>
        <time>2021-08-23T16:07:39.000Z</time>
      </trkpt>
      <trkpt lat="47.11107" lon="-1.43569">
        <ele>94</ele>
        <time>2021-08-23T16:07:41.000Z</time>
      </trkpt>
      <trkpt lat="47.11113" lon="-1.43559">
        <ele>94</ele>
        <time>2021-08-23T16:07:43.000Z</time>
      </trkpt>
      <trkpt lat="47.1112" lon="-1.43548">
        <ele>94</ele>
        <time>2021-08-23T16:07:45.000Z</time>
      </trkpt>
      <trkpt lat="47.11127" lon="-1.43538">
        <ele>95</ele>
        <time>2021-08-23T16:07:47.000Z</time>
      </trkpt>
      <trkpt lat="47.11133" lon="-1.43527">
        <ele>95</ele>
        <time>2021-08-23T16:07:49.000Z</time>
      </trkpt>
      <trkpt lat="47.11143" lon="-1.43509">
        <ele>95</ele>
        <time>2021-08-23T16:07:52.000Z</time>
      </trkpt>
      <trkpt lat="47.11149" lon="-1.43498">
        <ele>95</ele>
        <time>2021-08-23T16:07:54.000Z</time>
      </trkpt>
      <trkpt lat="47.11155" lon="-1.43487">
        <ele>95</ele>
        <time>2021-08-23T16:07:56.000Z</time>
      </trkpt>
      <trkpt lat="47.11162" lon="-1.43476">
        <ele>95</ele>
        <time>2021-08-23T16:07:58.000Z</time>
      </trkpt>
      <trkpt lat="47.11168" lon="-1.43465">
        <ele>95</ele>
        <time>2021-08-23T16:08:00.000Z</time>
      </trkpt>
      <trkpt lat="47.11175" lon="-1.43454">
        <ele>95</ele>
        <time>2021-08-23T16:08:02.000Z</time>
      </trkpt>
      <trkpt lat="47.11181" lon="-1.43443">
        <ele>94</ele>
        <time>2021-08-23T16:08:04.000Z</time>
      </trkpt>
      <trkpt lat="47.11187" lon="-1.43432">
        <ele>94</ele>
        <time>2021-08-23T16:08:06.000Z</time>
      </trkpt>
      <trkpt lat="47.11194" lon="-1.43421">
        <ele>93</ele>
        <time>2021-08-23T16:08:08.000Z</time>
      </trkpt>
      <trkpt lat="47.11201" lon="-1.43409">
        <ele>93</ele>
        <time>2021-08-23T16:08:10.000Z</time>
      </trkpt>
      <trkpt lat="47.11208" lon="-1.43397">
        <ele>93</ele>
        <time>2021-08-23T16:08:12.000Z</time>
      </trkpt>
      <trkpt lat="47.11215" lon="-1.43386">
        <ele>93</ele>
        <time>2021-08-23T16:08:14.000Z</time>
      </trkpt>
      <trkpt lat="47.11222" lon="-1.43374">
        <ele>92</ele>
        <time>2021-08-23T16:08:16.000Z</time>
      </trkpt>
      <trkpt lat="47.11229" lon="-1.43362">
        <ele>92</ele>
        <time>2021-08-23T16:08:18.000Z</time>
      </trkpt>
      <trkpt lat="47.11236" lon="-1.4335">
        <ele>92</ele>
        <time>2021-08-23T16:08:20.000Z</time>
      </trkpt>
      <trkpt lat="47.11243" lon="-1.43338">
        <ele>92</ele>
        <time>2021-08-23T16:08:22.000Z</time>
      </trkpt>
      <trkpt lat="47.1125" lon="-1.43326">
        <ele>92</ele>
        <time>2021-08-23T16:08:24.000Z</time>
      </trkpt>
      <trkpt lat="47.11258" lon="-1.43315">
        <ele>92</ele>
        <time>2021-08-23T16:08:26.000Z</time>
      </trkpt>
      <trkpt lat="47.11266" lon="-1.43305">
        <ele>92</ele>
        <time>2021-08-23T16:08:28.000Z</time>
      </trkpt>
      <trkpt lat="47.11275" lon="-1.43294">
        <ele>92</ele>
        <time>2021-08-23T16:08:30.000Z</time>
      </trkpt>
      <trkpt lat="47.11284" lon="-1.43283">
        <ele>91</ele>
        <time>2021-08-23T16:08:32.000Z</time>
      </trkpt>
      <trkpt lat="47.11293" lon="-1.43272">
        <ele>91</ele>
        <time>2021-08-23T16:08:34.000Z</time>
      </trkpt>
      <trkpt lat="47.11302" lon="-1.43261">
        <ele>90</ele>
        <time>2021-08-23T16:08:36.000Z</time>
      </trkpt>
      <trkpt lat="47.11311" lon="-1.4325">
        <ele>90</ele>
        <time>2021-08-23T16:08:38.000Z</time>
      </trkpt>
      <trkpt lat="47.11321" lon="-1.43239">
        <ele>90</ele>
        <time>2021-08-23T16:08:40.000Z</time>
      </trkpt>
      <trkpt lat="47.1133" lon="-1.43228">
        <ele>90</ele>
        <time>2021-08-23T16:08:42.000Z</time>
      </trkpt>
      <trkpt lat="47.11339" lon="-1.43217">
        <ele>90</ele>
        <time>2021-08-23T16:08:44.000Z</time>
      </trkpt>
      <trkpt lat="47.11349" lon="-1.43205">
        <ele>89</ele>
        <time>2021-08-23T16:08:46.000Z</time>
      </trkpt>
      <trkpt lat="47.11359" lon="-1.43194">
        <ele>89</ele>
        <time>2021-08-23T16:08:48.000Z</time>
      </trkpt>
      <trkpt lat="47.11368" lon="-1.43182">
        <ele>89</ele>
        <time>2021-08-23T16:08:50.000Z</time>
      </trkpt>
      <trkpt lat="47.11377" lon="-1.4317">
        <ele>89</ele>
        <time>2021-08-23T16:08:52.000Z</time>
      </trkpt>
      <trkpt lat="47.11387" lon="-1.43157">
        <ele>89</ele>
        <time>2021-08-23T16:08:54.000Z</time>
      </trkpt>
      <trkpt lat="47.11397" lon="-1.43145">
        <ele>89</ele>
        <time>2021-08-23T16:08:56.000Z</time>
      </trkpt>
      <trkpt lat="47.11406" lon="-1.43132">
        <ele>89</ele>
        <time>2021-08-23T16:08:58.000Z</time>
      </trkpt>
      <trkpt lat="47.11416" lon="-1.4312">
        <ele>90</ele>
        <time>2021-08-23T16:09:00.000Z</time>
      </trkpt>
      <trkpt lat="47.11425" lon="-1.43107">
        <ele>90</ele>
        <time>2021-08-23T16:09:02.000Z</time>
      </trkpt>
      <trkpt lat="47.11435" lon="-1.43096">
        <ele>90</ele>
        <time>2021-08-23T16:09:04.000Z</time>
      </trkpt>
      <trkpt lat="47.11446" lon="-1.43085">
        <ele>90</ele>
        <time>2021-08-23T16:09:06.000Z</time>
      </trkpt>
      <trkpt lat="47.11457" lon="-1.43075">
        <ele>89</ele>
        <time>2021-08-23T16:09:08.000Z</time>
      </trkpt>
      <trkpt lat="47.11468" lon="-1.43064">
        <ele>89</ele>
        <time>2021-08-23T16:09:10.000Z</time>
      </trkpt>
      <trkpt lat="47.1148" lon="-1.43053">
        <ele>88</ele>
        <time>2021-08-23T16:09:12.000Z</time>
      </trkpt>
      <trkpt lat="47.11492" lon="-1.43042">
        <ele>88</ele>
        <time>2021-08-23T16:09:14.000Z</time>
      </trkpt>
      <trkpt lat="47.11504" lon="-1.4303">
        <ele>87</ele>
        <time>2021-08-23T16:09:16.000Z</time>
      </trkpt>
      <trkpt lat="47.11517" lon="-1.43019">
        <ele>87</ele>
        <time>2021-08-23T16:09:18.000Z</time>
      </trkpt>
      <trkpt lat="47.11529" lon="-1.43007">
        <ele>87</ele>
        <time>2021-08-23T16:09:20.000Z</time>
      </trkpt>
      <trkpt lat="47.11542" lon="-1.42995">
        <ele>87</ele>
        <time>2021-08-23T16:09:22.000Z</time>
      </trkpt>
      <trkpt lat="47.11555" lon="-1.42983">
        <ele>87</ele>
        <time>2021-08-23T16:09:24.000Z</time>
      </trkpt>
      <trkpt lat="47.11568" lon="-1.42971">
        <ele>85</ele>
        <time>2021-08-23T16:09:26.000Z</time>
      </trkpt>
      <trkpt lat="47.11582" lon="-1.42959">
        <ele>84</ele>
        <time>2021-08-23T16:09:28.000Z</time>
      </trkpt>
      <trkpt lat="47.11595" lon="-1.42947">
        <ele>83</ele>
        <time>2021-08-23T16:09:30.000Z</time>
      </trkpt>
      <trkpt lat="47.11609" lon="-1.42932">
        <ele>82</ele>
        <time>2021-08-23T16:09:32.000Z</time>
      </trkpt>
      <trkpt lat="47.11622" lon="-1.42916">
        <ele>81</ele>
        <time>2021-08-23T16:09:34.000Z</time>
      </trkpt>
      <trkpt lat="47.11633" lon="-1.42898">
        <ele>81</ele>
        <time>2021-08-23T16:09:36.000Z</time>
      </trkpt>
      <trkpt lat="47.11641" lon="-1.42879">
        <ele>80</ele>
        <time>2021-08-23T16:09:38.000Z</time>
      </trkpt>
      <trkpt lat="47.11649" lon="-1.4286">
        <ele>80</ele>
        <time>2021-08-23T16:09:40.000Z</time>
      </trkpt>
      <trkpt lat="47.11657" lon="-1.42843">
        <ele>80</ele>
        <time>2021-08-23T16:09:42.000Z</time>
      </trkpt>
      <trkpt lat="47.11664" lon="-1.42826">
        <ele>81</ele>
        <time>2021-08-23T16:09:44.000Z</time>
      </trkpt>
      <trkpt lat="47.11671" lon="-1.42811">
        <ele>81</ele>
        <time>2021-08-23T16:09:46.000Z</time>
      </trkpt>
      <trkpt lat="47.11676" lon="-1.42795">
        <ele>81</ele>
        <time>2021-08-23T16:09:48.000Z</time>
      </trkpt>
      <trkpt lat="47.11681" lon="-1.4278">
        <ele>81</ele>
        <time>2021-08-23T16:09:50.000Z</time>
      </trkpt>
      <trkpt lat="47.11684" lon="-1.42765">
        <ele>82</ele>
        <time>2021-08-23T16:09:52.000Z</time>
      </trkpt>
      <trkpt lat="47.11688" lon="-1.42752">
        <ele>83</ele>
        <time>2021-08-23T16:09:54.000Z</time>
      </trkpt>
      <trkpt lat="47.11692" lon="-1.42733">
        <ele>84</ele>
        <time>2021-08-23T16:09:57.000Z</time>
      </trkpt>
      <trkpt lat="47.11697" lon="-1.42717">
        <ele>86</ele>
        <time>2021-08-23T16:10:00.000Z</time>
      </trkpt>
      <trkpt lat="47.11704" lon="-1.42703">
        <ele>87</ele>
        <time>2021-08-23T16:10:03.000Z</time>
      </trkpt>
      <trkpt lat="47.11714" lon="-1.42692">
        <ele>87</ele>
        <time>2021-08-23T16:10:06.000Z</time>
      </trkpt>
      <trkpt lat="47.11725" lon="-1.42685">
        <ele>88</ele>
        <time>2021-08-23T16:10:09.000Z</time>
      </trkpt>
      <trkpt lat="47.11737" lon="-1.42678">
        <ele>89</ele>
        <time>2021-08-23T16:10:12.000Z</time>
      </trkpt>
      <trkpt lat="47.11748" lon="-1.42671">
        <ele>89</ele>
        <time>2021-08-23T16:10:15.000Z</time>
      </trkpt>
      <trkpt lat="47.1176" lon="-1.42664">
        <ele>90</ele>
        <time>2021-08-23T16:10:18.000Z</time>
      </trkpt>
      <trkpt lat="47.11771" lon="-1.42658">
        <ele>90</ele>
        <time>2021-08-23T16:10:21.000Z</time>
      </trkpt>
      <trkpt lat="47.11782" lon="-1.42651">
        <ele>91</ele>
        <time>2021-08-23T16:10:24.000Z</time>
      </trkpt>
      <trkpt lat="47.11792" lon="-1.42645">
        <ele>92</ele>
        <time>2021-08-23T16:10:27.000Z</time>
      </trkpt>
      <trkpt lat="47.11802" lon="-1.42638">
        <ele>93</ele>
        <time>2021-08-23T16:10:30.000Z</time>
      </trkpt>
      <trkpt lat="47.11812" lon="-1.42632">
        <ele>94</ele>
        <time>2021-08-23T16:10:33.000Z</time>
      </trkpt>
      <trkpt lat="47.11822" lon="-1.42626">
        <ele>94</ele>
        <time>2021-08-23T16:10:36.000Z</time>
      </trkpt>
      <trkpt lat="47.11832" lon="-1.4262">
        <ele>94</ele>
        <time>2021-08-23T16:10:39.000Z</time>
      </trkpt>
      <trkpt lat="47.11842" lon="-1.42614">
        <ele>95</ele>
        <time>2021-08-23T16:10:42.000Z</time>
      </trkpt>
      <trkpt lat="47.11851" lon="-1.42607">
        <ele>96</ele>
        <time>2021-08-23T16:10:45.000Z</time>
      </trkpt>
      <trkpt lat="47.11861" lon="-1.42599">
        <ele>96</ele>
        <time>2021-08-23T16:10:48.000Z</time>
      </trkpt>
      <trkpt lat="47.1187" lon="-1.42592">
        <ele>97</ele>
        <time>2021-08-23T16:10:51.000Z</time>
      </trkpt>
      <trkpt lat="47.11879" lon="-1.42583">
        <ele>97</ele>
        <time>2021-08-23T16:10:54.000Z</time>
      </trkpt>
      <trkpt lat="47.11889" lon="-1.42574">
        <ele>98</ele>
        <time>2021-08-23T16:10:57.000Z</time>
      </trkpt>
      <trkpt lat="47.11898" lon="-1.42565">
        <ele>98</ele>
        <time>2021-08-23T16:11:00.000Z</time>
      </trkpt>
      <trkpt lat="47.11907" lon="-1.42555">
        <ele>98</ele>
        <time>2021-08-23T16:11:03.000Z</time>
      </trkpt>
      <trkpt lat="47.11917" lon="-1.42546">
        <ele>99</ele>
        <time>2021-08-23T16:11:06.000Z</time>
      </trkpt>
      <trkpt lat="47.11926" lon="-1.42537">
        <ele>99</ele>
        <time>2021-08-23T16:11:09.000Z</time>
      </trkpt>
      <trkpt lat="47.11936" lon="-1.42527">
        <ele>99</ele>
        <time>2021-08-23T16:11:12.000Z</time>
      </trkpt>
      <trkpt lat="47.11946" lon="-1.42517">
        <ele>100</ele>
        <time>2021-08-23T16:11:15.000Z</time>
      </trkpt>
      <trkpt lat="47.11956" lon="-1.42507">
        <ele>100</ele>
        <time>2021-08-23T16:11:18.000Z</time>
      </trkpt>
      <trkpt lat="47.11966" lon="-1.42497">
        <ele>100</ele>
        <time>2021-08-23T16:11:21.000Z</time>
      </trkpt>
      <trkpt lat="47.11976" lon="-1.42487">
        <ele>101</ele>
        <time>2021-08-23T16:11:24.000Z</time>
      </trkpt>
      <trkpt lat="47.11987" lon="-1.42477">
        <ele>101</ele>
        <time>2021-08-23T16:11:27.000Z</time>
      </trkpt>
      <trkpt lat="47.11998" lon="-1.42466">
        <ele>101</ele>
        <time>2021-08-23T16:11:30.000Z</time>
      </trkpt>
      <trkpt lat="47.12006" lon="-1.42458">
        <ele>101</ele>
        <time>2021-08-23T16:11:32.000Z</time>
      </trkpt>
      <trkpt lat="47.12014" lon="-1.42451">
        <ele>101</ele>
        <time>2021-08-23T16:11:34.000Z</time>
      </trkpt>
      <trkpt lat="47.12022" lon="-1.42442">
        <ele>101</ele>
        <time>2021-08-23T16:11:36.000Z</time>
      </trkpt>
      <trkpt lat="47.1203" lon="-1.42435">
        <ele>101</ele>
        <time>2021-08-23T16:11:38.000Z</time>
      </trkpt>
      <trkpt lat="47.12039" lon="-1.42428">
        <ele>101</ele>
        <time>2021-08-23T16:11:40.000Z</time>
      </trkpt>
      <trkpt lat="47.12045" lon="-1.42418">
        <ele>101</ele>
        <time>2021-08-23T16:11:42.000Z</time>
      </trkpt>
      <trkpt lat="47.12053" lon="-1.42407">
        <ele>101</ele>
        <time>2021-08-23T16:11:44.000Z</time>
      </trkpt>
      <trkpt lat="47.1206" lon="-1.42395">
        <ele>101</ele>
        <time>2021-08-23T16:11:46.000Z</time>
      </trkpt>
      <trkpt lat="47.12066" lon="-1.42382">
        <ele>100</ele>
        <time>2021-08-23T16:11:48.000Z</time>
      </trkpt>
      <trkpt lat="47.12071" lon="-1.42368">
        <ele>100</ele>
        <time>2021-08-23T16:11:50.000Z</time>
      </trkpt>
      <trkpt lat="47.12075" lon="-1.42354">
        <ele>101</ele>
        <time>2021-08-23T16:11:52.000Z</time>
      </trkpt>
      <trkpt lat="47.12079" lon="-1.42339">
        <ele>100</ele>
        <time>2021-08-23T16:11:54.000Z</time>
      </trkpt>
      <trkpt lat="47.12084" lon="-1.42324">
        <ele>100</ele>
        <time>2021-08-23T16:11:56.000Z</time>
      </trkpt>
      <trkpt lat="47.12088" lon="-1.4231">
        <ele>100</ele>
        <time>2021-08-23T16:11:58.000Z</time>
      </trkpt>
      <trkpt lat="47.12093" lon="-1.42295">
        <ele>99</ele>
        <time>2021-08-23T16:12:00.000Z</time>
      </trkpt>
      <trkpt lat="47.12097" lon="-1.4228">
        <ele>99</ele>
        <time>2021-08-23T16:12:02.000Z</time>
      </trkpt>
      <trkpt lat="47.12101" lon="-1.42265">
        <ele>99</ele>
        <time>2021-08-23T16:12:04.000Z</time>
      </trkpt>
      <trkpt lat="47.12106" lon="-1.4225">
        <ele>99</ele>
        <time>2021-08-23T16:12:06.000Z</time>
      </trkpt>
      <trkpt lat="47.1211" lon="-1.42234">
        <ele>100</ele>
        <time>2021-08-23T16:12:08.000Z</time>
      </trkpt>
      <trkpt lat="47.12115" lon="-1.4222">
        <ele>100</ele>
        <time>2021-08-23T16:12:10.000Z</time>
      </trkpt>
      <trkpt lat="47.1212" lon="-1.42205">
        <ele>99</ele>
        <time>2021-08-23T16:12:12.000Z</time>
      </trkpt>
      <trkpt lat="47.12126" lon="-1.42192">
        <ele>99</ele>
        <time>2021-08-23T16:12:14.000Z</time>
      </trkpt>
      <trkpt lat="47.12134" lon="-1.42181">
        <ele>100</ele>
        <time>2021-08-23T16:12:16.000Z</time>
      </trkpt>
      <trkpt lat="47.12143" lon="-1.42171">
        <ele>99</ele>
        <time>2021-08-23T16:12:18.000Z</time>
      </trkpt>
      <trkpt lat="47.12152" lon="-1.42163">
        <ele>99</ele>
        <time>2021-08-23T16:12:20.000Z</time>
      </trkpt>
      <trkpt lat="47.12162" lon="-1.42156">
        <ele>99</ele>
        <time>2021-08-23T16:12:22.000Z</time>
      </trkpt>
      <trkpt lat="47.12171" lon="-1.42152">
        <ele>99</ele>
        <time>2021-08-23T16:12:24.000Z</time>
      </trkpt>
      <trkpt lat="47.12182" lon="-1.42146">
        <ele>99</ele>
        <time>2021-08-23T16:12:26.000Z</time>
      </trkpt>
      <trkpt lat="47.12192" lon="-1.4214">
        <ele>99</ele>
        <time>2021-08-23T16:12:28.000Z</time>
      </trkpt>
      <trkpt lat="47.12202" lon="-1.42135">
        <ele>99</ele>
        <time>2021-08-23T16:12:30.000Z</time>
      </trkpt>
      <trkpt lat="47.12212" lon="-1.4213">
        <ele>100</ele>
        <time>2021-08-23T16:12:32.000Z</time>
      </trkpt>
      <trkpt lat="47.12222" lon="-1.42124">
        <ele>100</ele>
        <time>2021-08-23T16:12:34.000Z</time>
      </trkpt>
      <trkpt lat="47.12231" lon="-1.42115">
        <ele>100</ele>
        <time>2021-08-23T16:12:36.000Z</time>
      </trkpt>
      <trkpt lat="47.1224" lon="-1.42106">
        <ele>101</ele>
        <time>2021-08-23T16:12:38.000Z</time>
      </trkpt>
      <trkpt lat="47.1225" lon="-1.42097">
        <ele>102</ele>
        <time>2021-08-23T16:12:40.000Z</time>
      </trkpt>
      <trkpt lat="47.1226" lon="-1.42089">
        <ele>102</ele>
        <time>2021-08-23T16:12:42.000Z</time>
      </trkpt>
      <trkpt lat="47.12269" lon="-1.42082">
        <ele>102</ele>
        <time>2021-08-23T16:12:44.000Z</time>
      </trkpt>
      <trkpt lat="47.12279" lon="-1.42074">
        <ele>102</ele>
        <time>2021-08-23T16:12:46.000Z</time>
      </trkpt>
      <trkpt lat="47.12288" lon="-1.42065">
        <ele>102</ele>
        <time>2021-08-23T16:12:48.000Z</time>
      </trkpt>
      <trkpt lat="47.12298" lon="-1.42057">
        <ele>102</ele>
        <time>2021-08-23T16:12:50.000Z</time>
      </trkpt>
      <trkpt lat="47.12308" lon="-1.42049">
        <ele>102</ele>
        <time>2021-08-23T16:12:52.000Z</time>
      </trkpt>
      <trkpt lat="47.12317" lon="-1.42043">
        <ele>102</ele>
        <time>2021-08-23T16:12:54.000Z</time>
      </trkpt>
      <trkpt lat="47.12326" lon="-1.42037">
        <ele>102</ele>
        <time>2021-08-23T16:12:56.000Z</time>
      </trkpt>
      <trkpt lat="47.12336" lon="-1.42044">
        <ele>101</ele>
        <time>2021-08-23T16:12:58.000Z</time>
      </trkpt>
      <trkpt lat="47.12347" lon="-1.42048">
        <ele>102</ele>
        <time>2021-08-23T16:13:01.000Z</time>
      </trkpt>
      <trkpt lat="47.12357" lon="-1.42041">
        <ele>102</ele>
        <time>2021-08-23T16:13:03.000Z</time>
      </trkpt>
      <trkpt lat="47.12367" lon="-1.42034">
        <ele>103</ele>
        <time>2021-08-23T16:13:05.000Z</time>
      </trkpt>
      <trkpt lat="47.12376" lon="-1.42026">
        <ele>103</ele>
        <time>2021-08-23T16:13:07.000Z</time>
      </trkpt>
      <trkpt lat="47.12385" lon="-1.42018">
        <ele>104</ele>
        <time>2021-08-23T16:13:09.000Z</time>
      </trkpt>
      <trkpt lat="47.12394" lon="-1.42009">
        <ele>104</ele>
        <time>2021-08-23T16:13:11.000Z</time>
      </trkpt>
      <trkpt lat="47.12402" lon="-1.41999">
        <ele>104</ele>
        <time>2021-08-23T16:13:13.000Z</time>
      </trkpt>
      <trkpt lat="47.12409" lon="-1.41987">
        <ele>104</ele>
        <time>2021-08-23T16:13:15.000Z</time>
      </trkpt>
      <trkpt lat="47.12417" lon="-1.41974">
        <ele>104</ele>
        <time>2021-08-23T16:13:17.000Z</time>
      </trkpt>
      <trkpt lat="47.12425" lon="-1.41961">
        <ele>103</ele>
        <time>2021-08-23T16:13:19.000Z</time>
      </trkpt>
      <trkpt lat="47.12433" lon="-1.41946">
        <ele>103</ele>
        <time>2021-08-23T16:13:21.000Z</time>
      </trkpt>
      <trkpt lat="47.12442" lon="-1.41931">
        <ele>103</ele>
        <time>2021-08-23T16:13:23.000Z</time>
      </trkpt>
      <trkpt lat="47.12453" lon="-1.41918">
        <ele>103</ele>
        <time>2021-08-23T16:13:25.000Z</time>
      </trkpt>
      <trkpt lat="47.12463" lon="-1.41907">
        <ele>102</ele>
        <time>2021-08-23T16:13:27.000Z</time>
      </trkpt>
      <trkpt lat="47.12473" lon="-1.41898">
        <ele>101</ele>
        <time>2021-08-23T16:13:29.000Z</time>
      </trkpt>
      <trkpt lat="47.12483" lon="-1.41888">
        <ele>100</ele>
        <time>2021-08-23T16:13:31.000Z</time>
      </trkpt>
      <trkpt lat="47.12494" lon="-1.4188">
        <ele>100</ele>
        <time>2021-08-23T16:13:33.000Z</time>
      </trkpt>
      <trkpt lat="47.12505" lon="-1.41873">
        <ele>100</ele>
        <time>2021-08-23T16:13:35.000Z</time>
      </trkpt>
      <trkpt lat="47.12517" lon="-1.41865">
        <ele>99</ele>
        <time>2021-08-23T16:13:37.000Z</time>
      </trkpt>
      <trkpt lat="47.12531" lon="-1.41859">
        <ele>99</ele>
        <time>2021-08-23T16:13:39.000Z</time>
      </trkpt>
      <trkpt lat="47.12544" lon="-1.41853">
        <ele>99</ele>
        <time>2021-08-23T16:13:41.000Z</time>
      </trkpt>
      <trkpt lat="47.12557" lon="-1.41845">
        <ele>99</ele>
        <time>2021-08-23T16:13:43.000Z</time>
      </trkpt>
      <trkpt lat="47.12568" lon="-1.41832">
        <ele>98</ele>
        <time>2021-08-23T16:13:45.000Z</time>
      </trkpt>
      <trkpt lat="47.12573" lon="-1.41811">
        <ele>96</ele>
        <time>2021-08-23T16:13:47.000Z</time>
      </trkpt>
      <trkpt lat="47.12578" lon="-1.41789">
        <ele>95</ele>
        <time>2021-08-23T16:13:49.000Z</time>
      </trkpt>
      <trkpt lat="47.12584" lon="-1.41767">
        <ele>93</ele>
        <time>2021-08-23T16:13:51.000Z</time>
      </trkpt>
      <trkpt lat="47.12592" lon="-1.41747">
        <ele>92</ele>
        <time>2021-08-23T16:13:53.000Z</time>
      </trkpt>
      <trkpt lat="47.12605" lon="-1.41733">
        <ele>91</ele>
        <time>2021-08-23T16:13:55.000Z</time>
      </trkpt>
      <trkpt lat="47.12621" lon="-1.41727">
        <ele>90</ele>
        <time>2021-08-23T16:13:57.000Z</time>
      </trkpt>
      <trkpt lat="47.12638" lon="-1.41723">
        <ele>90</ele>
        <time>2021-08-23T16:13:59.000Z</time>
      </trkpt>
      <trkpt lat="47.12646" lon="-1.41719">
        <ele>90</ele>
        <time>2021-08-23T16:14:00.000Z</time>
      </trkpt>
      <trkpt lat="47.12655" lon="-1.41715">
        <ele>90</ele>
        <time>2021-08-23T16:14:01.000Z</time>
      </trkpt>
      <trkpt lat="47.12671" lon="-1.41703">
        <ele>89</ele>
        <time>2021-08-23T16:14:03.000Z</time>
      </trkpt>
      <trkpt lat="47.12687" lon="-1.4169">
        <ele>89</ele>
        <time>2021-08-23T16:14:05.000Z</time>
      </trkpt>
      <trkpt lat="47.12695" lon="-1.41683">
        <ele>88</ele>
        <time>2021-08-23T16:14:06.000Z</time>
      </trkpt>
      <trkpt lat="47.12704" lon="-1.41679">
        <ele>88</ele>
        <time>2021-08-23T16:14:07.000Z</time>
      </trkpt>
      <trkpt lat="47.12713" lon="-1.41675">
        <ele>86</ele>
        <time>2021-08-23T16:14:08.000Z</time>
      </trkpt>
      <trkpt lat="47.12722" lon="-1.41672">
        <ele>86</ele>
        <time>2021-08-23T16:14:09.000Z</time>
      </trkpt>
      <trkpt lat="47.12732" lon="-1.41671">
        <ele>85</ele>
        <time>2021-08-23T16:14:10.000Z</time>
      </trkpt>
      <trkpt lat="47.12741" lon="-1.41671">
        <ele>84</ele>
        <time>2021-08-23T16:14:11.000Z</time>
      </trkpt>
      <trkpt lat="47.12751" lon="-1.41671">
        <ele>82</ele>
        <time>2021-08-23T16:14:12.000Z</time>
      </trkpt>
      <trkpt lat="47.12761" lon="-1.41669">
        <ele>80</ele>
        <time>2021-08-23T16:14:13.000Z</time>
      </trkpt>
      <trkpt lat="47.12769" lon="-1.41662">
        <ele>79</ele>
        <time>2021-08-23T16:14:14.000Z</time>
      </trkpt>
      <trkpt lat="47.12776" lon="-1.41652">
        <ele>79</ele>
        <time>2021-08-23T16:14:15.000Z</time>
      </trkpt>
      <trkpt lat="47.1278" lon="-1.41638">
        <ele>79</ele>
        <time>2021-08-23T16:14:16.000Z</time>
      </trkpt>
      <trkpt lat="47.1278" lon="-1.41622">
        <ele>78</ele>
        <time>2021-08-23T16:14:17.000Z</time>
      </trkpt>
      <trkpt lat="47.12777" lon="-1.41608">
        <ele>77</ele>
        <time>2021-08-23T16:14:18.000Z</time>
      </trkpt>
      <trkpt lat="47.1277" lon="-1.41595">
        <ele>76</ele>
        <time>2021-08-23T16:14:19.000Z</time>
      </trkpt>
      <trkpt lat="47.12761" lon="-1.41587">
        <ele>74</ele>
        <time>2021-08-23T16:14:20.000Z</time>
      </trkpt>
      <trkpt lat="47.12751" lon="-1.41584">
        <ele>72</ele>
        <time>2021-08-23T16:14:21.000Z</time>
      </trkpt>
      <trkpt lat="47.12741" lon="-1.41586">
        <ele>71</ele>
        <time>2021-08-23T16:14:22.000Z</time>
      </trkpt>
      <trkpt lat="47.1273" lon="-1.41589">
        <ele>71</ele>
        <time>2021-08-23T16:14:23.000Z</time>
      </trkpt>
      <trkpt lat="47.1272" lon="-1.41592">
        <ele>70</ele>
        <time>2021-08-23T16:14:24.000Z</time>
      </trkpt>
      <trkpt lat="47.1271" lon="-1.41592">
        <ele>69</ele>
        <time>2021-08-23T16:14:25.000Z</time>
      </trkpt>
      <trkpt lat="47.12701" lon="-1.41587">
        <ele>69</ele>
        <time>2021-08-23T16:14:26.000Z</time>
      </trkpt>
      <trkpt lat="47.12692" lon="-1.41579">
        <ele>68</ele>
        <time>2021-08-23T16:14:27.000Z</time>
      </trkpt>
      <trkpt lat="47.12682" lon="-1.41573">
        <ele>68</ele>
        <time>2021-08-23T16:14:28.000Z</time>
      </trkpt>
      <trkpt lat="47.12673" lon="-1.4157">
        <ele>67</ele>
        <time>2021-08-23T16:14:29.000Z</time>
      </trkpt>
      <trkpt lat="47.12662" lon="-1.41575">
        <ele>67</ele>
        <time>2021-08-23T16:14:30.000Z</time>
      </trkpt>
      <trkpt lat="47.12652" lon="-1.41582">
        <ele>66</ele>
        <time>2021-08-23T16:14:31.000Z</time>
      </trkpt>
      <trkpt lat="47.12642" lon="-1.41588">
        <ele>66</ele>
        <time>2021-08-23T16:14:32.000Z</time>
      </trkpt>
      <trkpt lat="47.12624" lon="-1.41584">
        <ele>65</ele>
        <time>2021-08-23T16:14:34.000Z</time>
      </trkpt>
      <trkpt lat="47.12611" lon="-1.41573">
        <ele>63</ele>
        <time>2021-08-23T16:14:35.000Z</time>
      </trkpt>
      <trkpt lat="47.12599" lon="-1.4156">
        <ele>63</ele>
        <time>2021-08-23T16:14:36.000Z</time>
      </trkpt>
      <trkpt lat="47.12591" lon="-1.41546">
        <ele>62</ele>
        <time>2021-08-23T16:14:37.000Z</time>
      </trkpt>
      <trkpt lat="47.12585" lon="-1.41532">
        <ele>61</ele>
        <time>2021-08-23T16:14:38.000Z</time>
      </trkpt>
      <trkpt lat="47.12578" lon="-1.4152">
        <ele>60</ele>
        <time>2021-08-23T16:14:39.000Z</time>
      </trkpt>
      <trkpt lat="47.12571" lon="-1.41508">
        <ele>59</ele>
        <time>2021-08-23T16:14:40.000Z</time>
      </trkpt>
      <trkpt lat="47.12565" lon="-1.41496">
        <ele>58</ele>
        <time>2021-08-23T16:14:41.000Z</time>
      </trkpt>
      <trkpt lat="47.12559" lon="-1.41485">
        <ele>58</ele>
        <time>2021-08-23T16:14:42.000Z</time>
      </trkpt>
      <trkpt lat="47.12553" lon="-1.41474">
        <ele>57</ele>
        <time>2021-08-23T16:14:43.000Z</time>
      </trkpt>
      <trkpt lat="47.12541" lon="-1.41454">
        <ele>57</ele>
        <time>2021-08-23T16:14:45.000Z</time>
      </trkpt>
      <trkpt lat="47.12531" lon="-1.41436">
        <ele>57</ele>
        <time>2021-08-23T16:14:47.000Z</time>
      </trkpt>
      <trkpt lat="47.12527" lon="-1.41418">
        <ele>57</ele>
        <time>2021-08-23T16:14:49.000Z</time>
      </trkpt>
      <trkpt lat="47.12533" lon="-1.41402">
        <ele>59</ele>
        <time>2021-08-23T16:14:51.000Z</time>
      </trkpt>
      <trkpt lat="47.1254" lon="-1.4139">
        <ele>59</ele>
        <time>2021-08-23T16:14:53.000Z</time>
      </trkpt>
      <trkpt lat="47.12548" lon="-1.4138">
        <ele>60</ele>
        <time>2021-08-23T16:14:55.000Z</time>
      </trkpt>
      <trkpt lat="47.12554" lon="-1.4137">
        <ele>61</ele>
        <time>2021-08-23T16:14:57.000Z</time>
      </trkpt>
      <trkpt lat="47.12561" lon="-1.4136">
        <ele>61</ele>
        <time>2021-08-23T16:14:59.000Z</time>
      </trkpt>
      <trkpt lat="47.12567" lon="-1.4135">
        <ele>62</ele>
        <time>2021-08-23T16:15:01.000Z</time>
      </trkpt>
      <trkpt lat="47.12575" lon="-1.41335">
        <ele>62</ele>
        <time>2021-08-23T16:15:04.000Z</time>
      </trkpt>
      <trkpt lat="47.12583" lon="-1.41322">
        <ele>64</ele>
        <time>2021-08-23T16:15:07.000Z</time>
      </trkpt>
      <trkpt lat="47.1259" lon="-1.4131">
        <ele>65</ele>
        <time>2021-08-23T16:15:10.000Z</time>
      </trkpt>
      <trkpt lat="47.12597" lon="-1.41296">
        <ele>65</ele>
        <time>2021-08-23T16:15:13.000Z</time>
      </trkpt>
      <trkpt lat="47.12605" lon="-1.41282">
        <ele>66</ele>
        <time>2021-08-23T16:15:16.000Z</time>
      </trkpt>
      <trkpt lat="47.12612" lon="-1.41272">
        <ele>67</ele>
        <time>2021-08-23T16:15:19.000Z</time>
      </trkpt>
      <trkpt lat="47.12621" lon="-1.41266">
        <ele>68</ele>
        <time>2021-08-23T16:15:22.000Z</time>
      </trkpt>
      <trkpt lat="47.12632" lon="-1.41262">
        <ele>71</ele>
        <time>2021-08-23T16:15:25.000Z</time>
      </trkpt>
      <trkpt lat="47.12641" lon="-1.41255">
        <ele>72</ele>
        <time>2021-08-23T16:15:28.000Z</time>
      </trkpt>
      <trkpt lat="47.1265" lon="-1.41248">
        <ele>73</ele>
        <time>2021-08-23T16:15:31.000Z</time>
      </trkpt>
      <trkpt lat="47.12659" lon="-1.41246">
        <ele>74</ele>
        <time>2021-08-23T16:15:34.000Z</time>
      </trkpt>
      <trkpt lat="47.12669" lon="-1.41243">
        <ele>75</ele>
        <time>2021-08-23T16:15:37.000Z</time>
      </trkpt>
      <trkpt lat="47.1268" lon="-1.41239">
        <ele>76</ele>
        <time>2021-08-23T16:15:40.000Z</time>
      </trkpt>
      <trkpt lat="47.1269" lon="-1.41234">
        <ele>77</ele>
        <time>2021-08-23T16:15:43.000Z</time>
      </trkpt>
      <trkpt lat="47.12701" lon="-1.41227">
        <ele>78</ele>
        <time>2021-08-23T16:15:46.000Z</time>
      </trkpt>
      <trkpt lat="47.1271" lon="-1.4122">
        <ele>79</ele>
        <time>2021-08-23T16:15:49.000Z</time>
      </trkpt>
      <trkpt lat="47.1272" lon="-1.41212">
        <ele>79</ele>
        <time>2021-08-23T16:15:52.000Z</time>
      </trkpt>
      <trkpt lat="47.12729" lon="-1.41204">
        <ele>81</ele>
        <time>2021-08-23T16:15:55.000Z</time>
      </trkpt>
      <trkpt lat="47.12738" lon="-1.41195">
        <ele>81</ele>
        <time>2021-08-23T16:15:58.000Z</time>
      </trkpt>
      <trkpt lat="47.12746" lon="-1.41185">
        <ele>82</ele>
        <time>2021-08-23T16:16:01.000Z</time>
      </trkpt>
      <trkpt lat="47.12753" lon="-1.41174">
        <ele>83</ele>
        <time>2021-08-23T16:16:04.000Z</time>
      </trkpt>
      <trkpt lat="47.1276" lon="-1.41161">
        <ele>84</ele>
        <time>2021-08-23T16:16:07.000Z</time>
      </trkpt>
      <trkpt lat="47.12767" lon="-1.41149">
        <ele>85</ele>
        <time>2021-08-23T16:16:10.000Z</time>
      </trkpt>
      <trkpt lat="47.12773" lon="-1.41137">
        <ele>86</ele>
        <time>2021-08-23T16:16:13.000Z</time>
      </trkpt>
      <trkpt lat="47.1278" lon="-1.41124">
        <ele>87</ele>
        <time>2021-08-23T16:16:16.000Z</time>
      </trkpt>
      <trkpt lat="47.12786" lon="-1.41113">
        <ele>88</ele>
        <time>2021-08-23T16:16:19.000Z</time>
      </trkpt>
      <trkpt lat="47.12793" lon="-1.41103">
        <ele>89</ele>
        <time>2021-08-23T16:16:22.000Z</time>
      </trkpt>
      <trkpt lat="47.12799" lon="-1.4109">
        <ele>90</ele>
        <time>2021-08-23T16:16:25.000Z</time>
      </trkpt>
      <trkpt lat="47.12806" lon="-1.41076">
        <ele>91</ele>
        <time>2021-08-23T16:16:28.000Z</time>
      </trkpt>
      <trkpt lat="47.1281" lon="-1.4106">
        <ele>90</ele>
        <time>2021-08-23T16:16:31.000Z</time>
      </trkpt>
      <trkpt lat="47.12809" lon="-1.41042">
        <ele>91</ele>
        <time>2021-08-23T16:16:34.000Z</time>
      </trkpt>
      <trkpt lat="47.12805" lon="-1.41025">
        <ele>91</ele>
        <time>2021-08-23T16:16:37.000Z</time>
      </trkpt>
      <trkpt lat="47.12799" lon="-1.4101">
        <ele>91</ele>
        <time>2021-08-23T16:16:40.000Z</time>
      </trkpt>
      <trkpt lat="47.12794" lon="-1.40995">
        <ele>91</ele>
        <time>2021-08-23T16:16:43.000Z</time>
      </trkpt>
      <trkpt lat="47.12788" lon="-1.40982">
        <ele>92</ele>
        <time>2021-08-23T16:16:46.000Z</time>
      </trkpt>
      <trkpt lat="47.12782" lon="-1.40969">
        <ele>92</ele>
        <time>2021-08-23T16:16:49.000Z</time>
      </trkpt>
      <trkpt lat="47.12776" lon="-1.40955">
        <ele>93</ele>
        <time>2021-08-23T16:16:52.000Z</time>
      </trkpt>
      <trkpt lat="47.1277" lon="-1.4094">
        <ele>93</ele>
        <time>2021-08-23T16:16:55.000Z</time>
      </trkpt>
      <trkpt lat="47.12761" lon="-1.40928">
        <ele>94</ele>
        <time>2021-08-23T16:16:58.000Z</time>
      </trkpt>
      <trkpt lat="47.12752" lon="-1.4092">
        <ele>94</ele>
        <time>2021-08-23T16:17:01.000Z</time>
      </trkpt>
      <trkpt lat="47.12741" lon="-1.40915">
        <ele>94</ele>
        <time>2021-08-23T16:17:04.000Z</time>
      </trkpt>
      <trkpt lat="47.1273" lon="-1.40911">
        <ele>94</ele>
        <time>2021-08-23T16:17:07.000Z</time>
      </trkpt>
      <trkpt lat="47.12719" lon="-1.40908">
        <ele>95</ele>
        <time>2021-08-23T16:17:10.000Z</time>
      </trkpt>
      <trkpt lat="47.12707" lon="-1.40906">
        <ele>96</ele>
        <time>2021-08-23T16:17:13.000Z</time>
      </trkpt>
      <trkpt lat="47.12695" lon="-1.40903">
        <ele>98</ele>
        <time>2021-08-23T16:17:16.000Z</time>
      </trkpt>
      <trkpt lat="47.12684" lon="-1.40901">
        <ele>98</ele>
        <time>2021-08-23T16:17:19.000Z</time>
      </trkpt>
      <trkpt lat="47.12672" lon="-1.40898">
        <ele>99</ele>
        <time>2021-08-23T16:17:22.000Z</time>
      </trkpt>
      <trkpt lat="47.1266" lon="-1.40896">
        <ele>100</ele>
        <time>2021-08-23T16:17:25.000Z</time>
      </trkpt>
      <trkpt lat="47.12648" lon="-1.40894">
        <ele>101</ele>
        <time>2021-08-23T16:17:28.000Z</time>
      </trkpt>
      <trkpt lat="47.12635" lon="-1.4089">
        <ele>100</ele>
        <time>2021-08-23T16:17:31.000Z</time>
      </trkpt>
      <trkpt lat="47.12625" lon="-1.40888">
        <ele>101</ele>
        <time>2021-08-23T16:17:33.000Z</time>
      </trkpt>
      <trkpt lat="47.12612" lon="-1.40885">
        <ele>101</ele>
        <time>2021-08-23T16:17:36.000Z</time>
      </trkpt>
      <trkpt lat="47.12602" lon="-1.40883">
        <ele>101</ele>
        <time>2021-08-23T16:17:38.000Z</time>
      </trkpt>
      <trkpt lat="47.12593" lon="-1.40881">
        <ele>102</ele>
        <time>2021-08-23T16:17:40.000Z</time>
      </trkpt>
      <trkpt lat="47.12582" lon="-1.40879">
        <ele>102</ele>
        <time>2021-08-23T16:17:42.000Z</time>
      </trkpt>
      <trkpt lat="47.12572" lon="-1.40877">
        <ele>102</ele>
        <time>2021-08-23T16:17:44.000Z</time>
      </trkpt>
      <trkpt lat="47.12562" lon="-1.40875">
        <ele>102</ele>
        <time>2021-08-23T16:17:46.000Z</time>
      </trkpt>
      <trkpt lat="47.12552" lon="-1.40873">
        <ele>102</ele>
        <time>2021-08-23T16:17:48.000Z</time>
      </trkpt>
      <trkpt lat="47.12542" lon="-1.40871">
        <ele>103</ele>
        <time>2021-08-23T16:17:50.000Z</time>
      </trkpt>
      <trkpt lat="47.12532" lon="-1.40868">
        <ele>103</ele>
        <time>2021-08-23T16:17:52.000Z</time>
      </trkpt>
      <trkpt lat="47.12521" lon="-1.40866">
        <ele>103</ele>
        <time>2021-08-23T16:17:54.000Z</time>
      </trkpt>
      <trkpt lat="47.1251" lon="-1.40863">
        <ele>103</ele>
        <time>2021-08-23T16:17:56.000Z</time>
      </trkpt>
      <trkpt lat="47.12499" lon="-1.4086">
        <ele>103</ele>
        <time>2021-08-23T16:17:58.000Z</time>
      </trkpt>
      <trkpt lat="47.12488" lon="-1.40857">
        <ele>103</ele>
        <time>2021-08-23T16:18:00.000Z</time>
      </trkpt>
      <trkpt lat="47.12476" lon="-1.40854">
        <ele>103</ele>
        <time>2021-08-23T16:18:02.000Z</time>
      </trkpt>
      <trkpt lat="47.12465" lon="-1.40851">
        <ele>103</ele>
        <time>2021-08-23T16:18:04.000Z</time>
      </trkpt>
      <trkpt lat="47.12454" lon="-1.40846">
        <ele>103</ele>
        <time>2021-08-23T16:18:06.000Z</time>
      </trkpt>
      <trkpt lat="47.12443" lon="-1.40839">
        <ele>104</ele>
        <time>2021-08-23T16:18:08.000Z</time>
      </trkpt>
      <trkpt lat="47.12433" lon="-1.4083">
        <ele>104</ele>
        <time>2021-08-23T16:18:10.000Z</time>
      </trkpt>
      <trkpt lat="47.12425" lon="-1.40819">
        <ele>104</ele>
        <time>2021-08-23T16:18:12.000Z</time>
      </trkpt>
      <trkpt lat="47.12417" lon="-1.40807">
        <ele>104</ele>
        <time>2021-08-23T16:18:14.000Z</time>
      </trkpt>
      <trkpt lat="47.12409" lon="-1.40796">
        <ele>105</ele>
        <time>2021-08-23T16:18:16.000Z</time>
      </trkpt>
      <trkpt lat="47.12402" lon="-1.40783">
        <ele>105</ele>
        <time>2021-08-23T16:18:18.000Z</time>
      </trkpt>
      <trkpt lat="47.12394" lon="-1.40772">
        <ele>105</ele>
        <time>2021-08-23T16:18:20.000Z</time>
      </trkpt>
      <trkpt lat="47.12387" lon="-1.4076">
        <ele>105</ele>
        <time>2021-08-23T16:18:22.000Z</time>
      </trkpt>
      <trkpt lat="47.12379" lon="-1.40749">
        <ele>106</ele>
        <time>2021-08-23T16:18:24.000Z</time>
      </trkpt>
      <trkpt lat="47.12372" lon="-1.40737">
        <ele>106</ele>
        <time>2021-08-23T16:18:26.000Z</time>
      </trkpt>
      <trkpt lat="47.12365" lon="-1.40726">
        <ele>106</ele>
        <time>2021-08-23T16:18:28.000Z</time>
      </trkpt>
      <trkpt lat="47.12356" lon="-1.40715">
        <ele>107</ele>
        <time>2021-08-23T16:18:30.000Z</time>
      </trkpt>
      <trkpt lat="47.12346" lon="-1.40705">
        <ele>106</ele>
        <time>2021-08-23T16:18:32.000Z</time>
      </trkpt>
      <trkpt lat="47.12336" lon="-1.40698">
        <ele>106</ele>
        <time>2021-08-23T16:18:34.000Z</time>
      </trkpt>
      <trkpt lat="47.12326" lon="-1.40692">
        <ele>106</ele>
        <time>2021-08-23T16:18:36.000Z</time>
      </trkpt>
      <trkpt lat="47.12315" lon="-1.40688">
        <ele>107</ele>
        <time>2021-08-23T16:18:38.000Z</time>
      </trkpt>
      <trkpt lat="47.12303" lon="-1.40682">
        <ele>107</ele>
        <time>2021-08-23T16:18:40.000Z</time>
      </trkpt>
      <trkpt lat="47.12292" lon="-1.40676">
        <ele>107</ele>
        <time>2021-08-23T16:18:42.000Z</time>
      </trkpt>
      <trkpt lat="47.12282" lon="-1.40665">
        <ele>107</ele>
        <time>2021-08-23T16:18:44.000Z</time>
      </trkpt>
      <trkpt lat="47.12276" lon="-1.4065">
        <ele>107</ele>
        <time>2021-08-23T16:18:46.000Z</time>
      </trkpt>
      <trkpt lat="47.12269" lon="-1.40636">
        <ele>108</ele>
        <time>2021-08-23T16:18:48.000Z</time>
      </trkpt>
      <trkpt lat="47.12264" lon="-1.40621">
        <ele>108</ele>
        <time>2021-08-23T16:18:50.000Z</time>
      </trkpt>
      <trkpt lat="47.12258" lon="-1.40606">
        <ele>107</ele>
        <time>2021-08-23T16:18:52.000Z</time>
      </trkpt>
      <trkpt lat="47.12252" lon="-1.40589">
        <ele>107</ele>
        <time>2021-08-23T16:18:54.000Z</time>
      </trkpt>
      <trkpt lat="47.12246" lon="-1.40573">
        <ele>106</ele>
        <time>2021-08-23T16:18:56.000Z</time>
      </trkpt>
      <trkpt lat="47.1224" lon="-1.40556">
        <ele>106</ele>
        <time>2021-08-23T16:18:58.000Z</time>
      </trkpt>
      <trkpt lat="47.12235" lon="-1.40539">
        <ele>106</ele>
        <time>2021-08-23T16:19:00.000Z</time>
      </trkpt>
      <trkpt lat="47.12231" lon="-1.40522">
        <ele>105</ele>
        <time>2021-08-23T16:19:02.000Z</time>
      </trkpt>
      <trkpt lat="47.12226" lon="-1.40504">
        <ele>105</ele>
        <time>2021-08-23T16:19:04.000Z</time>
      </trkpt>
      <trkpt lat="47.12223" lon="-1.40487">
        <ele>105</ele>
        <time>2021-08-23T16:19:06.000Z</time>
      </trkpt>
      <trkpt lat="47.12219" lon="-1.4047">
        <ele>105</ele>
        <time>2021-08-23T16:19:08.000Z</time>
      </trkpt>
      <trkpt lat="47.12216" lon="-1.40453">
        <ele>106</ele>
        <time>2021-08-23T16:19:10.000Z</time>
      </trkpt>
      <trkpt lat="47.12212" lon="-1.40435">
        <ele>105</ele>
        <time>2021-08-23T16:19:12.000Z</time>
      </trkpt>
      <trkpt lat="47.12207" lon="-1.40418">
        <ele>106</ele>
        <time>2021-08-23T16:19:14.000Z</time>
      </trkpt>
      <trkpt lat="47.12204" lon="-1.40401">
        <ele>106</ele>
        <time>2021-08-23T16:19:16.000Z</time>
      </trkpt>
      <trkpt lat="47.12201" lon="-1.40384">
        <ele>107</ele>
        <time>2021-08-23T16:19:18.000Z</time>
      </trkpt>
      <trkpt lat="47.12197" lon="-1.40367">
        <ele>107</ele>
        <time>2021-08-23T16:19:20.000Z</time>
      </trkpt>
      <trkpt lat="47.12193" lon="-1.40351">
        <ele>107</ele>
        <time>2021-08-23T16:19:22.000Z</time>
      </trkpt>
      <trkpt lat="47.12191" lon="-1.40335">
        <ele>107</ele>
        <time>2021-08-23T16:19:24.000Z</time>
      </trkpt>
      <trkpt lat="47.12188" lon="-1.40322">
        <ele>107</ele>
        <time>2021-08-23T16:19:26.000Z</time>
      </trkpt>
      <trkpt lat="47.12185" lon="-1.40304">
        <ele>108</ele>
        <time>2021-08-23T16:19:29.000Z</time>
      </trkpt>
      <trkpt lat="47.12193" lon="-1.40294">
        <ele>107</ele>
        <time>2021-08-23T16:19:31.000Z</time>
      </trkpt>
      <trkpt lat="47.12205" lon="-1.40288">
        <ele>107</ele>
        <time>2021-08-23T16:19:33.000Z</time>
      </trkpt>
      <trkpt lat="47.12216" lon="-1.40283">
        <ele>106</ele>
        <time>2021-08-23T16:19:35.000Z</time>
      </trkpt>
      <trkpt lat="47.12228" lon="-1.40277">
        <ele>106</ele>
        <time>2021-08-23T16:19:37.000Z</time>
      </trkpt>
      <trkpt lat="47.1224" lon="-1.40272">
        <ele>106</ele>
        <time>2021-08-23T16:19:39.000Z</time>
      </trkpt>
      <trkpt lat="47.12252" lon="-1.40266">
        <ele>106</ele>
        <time>2021-08-23T16:19:41.000Z</time>
      </trkpt>
      <trkpt lat="47.12263" lon="-1.40261">
        <ele>106</ele>
        <time>2021-08-23T16:19:43.000Z</time>
      </trkpt>
      <trkpt lat="47.12275" lon="-1.40256">
        <ele>106</ele>
        <time>2021-08-23T16:19:45.000Z</time>
      </trkpt>
      <trkpt lat="47.12286" lon="-1.40251">
        <ele>106</ele>
        <time>2021-08-23T16:19:47.000Z</time>
      </trkpt>
      <trkpt lat="47.12298" lon="-1.40245">
        <ele>106</ele>
        <time>2021-08-23T16:19:49.000Z</time>
      </trkpt>
      <trkpt lat="47.1231" lon="-1.40239">
        <ele>105</ele>
        <time>2021-08-23T16:19:51.000Z</time>
      </trkpt>
      <trkpt lat="47.12322" lon="-1.40233">
        <ele>105</ele>
        <time>2021-08-23T16:19:53.000Z</time>
      </trkpt>
      <trkpt lat="47.12335" lon="-1.40228">
        <ele>104</ele>
        <time>2021-08-23T16:19:55.000Z</time>
      </trkpt>
      <trkpt lat="47.12348" lon="-1.40221">
        <ele>105</ele>
        <time>2021-08-23T16:19:57.000Z</time>
      </trkpt>
      <trkpt lat="47.1236" lon="-1.40216">
        <ele>105</ele>
        <time>2021-08-23T16:19:59.000Z</time>
      </trkpt>
      <trkpt lat="47.12373" lon="-1.4021">
        <ele>104</ele>
        <time>2021-08-23T16:20:01.000Z</time>
      </trkpt>
      <trkpt lat="47.12386" lon="-1.40204">
        <ele>104</ele>
        <time>2021-08-23T16:20:03.000Z</time>
      </trkpt>
      <trkpt lat="47.12399" lon="-1.40198">
        <ele>104</ele>
        <time>2021-08-23T16:20:05.000Z</time>
      </trkpt>
      <trkpt lat="47.12412" lon="-1.40192">
        <ele>104</ele>
        <time>2021-08-23T16:20:07.000Z</time>
      </trkpt>
      <trkpt lat="47.12425" lon="-1.40186">
        <ele>104</ele>
        <time>2021-08-23T16:20:09.000Z</time>
      </trkpt>
      <trkpt lat="47.12439" lon="-1.40179">
        <ele>103</ele>
        <time>2021-08-23T16:20:11.000Z</time>
      </trkpt>
      <trkpt lat="47.12453" lon="-1.40173">
        <ele>103</ele>
        <time>2021-08-23T16:20:13.000Z</time>
      </trkpt>
      <trkpt lat="47.12467" lon="-1.40166">
        <ele>102</ele>
        <time>2021-08-23T16:20:15.000Z</time>
      </trkpt>
      <trkpt lat="47.12481" lon="-1.40159">
        <ele>102</ele>
        <time>2021-08-23T16:20:17.000Z</time>
      </trkpt>
      <trkpt lat="47.12495" lon="-1.40154">
        <ele>102</ele>
        <time>2021-08-23T16:20:19.000Z</time>
      </trkpt>
      <trkpt lat="47.12509" lon="-1.4015">
        <ele>101</ele>
        <time>2021-08-23T16:20:21.000Z</time>
      </trkpt>
      <trkpt lat="47.12524" lon="-1.40148">
        <ele>100</ele>
        <time>2021-08-23T16:20:23.000Z</time>
      </trkpt>
      <trkpt lat="47.12538" lon="-1.40151">
        <ele>100</ele>
        <time>2021-08-23T16:20:25.000Z</time>
      </trkpt>
      <trkpt lat="47.12552" lon="-1.40154">
        <ele>99</ele>
        <time>2021-08-23T16:20:27.000Z</time>
      </trkpt>
      <trkpt lat="47.12565" lon="-1.40158">
        <ele>99</ele>
        <time>2021-08-23T16:20:29.000Z</time>
      </trkpt>
      <trkpt lat="47.12579" lon="-1.40162">
        <ele>99</ele>
        <time>2021-08-23T16:20:31.000Z</time>
      </trkpt>
      <trkpt lat="47.12593" lon="-1.40165">
        <ele>99</ele>
        <time>2021-08-23T16:20:33.000Z</time>
      </trkpt>
      <trkpt lat="47.12607" lon="-1.40165">
        <ele>98</ele>
        <time>2021-08-23T16:20:35.000Z</time>
      </trkpt>
      <trkpt lat="47.12628" lon="-1.40162">
        <ele>97</ele>
        <time>2021-08-23T16:20:38.000Z</time>
      </trkpt>
      <trkpt lat="47.12642" lon="-1.40159">
        <ele>97</ele>
        <time>2021-08-23T16:20:40.000Z</time>
      </trkpt>
      <trkpt lat="47.12657" lon="-1.40156">
        <ele>96</ele>
        <time>2021-08-23T16:20:42.000Z</time>
      </trkpt>
      <trkpt lat="47.12671" lon="-1.40154">
        <ele>96</ele>
        <time>2021-08-23T16:20:44.000Z</time>
      </trkpt>
      <trkpt lat="47.12684" lon="-1.40149">
        <ele>96</ele>
        <time>2021-08-23T16:20:46.000Z</time>
      </trkpt>
      <trkpt lat="47.12697" lon="-1.40142">
        <ele>96</ele>
        <time>2021-08-23T16:20:48.000Z</time>
      </trkpt>
      <trkpt lat="47.12709" lon="-1.40131">
        <ele>95</ele>
        <time>2021-08-23T16:20:50.000Z</time>
      </trkpt>
      <trkpt lat="47.12721" lon="-1.40119">
        <ele>95</ele>
        <time>2021-08-23T16:20:52.000Z</time>
      </trkpt>
      <trkpt lat="47.1274" lon="-1.40102">
        <ele>95</ele>
        <time>2021-08-23T16:20:55.000Z</time>
      </trkpt>
      <trkpt lat="47.12751" lon="-1.4009">
        <ele>95</ele>
        <time>2021-08-23T16:20:57.000Z</time>
      </trkpt>
      <trkpt lat="47.12763" lon="-1.40079">
        <ele>94</ele>
        <time>2021-08-23T16:20:59.000Z</time>
      </trkpt>
      <trkpt lat="47.12775" lon="-1.40067">
        <ele>94</ele>
        <time>2021-08-23T16:21:01.000Z</time>
      </trkpt>
      <trkpt lat="47.12787" lon="-1.40055">
        <ele>93</ele>
        <time>2021-08-23T16:21:03.000Z</time>
      </trkpt>
      <trkpt lat="47.12799" lon="-1.40043">
        <ele>93</ele>
        <time>2021-08-23T16:21:05.000Z</time>
      </trkpt>
      <trkpt lat="47.12811" lon="-1.40032">
        <ele>93</ele>
        <time>2021-08-23T16:21:07.000Z</time>
      </trkpt>
      <trkpt lat="47.12822" lon="-1.4002">
        <ele>94</ele>
        <time>2021-08-23T16:21:09.000Z</time>
      </trkpt>
      <trkpt lat="47.12834" lon="-1.40009">
        <ele>94</ele>
        <time>2021-08-23T16:21:11.000Z</time>
      </trkpt>
      <trkpt lat="47.12845" lon="-1.39998">
        <ele>94</ele>
        <time>2021-08-23T16:21:13.000Z</time>
      </trkpt>
      <trkpt lat="47.12856" lon="-1.39987">
        <ele>95</ele>
        <time>2021-08-23T16:21:15.000Z</time>
      </trkpt>
      <trkpt lat="47.12867" lon="-1.39978">
        <ele>95</ele>
        <time>2021-08-23T16:21:17.000Z</time>
      </trkpt>
      <trkpt lat="47.12878" lon="-1.39969">
        <ele>95</ele>
        <time>2021-08-23T16:21:19.000Z</time>
      </trkpt>
      <trkpt lat="47.12894" lon="-1.39956">
        <ele>95</ele>
        <time>2021-08-23T16:21:22.000Z</time>
      </trkpt>
      <trkpt lat="47.12905" lon="-1.3995">
        <ele>94</ele>
        <time>2021-08-23T16:21:24.000Z</time>
      </trkpt>
      <trkpt lat="47.12917" lon="-1.39945">
        <ele>93</ele>
        <time>2021-08-23T16:21:26.000Z</time>
      </trkpt>
      <trkpt lat="47.12929" lon="-1.3994">
        <ele>93</ele>
        <time>2021-08-23T16:21:28.000Z</time>
      </trkpt>
      <trkpt lat="47.12941" lon="-1.39936">
        <ele>93</ele>
        <time>2021-08-23T16:21:30.000Z</time>
      </trkpt>
      <trkpt lat="47.12951" lon="-1.39931">
        <ele>93</ele>
        <time>2021-08-23T16:21:32.000Z</time>
      </trkpt>
      <trkpt lat="47.12962" lon="-1.39926">
        <ele>93</ele>
        <time>2021-08-23T16:21:34.000Z</time>
      </trkpt>
      <trkpt lat="47.12972" lon="-1.3992">
        <ele>94</ele>
        <time>2021-08-23T16:21:36.000Z</time>
      </trkpt>
      <trkpt lat="47.12981" lon="-1.39911">
        <ele>95</ele>
        <time>2021-08-23T16:21:38.000Z</time>
      </trkpt>
      <trkpt lat="47.12988" lon="-1.39902">
        <ele>95</ele>
        <time>2021-08-23T16:21:40.000Z</time>
      </trkpt>
      <trkpt lat="47.12999" lon="-1.39898">
        <ele>94</ele>
        <time>2021-08-23T16:21:43.000Z</time>
      </trkpt>
      <trkpt lat="47.13009" lon="-1.39909">
        <ele>94</ele>
        <time>2021-08-23T16:21:45.000Z</time>
      </trkpt>
      <trkpt lat="47.13017" lon="-1.39923">
        <ele>93</ele>
        <time>2021-08-23T16:21:47.000Z</time>
      </trkpt>
      <trkpt lat="47.13025" lon="-1.39939">
        <ele>92</ele>
        <time>2021-08-23T16:21:49.000Z</time>
      </trkpt>
      <trkpt lat="47.13035" lon="-1.39953">
        <ele>92</ele>
        <time>2021-08-23T16:21:51.000Z</time>
      </trkpt>
      <trkpt lat="47.13045" lon="-1.39966">
        <ele>91</ele>
        <time>2021-08-23T16:21:53.000Z</time>
      </trkpt>
      <trkpt lat="47.13056" lon="-1.39976">
        <ele>90</ele>
        <time>2021-08-23T16:21:55.000Z</time>
      </trkpt>
      <trkpt lat="47.13068" lon="-1.39986">
        <ele>90</ele>
        <time>2021-08-23T16:21:57.000Z</time>
      </trkpt>
      <trkpt lat="47.1308" lon="-1.39994">
        <ele>90</ele>
        <time>2021-08-23T16:21:59.000Z</time>
      </trkpt>
      <trkpt lat="47.13093" lon="-1.40001">
        <ele>90</ele>
        <time>2021-08-23T16:22:01.000Z</time>
      </trkpt>
      <trkpt lat="47.13107" lon="-1.40007">
        <ele>90</ele>
        <time>2021-08-23T16:22:03.000Z</time>
      </trkpt>
      <trkpt lat="47.1312" lon="-1.40014">
        <ele>90</ele>
        <time>2021-08-23T16:22:05.000Z</time>
      </trkpt>
      <trkpt lat="47.13133" lon="-1.4002">
        <ele>90</ele>
        <time>2021-08-23T16:22:07.000Z</time>
      </trkpt>
      <trkpt lat="47.13145" lon="-1.40026">
        <ele>90</ele>
        <time>2021-08-23T16:22:09.000Z</time>
      </trkpt>
      <trkpt lat="47.13158" lon="-1.40032">
        <ele>90</ele>
        <time>2021-08-23T16:22:11.000Z</time>
      </trkpt>
      <trkpt lat="47.13171" lon="-1.40039">
        <ele>90</ele>
        <time>2021-08-23T16:22:13.000Z</time>
      </trkpt>
      <trkpt lat="47.13183" lon="-1.40048">
        <ele>90</ele>
        <time>2021-08-23T16:22:15.000Z</time>
      </trkpt>
      <trkpt lat="47.13196" lon="-1.40055">
        <ele>90</ele>
        <time>2021-08-23T16:22:17.000Z</time>
      </trkpt>
      <trkpt lat="47.13208" lon="-1.40064">
        <ele>90</ele>
        <time>2021-08-23T16:22:19.000Z</time>
      </trkpt>
      <trkpt lat="47.13219" lon="-1.40073">
        <ele>90</ele>
        <time>2021-08-23T16:22:21.000Z</time>
      </trkpt>
      <trkpt lat="47.13237" lon="-1.40086">
        <ele>90</ele>
        <time>2021-08-23T16:22:24.000Z</time>
      </trkpt>
      <trkpt lat="47.13248" lon="-1.40096">
        <ele>90</ele>
        <time>2021-08-23T16:22:26.000Z</time>
      </trkpt>
      <trkpt lat="47.1326" lon="-1.40105">
        <ele>90</ele>
        <time>2021-08-23T16:22:28.000Z</time>
      </trkpt>
      <trkpt lat="47.13271" lon="-1.40114">
        <ele>90</ele>
        <time>2021-08-23T16:22:30.000Z</time>
      </trkpt>
      <trkpt lat="47.13283" lon="-1.40124">
        <ele>91</ele>
        <time>2021-08-23T16:22:32.000Z</time>
      </trkpt>
      <trkpt lat="47.13294" lon="-1.40133">
        <ele>90</ele>
        <time>2021-08-23T16:22:34.000Z</time>
      </trkpt>
      <trkpt lat="47.13305" lon="-1.40141">
        <ele>90</ele>
        <time>2021-08-23T16:22:36.000Z</time>
      </trkpt>
      <trkpt lat="47.13315" lon="-1.4015">
        <ele>91</ele>
        <time>2021-08-23T16:22:38.000Z</time>
      </trkpt>
      <trkpt lat="47.13326" lon="-1.40159">
        <ele>91</ele>
        <time>2021-08-23T16:22:40.000Z</time>
      </trkpt>
      <trkpt lat="47.13337" lon="-1.40167">
        <ele>91</ele>
        <time>2021-08-23T16:22:42.000Z</time>
      </trkpt>
      <trkpt lat="47.13348" lon="-1.40173">
        <ele>91</ele>
        <time>2021-08-23T16:22:44.000Z</time>
      </trkpt>
      <trkpt lat="47.13359" lon="-1.40177">
        <ele>91</ele>
        <time>2021-08-23T16:22:46.000Z</time>
      </trkpt>
      <trkpt lat="47.13371" lon="-1.40178">
        <ele>91</ele>
        <time>2021-08-23T16:22:48.000Z</time>
      </trkpt>
      <trkpt lat="47.13383" lon="-1.40179">
        <ele>92</ele>
        <time>2021-08-23T16:22:50.000Z</time>
      </trkpt>
      <trkpt lat="47.13394" lon="-1.40179">
        <ele>92</ele>
        <time>2021-08-23T16:22:52.000Z</time>
      </trkpt>
      <trkpt lat="47.13406" lon="-1.40179">
        <ele>93</ele>
        <time>2021-08-23T16:22:54.000Z</time>
      </trkpt>
      <trkpt lat="47.13417" lon="-1.4018">
        <ele>93</ele>
        <time>2021-08-23T16:22:56.000Z</time>
      </trkpt>
      <trkpt lat="47.13428" lon="-1.40181">
        <ele>93</ele>
        <time>2021-08-23T16:22:58.000Z</time>
      </trkpt>
      <trkpt lat="47.1344" lon="-1.40185">
        <ele>93</ele>
        <time>2021-08-23T16:23:00.000Z</time>
      </trkpt>
      <trkpt lat="47.13451" lon="-1.40189">
        <ele>93</ele>
        <time>2021-08-23T16:23:02.000Z</time>
      </trkpt>
      <trkpt lat="47.13463" lon="-1.40194">
        <ele>92</ele>
        <time>2021-08-23T16:23:04.000Z</time>
      </trkpt>
      <trkpt lat="47.13474" lon="-1.402">
        <ele>92</ele>
        <time>2021-08-23T16:23:06.000Z</time>
      </trkpt>
      <trkpt lat="47.13485" lon="-1.40204">
        <ele>92</ele>
        <time>2021-08-23T16:23:08.000Z</time>
      </trkpt>
      <trkpt lat="47.13496" lon="-1.40209">
        <ele>93</ele>
        <time>2021-08-23T16:23:10.000Z</time>
      </trkpt>
      <trkpt lat="47.13508" lon="-1.40215">
        <ele>93</ele>
        <time>2021-08-23T16:23:12.000Z</time>
      </trkpt>
      <trkpt lat="47.1352" lon="-1.4022">
        <ele>93</ele>
        <time>2021-08-23T16:23:14.000Z</time>
      </trkpt>
      <trkpt lat="47.13532" lon="-1.40225">
        <ele>92</ele>
        <time>2021-08-23T16:23:16.000Z</time>
      </trkpt>
      <trkpt lat="47.13543" lon="-1.40231">
        <ele>92</ele>
        <time>2021-08-23T16:23:18.000Z</time>
      </trkpt>
      <trkpt lat="47.13555" lon="-1.40236">
        <ele>92</ele>
        <time>2021-08-23T16:23:20.000Z</time>
      </trkpt>
      <trkpt lat="47.13566" lon="-1.40242">
        <ele>92</ele>
        <time>2021-08-23T16:23:22.000Z</time>
      </trkpt>
      <trkpt lat="47.13578" lon="-1.40246">
        <ele>92</ele>
        <time>2021-08-23T16:23:24.000Z</time>
      </trkpt>
      <trkpt lat="47.1359" lon="-1.40252">
        <ele>92</ele>
        <time>2021-08-23T16:23:26.000Z</time>
      </trkpt>
      <trkpt lat="47.13601" lon="-1.40257">
        <ele>93</ele>
        <time>2021-08-23T16:23:28.000Z</time>
      </trkpt>
      <trkpt lat="47.13613" lon="-1.40263">
        <ele>93</ele>
        <time>2021-08-23T16:23:30.000Z</time>
      </trkpt>
      <trkpt lat="47.13624" lon="-1.40268">
        <ele>93</ele>
        <time>2021-08-23T16:23:32.000Z</time>
      </trkpt>
      <trkpt lat="47.13636" lon="-1.40272">
        <ele>93</ele>
        <time>2021-08-23T16:23:34.000Z</time>
      </trkpt>
      <trkpt lat="47.13648" lon="-1.40277">
        <ele>93</ele>
        <time>2021-08-23T16:23:36.000Z</time>
      </trkpt>
      <trkpt lat="47.1366" lon="-1.4028">
        <ele>93</ele>
        <time>2021-08-23T16:23:38.000Z</time>
      </trkpt>
      <trkpt lat="47.13673" lon="-1.4028">
        <ele>93</ele>
        <time>2021-08-23T16:23:40.000Z</time>
      </trkpt>
      <trkpt lat="47.13685" lon="-1.40279">
        <ele>93</ele>
        <time>2021-08-23T16:23:42.000Z</time>
      </trkpt>
      <trkpt lat="47.13698" lon="-1.40277">
        <ele>92</ele>
        <time>2021-08-23T16:23:44.000Z</time>
      </trkpt>
      <trkpt lat="47.1371" lon="-1.40275">
        <ele>92</ele>
        <time>2021-08-23T16:23:46.000Z</time>
      </trkpt>
      <trkpt lat="47.13722" lon="-1.40273">
        <ele>92</ele>
        <time>2021-08-23T16:23:48.000Z</time>
      </trkpt>
      <trkpt lat="47.13734" lon="-1.40271">
        <ele>93</ele>
        <time>2021-08-23T16:23:50.000Z</time>
      </trkpt>
      <trkpt lat="47.13746" lon="-1.40269">
        <ele>93</ele>
        <time>2021-08-23T16:23:52.000Z</time>
      </trkpt>
      <trkpt lat="47.13758" lon="-1.40266">
        <ele>93</ele>
        <time>2021-08-23T16:23:54.000Z</time>
      </trkpt>
      <trkpt lat="47.1377" lon="-1.40264">
        <ele>93</ele>
        <time>2021-08-23T16:23:56.000Z</time>
      </trkpt>
      <trkpt lat="47.13782" lon="-1.40262">
        <ele>93</ele>
        <time>2021-08-23T16:23:58.000Z</time>
      </trkpt>
      <trkpt lat="47.13794" lon="-1.40259">
        <ele>92</ele>
        <time>2021-08-23T16:24:00.000Z</time>
      </trkpt>
      <trkpt lat="47.13806" lon="-1.40257">
        <ele>92</ele>
        <time>2021-08-23T16:24:02.000Z</time>
      </trkpt>
      <trkpt lat="47.13818" lon="-1.40255">
        <ele>92</ele>
        <time>2021-08-23T16:24:04.000Z</time>
      </trkpt>
      <trkpt lat="47.1383" lon="-1.40253">
        <ele>92</ele>
        <time>2021-08-23T16:24:06.000Z</time>
      </trkpt>
      <trkpt lat="47.13842" lon="-1.4025">
        <ele>92</ele>
        <time>2021-08-23T16:24:08.000Z</time>
      </trkpt>
      <trkpt lat="47.13854" lon="-1.40248">
        <ele>92</ele>
        <time>2021-08-23T16:24:10.000Z</time>
      </trkpt>
      <trkpt lat="47.13866" lon="-1.40247">
        <ele>92</ele>
        <time>2021-08-23T16:24:12.000Z</time>
      </trkpt>
      <trkpt lat="47.13877" lon="-1.40245">
        <ele>92</ele>
        <time>2021-08-23T16:24:14.000Z</time>
      </trkpt>
      <trkpt lat="47.13889" lon="-1.40243">
        <ele>93</ele>
        <time>2021-08-23T16:24:16.000Z</time>
      </trkpt>
      <trkpt lat="47.13901" lon="-1.40243">
        <ele>92</ele>
        <time>2021-08-23T16:24:18.000Z</time>
      </trkpt>
      <trkpt lat="47.13913" lon="-1.40244">
        <ele>92</ele>
        <time>2021-08-23T16:24:20.000Z</time>
      </trkpt>
      <trkpt lat="47.13925" lon="-1.40246">
        <ele>92</ele>
        <time>2021-08-23T16:24:22.000Z</time>
      </trkpt>
      <trkpt lat="47.13936" lon="-1.4025">
        <ele>92</ele>
        <time>2021-08-23T16:24:24.000Z</time>
      </trkpt>
      <trkpt lat="47.13948" lon="-1.40254">
        <ele>91</ele>
        <time>2021-08-23T16:24:26.000Z</time>
      </trkpt>
      <trkpt lat="47.13959" lon="-1.40259">
        <ele>91</ele>
        <time>2021-08-23T16:24:28.000Z</time>
      </trkpt>
      <trkpt lat="47.1397" lon="-1.40265">
        <ele>91</ele>
        <time>2021-08-23T16:24:30.000Z</time>
      </trkpt>
      <trkpt lat="47.13981" lon="-1.40272">
        <ele>90</ele>
        <time>2021-08-23T16:24:32.000Z</time>
      </trkpt>
      <trkpt lat="47.13992" lon="-1.4028">
        <ele>91</ele>
        <time>2021-08-23T16:24:34.000Z</time>
      </trkpt>
      <trkpt lat="47.14002" lon="-1.4029">
        <ele>90</ele>
        <time>2021-08-23T16:24:36.000Z</time>
      </trkpt>
      <trkpt lat="47.14012" lon="-1.40301">
        <ele>90</ele>
        <time>2021-08-23T16:24:38.000Z</time>
      </trkpt>
      <trkpt lat="47.1402" lon="-1.40314">
        <ele>90</ele>
        <time>2021-08-23T16:24:40.000Z</time>
      </trkpt>
      <trkpt lat="47.14028" lon="-1.40328">
        <ele>90</ele>
        <time>2021-08-23T16:24:42.000Z</time>
      </trkpt>
      <trkpt lat="47.14035" lon="-1.40342">
        <ele>90</ele>
        <time>2021-08-23T16:24:44.000Z</time>
      </trkpt>
      <trkpt lat="47.14041" lon="-1.40358">
        <ele>89</ele>
        <time>2021-08-23T16:24:46.000Z</time>
      </trkpt>
      <trkpt lat="47.14047" lon="-1.40374">
        <ele>90</ele>
        <time>2021-08-23T16:24:48.000Z</time>
      </trkpt>
      <trkpt lat="47.14052" lon="-1.4039">
        <ele>89</ele>
        <time>2021-08-23T16:24:50.000Z</time>
      </trkpt>
      <trkpt lat="47.14057" lon="-1.40407">
        <ele>90</ele>
        <time>2021-08-23T16:24:52.000Z</time>
      </trkpt>
      <trkpt lat="47.14063" lon="-1.40424">
        <ele>90</ele>
        <time>2021-08-23T16:24:54.000Z</time>
      </trkpt>
      <trkpt lat="47.14069" lon="-1.4044">
        <ele>89</ele>
        <time>2021-08-23T16:24:56.000Z</time>
      </trkpt>
      <trkpt lat="47.14076" lon="-1.40455">
        <ele>89</ele>
        <time>2021-08-23T16:24:58.000Z</time>
      </trkpt>
      <trkpt lat="47.14084" lon="-1.4047">
        <ele>90</ele>
        <time>2021-08-23T16:25:00.000Z</time>
      </trkpt>
      <trkpt lat="47.14093" lon="-1.40484">
        <ele>89</ele>
        <time>2021-08-23T16:25:02.000Z</time>
      </trkpt>
      <trkpt lat="47.14102" lon="-1.40497">
        <ele>89</ele>
        <time>2021-08-23T16:25:04.000Z</time>
      </trkpt>
      <trkpt lat="47.14112" lon="-1.4051">
        <ele>89</ele>
        <time>2021-08-23T16:25:06.000Z</time>
      </trkpt>
      <trkpt lat="47.14121" lon="-1.40523">
        <ele>89</ele>
        <time>2021-08-23T16:25:08.000Z</time>
      </trkpt>
      <trkpt lat="47.1413" lon="-1.40537">
        <ele>89</ele>
        <time>2021-08-23T16:25:10.000Z</time>
      </trkpt>
      <trkpt lat="47.1414" lon="-1.40549">
        <ele>88</ele>
        <time>2021-08-23T16:25:12.000Z</time>
      </trkpt>
      <trkpt lat="47.14149" lon="-1.40562">
        <ele>88</ele>
        <time>2021-08-23T16:25:14.000Z</time>
      </trkpt>
      <trkpt lat="47.14158" lon="-1.40575">
        <ele>88</ele>
        <time>2021-08-23T16:25:16.000Z</time>
      </trkpt>
      <trkpt lat="47.14167" lon="-1.40588">
        <ele>88</ele>
        <time>2021-08-23T16:25:18.000Z</time>
      </trkpt>
      <trkpt lat="47.14176" lon="-1.40601">
        <ele>88</ele>
        <time>2021-08-23T16:25:20.000Z</time>
      </trkpt>
      <trkpt lat="47.14186" lon="-1.40614">
        <ele>87</ele>
        <time>2021-08-23T16:25:22.000Z</time>
      </trkpt>
      <trkpt lat="47.14196" lon="-1.40628">
        <ele>87</ele>
        <time>2021-08-23T16:25:24.000Z</time>
      </trkpt>
      <trkpt lat="47.14205" lon="-1.40642">
        <ele>87</ele>
        <time>2021-08-23T16:25:26.000Z</time>
      </trkpt>
      <trkpt lat="47.14215" lon="-1.40656">
        <ele>87</ele>
        <time>2021-08-23T16:25:28.000Z</time>
      </trkpt>
      <trkpt lat="47.14224" lon="-1.4067">
        <ele>86</ele>
        <time>2021-08-23T16:25:30.000Z</time>
      </trkpt>
      <trkpt lat="47.14233" lon="-1.40684">
        <ele>86</ele>
        <time>2021-08-23T16:25:32.000Z</time>
      </trkpt>
      <trkpt lat="47.14242" lon="-1.407">
        <ele>85</ele>
        <time>2021-08-23T16:25:34.000Z</time>
      </trkpt>
      <trkpt lat="47.1425" lon="-1.40715">
        <ele>85</ele>
        <time>2021-08-23T16:25:36.000Z</time>
      </trkpt>
      <trkpt lat="47.14259" lon="-1.4073">
        <ele>84</ele>
        <time>2021-08-23T16:25:38.000Z</time>
      </trkpt>
      <trkpt lat="47.14268" lon="-1.40745">
        <ele>84</ele>
        <time>2021-08-23T16:25:40.000Z</time>
      </trkpt>
      <trkpt lat="47.14276" lon="-1.40761">
        <ele>84</ele>
        <time>2021-08-23T16:25:42.000Z</time>
      </trkpt>
      <trkpt lat="47.14285" lon="-1.40777">
        <ele>84</ele>
        <time>2021-08-23T16:25:44.000Z</time>
      </trkpt>
      <trkpt lat="47.14293" lon="-1.40793">
        <ele>84</ele>
        <time>2021-08-23T16:25:46.000Z</time>
      </trkpt>
      <trkpt lat="47.14302" lon="-1.40808">
        <ele>84</ele>
        <time>2021-08-23T16:25:48.000Z</time>
      </trkpt>
      <trkpt lat="47.14311" lon="-1.40824">
        <ele>84</ele>
        <time>2021-08-23T16:25:50.000Z</time>
      </trkpt>
      <trkpt lat="47.14319" lon="-1.40839">
        <ele>84</ele>
        <time>2021-08-23T16:25:52.000Z</time>
      </trkpt>
      <trkpt lat="47.14327" lon="-1.40853">
        <ele>84</ele>
        <time>2021-08-23T16:25:54.000Z</time>
      </trkpt>
      <trkpt lat="47.14335" lon="-1.40868">
        <ele>84</ele>
        <time>2021-08-23T16:25:56.000Z</time>
      </trkpt>
      <trkpt lat="47.14344" lon="-1.40882">
        <ele>84</ele>
        <time>2021-08-23T16:25:58.000Z</time>
      </trkpt>
      <trkpt lat="47.14351" lon="-1.40896">
        <ele>84</ele>
        <time>2021-08-23T16:26:00.000Z</time>
      </trkpt>
      <trkpt lat="47.14358" lon="-1.4091">
        <ele>85</ele>
        <time>2021-08-23T16:26:02.000Z</time>
      </trkpt>
      <trkpt lat="47.14366" lon="-1.40924">
        <ele>85</ele>
        <time>2021-08-23T16:26:04.000Z</time>
      </trkpt>
      <trkpt lat="47.14374" lon="-1.40938">
        <ele>85</ele>
        <time>2021-08-23T16:26:06.000Z</time>
      </trkpt>
      <trkpt lat="47.14382" lon="-1.40952">
        <ele>86</ele>
        <time>2021-08-23T16:26:08.000Z</time>
      </trkpt>
      <trkpt lat="47.14389" lon="-1.40966">
        <ele>87</ele>
        <time>2021-08-23T16:26:10.000Z</time>
      </trkpt>
      <trkpt lat="47.14397" lon="-1.4098">
        <ele>87</ele>
        <time>2021-08-23T16:26:12.000Z</time>
      </trkpt>
      <trkpt lat="47.14402" lon="-1.40996">
        <ele>87</ele>
        <time>2021-08-23T16:26:14.000Z</time>
      </trkpt>
      <trkpt lat="47.14407" lon="-1.41012">
        <ele>87</ele>
        <time>2021-08-23T16:26:16.000Z</time>
      </trkpt>
      <trkpt lat="47.1441" lon="-1.4103">
        <ele>88</ele>
        <time>2021-08-23T16:26:18.000Z</time>
      </trkpt>
      <trkpt lat="47.14411" lon="-1.41048">
        <ele>88</ele>
        <time>2021-08-23T16:26:20.000Z</time>
      </trkpt>
      <trkpt lat="47.1441" lon="-1.41066">
        <ele>88</ele>
        <time>2021-08-23T16:26:22.000Z</time>
      </trkpt>
      <trkpt lat="47.14409" lon="-1.41085">
        <ele>88</ele>
        <time>2021-08-23T16:26:24.000Z</time>
      </trkpt>
      <trkpt lat="47.14408" lon="-1.41104">
        <ele>89</ele>
        <time>2021-08-23T16:26:26.000Z</time>
      </trkpt>
      <trkpt lat="47.14407" lon="-1.41122">
        <ele>89</ele>
        <time>2021-08-23T16:26:28.000Z</time>
      </trkpt>
      <trkpt lat="47.14405" lon="-1.4114">
        <ele>89</ele>
        <time>2021-08-23T16:26:30.000Z</time>
      </trkpt>
      <trkpt lat="47.14404" lon="-1.41158">
        <ele>89</ele>
        <time>2021-08-23T16:26:32.000Z</time>
      </trkpt>
      <trkpt lat="47.14404" lon="-1.41175">
        <ele>89</ele>
        <time>2021-08-23T16:26:34.000Z</time>
      </trkpt>
      <trkpt lat="47.14402" lon="-1.41193">
        <ele>89</ele>
        <time>2021-08-23T16:26:36.000Z</time>
      </trkpt>
      <trkpt lat="47.14402" lon="-1.41211">
        <ele>89</ele>
        <time>2021-08-23T16:26:38.000Z</time>
      </trkpt>
      <trkpt lat="47.144" lon="-1.41229">
        <ele>89</ele>
        <time>2021-08-23T16:26:40.000Z</time>
      </trkpt>
      <trkpt lat="47.144" lon="-1.41247">
        <ele>89</ele>
        <time>2021-08-23T16:26:42.000Z</time>
      </trkpt>
      <trkpt lat="47.14399" lon="-1.41265">
        <ele>89</ele>
        <time>2021-08-23T16:26:44.000Z</time>
      </trkpt>
      <trkpt lat="47.14397" lon="-1.41283">
        <ele>89</ele>
        <time>2021-08-23T16:26:46.000Z</time>
      </trkpt>
      <trkpt lat="47.14396" lon="-1.413">
        <ele>89</ele>
        <time>2021-08-23T16:26:48.000Z</time>
      </trkpt>
      <trkpt lat="47.14396" lon="-1.41317">
        <ele>89</ele>
        <time>2021-08-23T16:26:50.000Z</time>
      </trkpt>
      <trkpt lat="47.14396" lon="-1.41335">
        <ele>89</ele>
        <time>2021-08-23T16:26:52.000Z</time>
      </trkpt>
      <trkpt lat="47.14396" lon="-1.41352">
        <ele>89</ele>
        <time>2021-08-23T16:26:54.000Z</time>
      </trkpt>
      <trkpt lat="47.14396" lon="-1.41369">
        <ele>89</ele>
        <time>2021-08-23T16:26:56.000Z</time>
      </trkpt>
      <trkpt lat="47.14397" lon="-1.41386">
        <ele>90</ele>
        <time>2021-08-23T16:26:58.000Z</time>
      </trkpt>
      <trkpt lat="47.14397" lon="-1.41403">
        <ele>90</ele>
        <time>2021-08-23T16:27:00.000Z</time>
      </trkpt>
      <trkpt lat="47.14398" lon="-1.4142">
        <ele>90</ele>
        <time>2021-08-23T16:27:02.000Z</time>
      </trkpt>
      <trkpt lat="47.14398" lon="-1.41436">
        <ele>90</ele>
        <time>2021-08-23T16:27:04.000Z</time>
      </trkpt>
      <trkpt lat="47.14398" lon="-1.41453">
        <ele>90</ele>
        <time>2021-08-23T16:27:06.000Z</time>
      </trkpt>
      <trkpt lat="47.14398" lon="-1.41469">
        <ele>90</ele>
        <time>2021-08-23T16:27:08.000Z</time>
      </trkpt>
      <trkpt lat="47.14399" lon="-1.41485">
        <ele>90</ele>
        <time>2021-08-23T16:27:10.000Z</time>
      </trkpt>
      <trkpt lat="47.14399" lon="-1.41502">
        <ele>90</ele>
        <time>2021-08-23T16:27:12.000Z</time>
      </trkpt>
      <trkpt lat="47.14399" lon="-1.4152">
        <ele>90</ele>
        <time>2021-08-23T16:27:14.000Z</time>
      </trkpt>
      <trkpt lat="47.14399" lon="-1.41537">
        <ele>91</ele>
        <time>2021-08-23T16:27:16.000Z</time>
      </trkpt>
      <trkpt lat="47.144" lon="-1.41554">
        <ele>91</ele>
        <time>2021-08-23T16:27:18.000Z</time>
      </trkpt>
      <trkpt lat="47.144" lon="-1.41571">
        <ele>91</ele>
        <time>2021-08-23T16:27:20.000Z</time>
      </trkpt>
      <trkpt lat="47.144" lon="-1.41586">
        <ele>92</ele>
        <time>2021-08-23T16:27:22.000Z</time>
      </trkpt>
      <trkpt lat="47.14397" lon="-1.41602">
        <ele>92</ele>
        <time>2021-08-23T16:27:24.000Z</time>
      </trkpt>
      <trkpt lat="47.14394" lon="-1.41618">
        <ele>92</ele>
        <time>2021-08-23T16:27:26.000Z</time>
      </trkpt>
      <trkpt lat="47.14389" lon="-1.41635">
        <ele>91</ele>
        <time>2021-08-23T16:27:28.000Z</time>
      </trkpt>
      <trkpt lat="47.14386" lon="-1.41652">
        <ele>92</ele>
        <time>2021-08-23T16:27:30.000Z</time>
      </trkpt>
      <trkpt lat="47.14385" lon="-1.4167">
        <ele>92</ele>
        <time>2021-08-23T16:27:32.000Z</time>
      </trkpt>
      <trkpt lat="47.14388" lon="-1.41688">
        <ele>92</ele>
        <time>2021-08-23T16:27:34.000Z</time>
      </trkpt>
      <trkpt lat="47.14393" lon="-1.41707">
        <ele>92</ele>
        <time>2021-08-23T16:27:36.000Z</time>
      </trkpt>
      <trkpt lat="47.14398" lon="-1.41726">
        <ele>91</ele>
        <time>2021-08-23T16:27:38.000Z</time>
      </trkpt>
      <trkpt lat="47.14402" lon="-1.41747">
        <ele>91</ele>
        <time>2021-08-23T16:27:40.000Z</time>
      </trkpt>
      <trkpt lat="47.14404" lon="-1.41769">
        <ele>90</ele>
        <time>2021-08-23T16:27:42.000Z</time>
      </trkpt>
      <trkpt lat="47.14406" lon="-1.41792">
        <ele>89</ele>
        <time>2021-08-23T16:27:44.000Z</time>
      </trkpt>
      <trkpt lat="47.14408" lon="-1.41815">
        <ele>88</ele>
        <time>2021-08-23T16:27:46.000Z</time>
      </trkpt>
      <trkpt lat="47.1441" lon="-1.41839">
        <ele>88</ele>
        <time>2021-08-23T16:27:48.000Z</time>
      </trkpt>
      <trkpt lat="47.14413" lon="-1.41862">
        <ele>87</ele>
        <time>2021-08-23T16:27:50.000Z</time>
      </trkpt>
      <trkpt lat="47.14418" lon="-1.41885">
        <ele>86</ele>
        <time>2021-08-23T16:27:52.000Z</time>
      </trkpt>
      <trkpt lat="47.14423" lon="-1.41907">
        <ele>85</ele>
        <time>2021-08-23T16:27:54.000Z</time>
      </trkpt>
      <trkpt lat="47.14429" lon="-1.41928">
        <ele>83</ele>
        <time>2021-08-23T16:27:56.000Z</time>
      </trkpt>
      <trkpt lat="47.14434" lon="-1.4195">
        <ele>82</ele>
        <time>2021-08-23T16:27:58.000Z</time>
      </trkpt>
      <trkpt lat="47.1444" lon="-1.41973">
        <ele>81</ele>
        <time>2021-08-23T16:28:00.000Z</time>
      </trkpt>
      <trkpt lat="47.14445" lon="-1.41997">
        <ele>80</ele>
        <time>2021-08-23T16:28:02.000Z</time>
      </trkpt>
      <trkpt lat="47.14451" lon="-1.4202">
        <ele>79</ele>
        <time>2021-08-23T16:28:04.000Z</time>
      </trkpt>
      <trkpt lat="47.14458" lon="-1.42042">
        <ele>78</ele>
        <time>2021-08-23T16:28:06.000Z</time>
      </trkpt>
      <trkpt lat="47.14467" lon="-1.42064">
        <ele>77</ele>
        <time>2021-08-23T16:28:08.000Z</time>
      </trkpt>
      <trkpt lat="47.14476" lon="-1.42086">
        <ele>77</ele>
        <time>2021-08-23T16:28:10.000Z</time>
      </trkpt>
      <trkpt lat="47.14486" lon="-1.42108">
        <ele>76</ele>
        <time>2021-08-23T16:28:12.000Z</time>
      </trkpt>
      <trkpt lat="47.14495" lon="-1.4213">
        <ele>75</ele>
        <time>2021-08-23T16:28:14.000Z</time>
      </trkpt>
      <trkpt lat="47.145" lon="-1.42141">
        <ele>75</ele>
        <time>2021-08-23T16:28:15.000Z</time>
      </trkpt>
      <trkpt lat="47.14508" lon="-1.42164">
        <ele>74</ele>
        <time>2021-08-23T16:28:17.000Z</time>
      </trkpt>
      <trkpt lat="47.14516" lon="-1.42187">
        <ele>73</ele>
        <time>2021-08-23T16:28:19.000Z</time>
      </trkpt>
      <trkpt lat="47.1452" lon="-1.42199">
        <ele>72</ele>
        <time>2021-08-23T16:28:20.000Z</time>
      </trkpt>
      <trkpt lat="47.14528" lon="-1.42222">
        <ele>72</ele>
        <time>2021-08-23T16:28:22.000Z</time>
      </trkpt>
      <trkpt lat="47.14535" lon="-1.42244">
        <ele>72</ele>
        <time>2021-08-23T16:28:24.000Z</time>
      </trkpt>
      <trkpt lat="47.14543" lon="-1.42265">
        <ele>72</ele>
        <time>2021-08-23T16:28:26.000Z</time>
      </trkpt>
      <trkpt lat="47.14552" lon="-1.42284">
        <ele>71</ele>
        <time>2021-08-23T16:28:28.000Z</time>
      </trkpt>
      <trkpt lat="47.14561" lon="-1.42301">
        <ele>71</ele>
        <time>2021-08-23T16:28:30.000Z</time>
      </trkpt>
      <trkpt lat="47.14572" lon="-1.42316">
        <ele>71</ele>
        <time>2021-08-23T16:28:32.000Z</time>
      </trkpt>
      <trkpt lat="47.14582" lon="-1.42329">
        <ele>71</ele>
        <time>2021-08-23T16:28:34.000Z</time>
      </trkpt>
      <trkpt lat="47.14592" lon="-1.4234">
        <ele>72</ele>
        <time>2021-08-23T16:28:36.000Z</time>
      </trkpt>
      <trkpt lat="47.14602" lon="-1.4235">
        <ele>72</ele>
        <time>2021-08-23T16:28:38.000Z</time>
      </trkpt>
      <trkpt lat="47.14612" lon="-1.4236">
        <ele>72</ele>
        <time>2021-08-23T16:28:40.000Z</time>
      </trkpt>
      <trkpt lat="47.14621" lon="-1.42369">
        <ele>73</ele>
        <time>2021-08-23T16:28:42.000Z</time>
      </trkpt>
      <trkpt lat="47.14631" lon="-1.42378">
        <ele>73</ele>
        <time>2021-08-23T16:28:44.000Z</time>
      </trkpt>
      <trkpt lat="47.1464" lon="-1.42387">
        <ele>74</ele>
        <time>2021-08-23T16:28:46.000Z</time>
      </trkpt>
      <trkpt lat="47.14649" lon="-1.42396">
        <ele>74</ele>
        <time>2021-08-23T16:28:48.000Z</time>
      </trkpt>
      <trkpt lat="47.14657" lon="-1.42404">
        <ele>75</ele>
        <time>2021-08-23T16:28:50.000Z</time>
      </trkpt>
      <trkpt lat="47.14666" lon="-1.42412">
        <ele>76</ele>
        <time>2021-08-23T16:28:52.000Z</time>
      </trkpt>
      <trkpt lat="47.14674" lon="-1.4242">
        <ele>76</ele>
        <time>2021-08-23T16:28:54.000Z</time>
      </trkpt>
      <trkpt lat="47.14682" lon="-1.42427">
        <ele>77</ele>
        <time>2021-08-23T16:28:56.000Z</time>
      </trkpt>
      <trkpt lat="47.14689" lon="-1.42435">
        <ele>77</ele>
        <time>2021-08-23T16:28:58.000Z</time>
      </trkpt>
      <trkpt lat="47.14698" lon="-1.42443">
        <ele>78</ele>
        <time>2021-08-23T16:29:00.000Z</time>
      </trkpt>
      <trkpt lat="47.14706" lon="-1.42451">
        <ele>78</ele>
        <time>2021-08-23T16:29:02.000Z</time>
      </trkpt>
      <trkpt lat="47.14713" lon="-1.42459">
        <ele>79</ele>
        <time>2021-08-23T16:29:04.000Z</time>
      </trkpt>
      <trkpt lat="47.14722" lon="-1.42468">
        <ele>79</ele>
        <time>2021-08-23T16:29:06.000Z</time>
      </trkpt>
      <trkpt lat="47.14729" lon="-1.42476">
        <ele>80</ele>
        <time>2021-08-23T16:29:08.000Z</time>
      </trkpt>
      <trkpt lat="47.14737" lon="-1.42483">
        <ele>80</ele>
        <time>2021-08-23T16:29:10.000Z</time>
      </trkpt>
      <trkpt lat="47.14745" lon="-1.42491">
        <ele>81</ele>
        <time>2021-08-23T16:29:12.000Z</time>
      </trkpt>
      <trkpt lat="47.14753" lon="-1.42499">
        <ele>81</ele>
        <time>2021-08-23T16:29:14.000Z</time>
      </trkpt>
      <trkpt lat="47.14761" lon="-1.42507">
        <ele>81</ele>
        <time>2021-08-23T16:29:16.000Z</time>
      </trkpt>
      <trkpt lat="47.14769" lon="-1.42515">
        <ele>82</ele>
        <time>2021-08-23T16:29:18.000Z</time>
      </trkpt>
      <trkpt lat="47.14777" lon="-1.42523">
        <ele>82</ele>
        <time>2021-08-23T16:29:20.000Z</time>
      </trkpt>
      <trkpt lat="47.14785" lon="-1.42531">
        <ele>82</ele>
        <time>2021-08-23T16:29:22.000Z</time>
      </trkpt>
      <trkpt lat="47.14793" lon="-1.42539">
        <ele>81</ele>
        <time>2021-08-23T16:29:24.000Z</time>
      </trkpt>
      <trkpt lat="47.14801" lon="-1.42548">
        <ele>82</ele>
        <time>2021-08-23T16:29:26.000Z</time>
      </trkpt>
      <trkpt lat="47.14809" lon="-1.42558">
        <ele>82</ele>
        <time>2021-08-23T16:29:28.000Z</time>
      </trkpt>
      <trkpt lat="47.14817" lon="-1.42569">
        <ele>81</ele>
        <time>2021-08-23T16:29:30.000Z</time>
      </trkpt>
      <trkpt lat="47.14825" lon="-1.42579">
        <ele>82</ele>
        <time>2021-08-23T16:29:32.000Z</time>
      </trkpt>
      <trkpt lat="47.14833" lon="-1.4259">
        <ele>81</ele>
        <time>2021-08-23T16:29:34.000Z</time>
      </trkpt>
      <trkpt lat="47.14842" lon="-1.42601">
        <ele>81</ele>
        <time>2021-08-23T16:29:36.000Z</time>
      </trkpt>
      <trkpt lat="47.1485" lon="-1.42613">
        <ele>81</ele>
        <time>2021-08-23T16:29:38.000Z</time>
      </trkpt>
      <trkpt lat="47.14859" lon="-1.42625">
        <ele>80</ele>
        <time>2021-08-23T16:29:40.000Z</time>
      </trkpt>
      <trkpt lat="47.14868" lon="-1.42637">
        <ele>80</ele>
        <time>2021-08-23T16:29:42.000Z</time>
      </trkpt>
      <trkpt lat="47.14877" lon="-1.42649">
        <ele>80</ele>
        <time>2021-08-23T16:29:44.000Z</time>
      </trkpt>
      <trkpt lat="47.14886" lon="-1.42662">
        <ele>80</ele>
        <time>2021-08-23T16:29:46.000Z</time>
      </trkpt>
      <trkpt lat="47.14895" lon="-1.42675">
        <ele>79</ele>
        <time>2021-08-23T16:29:48.000Z</time>
      </trkpt>
      <trkpt lat="47.14904" lon="-1.42688">
        <ele>78</ele>
        <time>2021-08-23T16:29:50.000Z</time>
      </trkpt>
      <trkpt lat="47.14914" lon="-1.42703">
        <ele>78</ele>
        <time>2021-08-23T16:29:52.000Z</time>
      </trkpt>
      <trkpt lat="47.14924" lon="-1.42718">
        <ele>77</ele>
        <time>2021-08-23T16:29:54.000Z</time>
      </trkpt>
      <trkpt lat="47.14933" lon="-1.42734">
        <ele>77</ele>
        <time>2021-08-23T16:29:56.000Z</time>
      </trkpt>
      <trkpt lat="47.14943" lon="-1.42749">
        <ele>77</ele>
        <time>2021-08-23T16:29:58.000Z</time>
      </trkpt>
      <trkpt lat="47.14953" lon="-1.42764">
        <ele>77</ele>
        <time>2021-08-23T16:30:00.000Z</time>
      </trkpt>
      <trkpt lat="47.14963" lon="-1.42779">
        <ele>76</ele>
        <time>2021-08-23T16:30:02.000Z</time>
      </trkpt>
      <trkpt lat="47.14973" lon="-1.42795">
        <ele>76</ele>
        <time>2021-08-23T16:30:04.000Z</time>
      </trkpt>
      <trkpt lat="47.14982" lon="-1.4281">
        <ele>76</ele>
        <time>2021-08-23T16:30:06.000Z</time>
      </trkpt>
      <trkpt lat="47.14992" lon="-1.42825">
        <ele>76</ele>
        <time>2021-08-23T16:30:08.000Z</time>
      </trkpt>
      <trkpt lat="47.15002" lon="-1.42839">
        <ele>75</ele>
        <time>2021-08-23T16:30:10.000Z</time>
      </trkpt>
      <trkpt lat="47.15013" lon="-1.42852">
        <ele>75</ele>
        <time>2021-08-23T16:30:12.000Z</time>
      </trkpt>
      <trkpt lat="47.15025" lon="-1.42862">
        <ele>75</ele>
        <time>2021-08-23T16:30:14.000Z</time>
      </trkpt>
      <trkpt lat="47.15038" lon="-1.42867">
        <ele>76</ele>
        <time>2021-08-23T16:30:16.000Z</time>
      </trkpt>
      <trkpt lat="47.15051" lon="-1.42869">
        <ele>76</ele>
        <time>2021-08-23T16:30:18.000Z</time>
      </trkpt>
      <trkpt lat="47.15064" lon="-1.42874">
        <ele>76</ele>
        <time>2021-08-23T16:30:20.000Z</time>
      </trkpt>
      <trkpt lat="47.15076" lon="-1.42877">
        <ele>76</ele>
        <time>2021-08-23T16:30:22.000Z</time>
      </trkpt>
      <trkpt lat="47.15089" lon="-1.42881">
        <ele>76</ele>
        <time>2021-08-23T16:30:24.000Z</time>
      </trkpt>
      <trkpt lat="47.15101" lon="-1.42885">
        <ele>76</ele>
        <time>2021-08-23T16:30:26.000Z</time>
      </trkpt>
      <trkpt lat="47.15114" lon="-1.42889">
        <ele>76</ele>
        <time>2021-08-23T16:30:28.000Z</time>
      </trkpt>
      <trkpt lat="47.15126" lon="-1.42895">
        <ele>75</ele>
        <time>2021-08-23T16:30:30.000Z</time>
      </trkpt>
      <trkpt lat="47.15139" lon="-1.42901">
        <ele>75</ele>
        <time>2021-08-23T16:30:32.000Z</time>
      </trkpt>
      <trkpt lat="47.15152" lon="-1.42908">
        <ele>75</ele>
        <time>2021-08-23T16:30:34.000Z</time>
      </trkpt>
      <trkpt lat="47.15163" lon="-1.42914">
        <ele>76</ele>
        <time>2021-08-23T16:30:36.000Z</time>
      </trkpt>
      <trkpt lat="47.15175" lon="-1.42922">
        <ele>75</ele>
        <time>2021-08-23T16:30:38.000Z</time>
      </trkpt>
      <trkpt lat="47.15187" lon="-1.42931">
        <ele>75</ele>
        <time>2021-08-23T16:30:40.000Z</time>
      </trkpt>
      <trkpt lat="47.15198" lon="-1.42942">
        <ele>74</ele>
        <time>2021-08-23T16:30:42.000Z</time>
      </trkpt>
      <trkpt lat="47.15207" lon="-1.42958">
        <ele>74</ele>
        <time>2021-08-23T16:30:44.000Z</time>
      </trkpt>
      <trkpt lat="47.15217" lon="-1.42976">
        <ele>74</ele>
        <time>2021-08-23T16:30:46.000Z</time>
      </trkpt>
      <trkpt lat="47.15227" lon="-1.42995">
        <ele>73</ele>
        <time>2021-08-23T16:30:48.000Z</time>
      </trkpt>
      <trkpt lat="47.15237" lon="-1.43016">
        <ele>72</ele>
        <time>2021-08-23T16:30:50.000Z</time>
      </trkpt>
      <trkpt lat="47.15245" lon="-1.4304">
        <ele>71</ele>
        <time>2021-08-23T16:30:52.000Z</time>
      </trkpt>
      <trkpt lat="47.15249" lon="-1.43053">
        <ele>70</ele>
        <time>2021-08-23T16:30:53.000Z</time>
      </trkpt>
      <trkpt lat="47.15251" lon="-1.43066">
        <ele>70</ele>
        <time>2021-08-23T16:30:54.000Z</time>
      </trkpt>
      <trkpt lat="47.15253" lon="-1.43079">
        <ele>70</ele>
        <time>2021-08-23T16:30:55.000Z</time>
      </trkpt>
      <trkpt lat="47.15254" lon="-1.43093">
        <ele>69</ele>
        <time>2021-08-23T16:30:56.000Z</time>
      </trkpt>
      <trkpt lat="47.15254" lon="-1.43108">
        <ele>69</ele>
        <time>2021-08-23T16:30:57.000Z</time>
      </trkpt>
      <trkpt lat="47.15254" lon="-1.43123">
        <ele>68</ele>
        <time>2021-08-23T16:30:58.000Z</time>
      </trkpt>
      <trkpt lat="47.15254" lon="-1.43137">
        <ele>68</ele>
        <time>2021-08-23T16:30:59.000Z</time>
      </trkpt>
      <trkpt lat="47.15254" lon="-1.43151">
        <ele>67</ele>
        <time>2021-08-23T16:31:00.000Z</time>
      </trkpt>
      <trkpt lat="47.15254" lon="-1.43166">
        <ele>66</ele>
        <time>2021-08-23T16:31:01.000Z</time>
      </trkpt>
      <trkpt lat="47.15254" lon="-1.43181">
        <ele>65</ele>
        <time>2021-08-23T16:31:02.000Z</time>
      </trkpt>
      <trkpt lat="47.15254" lon="-1.43195">
        <ele>65</ele>
        <time>2021-08-23T16:31:03.000Z</time>
      </trkpt>
      <trkpt lat="47.15253" lon="-1.4321">
        <ele>64</ele>
        <time>2021-08-23T16:31:04.000Z</time>
      </trkpt>
      <trkpt lat="47.15253" lon="-1.43225">
        <ele>63</ele>
        <time>2021-08-23T16:31:05.000Z</time>
      </trkpt>
      <trkpt lat="47.15253" lon="-1.4324">
        <ele>63</ele>
        <time>2021-08-23T16:31:06.000Z</time>
      </trkpt>
      <trkpt lat="47.15252" lon="-1.43255">
        <ele>62</ele>
        <time>2021-08-23T16:31:07.000Z</time>
      </trkpt>
      <trkpt lat="47.15252" lon="-1.43271">
        <ele>62</ele>
        <time>2021-08-23T16:31:08.000Z</time>
      </trkpt>
      <trkpt lat="47.15252" lon="-1.43285">
        <ele>61</ele>
        <time>2021-08-23T16:31:09.000Z</time>
      </trkpt>
      <trkpt lat="47.15251" lon="-1.433">
        <ele>61</ele>
        <time>2021-08-23T16:31:10.000Z</time>
      </trkpt>
      <trkpt lat="47.15251" lon="-1.43315">
        <ele>61</ele>
        <time>2021-08-23T16:31:11.000Z</time>
      </trkpt>
      <trkpt lat="47.15251" lon="-1.4333">
        <ele>60</ele>
        <time>2021-08-23T16:31:12.000Z</time>
      </trkpt>
      <trkpt lat="47.15251" lon="-1.43345">
        <ele>60</ele>
        <time>2021-08-23T16:31:13.000Z</time>
      </trkpt>
      <trkpt lat="47.15252" lon="-1.43361">
        <ele>60</ele>
        <time>2021-08-23T16:31:14.000Z</time>
      </trkpt>
      <trkpt lat="47.15252" lon="-1.43376">
        <ele>59</ele>
        <time>2021-08-23T16:31:15.000Z</time>
      </trkpt>
      <trkpt lat="47.15253" lon="-1.43391">
        <ele>59</ele>
        <time>2021-08-23T16:31:16.000Z</time>
      </trkpt>
      <trkpt lat="47.15254" lon="-1.43406">
        <ele>59</ele>
        <time>2021-08-23T16:31:17.000Z</time>
      </trkpt>
      <trkpt lat="47.15255" lon="-1.43421">
        <ele>58</ele>
        <time>2021-08-23T16:31:18.000Z</time>
      </trkpt>
      <trkpt lat="47.15256" lon="-1.43434">
        <ele>58</ele>
        <time>2021-08-23T16:31:19.000Z</time>
      </trkpt>
      <trkpt lat="47.15259" lon="-1.43461">
        <ele>58</ele>
        <time>2021-08-23T16:31:21.000Z</time>
      </trkpt>
      <trkpt lat="47.1526" lon="-1.43475">
        <ele>58</ele>
        <time>2021-08-23T16:31:22.000Z</time>
      </trkpt>
      <trkpt lat="47.15263" lon="-1.435">
        <ele>58</ele>
        <time>2021-08-23T16:31:24.000Z</time>
      </trkpt>
      <trkpt lat="47.15266" lon="-1.43526">
        <ele>59</ele>
        <time>2021-08-23T16:31:26.000Z</time>
      </trkpt>
      <trkpt lat="47.15269" lon="-1.43551">
        <ele>59</ele>
        <time>2021-08-23T16:31:28.000Z</time>
      </trkpt>
      <trkpt lat="47.1527" lon="-1.43577">
        <ele>58</ele>
        <time>2021-08-23T16:31:30.000Z</time>
      </trkpt>
      <trkpt lat="47.15272" lon="-1.4359">
        <ele>58</ele>
        <time>2021-08-23T16:31:31.000Z</time>
      </trkpt>
      <trkpt lat="47.15274" lon="-1.43616">
        <ele>58</ele>
        <time>2021-08-23T16:31:33.000Z</time>
      </trkpt>
      <trkpt lat="47.15276" lon="-1.43641">
        <ele>58</ele>
        <time>2021-08-23T16:31:35.000Z</time>
      </trkpt>
      <trkpt lat="47.15278" lon="-1.43666">
        <ele>58</ele>
        <time>2021-08-23T16:31:37.000Z</time>
      </trkpt>
      <trkpt lat="47.1528" lon="-1.43691">
        <ele>58</ele>
        <time>2021-08-23T16:31:39.000Z</time>
      </trkpt>
      <trkpt lat="47.1528" lon="-1.43717">
        <ele>57</ele>
        <time>2021-08-23T16:31:41.000Z</time>
      </trkpt>
      <trkpt lat="47.1528" lon="-1.4373">
        <ele>57</ele>
        <time>2021-08-23T16:31:42.000Z</time>
      </trkpt>
      <trkpt lat="47.15279" lon="-1.43756">
        <ele>57</ele>
        <time>2021-08-23T16:31:44.000Z</time>
      </trkpt>
      <trkpt lat="47.15277" lon="-1.4378">
        <ele>56</ele>
        <time>2021-08-23T16:31:46.000Z</time>
      </trkpt>
      <trkpt lat="47.15275" lon="-1.43805">
        <ele>57</ele>
        <time>2021-08-23T16:31:48.000Z</time>
      </trkpt>
      <trkpt lat="47.15274" lon="-1.4383">
        <ele>56</ele>
        <time>2021-08-23T16:31:50.000Z</time>
      </trkpt>
      <trkpt lat="47.15274" lon="-1.43854">
        <ele>57</ele>
        <time>2021-08-23T16:31:52.000Z</time>
      </trkpt>
      <trkpt lat="47.15278" lon="-1.43877">
        <ele>57</ele>
        <time>2021-08-23T16:31:54.000Z</time>
      </trkpt>
      <trkpt lat="47.15285" lon="-1.43897">
        <ele>57</ele>
        <time>2021-08-23T16:31:56.000Z</time>
      </trkpt>
      <trkpt lat="47.15295" lon="-1.43916">
        <ele>57</ele>
        <time>2021-08-23T16:31:58.000Z</time>
      </trkpt>
      <trkpt lat="47.15305" lon="-1.43933">
        <ele>57</ele>
        <time>2021-08-23T16:32:00.000Z</time>
      </trkpt>
      <trkpt lat="47.15315" lon="-1.43947">
        <ele>58</ele>
        <time>2021-08-23T16:32:02.000Z</time>
      </trkpt>
      <trkpt lat="47.15324" lon="-1.4396">
        <ele>59</ele>
        <time>2021-08-23T16:32:04.000Z</time>
      </trkpt>
      <trkpt lat="47.15334" lon="-1.43974">
        <ele>60</ele>
        <time>2021-08-23T16:32:06.000Z</time>
      </trkpt>
      <trkpt lat="47.15343" lon="-1.43986">
        <ele>59</ele>
        <time>2021-08-23T16:32:08.000Z</time>
      </trkpt>
      <trkpt lat="47.15353" lon="-1.43998">
        <ele>59</ele>
        <time>2021-08-23T16:32:10.000Z</time>
      </trkpt>
      <trkpt lat="47.15361" lon="-1.44011">
        <ele>59</ele>
        <time>2021-08-23T16:32:12.000Z</time>
      </trkpt>
      <trkpt lat="47.1537" lon="-1.44023">
        <ele>59</ele>
        <time>2021-08-23T16:32:14.000Z</time>
      </trkpt>
      <trkpt lat="47.15378" lon="-1.4404">
        <ele>59</ele>
        <time>2021-08-23T16:32:16.000Z</time>
      </trkpt>
      <trkpt lat="47.15384" lon="-1.44059">
        <ele>58</ele>
        <time>2021-08-23T16:32:18.000Z</time>
      </trkpt>
      <trkpt lat="47.15385" lon="-1.44081">
        <ele>58</ele>
        <time>2021-08-23T16:32:20.000Z</time>
      </trkpt>
      <trkpt lat="47.15383" lon="-1.44103">
        <ele>57</ele>
        <time>2021-08-23T16:32:22.000Z</time>
      </trkpt>
      <trkpt lat="47.15378" lon="-1.44125">
        <ele>56</ele>
        <time>2021-08-23T16:32:24.000Z</time>
      </trkpt>
      <trkpt lat="47.15375" lon="-1.44146">
        <ele>56</ele>
        <time>2021-08-23T16:32:26.000Z</time>
      </trkpt>
      <trkpt lat="47.15371" lon="-1.44167">
        <ele>57</ele>
        <time>2021-08-23T16:32:28.000Z</time>
      </trkpt>
      <trkpt lat="47.15367" lon="-1.44188">
        <ele>57</ele>
        <time>2021-08-23T16:32:30.000Z</time>
      </trkpt>
      <trkpt lat="47.15366" lon="-1.4421">
        <ele>57</ele>
        <time>2021-08-23T16:32:32.000Z</time>
      </trkpt>
      <trkpt lat="47.15365" lon="-1.44231">
        <ele>57</ele>
        <time>2021-08-23T16:32:34.000Z</time>
      </trkpt>
      <trkpt lat="47.15367" lon="-1.44252">
        <ele>58</ele>
        <time>2021-08-23T16:32:36.000Z</time>
      </trkpt>
      <trkpt lat="47.15371" lon="-1.44273">
        <ele>58</ele>
        <time>2021-08-23T16:32:38.000Z</time>
      </trkpt>
      <trkpt lat="47.15376" lon="-1.44294">
        <ele>58</ele>
        <time>2021-08-23T16:32:40.000Z</time>
      </trkpt>
      <trkpt lat="47.15382" lon="-1.44313">
        <ele>58</ele>
        <time>2021-08-23T16:32:42.000Z</time>
      </trkpt>
      <trkpt lat="47.15389" lon="-1.4433">
        <ele>58</ele>
        <time>2021-08-23T16:32:44.000Z</time>
      </trkpt>
      <trkpt lat="47.15397" lon="-1.44345">
        <ele>58</ele>
        <time>2021-08-23T16:32:46.000Z</time>
      </trkpt>
      <trkpt lat="47.15407" lon="-1.44358">
        <ele>57</ele>
        <time>2021-08-23T16:32:48.000Z</time>
      </trkpt>
      <trkpt lat="47.15416" lon="-1.44371">
        <ele>57</ele>
        <time>2021-08-23T16:32:50.000Z</time>
      </trkpt>
      <trkpt lat="47.15425" lon="-1.44382">
        <ele>58</ele>
        <time>2021-08-23T16:32:52.000Z</time>
      </trkpt>
      <trkpt lat="47.15435" lon="-1.4439">
        <ele>59</ele>
        <time>2021-08-23T16:32:54.000Z</time>
      </trkpt>
      <trkpt lat="47.15445" lon="-1.44398">
        <ele>60</ele>
        <time>2021-08-23T16:32:56.000Z</time>
      </trkpt>
      <trkpt lat="47.15455" lon="-1.44404">
        <ele>60</ele>
        <time>2021-08-23T16:32:58.000Z</time>
      </trkpt>
      <trkpt lat="47.15466" lon="-1.44409">
        <ele>61</ele>
        <time>2021-08-23T16:33:00.000Z</time>
      </trkpt>
      <trkpt lat="47.15476" lon="-1.44414">
        <ele>61</ele>
        <time>2021-08-23T16:33:02.000Z</time>
      </trkpt>
      <trkpt lat="47.15486" lon="-1.44417">
        <ele>61</ele>
        <time>2021-08-23T16:33:04.000Z</time>
      </trkpt>
      <trkpt lat="47.15496" lon="-1.44419">
        <ele>61</ele>
        <time>2021-08-23T16:33:06.000Z</time>
      </trkpt>
      <trkpt lat="47.15507" lon="-1.4442">
        <ele>62</ele>
        <time>2021-08-23T16:33:08.000Z</time>
      </trkpt>
      <trkpt lat="47.15517" lon="-1.44421">
        <ele>62</ele>
        <time>2021-08-23T16:33:10.000Z</time>
      </trkpt>
      <trkpt lat="47.15527" lon="-1.44422">
        <ele>63</ele>
        <time>2021-08-23T16:33:12.000Z</time>
      </trkpt>
      <trkpt lat="47.15537" lon="-1.44423">
        <ele>64</ele>
        <time>2021-08-23T16:33:14.000Z</time>
      </trkpt>
      <trkpt lat="47.15547" lon="-1.44424">
        <ele>65</ele>
        <time>2021-08-23T16:33:16.000Z</time>
      </trkpt>
      <trkpt lat="47.15557" lon="-1.44423">
        <ele>65</ele>
        <time>2021-08-23T16:33:18.000Z</time>
      </trkpt>
      <trkpt lat="47.15567" lon="-1.44421">
        <ele>65</ele>
        <time>2021-08-23T16:33:20.000Z</time>
      </trkpt>
      <trkpt lat="47.15576" lon="-1.44417">
        <ele>66</ele>
        <time>2021-08-23T16:33:22.000Z</time>
      </trkpt>
      <trkpt lat="47.15591" lon="-1.44411">
        <ele>67</ele>
        <time>2021-08-23T16:33:25.000Z</time>
      </trkpt>
      <trkpt lat="47.15601" lon="-1.44408">
        <ele>68</ele>
        <time>2021-08-23T16:33:27.000Z</time>
      </trkpt>
      <trkpt lat="47.15611" lon="-1.44405">
        <ele>69</ele>
        <time>2021-08-23T16:33:29.000Z</time>
      </trkpt>
      <trkpt lat="47.15625" lon="-1.44399">
        <ele>70</ele>
        <time>2021-08-23T16:33:32.000Z</time>
      </trkpt>
      <trkpt lat="47.15636" lon="-1.44395">
        <ele>71</ele>
        <time>2021-08-23T16:33:34.000Z</time>
      </trkpt>
      <trkpt lat="47.15646" lon="-1.4439">
        <ele>71</ele>
        <time>2021-08-23T16:33:36.000Z</time>
      </trkpt>
      <trkpt lat="47.15655" lon="-1.44385">
        <ele>72</ele>
        <time>2021-08-23T16:33:38.000Z</time>
      </trkpt>
      <trkpt lat="47.15665" lon="-1.44381">
        <ele>73</ele>
        <time>2021-08-23T16:33:40.000Z</time>
      </trkpt>
      <trkpt lat="47.15674" lon="-1.44377">
        <ele>74</ele>
        <time>2021-08-23T16:33:42.000Z</time>
      </trkpt>
      <trkpt lat="47.15683" lon="-1.44374">
        <ele>75</ele>
        <time>2021-08-23T16:33:44.000Z</time>
      </trkpt>
      <trkpt lat="47.15692" lon="-1.44369">
        <ele>75</ele>
        <time>2021-08-23T16:33:46.000Z</time>
      </trkpt>
      <trkpt lat="47.15701" lon="-1.44365">
        <ele>76</ele>
        <time>2021-08-23T16:33:48.000Z</time>
      </trkpt>
      <trkpt lat="47.1571" lon="-1.44359">
        <ele>77</ele>
        <time>2021-08-23T16:33:50.000Z</time>
      </trkpt>
      <trkpt lat="47.15719" lon="-1.44354">
        <ele>77</ele>
        <time>2021-08-23T16:33:52.000Z</time>
      </trkpt>
      <trkpt lat="47.15732" lon="-1.44348">
        <ele>79</ele>
        <time>2021-08-23T16:33:55.000Z</time>
      </trkpt>
      <trkpt lat="47.15746" lon="-1.44343">
        <ele>80</ele>
        <time>2021-08-23T16:33:58.000Z</time>
      </trkpt>
      <trkpt lat="47.1576" lon="-1.44337">
        <ele>81</ele>
        <time>2021-08-23T16:34:01.000Z</time>
      </trkpt>
      <trkpt lat="47.15769" lon="-1.44333">
        <ele>81</ele>
        <time>2021-08-23T16:34:03.000Z</time>
      </trkpt>
      <trkpt lat="47.15779" lon="-1.44328">
        <ele>82</ele>
        <time>2021-08-23T16:34:05.000Z</time>
      </trkpt>
      <trkpt lat="47.15789" lon="-1.44328">
        <ele>83</ele>
        <time>2021-08-23T16:34:07.000Z</time>
      </trkpt>
      <trkpt lat="47.15799" lon="-1.4433">
        <ele>82</ele>
        <time>2021-08-23T16:34:09.000Z</time>
      </trkpt>
      <trkpt lat="47.15808" lon="-1.44337">
        <ele>81</ele>
        <time>2021-08-23T16:34:11.000Z</time>
      </trkpt>
      <trkpt lat="47.15816" lon="-1.44346">
        <ele>81</ele>
        <time>2021-08-23T16:34:13.000Z</time>
      </trkpt>
      <trkpt lat="47.15823" lon="-1.44357">
        <ele>80</ele>
        <time>2021-08-23T16:34:15.000Z</time>
      </trkpt>
      <trkpt lat="47.15829" lon="-1.44369">
        <ele>80</ele>
        <time>2021-08-23T16:34:17.000Z</time>
      </trkpt>
      <trkpt lat="47.15834" lon="-1.4438">
        <ele>80</ele>
        <time>2021-08-23T16:34:19.000Z</time>
      </trkpt>
      <trkpt lat="47.15839" lon="-1.44393">
        <ele>80</ele>
        <time>2021-08-23T16:34:21.000Z</time>
      </trkpt>
      <trkpt lat="47.15844" lon="-1.44405">
        <ele>80</ele>
        <time>2021-08-23T16:34:23.000Z</time>
      </trkpt>
      <trkpt lat="47.15849" lon="-1.44417">
        <ele>80</ele>
        <time>2021-08-23T16:34:25.000Z</time>
      </trkpt>
      <trkpt lat="47.15854" lon="-1.4443">
        <ele>80</ele>
        <time>2021-08-23T16:34:27.000Z</time>
      </trkpt>
      <trkpt lat="47.15859" lon="-1.44441">
        <ele>80</ele>
        <time>2021-08-23T16:34:29.000Z</time>
      </trkpt>
      <trkpt lat="47.15864" lon="-1.44453">
        <ele>80</ele>
        <time>2021-08-23T16:34:31.000Z</time>
      </trkpt>
      <trkpt lat="47.15868" lon="-1.44465">
        <ele>81</ele>
        <time>2021-08-23T16:34:33.000Z</time>
      </trkpt>
      <trkpt lat="47.15873" lon="-1.44477">
        <ele>81</ele>
        <time>2021-08-23T16:34:35.000Z</time>
      </trkpt>
      <trkpt lat="47.15878" lon="-1.4449">
        <ele>81</ele>
        <time>2021-08-23T16:34:37.000Z</time>
      </trkpt>
      <trkpt lat="47.15883" lon="-1.44502">
        <ele>80</ele>
        <time>2021-08-23T16:34:39.000Z</time>
      </trkpt>
      <trkpt lat="47.15887" lon="-1.44514">
        <ele>80</ele>
        <time>2021-08-23T16:34:41.000Z</time>
      </trkpt>
      <trkpt lat="47.15893" lon="-1.44528">
        <ele>79</ele>
        <time>2021-08-23T16:34:43.000Z</time>
      </trkpt>
      <trkpt lat="47.15898" lon="-1.44541">
        <ele>79</ele>
        <time>2021-08-23T16:34:45.000Z</time>
      </trkpt>
      <trkpt lat="47.15903" lon="-1.44555">
        <ele>79</ele>
        <time>2021-08-23T16:34:47.000Z</time>
      </trkpt>
      <trkpt lat="47.15909" lon="-1.44568">
        <ele>78</ele>
        <time>2021-08-23T16:34:49.000Z</time>
      </trkpt>
      <trkpt lat="47.15914" lon="-1.44583">
        <ele>78</ele>
        <time>2021-08-23T16:34:51.000Z</time>
      </trkpt>
      <trkpt lat="47.15919" lon="-1.44597">
        <ele>78</ele>
        <time>2021-08-23T16:34:53.000Z</time>
      </trkpt>
      <trkpt lat="47.15923" lon="-1.44611">
        <ele>78</ele>
        <time>2021-08-23T16:34:55.000Z</time>
      </trkpt>
      <trkpt lat="47.15928" lon="-1.44626">
        <ele>79</ele>
        <time>2021-08-23T16:34:57.000Z</time>
      </trkpt>
      <trkpt lat="47.15932" lon="-1.4464">
        <ele>79</ele>
        <time>2021-08-23T16:34:59.000Z</time>
      </trkpt>
      <trkpt lat="47.15936" lon="-1.44655">
        <ele>80</ele>
        <time>2021-08-23T16:35:01.000Z</time>
      </trkpt>
      <trkpt lat="47.15941" lon="-1.44671">
        <ele>80</ele>
        <time>2021-08-23T16:35:03.000Z</time>
      </trkpt>
      <trkpt lat="47.15946" lon="-1.44687">
        <ele>80</ele>
        <time>2021-08-23T16:35:05.000Z</time>
      </trkpt>
      <trkpt lat="47.15951" lon="-1.44704">
        <ele>80</ele>
        <time>2021-08-23T16:35:07.000Z</time>
      </trkpt>
      <trkpt lat="47.15955" lon="-1.44718">
        <ele>80</ele>
        <time>2021-08-23T16:35:09.000Z</time>
      </trkpt>
      <trkpt lat="47.15959" lon="-1.44732">
        <ele>80</ele>
        <time>2021-08-23T16:35:11.000Z</time>
      </trkpt>
      <trkpt lat="47.15963" lon="-1.44745">
        <ele>80</ele>
        <time>2021-08-23T16:35:13.000Z</time>
      </trkpt>
      <trkpt lat="47.15968" lon="-1.4476">
        <ele>80</ele>
        <time>2021-08-23T16:35:15.000Z</time>
      </trkpt>
      <trkpt lat="47.15973" lon="-1.44776">
        <ele>81</ele>
        <time>2021-08-23T16:35:17.000Z</time>
      </trkpt>
      <trkpt lat="47.15978" lon="-1.44791">
        <ele>81</ele>
        <time>2021-08-23T16:35:19.000Z</time>
      </trkpt>
      <trkpt lat="47.15984" lon="-1.44808">
        <ele>81</ele>
        <time>2021-08-23T16:35:21.000Z</time>
      </trkpt>
      <trkpt lat="47.15992" lon="-1.44823">
        <ele>80</ele>
        <time>2021-08-23T16:35:23.000Z</time>
      </trkpt>
      <trkpt lat="47.16" lon="-1.44837">
        <ele>80</ele>
        <time>2021-08-23T16:35:25.000Z</time>
      </trkpt>
      <trkpt lat="47.16009" lon="-1.4485">
        <ele>80</ele>
        <time>2021-08-23T16:35:27.000Z</time>
      </trkpt>
      <trkpt lat="47.16019" lon="-1.44863">
        <ele>80</ele>
        <time>2021-08-23T16:35:29.000Z</time>
      </trkpt>
      <trkpt lat="47.16028" lon="-1.44875">
        <ele>80</ele>
        <time>2021-08-23T16:35:31.000Z</time>
      </trkpt>
      <trkpt lat="47.16038" lon="-1.44886">
        <ele>80</ele>
        <time>2021-08-23T16:35:33.000Z</time>
      </trkpt>
      <trkpt lat="47.16048" lon="-1.44896">
        <ele>80</ele>
        <time>2021-08-23T16:35:35.000Z</time>
      </trkpt>
      <trkpt lat="47.16058" lon="-1.44907">
        <ele>80</ele>
        <time>2021-08-23T16:35:37.000Z</time>
      </trkpt>
      <trkpt lat="47.16068" lon="-1.4492">
        <ele>80</ele>
        <time>2021-08-23T16:35:39.000Z</time>
      </trkpt>
      <trkpt lat="47.16076" lon="-1.44932">
        <ele>80</ele>
        <time>2021-08-23T16:35:41.000Z</time>
      </trkpt>
      <trkpt lat="47.16085" lon="-1.44945">
        <ele>80</ele>
        <time>2021-08-23T16:35:43.000Z</time>
      </trkpt>
      <trkpt lat="47.16092" lon="-1.44959">
        <ele>80</ele>
        <time>2021-08-23T16:35:45.000Z</time>
      </trkpt>
      <trkpt lat="47.16099" lon="-1.44974">
        <ele>79</ele>
        <time>2021-08-23T16:35:47.000Z</time>
      </trkpt>
      <trkpt lat="47.16105" lon="-1.4499">
        <ele>79</ele>
        <time>2021-08-23T16:35:49.000Z</time>
      </trkpt>
      <trkpt lat="47.16111" lon="-1.45005">
        <ele>79</ele>
        <time>2021-08-23T16:35:51.000Z</time>
      </trkpt>
      <trkpt lat="47.16116" lon="-1.45021">
        <ele>79</ele>
        <time>2021-08-23T16:35:53.000Z</time>
      </trkpt>
      <trkpt lat="47.16122" lon="-1.45037">
        <ele>79</ele>
        <time>2021-08-23T16:35:55.000Z</time>
      </trkpt>
      <trkpt lat="47.16127" lon="-1.45053">
        <ele>79</ele>
        <time>2021-08-23T16:35:57.000Z</time>
      </trkpt>
      <trkpt lat="47.16131" lon="-1.45069">
        <ele>79</ele>
        <time>2021-08-23T16:35:59.000Z</time>
      </trkpt>
      <trkpt lat="47.16136" lon="-1.45085">
        <ele>79</ele>
        <time>2021-08-23T16:36:01.000Z</time>
      </trkpt>
      <trkpt lat="47.1614" lon="-1.45102">
        <ele>79</ele>
        <time>2021-08-23T16:36:03.000Z</time>
      </trkpt>
      <trkpt lat="47.16144" lon="-1.45118">
        <ele>79</ele>
        <time>2021-08-23T16:36:05.000Z</time>
      </trkpt>
      <trkpt lat="47.16149" lon="-1.45135">
        <ele>79</ele>
        <time>2021-08-23T16:36:07.000Z</time>
      </trkpt>
      <trkpt lat="47.16155" lon="-1.4515">
        <ele>80</ele>
        <time>2021-08-23T16:36:09.000Z</time>
      </trkpt>
      <trkpt lat="47.16165" lon="-1.45162">
        <ele>80</ele>
        <time>2021-08-23T16:36:11.000Z</time>
      </trkpt>
      <trkpt lat="47.16177" lon="-1.45169">
        <ele>82</ele>
        <time>2021-08-23T16:36:13.000Z</time>
      </trkpt>
      <trkpt lat="47.1619" lon="-1.45177">
        <ele>82</ele>
        <time>2021-08-23T16:36:15.000Z</time>
      </trkpt>
      <trkpt lat="47.16202" lon="-1.45183">
        <ele>82</ele>
        <time>2021-08-23T16:36:17.000Z</time>
      </trkpt>
      <trkpt lat="47.16213" lon="-1.45189">
        <ele>83</ele>
        <time>2021-08-23T16:36:19.000Z</time>
      </trkpt>
      <trkpt lat="47.16223" lon="-1.45196">
        <ele>83</ele>
        <time>2021-08-23T16:36:21.000Z</time>
      </trkpt>
      <trkpt lat="47.16233" lon="-1.45204">
        <ele>84</ele>
        <time>2021-08-23T16:36:23.000Z</time>
      </trkpt>
      <trkpt lat="47.16242" lon="-1.45214">
        <ele>84</ele>
        <time>2021-08-23T16:36:25.000Z</time>
      </trkpt>
      <trkpt lat="47.1625" lon="-1.45225">
        <ele>84</ele>
        <time>2021-08-23T16:36:27.000Z</time>
      </trkpt>
      <trkpt lat="47.16256" lon="-1.45239">
        <ele>85</ele>
        <time>2021-08-23T16:36:29.000Z</time>
      </trkpt>
      <trkpt lat="47.16262" lon="-1.45255">
        <ele>85</ele>
        <time>2021-08-23T16:36:31.000Z</time>
      </trkpt>
      <trkpt lat="47.16266" lon="-1.4527">
        <ele>84</ele>
        <time>2021-08-23T16:36:33.000Z</time>
      </trkpt>
      <trkpt lat="47.16271" lon="-1.45285">
        <ele>84</ele>
        <time>2021-08-23T16:36:35.000Z</time>
      </trkpt>
      <trkpt lat="47.16277" lon="-1.453">
        <ele>84</ele>
        <time>2021-08-23T16:36:37.000Z</time>
      </trkpt>
      <trkpt lat="47.16283" lon="-1.45316">
        <ele>84</ele>
        <time>2021-08-23T16:36:39.000Z</time>
      </trkpt>
      <trkpt lat="47.16288" lon="-1.45333">
        <ele>83</ele>
        <time>2021-08-23T16:36:41.000Z</time>
      </trkpt>
      <trkpt lat="47.16292" lon="-1.45354">
        <ele>83</ele>
        <time>2021-08-23T16:36:43.000Z</time>
      </trkpt>
      <trkpt lat="47.16295" lon="-1.45376">
        <ele>81</ele>
        <time>2021-08-23T16:36:45.000Z</time>
      </trkpt>
      <trkpt lat="47.16298" lon="-1.454">
        <ele>80</ele>
        <time>2021-08-23T16:36:47.000Z</time>
      </trkpt>
      <trkpt lat="47.16304" lon="-1.45424">
        <ele>79</ele>
        <time>2021-08-23T16:36:49.000Z</time>
      </trkpt>
      <trkpt lat="47.16313" lon="-1.45446">
        <ele>77</ele>
        <time>2021-08-23T16:36:51.000Z</time>
      </trkpt>
      <trkpt lat="47.16319" lon="-1.45456">
        <ele>77</ele>
        <time>2021-08-23T16:36:52.000Z</time>
      </trkpt>
      <trkpt lat="47.16325" lon="-1.45467">
        <ele>77</ele>
        <time>2021-08-23T16:36:53.000Z</time>
      </trkpt>
      <trkpt lat="47.16336" lon="-1.45487">
        <ele>77</ele>
        <time>2021-08-23T16:36:55.000Z</time>
      </trkpt>
      <trkpt lat="47.16347" lon="-1.45507">
        <ele>77</ele>
        <time>2021-08-23T16:36:57.000Z</time>
      </trkpt>
      <trkpt lat="47.16358" lon="-1.45526">
        <ele>76</ele>
        <time>2021-08-23T16:36:59.000Z</time>
      </trkpt>
      <trkpt lat="47.16368" lon="-1.45545">
        <ele>76</ele>
        <time>2021-08-23T16:37:01.000Z</time>
      </trkpt>
      <trkpt lat="47.16379" lon="-1.45564">
        <ele>76</ele>
        <time>2021-08-23T16:37:03.000Z</time>
      </trkpt>
      <trkpt lat="47.16388" lon="-1.45581">
        <ele>76</ele>
        <time>2021-08-23T16:37:05.000Z</time>
      </trkpt>
      <trkpt lat="47.16397" lon="-1.45599">
        <ele>76</ele>
        <time>2021-08-23T16:37:07.000Z</time>
      </trkpt>
      <trkpt lat="47.16404" lon="-1.45618">
        <ele>76</ele>
        <time>2021-08-23T16:37:09.000Z</time>
      </trkpt>
      <trkpt lat="47.16411" lon="-1.45637">
        <ele>75</ele>
        <time>2021-08-23T16:37:11.000Z</time>
      </trkpt>
      <trkpt lat="47.16417" lon="-1.45657">
        <ele>74</ele>
        <time>2021-08-23T16:37:13.000Z</time>
      </trkpt>
      <trkpt lat="47.16422" lon="-1.45677">
        <ele>75</ele>
        <time>2021-08-23T16:37:15.000Z</time>
      </trkpt>
      <trkpt lat="47.16427" lon="-1.45698">
        <ele>75</ele>
        <time>2021-08-23T16:37:17.000Z</time>
      </trkpt>
      <trkpt lat="47.16432" lon="-1.45718">
        <ele>74</ele>
        <time>2021-08-23T16:37:19.000Z</time>
      </trkpt>
      <trkpt lat="47.16437" lon="-1.45738">
        <ele>74</ele>
        <time>2021-08-23T16:37:21.000Z</time>
      </trkpt>
      <trkpt lat="47.16441" lon="-1.45757">
        <ele>74</ele>
        <time>2021-08-23T16:37:23.000Z</time>
      </trkpt>
      <trkpt lat="47.16446" lon="-1.45777">
        <ele>74</ele>
        <time>2021-08-23T16:37:25.000Z</time>
      </trkpt>
      <trkpt lat="47.1645" lon="-1.45795">
        <ele>74</ele>
        <time>2021-08-23T16:37:27.000Z</time>
      </trkpt>
      <trkpt lat="47.16454" lon="-1.45812">
        <ele>74</ele>
        <time>2021-08-23T16:37:29.000Z</time>
      </trkpt>
      <trkpt lat="47.16458" lon="-1.45829">
        <ele>75</ele>
        <time>2021-08-23T16:37:31.000Z</time>
      </trkpt>
      <trkpt lat="47.16463" lon="-1.45845">
        <ele>75</ele>
        <time>2021-08-23T16:37:33.000Z</time>
      </trkpt>
      <trkpt lat="47.16468" lon="-1.45862">
        <ele>75</ele>
        <time>2021-08-23T16:37:35.000Z</time>
      </trkpt>
      <trkpt lat="47.16473" lon="-1.45879">
        <ele>75</ele>
        <time>2021-08-23T16:37:37.000Z</time>
      </trkpt>
      <trkpt lat="47.16478" lon="-1.45896">
        <ele>75</ele>
        <time>2021-08-23T16:37:39.000Z</time>
      </trkpt>
      <trkpt lat="47.16483" lon="-1.45913">
        <ele>75</ele>
        <time>2021-08-23T16:37:41.000Z</time>
      </trkpt>
      <trkpt lat="47.16489" lon="-1.45929">
        <ele>75</ele>
        <time>2021-08-23T16:37:43.000Z</time>
      </trkpt>
      <trkpt lat="47.16494" lon="-1.45946">
        <ele>75</ele>
        <time>2021-08-23T16:37:45.000Z</time>
      </trkpt>
      <trkpt lat="47.165" lon="-1.45962">
        <ele>75</ele>
        <time>2021-08-23T16:37:47.000Z</time>
      </trkpt>
      <trkpt lat="47.16504" lon="-1.45977">
        <ele>76</ele>
        <time>2021-08-23T16:37:49.000Z</time>
      </trkpt>
      <trkpt lat="47.16509" lon="-1.45991">
        <ele>77</ele>
        <time>2021-08-23T16:37:51.000Z</time>
      </trkpt>
      <trkpt lat="47.16513" lon="-1.46004">
        <ele>77</ele>
        <time>2021-08-23T16:37:53.000Z</time>
      </trkpt>
      <trkpt lat="47.16518" lon="-1.46017">
        <ele>78</ele>
        <time>2021-08-23T16:37:55.000Z</time>
      </trkpt>
      <trkpt lat="47.16525" lon="-1.46028">
        <ele>78</ele>
        <time>2021-08-23T16:37:57.000Z</time>
      </trkpt>
      <trkpt lat="47.16534" lon="-1.46035">
        <ele>79</ele>
        <time>2021-08-23T16:37:59.000Z</time>
      </trkpt>
      <trkpt lat="47.16543" lon="-1.46039">
        <ele>80</ele>
        <time>2021-08-23T16:38:01.000Z</time>
      </trkpt>
      <trkpt lat="47.1655" lon="-1.46048">
        <ele>81</ele>
        <time>2021-08-23T16:38:03.000Z</time>
      </trkpt>
      <trkpt lat="47.16555" lon="-1.46061">
        <ele>81</ele>
        <time>2021-08-23T16:38:05.000Z</time>
      </trkpt>
      <trkpt lat="47.16558" lon="-1.46073">
        <ele>81</ele>
        <time>2021-08-23T16:38:07.000Z</time>
      </trkpt>
      <trkpt lat="47.16561" lon="-1.46093">
        <ele>82</ele>
        <time>2021-08-23T16:38:10.000Z</time>
      </trkpt>
      <trkpt lat="47.16564" lon="-1.46108">
        <ele>82</ele>
        <time>2021-08-23T16:38:12.000Z</time>
      </trkpt>
      <trkpt lat="47.1657" lon="-1.46123">
        <ele>82</ele>
        <time>2021-08-23T16:38:14.000Z</time>
      </trkpt>
      <trkpt lat="47.16576" lon="-1.46139">
        <ele>82</ele>
        <time>2021-08-23T16:38:16.000Z</time>
      </trkpt>
      <trkpt lat="47.16583" lon="-1.46154">
        <ele>83</ele>
        <time>2021-08-23T16:38:18.000Z</time>
      </trkpt>
      <trkpt lat="47.1659" lon="-1.46169">
        <ele>83</ele>
        <time>2021-08-23T16:38:20.000Z</time>
      </trkpt>
      <trkpt lat="47.16598" lon="-1.46183">
        <ele>83</ele>
        <time>2021-08-23T16:38:22.000Z</time>
      </trkpt>
      <trkpt lat="47.16606" lon="-1.46197">
        <ele>83</ele>
        <time>2021-08-23T16:38:24.000Z</time>
      </trkpt>
      <trkpt lat="47.16617" lon="-1.46207">
        <ele>84</ele>
        <time>2021-08-23T16:38:26.000Z</time>
      </trkpt>
      <trkpt lat="47.16626" lon="-1.46219">
        <ele>84</ele>
        <time>2021-08-23T16:38:28.000Z</time>
      </trkpt>
      <trkpt lat="47.16628" lon="-1.46236">
        <ele>84</ele>
        <time>2021-08-23T16:38:30.000Z</time>
      </trkpt>
      <trkpt lat="47.16634" lon="-1.46253">
        <ele>84</ele>
        <time>2021-08-23T16:38:32.000Z</time>
      </trkpt>
      <trkpt lat="47.16641" lon="-1.46271">
        <ele>84</ele>
        <time>2021-08-23T16:38:34.000Z</time>
      </trkpt>
      <trkpt lat="47.16649" lon="-1.46287">
        <ele>84</ele>
        <time>2021-08-23T16:38:36.000Z</time>
      </trkpt>
      <trkpt lat="47.16657" lon="-1.46303">
        <ele>84</ele>
        <time>2021-08-23T16:38:38.000Z</time>
      </trkpt>
      <trkpt lat="47.16666" lon="-1.4632">
        <ele>84</ele>
        <time>2021-08-23T16:38:40.000Z</time>
      </trkpt>
      <trkpt lat="47.16675" lon="-1.46337">
        <ele>85</ele>
        <time>2021-08-23T16:38:42.000Z</time>
      </trkpt>
      <trkpt lat="47.16684" lon="-1.46354">
        <ele>84</ele>
        <time>2021-08-23T16:38:44.000Z</time>
      </trkpt>
      <trkpt lat="47.16693" lon="-1.4637">
        <ele>84</ele>
        <time>2021-08-23T16:38:46.000Z</time>
      </trkpt>
      <trkpt lat="47.16703" lon="-1.46387">
        <ele>84</ele>
        <time>2021-08-23T16:38:48.000Z</time>
      </trkpt>
      <trkpt lat="47.16713" lon="-1.46403">
        <ele>83</ele>
        <time>2021-08-23T16:38:50.000Z</time>
      </trkpt>
      <trkpt lat="47.16723" lon="-1.4642">
        <ele>83</ele>
        <time>2021-08-23T16:38:52.000Z</time>
      </trkpt>
      <trkpt lat="47.16733" lon="-1.46436">
        <ele>83</ele>
        <time>2021-08-23T16:38:54.000Z</time>
      </trkpt>
      <trkpt lat="47.16744" lon="-1.46452">
        <ele>82</ele>
        <time>2021-08-23T16:38:56.000Z</time>
      </trkpt>
      <trkpt lat="47.16755" lon="-1.46468">
        <ele>82</ele>
        <time>2021-08-23T16:38:58.000Z</time>
      </trkpt>
      <trkpt lat="47.16767" lon="-1.46484">
        <ele>81</ele>
        <time>2021-08-23T16:39:00.000Z</time>
      </trkpt>
      <trkpt lat="47.16778" lon="-1.46499">
        <ele>81</ele>
        <time>2021-08-23T16:39:02.000Z</time>
      </trkpt>
      <trkpt lat="47.1679" lon="-1.46514">
        <ele>80</ele>
        <time>2021-08-23T16:39:04.000Z</time>
      </trkpt>
      <trkpt lat="47.16802" lon="-1.46529">
        <ele>80</ele>
        <time>2021-08-23T16:39:06.000Z</time>
      </trkpt>
      <trkpt lat="47.16814" lon="-1.46543">
        <ele>79</ele>
        <time>2021-08-23T16:39:08.000Z</time>
      </trkpt>
      <trkpt lat="47.16827" lon="-1.46557">
        <ele>79</ele>
        <time>2021-08-23T16:39:10.000Z</time>
      </trkpt>
      <trkpt lat="47.1684" lon="-1.4657">
        <ele>79</ele>
        <time>2021-08-23T16:39:12.000Z</time>
      </trkpt>
      <trkpt lat="47.16852" lon="-1.46583">
        <ele>79</ele>
        <time>2021-08-23T16:39:14.000Z</time>
      </trkpt>
      <trkpt lat="47.16866" lon="-1.46594">
        <ele>78</ele>
        <time>2021-08-23T16:39:16.000Z</time>
      </trkpt>
      <trkpt lat="47.1688" lon="-1.46606">
        <ele>79</ele>
        <time>2021-08-23T16:39:18.000Z</time>
      </trkpt>
      <trkpt lat="47.16893" lon="-1.46617">
        <ele>79</ele>
        <time>2021-08-23T16:39:20.000Z</time>
      </trkpt>
      <trkpt lat="47.16907" lon="-1.46629">
        <ele>78</ele>
        <time>2021-08-23T16:39:22.000Z</time>
      </trkpt>
      <trkpt lat="47.1692" lon="-1.46639">
        <ele>78</ele>
        <time>2021-08-23T16:39:24.000Z</time>
      </trkpt>
      <trkpt lat="47.16933" lon="-1.46649">
        <ele>78</ele>
        <time>2021-08-23T16:39:26.000Z</time>
      </trkpt>
      <trkpt lat="47.16947" lon="-1.46658">
        <ele>78</ele>
        <time>2021-08-23T16:39:28.000Z</time>
      </trkpt>
      <trkpt lat="47.16961" lon="-1.46667">
        <ele>78</ele>
        <time>2021-08-23T16:39:30.000Z</time>
      </trkpt>
      <trkpt lat="47.16974" lon="-1.46674">
        <ele>78</ele>
        <time>2021-08-23T16:39:32.000Z</time>
      </trkpt>
      <trkpt lat="47.16985" lon="-1.46689">
        <ele>77</ele>
        <time>2021-08-23T16:39:34.000Z</time>
      </trkpt>
      <trkpt lat="47.16997" lon="-1.46703">
        <ele>76</ele>
        <time>2021-08-23T16:39:36.000Z</time>
      </trkpt>
      <trkpt lat="47.17012" lon="-1.46714">
        <ele>76</ele>
        <time>2021-08-23T16:39:38.000Z</time>
      </trkpt>
      <trkpt lat="47.17027" lon="-1.46726">
        <ele>75</ele>
        <time>2021-08-23T16:39:40.000Z</time>
      </trkpt>
      <trkpt lat="47.17042" lon="-1.46737">
        <ele>75</ele>
        <time>2021-08-23T16:39:42.000Z</time>
      </trkpt>
      <trkpt lat="47.17058" lon="-1.4675">
        <ele>75</ele>
        <time>2021-08-23T16:39:44.000Z</time>
      </trkpt>
      <trkpt lat="47.17072" lon="-1.46763">
        <ele>75</ele>
        <time>2021-08-23T16:39:46.000Z</time>
      </trkpt>
      <trkpt lat="47.17087" lon="-1.46779">
        <ele>74</ele>
        <time>2021-08-23T16:39:48.000Z</time>
      </trkpt>
      <trkpt lat="47.17102" lon="-1.46795">
        <ele>74</ele>
        <time>2021-08-23T16:39:50.000Z</time>
      </trkpt>
      <trkpt lat="47.17117" lon="-1.46808">
        <ele>72</ele>
        <time>2021-08-23T16:39:52.000Z</time>
      </trkpt>
      <trkpt lat="47.17126" lon="-1.46812">
        <ele>72</ele>
        <time>2021-08-23T16:39:53.000Z</time>
      </trkpt>
      <trkpt lat="47.17138" lon="-1.46829">
        <ele>71</ele>
        <time>2021-08-23T16:39:55.000Z</time>
      </trkpt>
      <trkpt lat="47.17149" lon="-1.46849">
        <ele>69</ele>
        <time>2021-08-23T16:39:57.000Z</time>
      </trkpt>
      <trkpt lat="47.1716" lon="-1.46867">
        <ele>69</ele>
        <time>2021-08-23T16:39:59.000Z</time>
      </trkpt>
      <trkpt lat="47.17171" lon="-1.46883">
        <ele>69</ele>
        <time>2021-08-23T16:40:01.000Z</time>
      </trkpt>
      <trkpt lat="47.17181" lon="-1.46901">
        <ele>68</ele>
        <time>2021-08-23T16:40:03.000Z</time>
      </trkpt>
      <trkpt lat="47.1719" lon="-1.46921">
        <ele>69</ele>
        <time>2021-08-23T16:40:05.000Z</time>
      </trkpt>
      <trkpt lat="47.17199" lon="-1.46941">
        <ele>68</ele>
        <time>2021-08-23T16:40:07.000Z</time>
      </trkpt>
      <trkpt lat="47.17209" lon="-1.46963">
        <ele>67</ele>
        <time>2021-08-23T16:40:09.000Z</time>
      </trkpt>
      <trkpt lat="47.17217" lon="-1.46985">
        <ele>68</ele>
        <time>2021-08-23T16:40:11.000Z</time>
      </trkpt>
      <trkpt lat="47.17226" lon="-1.47006">
        <ele>66</ele>
        <time>2021-08-23T16:40:13.000Z</time>
      </trkpt>
      <trkpt lat="47.17234" lon="-1.47027">
        <ele>66</ele>
        <time>2021-08-23T16:40:15.000Z</time>
      </trkpt>
      <trkpt lat="47.1724" lon="-1.47049">
        <ele>66</ele>
        <time>2021-08-23T16:40:17.000Z</time>
      </trkpt>
      <trkpt lat="47.17247" lon="-1.47072">
        <ele>65</ele>
        <time>2021-08-23T16:40:19.000Z</time>
      </trkpt>
      <trkpt lat="47.17253" lon="-1.47095">
        <ele>65</ele>
        <time>2021-08-23T16:40:21.000Z</time>
      </trkpt>
      <trkpt lat="47.17259" lon="-1.47118">
        <ele>65</ele>
        <time>2021-08-23T16:40:23.000Z</time>
      </trkpt>
      <trkpt lat="47.17264" lon="-1.47141">
        <ele>65</ele>
        <time>2021-08-23T16:40:25.000Z</time>
      </trkpt>
      <trkpt lat="47.17269" lon="-1.47165">
        <ele>64</ele>
        <time>2021-08-23T16:40:27.000Z</time>
      </trkpt>
      <trkpt lat="47.17274" lon="-1.47189">
        <ele>63</ele>
        <time>2021-08-23T16:40:29.000Z</time>
      </trkpt>
      <trkpt lat="47.17279" lon="-1.47212">
        <ele>63</ele>
        <time>2021-08-23T16:40:31.000Z</time>
      </trkpt>
      <trkpt lat="47.17283" lon="-1.47237">
        <ele>62</ele>
        <time>2021-08-23T16:40:33.000Z</time>
      </trkpt>
      <trkpt lat="47.17288" lon="-1.4726">
        <ele>61</ele>
        <time>2021-08-23T16:40:35.000Z</time>
      </trkpt>
      <trkpt lat="47.17292" lon="-1.47283">
        <ele>61</ele>
        <time>2021-08-23T16:40:37.000Z</time>
      </trkpt>
      <trkpt lat="47.17295" lon="-1.47306">
        <ele>60</ele>
        <time>2021-08-23T16:40:39.000Z</time>
      </trkpt>
      <trkpt lat="47.17299" lon="-1.47328">
        <ele>59</ele>
        <time>2021-08-23T16:40:41.000Z</time>
      </trkpt>
      <trkpt lat="47.17303" lon="-1.4735">
        <ele>59</ele>
        <time>2021-08-23T16:40:43.000Z</time>
      </trkpt>
      <trkpt lat="47.17313" lon="-1.47366">
        <ele>58</ele>
        <time>2021-08-23T16:40:45.000Z</time>
      </trkpt>
      <trkpt lat="47.17328" lon="-1.47369">
        <ele>58</ele>
        <time>2021-08-23T16:40:47.000Z</time>
      </trkpt>
      <trkpt lat="47.17344" lon="-1.47364">
        <ele>58</ele>
        <time>2021-08-23T16:40:49.000Z</time>
      </trkpt>
      <trkpt lat="47.17359" lon="-1.4736">
        <ele>58</ele>
        <time>2021-08-23T16:40:51.000Z</time>
      </trkpt>
      <trkpt lat="47.17374" lon="-1.47358">
        <ele>59</ele>
        <time>2021-08-23T16:40:53.000Z</time>
      </trkpt>
      <trkpt lat="47.17388" lon="-1.47356">
        <ele>59</ele>
        <time>2021-08-23T16:40:55.000Z</time>
      </trkpt>
      <trkpt lat="47.17403" lon="-1.47355">
        <ele>59</ele>
        <time>2021-08-23T16:40:57.000Z</time>
      </trkpt>
      <trkpt lat="47.17417" lon="-1.47353">
        <ele>59</ele>
        <time>2021-08-23T16:40:59.000Z</time>
      </trkpt>
      <trkpt lat="47.17431" lon="-1.47351">
        <ele>59</ele>
        <time>2021-08-23T16:41:01.000Z</time>
      </trkpt>
      <trkpt lat="47.17446" lon="-1.47351">
        <ele>58</ele>
        <time>2021-08-23T16:41:03.000Z</time>
      </trkpt>
      <trkpt lat="47.1746" lon="-1.47351">
        <ele>57</ele>
        <time>2021-08-23T16:41:05.000Z</time>
      </trkpt>
      <trkpt lat="47.17474" lon="-1.47351">
        <ele>57</ele>
        <time>2021-08-23T16:41:07.000Z</time>
      </trkpt>
      <trkpt lat="47.1749" lon="-1.47353">
        <ele>57</ele>
        <time>2021-08-23T16:41:09.000Z</time>
      </trkpt>
      <trkpt lat="47.17505" lon="-1.47353">
        <ele>57</ele>
        <time>2021-08-23T16:41:11.000Z</time>
      </trkpt>
      <trkpt lat="47.1752" lon="-1.47353">
        <ele>56</ele>
        <time>2021-08-23T16:41:13.000Z</time>
      </trkpt>
      <trkpt lat="47.17535" lon="-1.47353">
        <ele>56</ele>
        <time>2021-08-23T16:41:15.000Z</time>
      </trkpt>
      <trkpt lat="47.17551" lon="-1.47354">
        <ele>56</ele>
        <time>2021-08-23T16:41:17.000Z</time>
      </trkpt>
      <trkpt lat="47.17566" lon="-1.47355">
        <ele>56</ele>
        <time>2021-08-23T16:41:19.000Z</time>
      </trkpt>
      <trkpt lat="47.17581" lon="-1.47358">
        <ele>55</ele>
        <time>2021-08-23T16:41:21.000Z</time>
      </trkpt>
      <trkpt lat="47.17596" lon="-1.47362">
        <ele>55</ele>
        <time>2021-08-23T16:41:23.000Z</time>
      </trkpt>
      <trkpt lat="47.1761" lon="-1.47365">
        <ele>55</ele>
        <time>2021-08-23T16:41:25.000Z</time>
      </trkpt>
      <trkpt lat="47.17624" lon="-1.47368">
        <ele>55</ele>
        <time>2021-08-23T16:41:27.000Z</time>
      </trkpt>
      <trkpt lat="47.17637" lon="-1.47372">
        <ele>54</ele>
        <time>2021-08-23T16:41:29.000Z</time>
      </trkpt>
      <trkpt lat="47.17651" lon="-1.47378">
        <ele>55</ele>
        <time>2021-08-23T16:41:31.000Z</time>
      </trkpt>
      <trkpt lat="47.17664" lon="-1.47385">
        <ele>55</ele>
        <time>2021-08-23T16:41:33.000Z</time>
      </trkpt>
      <trkpt lat="47.17676" lon="-1.47392">
        <ele>55</ele>
        <time>2021-08-23T16:41:35.000Z</time>
      </trkpt>
      <trkpt lat="47.17688" lon="-1.47398">
        <ele>56</ele>
        <time>2021-08-23T16:41:37.000Z</time>
      </trkpt>
      <trkpt lat="47.17699" lon="-1.47404">
        <ele>56</ele>
        <time>2021-08-23T16:41:39.000Z</time>
      </trkpt>
      <trkpt lat="47.17711" lon="-1.47409">
        <ele>56</ele>
        <time>2021-08-23T16:41:41.000Z</time>
      </trkpt>
      <trkpt lat="47.17723" lon="-1.47414">
        <ele>56</ele>
        <time>2021-08-23T16:41:43.000Z</time>
      </trkpt>
      <trkpt lat="47.17735" lon="-1.4742">
        <ele>56</ele>
        <time>2021-08-23T16:41:45.000Z</time>
      </trkpt>
      <trkpt lat="47.17747" lon="-1.47426">
        <ele>56</ele>
        <time>2021-08-23T16:41:47.000Z</time>
      </trkpt>
      <trkpt lat="47.1776" lon="-1.47434">
        <ele>56</ele>
        <time>2021-08-23T16:41:49.000Z</time>
      </trkpt>
      <trkpt lat="47.17772" lon="-1.47441">
        <ele>56</ele>
        <time>2021-08-23T16:41:51.000Z</time>
      </trkpt>
      <trkpt lat="47.17785" lon="-1.47446">
        <ele>56</ele>
        <time>2021-08-23T16:41:53.000Z</time>
      </trkpt>
      <trkpt lat="47.17798" lon="-1.47452">
        <ele>56</ele>
        <time>2021-08-23T16:41:55.000Z</time>
      </trkpt>
      <trkpt lat="47.17812" lon="-1.47457">
        <ele>56</ele>
        <time>2021-08-23T16:41:57.000Z</time>
      </trkpt>
      <trkpt lat="47.17825" lon="-1.47461">
        <ele>56</ele>
        <time>2021-08-23T16:41:59.000Z</time>
      </trkpt>
      <trkpt lat="47.17839" lon="-1.47465">
        <ele>55</ele>
        <time>2021-08-23T16:42:01.000Z</time>
      </trkpt>
      <trkpt lat="47.17852" lon="-1.47469">
        <ele>56</ele>
        <time>2021-08-23T16:42:03.000Z</time>
      </trkpt>
      <trkpt lat="47.17865" lon="-1.47473">
        <ele>56</ele>
        <time>2021-08-23T16:42:05.000Z</time>
      </trkpt>
      <trkpt lat="47.17878" lon="-1.47475">
        <ele>56</ele>
        <time>2021-08-23T16:42:07.000Z</time>
      </trkpt>
      <trkpt lat="47.17891" lon="-1.47473">
        <ele>56</ele>
        <time>2021-08-23T16:42:09.000Z</time>
      </trkpt>
      <trkpt lat="47.17903" lon="-1.47466">
        <ele>57</ele>
        <time>2021-08-23T16:42:11.000Z</time>
      </trkpt>
      <trkpt lat="47.17916" lon="-1.47468">
        <ele>56</ele>
        <time>2021-08-23T16:42:13.000Z</time>
      </trkpt>
      <trkpt lat="47.17926" lon="-1.47479">
        <ele>56</ele>
        <time>2021-08-23T16:42:15.000Z</time>
      </trkpt>
      <trkpt lat="47.17937" lon="-1.4749">
        <ele>57</ele>
        <time>2021-08-23T16:42:17.000Z</time>
      </trkpt>
      <trkpt lat="47.17949" lon="-1.47493">
        <ele>57</ele>
        <time>2021-08-23T16:42:19.000Z</time>
      </trkpt>
      <trkpt lat="47.17961" lon="-1.47496">
        <ele>58</ele>
        <time>2021-08-23T16:42:21.000Z</time>
      </trkpt>
      <trkpt lat="47.17974" lon="-1.47499">
        <ele>58</ele>
        <time>2021-08-23T16:42:23.000Z</time>
      </trkpt>
      <trkpt lat="47.17986" lon="-1.47502">
        <ele>58</ele>
        <time>2021-08-23T16:42:25.000Z</time>
      </trkpt>
      <trkpt lat="47.17997" lon="-1.47505">
        <ele>57</ele>
        <time>2021-08-23T16:42:27.000Z</time>
      </trkpt>
      <trkpt lat="47.18009" lon="-1.47508">
        <ele>57</ele>
        <time>2021-08-23T16:42:29.000Z</time>
      </trkpt>
      <trkpt lat="47.18022" lon="-1.47511">
        <ele>57</ele>
        <time>2021-08-23T16:42:31.000Z</time>
      </trkpt>
      <trkpt lat="47.18034" lon="-1.47514">
        <ele>58</ele>
        <time>2021-08-23T16:42:33.000Z</time>
      </trkpt>
      <trkpt lat="47.18046" lon="-1.47517">
        <ele>57</ele>
        <time>2021-08-23T16:42:35.000Z</time>
      </trkpt>
      <trkpt lat="47.18059" lon="-1.47521">
        <ele>57</ele>
        <time>2021-08-23T16:42:37.000Z</time>
      </trkpt>
      <trkpt lat="47.18071" lon="-1.47524">
        <ele>57</ele>
        <time>2021-08-23T16:42:39.000Z</time>
      </trkpt>
      <trkpt lat="47.18083" lon="-1.47528">
        <ele>57</ele>
        <time>2021-08-23T16:42:41.000Z</time>
      </trkpt>
      <trkpt lat="47.18095" lon="-1.47531">
        <ele>57</ele>
        <time>2021-08-23T16:42:43.000Z</time>
      </trkpt>
      <trkpt lat="47.18106" lon="-1.47535">
        <ele>58</ele>
        <time>2021-08-23T16:42:45.000Z</time>
      </trkpt>
      <trkpt lat="47.18118" lon="-1.47538">
        <ele>57</ele>
        <time>2021-08-23T16:42:47.000Z</time>
      </trkpt>
      <trkpt lat="47.1813" lon="-1.47541">
        <ele>57</ele>
        <time>2021-08-23T16:42:49.000Z</time>
      </trkpt>
      <trkpt lat="47.18142" lon="-1.47544">
        <ele>57</ele>
        <time>2021-08-23T16:42:51.000Z</time>
      </trkpt>
      <trkpt lat="47.18153" lon="-1.47547">
        <ele>57</ele>
        <time>2021-08-23T16:42:53.000Z</time>
      </trkpt>
      <trkpt lat="47.18165" lon="-1.47549">
        <ele>58</ele>
        <time>2021-08-23T16:42:55.000Z</time>
      </trkpt>
      <trkpt lat="47.18175" lon="-1.47551">
        <ele>58</ele>
        <time>2021-08-23T16:42:57.000Z</time>
      </trkpt>
      <trkpt lat="47.18186" lon="-1.47554">
        <ele>59</ele>
        <time>2021-08-23T16:42:59.000Z</time>
      </trkpt>
      <trkpt lat="47.18196" lon="-1.47557">
        <ele>60</ele>
        <time>2021-08-23T16:43:01.000Z</time>
      </trkpt>
      <trkpt lat="47.18207" lon="-1.47561">
        <ele>60</ele>
        <time>2021-08-23T16:43:03.000Z</time>
      </trkpt>
      <trkpt lat="47.18218" lon="-1.47562">
        <ele>60</ele>
        <time>2021-08-23T16:43:05.000Z</time>
      </trkpt>
      <trkpt lat="47.18228" lon="-1.47565">
        <ele>60</ele>
        <time>2021-08-23T16:43:07.000Z</time>
      </trkpt>
      <trkpt lat="47.18239" lon="-1.47568">
        <ele>60</ele>
        <time>2021-08-23T16:43:09.000Z</time>
      </trkpt>
      <trkpt lat="47.1825" lon="-1.47571">
        <ele>60</ele>
        <time>2021-08-23T16:43:11.000Z</time>
      </trkpt>
      <trkpt lat="47.18261" lon="-1.47574">
        <ele>60</ele>
        <time>2021-08-23T16:43:13.000Z</time>
      </trkpt>
      <trkpt lat="47.18271" lon="-1.47576">
        <ele>60</ele>
        <time>2021-08-23T16:43:15.000Z</time>
      </trkpt>
      <trkpt lat="47.18282" lon="-1.47579">
        <ele>61</ele>
        <time>2021-08-23T16:43:17.000Z</time>
      </trkpt>
      <trkpt lat="47.18292" lon="-1.47584">
        <ele>61</ele>
        <time>2021-08-23T16:43:19.000Z</time>
      </trkpt>
      <trkpt lat="47.18302" lon="-1.47587">
        <ele>61</ele>
        <time>2021-08-23T16:43:21.000Z</time>
      </trkpt>
      <trkpt lat="47.18312" lon="-1.4759">
        <ele>62</ele>
        <time>2021-08-23T16:43:23.000Z</time>
      </trkpt>
      <trkpt lat="47.18322" lon="-1.47592">
        <ele>62</ele>
        <time>2021-08-23T16:43:25.000Z</time>
      </trkpt>
      <trkpt lat="47.18331" lon="-1.47595">
        <ele>62</ele>
        <time>2021-08-23T16:43:27.000Z</time>
      </trkpt>
      <trkpt lat="47.18341" lon="-1.47596">
        <ele>62</ele>
        <time>2021-08-23T16:43:29.000Z</time>
      </trkpt>
      <trkpt lat="47.1835" lon="-1.47598">
        <ele>62</ele>
        <time>2021-08-23T16:43:31.000Z</time>
      </trkpt>
      <trkpt lat="47.18362" lon="-1.47601">
        <ele>63</ele>
        <time>2021-08-23T16:43:34.000Z</time>
      </trkpt>
      <trkpt lat="47.18373" lon="-1.47603">
        <ele>63</ele>
        <time>2021-08-23T16:43:37.000Z</time>
      </trkpt>
      <trkpt lat="47.18384" lon="-1.47606">
        <ele>64</ele>
        <time>2021-08-23T16:43:41.000Z</time>
      </trkpt>
      <trkpt lat="47.18393" lon="-1.47608">
        <ele>64</ele>
        <time>2021-08-23T16:43:44.000Z</time>
      </trkpt>
      <trkpt lat="47.18404" lon="-1.4761">
        <ele>65</ele>
        <time>2021-08-23T16:43:47.000Z</time>
      </trkpt>
      <trkpt lat="47.18415" lon="-1.47614">
        <ele>66</ele>
        <time>2021-08-23T16:43:50.000Z</time>
      </trkpt>
      <trkpt lat="47.18427" lon="-1.47617">
        <ele>66</ele>
        <time>2021-08-23T16:43:53.000Z</time>
      </trkpt>
      <trkpt lat="47.1844" lon="-1.47621">
        <ele>66</ele>
        <time>2021-08-23T16:43:56.000Z</time>
      </trkpt>
      <trkpt lat="47.18453" lon="-1.47624">
        <ele>66</ele>
        <time>2021-08-23T16:43:59.000Z</time>
      </trkpt>
      <trkpt lat="47.18467" lon="-1.47627">
        <ele>67</ele>
        <time>2021-08-23T16:44:02.000Z</time>
      </trkpt>
      <trkpt lat="47.18476" lon="-1.4763">
        <ele>67</ele>
        <time>2021-08-23T16:44:04.000Z</time>
      </trkpt>
      <trkpt lat="47.18488" lon="-1.47634">
        <ele>69</ele>
        <time>2021-08-23T16:44:07.000Z</time>
      </trkpt>
      <trkpt lat="47.18501" lon="-1.47639">
        <ele>70</ele>
        <time>2021-08-23T16:44:10.000Z</time>
      </trkpt>
      <trkpt lat="47.18514" lon="-1.47642">
        <ele>71</ele>
        <time>2021-08-23T16:44:13.000Z</time>
      </trkpt>
      <trkpt lat="47.18527" lon="-1.47645">
        <ele>72</ele>
        <time>2021-08-23T16:44:16.000Z</time>
      </trkpt>
      <trkpt lat="47.18539" lon="-1.47647">
        <ele>73</ele>
        <time>2021-08-23T16:44:19.000Z</time>
      </trkpt>
      <trkpt lat="47.18552" lon="-1.47651">
        <ele>74</ele>
        <time>2021-08-23T16:44:22.000Z</time>
      </trkpt>
      <trkpt lat="47.18565" lon="-1.47655">
        <ele>74</ele>
        <time>2021-08-23T16:44:25.000Z</time>
      </trkpt>
      <trkpt lat="47.18578" lon="-1.47659">
        <ele>75</ele>
        <time>2021-08-23T16:44:28.000Z</time>
      </trkpt>
      <trkpt lat="47.18591" lon="-1.47664">
        <ele>75</ele>
        <time>2021-08-23T16:44:31.000Z</time>
      </trkpt>
      <trkpt lat="47.186" lon="-1.47667">
        <ele>75</ele>
        <time>2021-08-23T16:44:33.000Z</time>
      </trkpt>
      <trkpt lat="47.18609" lon="-1.47669">
        <ele>75</ele>
        <time>2021-08-23T16:44:35.000Z</time>
      </trkpt>
      <trkpt lat="47.18622" lon="-1.47673">
        <ele>75</ele>
        <time>2021-08-23T16:44:38.000Z</time>
      </trkpt>
      <trkpt lat="47.18632" lon="-1.47674">
        <ele>75</ele>
        <time>2021-08-23T16:44:40.000Z</time>
      </trkpt>
      <trkpt lat="47.18644" lon="-1.47677">
        <ele>76</ele>
        <time>2021-08-23T16:44:43.000Z</time>
      </trkpt>
      <trkpt lat="47.18657" lon="-1.4768">
        <ele>76</ele>
        <time>2021-08-23T16:44:46.000Z</time>
      </trkpt>
      <trkpt lat="47.18667" lon="-1.47683">
        <ele>77</ele>
        <time>2021-08-23T16:44:49.000Z</time>
      </trkpt>
      <trkpt lat="47.18677" lon="-1.47684">
        <ele>77</ele>
        <time>2021-08-23T16:44:54.000Z</time>
      </trkpt>
      <trkpt lat="47.18687" lon="-1.47684">
        <ele>78</ele>
        <time>2021-08-23T16:45:33.000Z</time>
      </trkpt>
      <trkpt lat="47.187" lon="-1.47682">
        <ele>79</ele>
        <time>2021-08-23T16:45:36.000Z</time>
      </trkpt>
      <trkpt lat="47.18709" lon="-1.47678">
        <ele>79</ele>
        <time>2021-08-23T16:45:38.000Z</time>
      </trkpt>
      <trkpt lat="47.18715" lon="-1.47667">
        <ele>79</ele>
        <time>2021-08-23T16:45:40.000Z</time>
      </trkpt>
      <trkpt lat="47.18721" lon="-1.47653">
        <ele>80</ele>
        <time>2021-08-23T16:45:42.000Z</time>
      </trkpt>
      <trkpt lat="47.18726" lon="-1.47639">
        <ele>80</ele>
        <time>2021-08-23T16:45:44.000Z</time>
      </trkpt>
      <trkpt lat="47.18731" lon="-1.47626">
        <ele>80</ele>
        <time>2021-08-23T16:45:46.000Z</time>
      </trkpt>
      <trkpt lat="47.18737" lon="-1.47613">
        <ele>80</ele>
        <time>2021-08-23T16:45:48.000Z</time>
      </trkpt>
      <trkpt lat="47.18744" lon="-1.47599">
        <ele>80</ele>
        <time>2021-08-23T16:45:50.000Z</time>
      </trkpt>
      <trkpt lat="47.18751" lon="-1.47586">
        <ele>80</ele>
        <time>2021-08-23T16:45:52.000Z</time>
      </trkpt>
      <trkpt lat="47.18757" lon="-1.47573">
        <ele>80</ele>
        <time>2021-08-23T16:45:54.000Z</time>
      </trkpt>
      <trkpt lat="47.18763" lon="-1.4756">
        <ele>81</ele>
        <time>2021-08-23T16:45:56.000Z</time>
      </trkpt>
      <trkpt lat="47.1877" lon="-1.47547">
        <ele>80</ele>
        <time>2021-08-23T16:45:58.000Z</time>
      </trkpt>
      <trkpt lat="47.18776" lon="-1.47533">
        <ele>80</ele>
        <time>2021-08-23T16:46:00.000Z</time>
      </trkpt>
      <trkpt lat="47.18783" lon="-1.47519">
        <ele>80</ele>
        <time>2021-08-23T16:46:02.000Z</time>
      </trkpt>
      <trkpt lat="47.18789" lon="-1.47506">
        <ele>79</ele>
        <time>2021-08-23T16:46:04.000Z</time>
      </trkpt>
      <trkpt lat="47.18796" lon="-1.47493">
        <ele>80</ele>
        <time>2021-08-23T16:46:06.000Z</time>
      </trkpt>
      <trkpt lat="47.18802" lon="-1.47479">
        <ele>80</ele>
        <time>2021-08-23T16:46:08.000Z</time>
      </trkpt>
      <trkpt lat="47.18808" lon="-1.47466">
        <ele>80</ele>
        <time>2021-08-23T16:46:10.000Z</time>
      </trkpt>
      <trkpt lat="47.18814" lon="-1.47453">
        <ele>81</ele>
        <time>2021-08-23T16:46:12.000Z</time>
      </trkpt>
      <trkpt lat="47.18821" lon="-1.4744">
        <ele>81</ele>
        <time>2021-08-23T16:46:14.000Z</time>
      </trkpt>
      <trkpt lat="47.18827" lon="-1.47426">
        <ele>81</ele>
        <time>2021-08-23T16:46:16.000Z</time>
      </trkpt>
      <trkpt lat="47.18834" lon="-1.47413">
        <ele>81</ele>
        <time>2021-08-23T16:46:18.000Z</time>
      </trkpt>
      <trkpt lat="47.1884" lon="-1.474">
        <ele>81</ele>
        <time>2021-08-23T16:46:20.000Z</time>
      </trkpt>
      <trkpt lat="47.18847" lon="-1.47387">
        <ele>81</ele>
        <time>2021-08-23T16:46:22.000Z</time>
      </trkpt>
      <trkpt lat="47.18853" lon="-1.47374">
        <ele>82</ele>
        <time>2021-08-23T16:46:24.000Z</time>
      </trkpt>
      <trkpt lat="47.1886" lon="-1.47361">
        <ele>82</ele>
        <time>2021-08-23T16:46:26.000Z</time>
      </trkpt>
      <trkpt lat="47.18866" lon="-1.47348">
        <ele>82</ele>
        <time>2021-08-23T16:46:28.000Z</time>
      </trkpt>
      <trkpt lat="47.18872" lon="-1.47334">
        <ele>82</ele>
        <time>2021-08-23T16:46:30.000Z</time>
      </trkpt>
      <trkpt lat="47.18877" lon="-1.47321">
        <ele>82</ele>
        <time>2021-08-23T16:46:32.000Z</time>
      </trkpt>
      <trkpt lat="47.18883" lon="-1.47309">
        <ele>83</ele>
        <time>2021-08-23T16:46:34.000Z</time>
      </trkpt>
      <trkpt lat="47.18889" lon="-1.47296">
        <ele>83</ele>
        <time>2021-08-23T16:46:36.000Z</time>
      </trkpt>
      <trkpt lat="47.18895" lon="-1.47283">
        <ele>84</ele>
        <time>2021-08-23T16:46:38.000Z</time>
      </trkpt>
      <trkpt lat="47.18902" lon="-1.47271">
        <ele>83</ele>
        <time>2021-08-23T16:46:40.000Z</time>
      </trkpt>
      <trkpt lat="47.18908" lon="-1.47259">
        <ele>84</ele>
        <time>2021-08-23T16:46:42.000Z</time>
      </trkpt>
      <trkpt lat="47.18914" lon="-1.47246">
        <ele>84</ele>
        <time>2021-08-23T16:46:44.000Z</time>
      </trkpt>
      <trkpt lat="47.1892" lon="-1.47234">
        <ele>84</ele>
        <time>2021-08-23T16:46:46.000Z</time>
      </trkpt>
      <trkpt lat="47.18927" lon="-1.4722">
        <ele>84</ele>
        <time>2021-08-23T16:46:49.000Z</time>
      </trkpt>
      <trkpt lat="47.18931" lon="-1.47202">
        <ele>85</ele>
        <time>2021-08-23T16:46:53.000Z</time>
      </trkpt>
      <trkpt lat="47.18932" lon="-1.47188">
        <ele>85</ele>
        <time>2021-08-23T16:46:55.000Z</time>
      </trkpt>
      <trkpt lat="47.18936" lon="-1.47175">
        <ele>86</ele>
        <time>2021-08-23T16:46:57.000Z</time>
      </trkpt>
      <trkpt lat="47.18945" lon="-1.47166">
        <ele>87</ele>
        <time>2021-08-23T16:46:59.000Z</time>
      </trkpt>
      <trkpt lat="47.18954" lon="-1.47156">
        <ele>87</ele>
        <time>2021-08-23T16:47:01.000Z</time>
      </trkpt>
      <trkpt lat="47.18961" lon="-1.47144">
        <ele>87</ele>
        <time>2021-08-23T16:47:03.000Z</time>
      </trkpt>
      <trkpt lat="47.18968" lon="-1.47131">
        <ele>87</ele>
        <time>2021-08-23T16:47:05.000Z</time>
      </trkpt>
      <trkpt lat="47.18975" lon="-1.47117">
        <ele>87</ele>
        <time>2021-08-23T16:47:07.000Z</time>
      </trkpt>
      <trkpt lat="47.18982" lon="-1.47102">
        <ele>87</ele>
        <time>2021-08-23T16:47:09.000Z</time>
      </trkpt>
      <trkpt lat="47.1899" lon="-1.47086">
        <ele>86</ele>
        <time>2021-08-23T16:47:11.000Z</time>
      </trkpt>
      <trkpt lat="47.18998" lon="-1.47069">
        <ele>86</ele>
        <time>2021-08-23T16:47:13.000Z</time>
      </trkpt>
      <trkpt lat="47.19006" lon="-1.47052">
        <ele>85</ele>
        <time>2021-08-23T16:47:15.000Z</time>
      </trkpt>
      <trkpt lat="47.19017" lon="-1.47028">
        <ele>84</ele>
        <time>2021-08-23T16:47:18.000Z</time>
      </trkpt>
      <trkpt lat="47.19025" lon="-1.47012">
        <ele>83</ele>
        <time>2021-08-23T16:47:20.000Z</time>
      </trkpt>
      <trkpt lat="47.19032" lon="-1.46996">
        <ele>83</ele>
        <time>2021-08-23T16:47:22.000Z</time>
      </trkpt>
      <trkpt lat="47.1904" lon="-1.46981">
        <ele>82</ele>
        <time>2021-08-23T16:47:24.000Z</time>
      </trkpt>
      <trkpt lat="47.19047" lon="-1.46965">
        <ele>82</ele>
        <time>2021-08-23T16:47:26.000Z</time>
      </trkpt>
      <trkpt lat="47.19058" lon="-1.46942">
        <ele>81</ele>
        <time>2021-08-23T16:47:29.000Z</time>
      </trkpt>
      <trkpt lat="47.19069" lon="-1.46919">
        <ele>81</ele>
        <time>2021-08-23T16:47:32.000Z</time>
      </trkpt>
      <trkpt lat="47.19077" lon="-1.46903">
        <ele>81</ele>
        <time>2021-08-23T16:47:34.000Z</time>
      </trkpt>
      <trkpt lat="47.19084" lon="-1.46889">
        <ele>82</ele>
        <time>2021-08-23T16:47:36.000Z</time>
      </trkpt>
      <trkpt lat="47.19091" lon="-1.46875">
        <ele>81</ele>
        <time>2021-08-23T16:47:38.000Z</time>
      </trkpt>
      <trkpt lat="47.19098" lon="-1.4686">
        <ele>81</ele>
        <time>2021-08-23T16:47:40.000Z</time>
      </trkpt>
      <trkpt lat="47.19105" lon="-1.46844">
        <ele>80</ele>
        <time>2021-08-23T16:47:42.000Z</time>
      </trkpt>
      <trkpt lat="47.19112" lon="-1.4683">
        <ele>79</ele>
        <time>2021-08-23T16:47:44.000Z</time>
      </trkpt>
      <trkpt lat="47.19119" lon="-1.46816">
        <ele>79</ele>
        <time>2021-08-23T16:47:46.000Z</time>
      </trkpt>
      <trkpt lat="47.19126" lon="-1.46801">
        <ele>79</ele>
        <time>2021-08-23T16:47:48.000Z</time>
      </trkpt>
      <trkpt lat="47.19133" lon="-1.46786">
        <ele>79</ele>
        <time>2021-08-23T16:47:50.000Z</time>
      </trkpt>
      <trkpt lat="47.1914" lon="-1.46772">
        <ele>79</ele>
        <time>2021-08-23T16:47:52.000Z</time>
      </trkpt>
      <trkpt lat="47.19147" lon="-1.46759">
        <ele>80</ele>
        <time>2021-08-23T16:47:54.000Z</time>
      </trkpt>
      <trkpt lat="47.19153" lon="-1.46744">
        <ele>79</ele>
        <time>2021-08-23T16:47:56.000Z</time>
      </trkpt>
      <trkpt lat="47.1916" lon="-1.4673">
        <ele>79</ele>
        <time>2021-08-23T16:47:58.000Z</time>
      </trkpt>
      <trkpt lat="47.19168" lon="-1.46716">
        <ele>79</ele>
        <time>2021-08-23T16:48:00.000Z</time>
      </trkpt>
      <trkpt lat="47.19174" lon="-1.46701">
        <ele>79</ele>
        <time>2021-08-23T16:48:02.000Z</time>
      </trkpt>
      <trkpt lat="47.19181" lon="-1.46688">
        <ele>80</ele>
        <time>2021-08-23T16:48:04.000Z</time>
      </trkpt>
      <trkpt lat="47.19187" lon="-1.46674">
        <ele>80</ele>
        <time>2021-08-23T16:48:06.000Z</time>
      </trkpt>
      <trkpt lat="47.19193" lon="-1.4666">
        <ele>79</ele>
        <time>2021-08-23T16:48:08.000Z</time>
      </trkpt>
      <trkpt lat="47.192" lon="-1.46647">
        <ele>80</ele>
        <time>2021-08-23T16:48:10.000Z</time>
      </trkpt>
      <trkpt lat="47.19206" lon="-1.46633">
        <ele>80</ele>
        <time>2021-08-23T16:48:12.000Z</time>
      </trkpt>
      <trkpt lat="47.19212" lon="-1.4662">
        <ele>81</ele>
        <time>2021-08-23T16:48:14.000Z</time>
      </trkpt>
      <trkpt lat="47.19218" lon="-1.46607">
        <ele>81</ele>
        <time>2021-08-23T16:48:16.000Z</time>
      </trkpt>
      <trkpt lat="47.19225" lon="-1.46592">
        <ele>81</ele>
        <time>2021-08-23T16:48:18.000Z</time>
      </trkpt>
      <trkpt lat="47.19232" lon="-1.46578">
        <ele>81</ele>
        <time>2021-08-23T16:48:20.000Z</time>
      </trkpt>
      <trkpt lat="47.19239" lon="-1.46563">
        <ele>81</ele>
        <time>2021-08-23T16:48:22.000Z</time>
      </trkpt>
      <trkpt lat="47.19245" lon="-1.46549">
        <ele>81</ele>
        <time>2021-08-23T16:48:24.000Z</time>
      </trkpt>
      <trkpt lat="47.19252" lon="-1.46534">
        <ele>81</ele>
        <time>2021-08-23T16:48:26.000Z</time>
      </trkpt>
      <trkpt lat="47.19259" lon="-1.4652">
        <ele>80</ele>
        <time>2021-08-23T16:48:28.000Z</time>
      </trkpt>
      <trkpt lat="47.19266" lon="-1.46506">
        <ele>80</ele>
        <time>2021-08-23T16:48:30.000Z</time>
      </trkpt>
      <trkpt lat="47.19273" lon="-1.46492">
        <ele>80</ele>
        <time>2021-08-23T16:48:32.000Z</time>
      </trkpt>
      <trkpt lat="47.1928" lon="-1.46477">
        <ele>80</ele>
        <time>2021-08-23T16:48:34.000Z</time>
      </trkpt>
      <trkpt lat="47.19287" lon="-1.46463">
        <ele>81</ele>
        <time>2021-08-23T16:48:36.000Z</time>
      </trkpt>
      <trkpt lat="47.19294" lon="-1.46449">
        <ele>81</ele>
        <time>2021-08-23T16:48:38.000Z</time>
      </trkpt>
      <trkpt lat="47.19301" lon="-1.46434">
        <ele>81</ele>
        <time>2021-08-23T16:48:40.000Z</time>
      </trkpt>
      <trkpt lat="47.19307" lon="-1.4642">
        <ele>81</ele>
        <time>2021-08-23T16:48:42.000Z</time>
      </trkpt>
      <trkpt lat="47.19314" lon="-1.46406">
        <ele>81</ele>
        <time>2021-08-23T16:48:44.000Z</time>
      </trkpt>
      <trkpt lat="47.19321" lon="-1.46391">
        <ele>81</ele>
        <time>2021-08-23T16:48:46.000Z</time>
      </trkpt>
      <trkpt lat="47.19328" lon="-1.46376">
        <ele>81</ele>
        <time>2021-08-23T16:48:48.000Z</time>
      </trkpt>
      <trkpt lat="47.19334" lon="-1.4636">
        <ele>81</ele>
        <time>2021-08-23T16:48:50.000Z</time>
      </trkpt>
      <trkpt lat="47.1934" lon="-1.46346">
        <ele>81</ele>
        <time>2021-08-23T16:48:52.000Z</time>
      </trkpt>
      <trkpt lat="47.19346" lon="-1.46331">
        <ele>81</ele>
        <time>2021-08-23T16:48:54.000Z</time>
      </trkpt>
      <trkpt lat="47.19352" lon="-1.46319">
        <ele>81</ele>
        <time>2021-08-23T16:48:56.000Z</time>
      </trkpt>
      <trkpt lat="47.19356" lon="-1.46304">
        <ele>81</ele>
        <time>2021-08-23T16:48:58.000Z</time>
      </trkpt>
      <trkpt lat="47.19363" lon="-1.4629">
        <ele>80</ele>
        <time>2021-08-23T16:49:00.000Z</time>
      </trkpt>
      <trkpt lat="47.19374" lon="-1.46291">
        <ele>79</ele>
        <time>2021-08-23T16:49:02.000Z</time>
      </trkpt>
      <trkpt lat="47.19384" lon="-1.46302">
        <ele>79</ele>
        <time>2021-08-23T16:49:04.000Z</time>
      </trkpt>
      <trkpt lat="47.19394" lon="-1.46314">
        <ele>78</ele>
        <time>2021-08-23T16:49:06.000Z</time>
      </trkpt>
      <trkpt lat="47.19405" lon="-1.46322">
        <ele>77</ele>
        <time>2021-08-23T16:49:08.000Z</time>
      </trkpt>
      <trkpt lat="47.19417" lon="-1.46327">
        <ele>77</ele>
        <time>2021-08-23T16:49:10.000Z</time>
      </trkpt>
      <trkpt lat="47.19428" lon="-1.46333">
        <ele>77</ele>
        <time>2021-08-23T16:49:12.000Z</time>
      </trkpt>
      <trkpt lat="47.1944" lon="-1.46339">
        <ele>78</ele>
        <time>2021-08-23T16:49:14.000Z</time>
      </trkpt>
      <trkpt lat="47.19452" lon="-1.46345">
        <ele>77</ele>
        <time>2021-08-23T16:49:16.000Z</time>
      </trkpt>
      <trkpt lat="47.19464" lon="-1.46351">
        <ele>77</ele>
        <time>2021-08-23T16:49:18.000Z</time>
      </trkpt>
      <trkpt lat="47.19476" lon="-1.46356">
        <ele>77</ele>
        <time>2021-08-23T16:49:20.000Z</time>
      </trkpt>
      <trkpt lat="47.19489" lon="-1.46362">
        <ele>76</ele>
        <time>2021-08-23T16:49:22.000Z</time>
      </trkpt>
      <trkpt lat="47.19502" lon="-1.46368">
        <ele>76</ele>
        <time>2021-08-23T16:49:24.000Z</time>
      </trkpt>
      <trkpt lat="47.19514" lon="-1.46374">
        <ele>76</ele>
        <time>2021-08-23T16:49:26.000Z</time>
      </trkpt>
      <trkpt lat="47.19527" lon="-1.4638">
        <ele>77</ele>
        <time>2021-08-23T16:49:28.000Z</time>
      </trkpt>
      <trkpt lat="47.19539" lon="-1.46386">
        <ele>76</ele>
        <time>2021-08-23T16:49:30.000Z</time>
      </trkpt>
      <trkpt lat="47.19551" lon="-1.46392">
        <ele>77</ele>
        <time>2021-08-23T16:49:32.000Z</time>
      </trkpt>
      <trkpt lat="47.19563" lon="-1.46398">
        <ele>76</ele>
        <time>2021-08-23T16:49:34.000Z</time>
      </trkpt>
      <trkpt lat="47.19576" lon="-1.46404">
        <ele>77</ele>
        <time>2021-08-23T16:49:36.000Z</time>
      </trkpt>
      <trkpt lat="47.19588" lon="-1.46411">
        <ele>77</ele>
        <time>2021-08-23T16:49:38.000Z</time>
      </trkpt>
      <trkpt lat="47.19601" lon="-1.46417">
        <ele>77</ele>
        <time>2021-08-23T16:49:40.000Z</time>
      </trkpt>
      <trkpt lat="47.19614" lon="-1.46423">
        <ele>76</ele>
        <time>2021-08-23T16:49:42.000Z</time>
      </trkpt>
      <trkpt lat="47.19627" lon="-1.46429">
        <ele>76</ele>
        <time>2021-08-23T16:49:44.000Z</time>
      </trkpt>
      <trkpt lat="47.1964" lon="-1.46435">
        <ele>76</ele>
        <time>2021-08-23T16:49:46.000Z</time>
      </trkpt>
      <trkpt lat="47.19652" lon="-1.46441">
        <ele>76</ele>
        <time>2021-08-23T16:49:48.000Z</time>
      </trkpt>
      <trkpt lat="47.19665" lon="-1.46447">
        <ele>76</ele>
        <time>2021-08-23T16:49:50.000Z</time>
      </trkpt>
      <trkpt lat="47.19678" lon="-1.46454">
        <ele>76</ele>
        <time>2021-08-23T16:49:52.000Z</time>
      </trkpt>
      <trkpt lat="47.19692" lon="-1.46461">
        <ele>76</ele>
        <time>2021-08-23T16:49:54.000Z</time>
      </trkpt>
      <trkpt lat="47.19706" lon="-1.46467">
        <ele>76</ele>
        <time>2021-08-23T16:49:56.000Z</time>
      </trkpt>
      <trkpt lat="47.1972" lon="-1.46474">
        <ele>76</ele>
        <time>2021-08-23T16:49:58.000Z</time>
      </trkpt>
      <trkpt lat="47.19734" lon="-1.46481">
        <ele>76</ele>
        <time>2021-08-23T16:50:00.000Z</time>
      </trkpt>
      <trkpt lat="47.19747" lon="-1.46487">
        <ele>76</ele>
        <time>2021-08-23T16:50:02.000Z</time>
      </trkpt>
      <trkpt lat="47.19761" lon="-1.46493">
        <ele>75</ele>
        <time>2021-08-23T16:50:04.000Z</time>
      </trkpt>
      <trkpt lat="47.19774" lon="-1.465">
        <ele>75</ele>
        <time>2021-08-23T16:50:06.000Z</time>
      </trkpt>
      <trkpt lat="47.19787" lon="-1.46506">
        <ele>76</ele>
        <time>2021-08-23T16:50:08.000Z</time>
      </trkpt>
      <trkpt lat="47.19801" lon="-1.46512">
        <ele>75</ele>
        <time>2021-08-23T16:50:10.000Z</time>
      </trkpt>
      <trkpt lat="47.19815" lon="-1.46519">
        <ele>75</ele>
        <time>2021-08-23T16:50:12.000Z</time>
      </trkpt>
      <trkpt lat="47.19828" lon="-1.46525">
        <ele>75</ele>
        <time>2021-08-23T16:50:14.000Z</time>
      </trkpt>
      <trkpt lat="47.19842" lon="-1.46531">
        <ele>74</ele>
        <time>2021-08-23T16:50:16.000Z</time>
      </trkpt>
      <trkpt lat="47.19855" lon="-1.46538">
        <ele>74</ele>
        <time>2021-08-23T16:50:18.000Z</time>
      </trkpt>
      <trkpt lat="47.19868" lon="-1.46544">
        <ele>73</ele>
        <time>2021-08-23T16:50:20.000Z</time>
      </trkpt>
      <trkpt lat="47.19882" lon="-1.4655">
        <ele>74</ele>
        <time>2021-08-23T16:50:22.000Z</time>
      </trkpt>
      <trkpt lat="47.19896" lon="-1.46556">
        <ele>73</ele>
        <time>2021-08-23T16:50:24.000Z</time>
      </trkpt>
      <trkpt lat="47.19909" lon="-1.46563">
        <ele>72</ele>
        <time>2021-08-23T16:50:26.000Z</time>
      </trkpt>
      <trkpt lat="47.19923" lon="-1.46569">
        <ele>72</ele>
        <time>2021-08-23T16:50:28.000Z</time>
      </trkpt>
      <trkpt lat="47.19937" lon="-1.46575">
        <ele>71</ele>
        <time>2021-08-23T16:50:30.000Z</time>
      </trkpt>
      <trkpt lat="47.19951" lon="-1.46581">
        <ele>70</ele>
        <time>2021-08-23T16:50:32.000Z</time>
      </trkpt>
      <trkpt lat="47.19964" lon="-1.46586">
        <ele>69</ele>
        <time>2021-08-23T16:50:34.000Z</time>
      </trkpt>
      <trkpt lat="47.19978" lon="-1.46592">
        <ele>69</ele>
        <time>2021-08-23T16:50:36.000Z</time>
      </trkpt>
      <trkpt lat="47.19991" lon="-1.46598">
        <ele>69</ele>
        <time>2021-08-23T16:50:38.000Z</time>
      </trkpt>
      <trkpt lat="47.20005" lon="-1.46605">
        <ele>69</ele>
        <time>2021-08-23T16:50:40.000Z</time>
      </trkpt>
      <trkpt lat="47.20019" lon="-1.4661">
        <ele>69</ele>
        <time>2021-08-23T16:50:42.000Z</time>
      </trkpt>
      <trkpt lat="47.20033" lon="-1.46616">
        <ele>69</ele>
        <time>2021-08-23T16:50:44.000Z</time>
      </trkpt>
      <trkpt lat="47.20046" lon="-1.46622">
        <ele>70</ele>
        <time>2021-08-23T16:50:46.000Z</time>
      </trkpt>
      <trkpt lat="47.2006" lon="-1.46628">
        <ele>70</ele>
        <time>2021-08-23T16:50:48.000Z</time>
      </trkpt>
      <trkpt lat="47.20074" lon="-1.46634">
        <ele>70</ele>
        <time>2021-08-23T16:50:50.000Z</time>
      </trkpt>
      <trkpt lat="47.20087" lon="-1.4664">
        <ele>71</ele>
        <time>2021-08-23T16:50:52.000Z</time>
      </trkpt>
      <trkpt lat="47.20101" lon="-1.46646">
        <ele>71</ele>
        <time>2021-08-23T16:50:54.000Z</time>
      </trkpt>
      <trkpt lat="47.20114" lon="-1.46654">
        <ele>71</ele>
        <time>2021-08-23T16:50:56.000Z</time>
      </trkpt>
      <trkpt lat="47.20127" lon="-1.46661">
        <ele>70</ele>
        <time>2021-08-23T16:50:58.000Z</time>
      </trkpt>
      <trkpt lat="47.2014" lon="-1.46669">
        <ele>70</ele>
        <time>2021-08-23T16:51:00.000Z</time>
      </trkpt>
      <trkpt lat="47.20154" lon="-1.46671">
        <ele>70</ele>
        <time>2021-08-23T16:51:02.000Z</time>
      </trkpt>
      <trkpt lat="47.20167" lon="-1.46672">
        <ele>70</ele>
        <time>2021-08-23T16:51:04.000Z</time>
      </trkpt>
      <trkpt lat="47.2018" lon="-1.46675">
        <ele>69</ele>
        <time>2021-08-23T16:51:06.000Z</time>
      </trkpt>
      <trkpt lat="47.20193" lon="-1.46679">
        <ele>69</ele>
        <time>2021-08-23T16:51:08.000Z</time>
      </trkpt>
      <trkpt lat="47.20207" lon="-1.46683">
        <ele>69</ele>
        <time>2021-08-23T16:51:10.000Z</time>
      </trkpt>
      <trkpt lat="47.2022" lon="-1.46687">
        <ele>69</ele>
        <time>2021-08-23T16:51:12.000Z</time>
      </trkpt>
      <trkpt lat="47.20233" lon="-1.46688">
        <ele>68</ele>
        <time>2021-08-23T16:51:14.000Z</time>
      </trkpt>
      <trkpt lat="47.20246" lon="-1.46693">
        <ele>67</ele>
        <time>2021-08-23T16:51:16.000Z</time>
      </trkpt>
      <trkpt lat="47.20259" lon="-1.46697">
        <ele>66</ele>
        <time>2021-08-23T16:51:18.000Z</time>
      </trkpt>
      <trkpt lat="47.20272" lon="-1.46699">
        <ele>66</ele>
        <time>2021-08-23T16:51:20.000Z</time>
      </trkpt>
      <trkpt lat="47.20286" lon="-1.467">
        <ele>66</ele>
        <time>2021-08-23T16:51:22.000Z</time>
      </trkpt>
      <trkpt lat="47.20299" lon="-1.46702">
        <ele>66</ele>
        <time>2021-08-23T16:51:24.000Z</time>
      </trkpt>
      <trkpt lat="47.20312" lon="-1.46705">
        <ele>66</ele>
        <time>2021-08-23T16:51:26.000Z</time>
      </trkpt>
      <trkpt lat="47.20326" lon="-1.46707">
        <ele>66</ele>
        <time>2021-08-23T16:51:28.000Z</time>
      </trkpt>
      <trkpt lat="47.20339" lon="-1.46709">
        <ele>66</ele>
        <time>2021-08-23T16:51:30.000Z</time>
      </trkpt>
      <trkpt lat="47.20352" lon="-1.46711">
        <ele>66</ele>
        <time>2021-08-23T16:51:32.000Z</time>
      </trkpt>
      <trkpt lat="47.20365" lon="-1.46712">
        <ele>66</ele>
        <time>2021-08-23T16:51:34.000Z</time>
      </trkpt>
      <trkpt lat="47.20378" lon="-1.46714">
        <ele>66</ele>
        <time>2021-08-23T16:51:36.000Z</time>
      </trkpt>
      <trkpt lat="47.2039" lon="-1.46716">
        <ele>67</ele>
        <time>2021-08-23T16:51:38.000Z</time>
      </trkpt>
      <trkpt lat="47.20403" lon="-1.46718">
        <ele>67</ele>
        <time>2021-08-23T16:51:40.000Z</time>
      </trkpt>
      <trkpt lat="47.20416" lon="-1.4672">
        <ele>68</ele>
        <time>2021-08-23T16:51:42.000Z</time>
      </trkpt>
      <trkpt lat="47.20429" lon="-1.46722">
        <ele>68</ele>
        <time>2021-08-23T16:51:44.000Z</time>
      </trkpt>
      <trkpt lat="47.20441" lon="-1.46724">
        <ele>68</ele>
        <time>2021-08-23T16:51:46.000Z</time>
      </trkpt>
      <trkpt lat="47.20453" lon="-1.46727">
        <ele>69</ele>
        <time>2021-08-23T16:51:48.000Z</time>
      </trkpt>
      <trkpt lat="47.20465" lon="-1.46729">
        <ele>69</ele>
        <time>2021-08-23T16:51:50.000Z</time>
      </trkpt>
      <trkpt lat="47.20476" lon="-1.4673">
        <ele>69</ele>
        <time>2021-08-23T16:51:52.000Z</time>
      </trkpt>
      <trkpt lat="47.20488" lon="-1.46731">
        <ele>70</ele>
        <time>2021-08-23T16:51:54.000Z</time>
      </trkpt>
      <trkpt lat="47.205" lon="-1.46732">
        <ele>70</ele>
        <time>2021-08-23T16:51:56.000Z</time>
      </trkpt>
      <trkpt lat="47.20511" lon="-1.46734">
        <ele>70</ele>
        <time>2021-08-23T16:51:58.000Z</time>
      </trkpt>
      <trkpt lat="47.20522" lon="-1.46736">
        <ele>69</ele>
        <time>2021-08-23T16:52:00.000Z</time>
      </trkpt>
      <trkpt lat="47.20534" lon="-1.46738">
        <ele>69</ele>
        <time>2021-08-23T16:52:02.000Z</time>
      </trkpt>
      <trkpt lat="47.20546" lon="-1.46738">
        <ele>70</ele>
        <time>2021-08-23T16:52:04.000Z</time>
      </trkpt>
      <trkpt lat="47.20557" lon="-1.46738">
        <ele>70</ele>
        <time>2021-08-23T16:52:06.000Z</time>
      </trkpt>
      <trkpt lat="47.20568" lon="-1.46737">
        <ele>70</ele>
        <time>2021-08-23T16:52:08.000Z</time>
      </trkpt>
      <trkpt lat="47.2058" lon="-1.46735">
        <ele>70</ele>
        <time>2021-08-23T16:52:10.000Z</time>
      </trkpt>
      <trkpt lat="47.20591" lon="-1.46734">
        <ele>70</ele>
        <time>2021-08-23T16:52:12.000Z</time>
      </trkpt>
      <trkpt lat="47.20602" lon="-1.46732">
        <ele>70</ele>
        <time>2021-08-23T16:52:14.000Z</time>
      </trkpt>
      <trkpt lat="47.20614" lon="-1.46729">
        <ele>70</ele>
        <time>2021-08-23T16:52:16.000Z</time>
      </trkpt>
      <trkpt lat="47.20626" lon="-1.46726">
        <ele>70</ele>
        <time>2021-08-23T16:52:18.000Z</time>
      </trkpt>
      <trkpt lat="47.20637" lon="-1.46725">
        <ele>70</ele>
        <time>2021-08-23T16:52:20.000Z</time>
      </trkpt>
      <trkpt lat="47.20649" lon="-1.46722">
        <ele>70</ele>
        <time>2021-08-23T16:52:22.000Z</time>
      </trkpt>
      <trkpt lat="47.2066" lon="-1.4672">
        <ele>71</ele>
        <time>2021-08-23T16:52:24.000Z</time>
      </trkpt>
      <trkpt lat="47.20672" lon="-1.46718">
        <ele>71</ele>
        <time>2021-08-23T16:52:26.000Z</time>
      </trkpt>
      <trkpt lat="47.20684" lon="-1.46716">
        <ele>72</ele>
        <time>2021-08-23T16:52:28.000Z</time>
      </trkpt>
      <trkpt lat="47.20695" lon="-1.46714">
        <ele>72</ele>
        <time>2021-08-23T16:52:30.000Z</time>
      </trkpt>
      <trkpt lat="47.20707" lon="-1.46712">
        <ele>72</ele>
        <time>2021-08-23T16:52:32.000Z</time>
      </trkpt>
      <trkpt lat="47.20719" lon="-1.46711">
        <ele>72</ele>
        <time>2021-08-23T16:52:34.000Z</time>
      </trkpt>
      <trkpt lat="47.2073" lon="-1.46708">
        <ele>72</ele>
        <time>2021-08-23T16:52:36.000Z</time>
      </trkpt>
      <trkpt lat="47.20741" lon="-1.46706">
        <ele>72</ele>
        <time>2021-08-23T16:52:38.000Z</time>
      </trkpt>
      <trkpt lat="47.20753" lon="-1.46705">
        <ele>72</ele>
        <time>2021-08-23T16:52:40.000Z</time>
      </trkpt>
      <trkpt lat="47.20765" lon="-1.46703">
        <ele>72</ele>
        <time>2021-08-23T16:52:42.000Z</time>
      </trkpt>
      <trkpt lat="47.20776" lon="-1.46701">
        <ele>71</ele>
        <time>2021-08-23T16:52:44.000Z</time>
      </trkpt>
      <trkpt lat="47.20789" lon="-1.46699">
        <ele>71</ele>
        <time>2021-08-23T16:52:46.000Z</time>
      </trkpt>
      <trkpt lat="47.20801" lon="-1.46697">
        <ele>71</ele>
        <time>2021-08-23T16:52:48.000Z</time>
      </trkpt>
      <trkpt lat="47.20812" lon="-1.46697">
        <ele>71</ele>
        <time>2021-08-23T16:52:50.000Z</time>
      </trkpt>
      <trkpt lat="47.20824" lon="-1.46695">
        <ele>71</ele>
        <time>2021-08-23T16:52:52.000Z</time>
      </trkpt>
      <trkpt lat="47.20835" lon="-1.46693">
        <ele>72</ele>
        <time>2021-08-23T16:52:54.000Z</time>
      </trkpt>
      <trkpt lat="47.20847" lon="-1.46689">
        <ele>72</ele>
        <time>2021-08-23T16:52:56.000Z</time>
      </trkpt>
      <trkpt lat="47.20858" lon="-1.46683">
        <ele>72</ele>
        <time>2021-08-23T16:52:58.000Z</time>
      </trkpt>
      <trkpt lat="47.20869" lon="-1.46683">
        <ele>71</ele>
        <time>2021-08-23T16:53:00.000Z</time>
      </trkpt>
      <trkpt lat="47.20881" lon="-1.46679">
        <ele>71</ele>
        <time>2021-08-23T16:53:02.000Z</time>
      </trkpt>
      <trkpt lat="47.20892" lon="-1.46672">
        <ele>70</ele>
        <time>2021-08-23T16:53:04.000Z</time>
      </trkpt>
      <trkpt lat="47.20904" lon="-1.46667">
        <ele>70</ele>
        <time>2021-08-23T16:53:06.000Z</time>
      </trkpt>
      <trkpt lat="47.20915" lon="-1.46661">
        <ele>70</ele>
        <time>2021-08-23T16:53:08.000Z</time>
      </trkpt>
      <trkpt lat="47.20926" lon="-1.46655">
        <ele>70</ele>
        <time>2021-08-23T16:53:10.000Z</time>
      </trkpt>
      <trkpt lat="47.20937" lon="-1.46647">
        <ele>70</ele>
        <time>2021-08-23T16:53:12.000Z</time>
      </trkpt>
      <trkpt lat="47.20947" lon="-1.46639">
        <ele>70</ele>
        <time>2021-08-23T16:53:14.000Z</time>
      </trkpt>
      <trkpt lat="47.20958" lon="-1.46633">
        <ele>70</ele>
        <time>2021-08-23T16:53:16.000Z</time>
      </trkpt>
      <trkpt lat="47.20969" lon="-1.46628">
        <ele>70</ele>
        <time>2021-08-23T16:53:18.000Z</time>
      </trkpt>
      <trkpt lat="47.20981" lon="-1.46625">
        <ele>70</ele>
        <time>2021-08-23T16:53:20.000Z</time>
      </trkpt>
      <trkpt lat="47.20993" lon="-1.46621">
        <ele>71</ele>
        <time>2021-08-23T16:53:22.000Z</time>
      </trkpt>
      <trkpt lat="47.21005" lon="-1.46618">
        <ele>71</ele>
        <time>2021-08-23T16:53:24.000Z</time>
      </trkpt>
      <trkpt lat="47.21017" lon="-1.46614">
        <ele>71</ele>
        <time>2021-08-23T16:53:26.000Z</time>
      </trkpt>
      <trkpt lat="47.21029" lon="-1.4661">
        <ele>71</ele>
        <time>2021-08-23T16:53:28.000Z</time>
      </trkpt>
      <trkpt lat="47.21041" lon="-1.46606">
        <ele>70</ele>
        <time>2021-08-23T16:53:30.000Z</time>
      </trkpt>
      <trkpt lat="47.21052" lon="-1.46599">
        <ele>70</ele>
        <time>2021-08-23T16:53:32.000Z</time>
      </trkpt>
      <trkpt lat="47.21058" lon="-1.46585">
        <ele>70</ele>
        <time>2021-08-23T16:53:34.000Z</time>
      </trkpt>
      <trkpt lat="47.21062" lon="-1.4657">
        <ele>71</ele>
        <time>2021-08-23T16:53:36.000Z</time>
      </trkpt>
      <trkpt lat="47.21069" lon="-1.46556">
        <ele>70</ele>
        <time>2021-08-23T16:53:38.000Z</time>
      </trkpt>
      <trkpt lat="47.21076" lon="-1.46544">
        <ele>70</ele>
        <time>2021-08-23T16:53:40.000Z</time>
      </trkpt>
      <trkpt lat="47.21087" lon="-1.46537">
        <ele>70</ele>
        <time>2021-08-23T16:53:42.000Z</time>
      </trkpt>
      <trkpt lat="47.21098" lon="-1.46539">
        <ele>71</ele>
        <time>2021-08-23T16:53:44.000Z</time>
      </trkpt>
      <trkpt lat="47.21108" lon="-1.46549">
        <ele>70</ele>
        <time>2021-08-23T16:53:46.000Z</time>
      </trkpt>
      <trkpt lat="47.21118" lon="-1.46559">
        <ele>70</ele>
        <time>2021-08-23T16:53:48.000Z</time>
      </trkpt>
      <trkpt lat="47.21127" lon="-1.46567">
        <ele>69</ele>
        <time>2021-08-23T16:53:50.000Z</time>
      </trkpt>
      <trkpt lat="47.21135" lon="-1.4658">
        <ele>69</ele>
        <time>2021-08-23T16:53:52.000Z</time>
      </trkpt>
      <trkpt lat="47.21145" lon="-1.46589">
        <ele>69</ele>
        <time>2021-08-23T16:53:54.000Z</time>
      </trkpt>
      <trkpt lat="47.21157" lon="-1.46592">
        <ele>70</ele>
        <time>2021-08-23T16:53:56.000Z</time>
      </trkpt>
      <trkpt lat="47.21168" lon="-1.46597">
        <ele>70</ele>
        <time>2021-08-23T16:53:58.000Z</time>
      </trkpt>
      <trkpt lat="47.2118" lon="-1.46603">
        <ele>70</ele>
        <time>2021-08-23T16:54:00.000Z</time>
      </trkpt>
      <trkpt lat="47.21192" lon="-1.4661">
        <ele>69</ele>
        <time>2021-08-23T16:54:02.000Z</time>
      </trkpt>
      <trkpt lat="47.21203" lon="-1.46616">
        <ele>69</ele>
        <time>2021-08-23T16:54:04.000Z</time>
      </trkpt>
      <trkpt lat="47.21214" lon="-1.46621">
        <ele>69</ele>
        <time>2021-08-23T16:54:06.000Z</time>
      </trkpt>
      <trkpt lat="47.21226" lon="-1.46625">
        <ele>69</ele>
        <time>2021-08-23T16:54:08.000Z</time>
      </trkpt>
      <trkpt lat="47.21239" lon="-1.46627">
        <ele>69</ele>
        <time>2021-08-23T16:54:10.000Z</time>
      </trkpt>
      <trkpt lat="47.21251" lon="-1.4663">
        <ele>69</ele>
        <time>2021-08-23T16:54:12.000Z</time>
      </trkpt>
      <trkpt lat="47.21263" lon="-1.46631">
        <ele>69</ele>
        <time>2021-08-23T16:54:14.000Z</time>
      </trkpt>
      <trkpt lat="47.21275" lon="-1.46633">
        <ele>69</ele>
        <time>2021-08-23T16:54:16.000Z</time>
      </trkpt>
      <trkpt lat="47.21286" lon="-1.46634">
        <ele>69</ele>
        <time>2021-08-23T16:54:18.000Z</time>
      </trkpt>
      <trkpt lat="47.21298" lon="-1.46636">
        <ele>69</ele>
        <time>2021-08-23T16:54:20.000Z</time>
      </trkpt>
      <trkpt lat="47.2131" lon="-1.46636">
        <ele>69</ele>
        <time>2021-08-23T16:54:22.000Z</time>
      </trkpt>
      <trkpt lat="47.21322" lon="-1.46637">
        <ele>69</ele>
        <time>2021-08-23T16:54:24.000Z</time>
      </trkpt>
      <trkpt lat="47.21334" lon="-1.46636">
        <ele>69</ele>
        <time>2021-08-23T16:54:26.000Z</time>
      </trkpt>
      <trkpt lat="47.21346" lon="-1.46636">
        <ele>69</ele>
        <time>2021-08-23T16:54:28.000Z</time>
      </trkpt>
      <trkpt lat="47.21358" lon="-1.46637">
        <ele>68</ele>
        <time>2021-08-23T16:54:30.000Z</time>
      </trkpt>
      <trkpt lat="47.21369" lon="-1.46637">
        <ele>68</ele>
        <time>2021-08-23T16:54:32.000Z</time>
      </trkpt>
      <trkpt lat="47.21382" lon="-1.46637">
        <ele>68</ele>
        <time>2021-08-23T16:54:34.000Z</time>
      </trkpt>
      <trkpt lat="47.21394" lon="-1.46637">
        <ele>67</ele>
        <time>2021-08-23T16:54:36.000Z</time>
      </trkpt>
      <trkpt lat="47.21407" lon="-1.46639">
        <ele>67</ele>
        <time>2021-08-23T16:54:38.000Z</time>
      </trkpt>
      <trkpt lat="47.21421" lon="-1.46639">
        <ele>67</ele>
        <time>2021-08-23T16:54:40.000Z</time>
      </trkpt>
      <trkpt lat="47.21434" lon="-1.46638">
        <ele>67</ele>
        <time>2021-08-23T16:54:42.000Z</time>
      </trkpt>
      <trkpt lat="47.21448" lon="-1.46635">
        <ele>67</ele>
        <time>2021-08-23T16:54:44.000Z</time>
      </trkpt>
      <trkpt lat="47.21461" lon="-1.46626">
        <ele>66</ele>
        <time>2021-08-23T16:54:46.000Z</time>
      </trkpt>
      <trkpt lat="47.21475" lon="-1.46616">
        <ele>65</ele>
        <time>2021-08-23T16:54:48.000Z</time>
      </trkpt>
      <trkpt lat="47.21489" lon="-1.46604">
        <ele>64</ele>
        <time>2021-08-23T16:54:50.000Z</time>
      </trkpt>
      <trkpt lat="47.21502" lon="-1.46592">
        <ele>64</ele>
        <time>2021-08-23T16:54:52.000Z</time>
      </trkpt>
      <trkpt lat="47.21513" lon="-1.46578">
        <ele>63</ele>
        <time>2021-08-23T16:54:54.000Z</time>
      </trkpt>
      <trkpt lat="47.21523" lon="-1.46562">
        <ele>62</ele>
        <time>2021-08-23T16:54:56.000Z</time>
      </trkpt>
      <trkpt lat="47.21535" lon="-1.46549">
        <ele>62</ele>
        <time>2021-08-23T16:54:58.000Z</time>
      </trkpt>
      <trkpt lat="47.21549" lon="-1.46541">
        <ele>61</ele>
        <time>2021-08-23T16:55:00.000Z</time>
      </trkpt>
      <trkpt lat="47.21563" lon="-1.46537">
        <ele>60</ele>
        <time>2021-08-23T16:55:02.000Z</time>
      </trkpt>
      <trkpt lat="47.21579" lon="-1.46535">
        <ele>59</ele>
        <time>2021-08-23T16:55:04.000Z</time>
      </trkpt>
      <trkpt lat="47.21594" lon="-1.46535">
        <ele>59</ele>
        <time>2021-08-23T16:55:06.000Z</time>
      </trkpt>
      <trkpt lat="47.21611" lon="-1.46534">
        <ele>59</ele>
        <time>2021-08-23T16:55:08.000Z</time>
      </trkpt>
      <trkpt lat="47.21627" lon="-1.46532">
        <ele>58</ele>
        <time>2021-08-23T16:55:10.000Z</time>
      </trkpt>
      <trkpt lat="47.2164" lon="-1.4653">
        <ele>57</ele>
        <time>2021-08-23T16:55:12.000Z</time>
      </trkpt>
      <trkpt lat="47.21647" lon="-1.46518">
        <ele>56</ele>
        <time>2021-08-23T16:55:14.000Z</time>
      </trkpt>
      <trkpt lat="47.21648" lon="-1.46501">
        <ele>55</ele>
        <time>2021-08-23T16:55:16.000Z</time>
      </trkpt>
      <trkpt lat="47.21649" lon="-1.46483">
        <ele>54</ele>
        <time>2021-08-23T16:55:18.000Z</time>
      </trkpt>
      <trkpt lat="47.21652" lon="-1.46465">
        <ele>54</ele>
        <time>2021-08-23T16:55:20.000Z</time>
      </trkpt>
      <trkpt lat="47.21657" lon="-1.46447">
        <ele>53</ele>
        <time>2021-08-23T16:55:22.000Z</time>
      </trkpt>
      <trkpt lat="47.21659" lon="-1.46428">
        <ele>53</ele>
        <time>2021-08-23T16:55:24.000Z</time>
      </trkpt>
      <trkpt lat="47.2166" lon="-1.46409">
        <ele>53</ele>
        <time>2021-08-23T16:55:26.000Z</time>
      </trkpt>
      <trkpt lat="47.21662" lon="-1.4639">
        <ele>52</ele>
        <time>2021-08-23T16:55:28.000Z</time>
      </trkpt>
      <trkpt lat="47.21664" lon="-1.46371">
        <ele>52</ele>
        <time>2021-08-23T16:55:30.000Z</time>
      </trkpt>
      <trkpt lat="47.21665" lon="-1.46352">
        <ele>51</ele>
        <time>2021-08-23T16:55:32.000Z</time>
      </trkpt>
      <trkpt lat="47.21667" lon="-1.46334">
        <ele>51</ele>
        <time>2021-08-23T16:55:34.000Z</time>
      </trkpt>
      <trkpt lat="47.21668" lon="-1.46316">
        <ele>51</ele>
        <time>2021-08-23T16:55:36.000Z</time>
      </trkpt>
      <trkpt lat="47.21669" lon="-1.46299">
        <ele>51</ele>
        <time>2021-08-23T16:55:38.000Z</time>
      </trkpt>
      <trkpt lat="47.21671" lon="-1.46282">
        <ele>52</ele>
        <time>2021-08-23T16:55:40.000Z</time>
      </trkpt>
      <trkpt lat="47.21672" lon="-1.46265">
        <ele>51</ele>
        <time>2021-08-23T16:55:42.000Z</time>
      </trkpt>
      <trkpt lat="47.21673" lon="-1.46248">
        <ele>51</ele>
        <time>2021-08-23T16:55:44.000Z</time>
      </trkpt>
      <trkpt lat="47.21673" lon="-1.46232">
        <ele>51</ele>
        <time>2021-08-23T16:55:46.000Z</time>
      </trkpt>
      <trkpt lat="47.21672" lon="-1.46217">
        <ele>52</ele>
        <time>2021-08-23T16:55:48.000Z</time>
      </trkpt>
      <trkpt lat="47.21671" lon="-1.46203">
        <ele>53</ele>
        <time>2021-08-23T16:55:50.000Z</time>
      </trkpt>
      <trkpt lat="47.2167" lon="-1.46187">
        <ele>54</ele>
        <time>2021-08-23T16:55:52.000Z</time>
      </trkpt>
      <trkpt lat="47.21679" lon="-1.46181">
        <ele>54</ele>
        <time>2021-08-23T16:55:54.000Z</time>
      </trkpt>
      <trkpt lat="47.21689" lon="-1.4618">
        <ele>54</ele>
        <time>2021-08-23T16:55:56.000Z</time>
      </trkpt>
      <trkpt lat="47.21696" lon="-1.46169">
        <ele>54</ele>
        <time>2021-08-23T16:55:58.000Z</time>
      </trkpt>
      <trkpt lat="47.21701" lon="-1.46153">
        <ele>54</ele>
        <time>2021-08-23T16:56:00.000Z</time>
      </trkpt>
      <trkpt lat="47.21705" lon="-1.46137">
        <ele>54</ele>
        <time>2021-08-23T16:56:02.000Z</time>
      </trkpt>
      <trkpt lat="47.21713" lon="-1.46126">
        <ele>53</ele>
        <time>2021-08-23T16:56:04.000Z</time>
      </trkpt>
      <trkpt lat="47.21724" lon="-1.46129">
        <ele>52</ele>
        <time>2021-08-23T16:56:06.000Z</time>
      </trkpt>
      <trkpt lat="47.21735" lon="-1.46136">
        <ele>51</ele>
        <time>2021-08-23T16:56:08.000Z</time>
      </trkpt>
      <trkpt lat="47.21746" lon="-1.46142">
        <ele>50</ele>
        <time>2021-08-23T16:56:10.000Z</time>
      </trkpt>
      <trkpt lat="47.21757" lon="-1.46149">
        <ele>50</ele>
        <time>2021-08-23T16:56:12.000Z</time>
      </trkpt>
      <trkpt lat="47.21768" lon="-1.46157">
        <ele>50</ele>
        <time>2021-08-23T16:56:14.000Z</time>
      </trkpt>
      <trkpt lat="47.2178" lon="-1.46164">
        <ele>50</ele>
        <time>2021-08-23T16:56:16.000Z</time>
      </trkpt>
      <trkpt lat="47.21791" lon="-1.46169">
        <ele>50</ele>
        <time>2021-08-23T16:56:18.000Z</time>
      </trkpt>
      <trkpt lat="47.21803" lon="-1.46173">
        <ele>50</ele>
        <time>2021-08-23T16:56:20.000Z</time>
      </trkpt>
      <trkpt lat="47.21814" lon="-1.46178">
        <ele>50</ele>
        <time>2021-08-23T16:56:22.000Z</time>
      </trkpt>
      <trkpt lat="47.21826" lon="-1.46184">
        <ele>50</ele>
        <time>2021-08-23T16:56:24.000Z</time>
      </trkpt>
      <trkpt lat="47.21837" lon="-1.46189">
        <ele>51</ele>
        <time>2021-08-23T16:56:26.000Z</time>
      </trkpt>
      <trkpt lat="47.21848" lon="-1.46195">
        <ele>50</ele>
        <time>2021-08-23T16:56:28.000Z</time>
      </trkpt>
      <trkpt lat="47.2186" lon="-1.46202">
        <ele>50</ele>
        <time>2021-08-23T16:56:30.000Z</time>
      </trkpt>
      <trkpt lat="47.21872" lon="-1.46208">
        <ele>50</ele>
        <time>2021-08-23T16:56:32.000Z</time>
      </trkpt>
      <trkpt lat="47.21884" lon="-1.46214">
        <ele>50</ele>
        <time>2021-08-23T16:56:34.000Z</time>
      </trkpt>
      <trkpt lat="47.21896" lon="-1.46219">
        <ele>50</ele>
        <time>2021-08-23T16:56:36.000Z</time>
      </trkpt>
      <trkpt lat="47.21907" lon="-1.46226">
        <ele>51</ele>
        <time>2021-08-23T16:56:38.000Z</time>
      </trkpt>
      <trkpt lat="47.21918" lon="-1.46232">
        <ele>51</ele>
        <time>2021-08-23T16:56:40.000Z</time>
      </trkpt>
      <trkpt lat="47.21929" lon="-1.46238">
        <ele>51</ele>
        <time>2021-08-23T16:56:42.000Z</time>
      </trkpt>
      <trkpt lat="47.2194" lon="-1.46245">
        <ele>51</ele>
        <time>2021-08-23T16:56:44.000Z</time>
      </trkpt>
      <trkpt lat="47.21951" lon="-1.4625">
        <ele>51</ele>
        <time>2021-08-23T16:56:46.000Z</time>
      </trkpt>
      <trkpt lat="47.21962" lon="-1.46255">
        <ele>52</ele>
        <time>2021-08-23T16:56:48.000Z</time>
      </trkpt>
      <trkpt lat="47.21972" lon="-1.46259">
        <ele>52</ele>
        <time>2021-08-23T16:56:50.000Z</time>
      </trkpt>
      <trkpt lat="47.21983" lon="-1.46264">
        <ele>52</ele>
        <time>2021-08-23T16:56:52.000Z</time>
      </trkpt>
      <trkpt lat="47.21993" lon="-1.4627">
        <ele>51</ele>
        <time>2021-08-23T16:56:54.000Z</time>
      </trkpt>
      <trkpt lat="47.22005" lon="-1.46277">
        <ele>51</ele>
        <time>2021-08-23T16:56:56.000Z</time>
      </trkpt>
      <trkpt lat="47.22018" lon="-1.46283">
        <ele>51</ele>
        <time>2021-08-23T16:56:58.000Z</time>
      </trkpt>
      <trkpt lat="47.2203" lon="-1.46289">
        <ele>51</ele>
        <time>2021-08-23T16:57:00.000Z</time>
      </trkpt>
      <trkpt lat="47.22042" lon="-1.46295">
        <ele>51</ele>
        <time>2021-08-23T16:57:02.000Z</time>
      </trkpt>
      <trkpt lat="47.22054" lon="-1.463">
        <ele>51</ele>
        <time>2021-08-23T16:57:04.000Z</time>
      </trkpt>
      <trkpt lat="47.22065" lon="-1.46306">
        <ele>51</ele>
        <time>2021-08-23T16:57:06.000Z</time>
      </trkpt>
      <trkpt lat="47.22077" lon="-1.46312">
        <ele>51</ele>
        <time>2021-08-23T16:57:08.000Z</time>
      </trkpt>
      <trkpt lat="47.22089" lon="-1.46318">
        <ele>52</ele>
        <time>2021-08-23T16:57:10.000Z</time>
      </trkpt>
      <trkpt lat="47.221" lon="-1.46324">
        <ele>51</ele>
        <time>2021-08-23T16:57:12.000Z</time>
      </trkpt>
      <trkpt lat="47.22112" lon="-1.4633">
        <ele>51</ele>
        <time>2021-08-23T16:57:14.000Z</time>
      </trkpt>
      <trkpt lat="47.22124" lon="-1.46336">
        <ele>51</ele>
        <time>2021-08-23T16:57:16.000Z</time>
      </trkpt>
      <trkpt lat="47.22136" lon="-1.46342">
        <ele>51</ele>
        <time>2021-08-23T16:57:18.000Z</time>
      </trkpt>
      <trkpt lat="47.22148" lon="-1.46349">
        <ele>51</ele>
        <time>2021-08-23T16:57:20.000Z</time>
      </trkpt>
      <trkpt lat="47.2216" lon="-1.46355">
        <ele>51</ele>
        <time>2021-08-23T16:57:22.000Z</time>
      </trkpt>
      <trkpt lat="47.22171" lon="-1.46362">
        <ele>51</ele>
        <time>2021-08-23T16:57:24.000Z</time>
      </trkpt>
      <trkpt lat="47.22183" lon="-1.46368">
        <ele>51</ele>
        <time>2021-08-23T16:57:26.000Z</time>
      </trkpt>
      <trkpt lat="47.22195" lon="-1.46374">
        <ele>51</ele>
        <time>2021-08-23T16:57:28.000Z</time>
      </trkpt>
      <trkpt lat="47.22206" lon="-1.4638">
        <ele>50</ele>
        <time>2021-08-23T16:57:30.000Z</time>
      </trkpt>
      <trkpt lat="47.22217" lon="-1.46386">
        <ele>50</ele>
        <time>2021-08-23T16:57:32.000Z</time>
      </trkpt>
      <trkpt lat="47.22228" lon="-1.46391">
        <ele>51</ele>
        <time>2021-08-23T16:57:34.000Z</time>
      </trkpt>
      <trkpt lat="47.22239" lon="-1.46398">
        <ele>51</ele>
        <time>2021-08-23T16:57:36.000Z</time>
      </trkpt>
      <trkpt lat="47.2225" lon="-1.46403">
        <ele>51</ele>
        <time>2021-08-23T16:57:38.000Z</time>
      </trkpt>
      <trkpt lat="47.22262" lon="-1.46409">
        <ele>51</ele>
        <time>2021-08-23T16:57:40.000Z</time>
      </trkpt>
      <trkpt lat="47.22273" lon="-1.46415">
        <ele>51</ele>
        <time>2021-08-23T16:57:42.000Z</time>
      </trkpt>
      <trkpt lat="47.22285" lon="-1.46421">
        <ele>50</ele>
        <time>2021-08-23T16:57:44.000Z</time>
      </trkpt>
      <trkpt lat="47.22296" lon="-1.46426">
        <ele>50</ele>
        <time>2021-08-23T16:57:46.000Z</time>
      </trkpt>
      <trkpt lat="47.22308" lon="-1.46432">
        <ele>50</ele>
        <time>2021-08-23T16:57:48.000Z</time>
      </trkpt>
      <trkpt lat="47.2232" lon="-1.46437">
        <ele>50</ele>
        <time>2021-08-23T16:57:50.000Z</time>
      </trkpt>
      <trkpt lat="47.22331" lon="-1.46444">
        <ele>50</ele>
        <time>2021-08-23T16:57:52.000Z</time>
      </trkpt>
      <trkpt lat="47.22341" lon="-1.46452">
        <ele>50</ele>
        <time>2021-08-23T16:57:54.000Z</time>
      </trkpt>
      <trkpt lat="47.2235" lon="-1.46463">
        <ele>50</ele>
        <time>2021-08-23T16:57:56.000Z</time>
      </trkpt>
      <trkpt lat="47.22359" lon="-1.46474">
        <ele>50</ele>
        <time>2021-08-23T16:57:58.000Z</time>
      </trkpt>
      <trkpt lat="47.22368" lon="-1.46485">
        <ele>51</ele>
        <time>2021-08-23T16:58:00.000Z</time>
      </trkpt>
      <trkpt lat="47.22377" lon="-1.46497">
        <ele>51</ele>
        <time>2021-08-23T16:58:02.000Z</time>
      </trkpt>
      <trkpt lat="47.22385" lon="-1.46509">
        <ele>51</ele>
        <time>2021-08-23T16:58:04.000Z</time>
      </trkpt>
      <trkpt lat="47.22393" lon="-1.46521">
        <ele>52</ele>
        <time>2021-08-23T16:58:06.000Z</time>
      </trkpt>
      <trkpt lat="47.22401" lon="-1.46533">
        <ele>52</ele>
        <time>2021-08-23T16:58:08.000Z</time>
      </trkpt>
      <trkpt lat="47.22411" lon="-1.46544">
        <ele>52</ele>
        <time>2021-08-23T16:58:10.000Z</time>
      </trkpt>
      <trkpt lat="47.2242" lon="-1.46556">
        <ele>52</ele>
        <time>2021-08-23T16:58:12.000Z</time>
      </trkpt>
      <trkpt lat="47.2243" lon="-1.46567">
        <ele>52</ele>
        <time>2021-08-23T16:58:14.000Z</time>
      </trkpt>
      <trkpt lat="47.22439" lon="-1.46579">
        <ele>52</ele>
        <time>2021-08-23T16:58:16.000Z</time>
      </trkpt>
      <trkpt lat="47.22448" lon="-1.4659">
        <ele>53</ele>
        <time>2021-08-23T16:58:18.000Z</time>
      </trkpt>
      <trkpt lat="47.22456" lon="-1.46602">
        <ele>53</ele>
        <time>2021-08-23T16:58:20.000Z</time>
      </trkpt>
      <trkpt lat="47.22465" lon="-1.46614">
        <ele>53</ele>
        <time>2021-08-23T16:58:22.000Z</time>
      </trkpt>
      <trkpt lat="47.22473" lon="-1.46626">
        <ele>53</ele>
        <time>2021-08-23T16:58:24.000Z</time>
      </trkpt>
      <trkpt lat="47.22481" lon="-1.46637">
        <ele>53</ele>
        <time>2021-08-23T16:58:26.000Z</time>
      </trkpt>
      <trkpt lat="47.22488" lon="-1.46648">
        <ele>53</ele>
        <time>2021-08-23T16:58:28.000Z</time>
      </trkpt>
      <trkpt lat="47.22496" lon="-1.4666">
        <ele>53</ele>
        <time>2021-08-23T16:58:31.000Z</time>
      </trkpt>
      <trkpt lat="47.22507" lon="-1.46668">
        <ele>53</ele>
        <time>2021-08-23T16:58:34.000Z</time>
      </trkpt>
      <trkpt lat="47.22515" lon="-1.46677">
        <ele>52</ele>
        <time>2021-08-23T16:58:36.000Z</time>
      </trkpt>
      <trkpt lat="47.22525" lon="-1.46685">
        <ele>53</ele>
        <time>2021-08-23T16:58:38.000Z</time>
      </trkpt>
      <trkpt lat="47.22536" lon="-1.46694">
        <ele>53</ele>
        <time>2021-08-23T16:58:40.000Z</time>
      </trkpt>
      <trkpt lat="47.22543" lon="-1.46706">
        <ele>53</ele>
        <time>2021-08-23T16:58:42.000Z</time>
      </trkpt>
      <trkpt lat="47.2255" lon="-1.46718">
        <ele>53</ele>
        <time>2021-08-23T16:58:44.000Z</time>
      </trkpt>
      <trkpt lat="47.22558" lon="-1.46731">
        <ele>52</ele>
        <time>2021-08-23T16:58:46.000Z</time>
      </trkpt>
      <trkpt lat="47.22566" lon="-1.46743">
        <ele>52</ele>
        <time>2021-08-23T16:58:48.000Z</time>
      </trkpt>
      <trkpt lat="47.22576" lon="-1.46753">
        <ele>52</ele>
        <time>2021-08-23T16:58:50.000Z</time>
      </trkpt>
      <trkpt lat="47.22586" lon="-1.46762">
        <ele>51</ele>
        <time>2021-08-23T16:58:52.000Z</time>
      </trkpt>
      <trkpt lat="47.22597" lon="-1.4677">
        <ele>52</ele>
        <time>2021-08-23T16:58:54.000Z</time>
      </trkpt>
      <trkpt lat="47.22608" lon="-1.46777">
        <ele>52</ele>
        <time>2021-08-23T16:58:56.000Z</time>
      </trkpt>
      <trkpt lat="47.22618" lon="-1.46784">
        <ele>52</ele>
        <time>2021-08-23T16:58:58.000Z</time>
      </trkpt>
      <trkpt lat="47.22626" lon="-1.46794">
        <ele>53</ele>
        <time>2021-08-23T16:59:00.000Z</time>
      </trkpt>
      <trkpt lat="47.22632" lon="-1.46808">
        <ele>53</ele>
        <time>2021-08-23T16:59:02.000Z</time>
      </trkpt>
      <trkpt lat="47.2263" lon="-1.46824">
        <ele>54</ele>
        <time>2021-08-23T16:59:04.000Z</time>
      </trkpt>
      <trkpt lat="47.22623" lon="-1.46839">
        <ele>55</ele>
        <time>2021-08-23T16:59:06.000Z</time>
      </trkpt>
      <trkpt lat="47.22616" lon="-1.46851">
        <ele>55</ele>
        <time>2021-08-23T16:59:08.000Z</time>
      </trkpt>
      <trkpt lat="47.2261" lon="-1.46864">
        <ele>56</ele>
        <time>2021-08-23T16:59:10.000Z</time>
      </trkpt>
      <trkpt lat="47.22606" lon="-1.4688">
        <ele>56</ele>
        <time>2021-08-23T16:59:12.000Z</time>
      </trkpt>
      <trkpt lat="47.22607" lon="-1.46898">
        <ele>56</ele>
        <time>2021-08-23T16:59:14.000Z</time>
      </trkpt>
      <trkpt lat="47.22607" lon="-1.46916">
        <ele>55</ele>
        <time>2021-08-23T16:59:16.000Z</time>
      </trkpt>
      <trkpt lat="47.22607" lon="-1.46934">
        <ele>54</ele>
        <time>2021-08-23T16:59:18.000Z</time>
      </trkpt>
      <trkpt lat="47.22607" lon="-1.46953">
        <ele>54</ele>
        <time>2021-08-23T16:59:20.000Z</time>
      </trkpt>
      <trkpt lat="47.22607" lon="-1.46971">
        <ele>54</ele>
        <time>2021-08-23T16:59:22.000Z</time>
      </trkpt>
      <trkpt lat="47.22608" lon="-1.46989">
        <ele>54</ele>
        <time>2021-08-23T16:59:24.000Z</time>
      </trkpt>
      <trkpt lat="47.22606" lon="-1.47007">
        <ele>54</ele>
        <time>2021-08-23T16:59:26.000Z</time>
      </trkpt>
      <trkpt lat="47.22604" lon="-1.47025">
        <ele>55</ele>
        <time>2021-08-23T16:59:28.000Z</time>
      </trkpt>
      <trkpt lat="47.226" lon="-1.47042">
        <ele>55</ele>
        <time>2021-08-23T16:59:30.000Z</time>
      </trkpt>
      <trkpt lat="47.22593" lon="-1.47058">
        <ele>55</ele>
        <time>2021-08-23T16:59:32.000Z</time>
      </trkpt>
      <trkpt lat="47.22585" lon="-1.47071">
        <ele>56</ele>
        <time>2021-08-23T16:59:34.000Z</time>
      </trkpt>
      <trkpt lat="47.22576" lon="-1.47083">
        <ele>57</ele>
        <time>2021-08-23T16:59:36.000Z</time>
      </trkpt>
      <trkpt lat="47.22566" lon="-1.47092">
        <ele>57</ele>
        <time>2021-08-23T16:59:38.000Z</time>
      </trkpt>
      <trkpt lat="47.22556" lon="-1.471">
        <ele>57</ele>
        <time>2021-08-23T16:59:40.000Z</time>
      </trkpt>
      <trkpt lat="47.22545" lon="-1.47107">
        <ele>57</ele>
        <time>2021-08-23T16:59:42.000Z</time>
      </trkpt>
      <trkpt lat="47.22535" lon="-1.47114">
        <ele>57</ele>
        <time>2021-08-23T16:59:44.000Z</time>
      </trkpt>
      <trkpt lat="47.22524" lon="-1.47123">
        <ele>57</ele>
        <time>2021-08-23T16:59:46.000Z</time>
      </trkpt>
      <trkpt lat="47.22515" lon="-1.47131">
        <ele>57</ele>
        <time>2021-08-23T16:59:48.000Z</time>
      </trkpt>
      <trkpt lat="47.22504" lon="-1.47135">
        <ele>58</ele>
        <time>2021-08-23T16:59:50.000Z</time>
      </trkpt>
      <trkpt lat="47.22492" lon="-1.4714">
        <ele>58</ele>
        <time>2021-08-23T16:59:52.000Z</time>
      </trkpt>
      <trkpt lat="47.22481" lon="-1.47146">
        <ele>58</ele>
        <time>2021-08-23T16:59:54.000Z</time>
      </trkpt>
      <trkpt lat="47.2247" lon="-1.47153">
        <ele>58</ele>
        <time>2021-08-23T16:59:56.000Z</time>
      </trkpt>
      <trkpt lat="47.22459" lon="-1.47162">
        <ele>58</ele>
        <time>2021-08-23T16:59:58.000Z</time>
      </trkpt>
      <trkpt lat="47.22448" lon="-1.47172">
        <ele>58</ele>
        <time>2021-08-23T17:00:00.000Z</time>
      </trkpt>
      <trkpt lat="47.22438" lon="-1.47183">
        <ele>57</ele>
        <time>2021-08-23T17:00:02.000Z</time>
      </trkpt>
      <trkpt lat="47.22427" lon="-1.47193">
        <ele>57</ele>
        <time>2021-08-23T17:00:04.000Z</time>
      </trkpt>
      <trkpt lat="47.22416" lon="-1.47205">
        <ele>57</ele>
        <time>2021-08-23T17:00:06.000Z</time>
      </trkpt>
      <trkpt lat="47.22405" lon="-1.47218">
        <ele>57</ele>
        <time>2021-08-23T17:00:08.000Z</time>
      </trkpt>
      <trkpt lat="47.22393" lon="-1.47232">
        <ele>56</ele>
        <time>2021-08-23T17:00:10.000Z</time>
      </trkpt>
      <trkpt lat="47.2238" lon="-1.47244">
        <ele>56</ele>
        <time>2021-08-23T17:00:12.000Z</time>
      </trkpt>
      <trkpt lat="47.22368" lon="-1.47257">
        <ele>56</ele>
        <time>2021-08-23T17:00:14.000Z</time>
      </trkpt>
      <trkpt lat="47.22354" lon="-1.47268">
        <ele>56</ele>
        <time>2021-08-23T17:00:16.000Z</time>
      </trkpt>
      <trkpt lat="47.22341" lon="-1.4728">
        <ele>56</ele>
        <time>2021-08-23T17:00:18.000Z</time>
      </trkpt>
      <trkpt lat="47.22328" lon="-1.47291">
        <ele>56</ele>
        <time>2021-08-23T17:00:20.000Z</time>
      </trkpt>
      <trkpt lat="47.22314" lon="-1.47301">
        <ele>55</ele>
        <time>2021-08-23T17:00:22.000Z</time>
      </trkpt>
      <trkpt lat="47.22301" lon="-1.47312">
        <ele>55</ele>
        <time>2021-08-23T17:00:24.000Z</time>
      </trkpt>
      <trkpt lat="47.22289" lon="-1.47323">
        <ele>55</ele>
        <time>2021-08-23T17:00:26.000Z</time>
      </trkpt>
      <trkpt lat="47.22275" lon="-1.47334">
        <ele>54</ele>
        <time>2021-08-23T17:00:28.000Z</time>
      </trkpt>
      <trkpt lat="47.22262" lon="-1.47344">
        <ele>55</ele>
        <time>2021-08-23T17:00:30.000Z</time>
      </trkpt>
      <trkpt lat="47.22248" lon="-1.47354">
        <ele>55</ele>
        <time>2021-08-23T17:00:32.000Z</time>
      </trkpt>
      <trkpt lat="47.22235" lon="-1.47362">
        <ele>55</ele>
        <time>2021-08-23T17:00:34.000Z</time>
      </trkpt>
      <trkpt lat="47.22221" lon="-1.4737">
        <ele>55</ele>
        <time>2021-08-23T17:00:36.000Z</time>
      </trkpt>
      <trkpt lat="47.22208" lon="-1.4738">
        <ele>55</ele>
        <time>2021-08-23T17:00:38.000Z</time>
      </trkpt>
      <trkpt lat="47.22195" lon="-1.47391">
        <ele>55</ele>
        <time>2021-08-23T17:00:40.000Z</time>
      </trkpt>
      <trkpt lat="47.22177" lon="-1.47407">
        <ele>55</ele>
        <time>2021-08-23T17:00:43.000Z</time>
      </trkpt>
      <trkpt lat="47.22158" lon="-1.47423">
        <ele>56</ele>
        <time>2021-08-23T17:00:46.000Z</time>
      </trkpt>
      <trkpt lat="47.22138" lon="-1.47438">
        <ele>56</ele>
        <time>2021-08-23T17:00:49.000Z</time>
      </trkpt>
      <trkpt lat="47.22126" lon="-1.47449">
        <ele>56</ele>
        <time>2021-08-23T17:00:51.000Z</time>
      </trkpt>
      <trkpt lat="47.22114" lon="-1.47459">
        <ele>56</ele>
        <time>2021-08-23T17:00:53.000Z</time>
      </trkpt>
      <trkpt lat="47.22101" lon="-1.4747">
        <ele>57</ele>
        <time>2021-08-23T17:00:55.000Z</time>
      </trkpt>
      <trkpt lat="47.22083" lon="-1.47486">
        <ele>57</ele>
        <time>2021-08-23T17:00:58.000Z</time>
      </trkpt>
      <trkpt lat="47.22063" lon="-1.47504">
        <ele>57</ele>
        <time>2021-08-23T17:01:01.000Z</time>
      </trkpt>
      <trkpt lat="47.22051" lon="-1.47515">
        <ele>57</ele>
        <time>2021-08-23T17:01:03.000Z</time>
      </trkpt>
      <trkpt lat="47.22039" lon="-1.47526">
        <ele>57</ele>
        <time>2021-08-23T17:01:05.000Z</time>
      </trkpt>
      <trkpt lat="47.22027" lon="-1.47536">
        <ele>57</ele>
        <time>2021-08-23T17:01:07.000Z</time>
      </trkpt>
      <trkpt lat="47.22016" lon="-1.47548">
        <ele>56</ele>
        <time>2021-08-23T17:01:09.000Z</time>
      </trkpt>
      <trkpt lat="47.22003" lon="-1.47559">
        <ele>57</ele>
        <time>2021-08-23T17:01:11.000Z</time>
      </trkpt>
      <trkpt lat="47.21991" lon="-1.4757">
        <ele>57</ele>
        <time>2021-08-23T17:01:13.000Z</time>
      </trkpt>
      <trkpt lat="47.21979" lon="-1.47581">
        <ele>57</ele>
        <time>2021-08-23T17:01:15.000Z</time>
      </trkpt>
      <trkpt lat="47.21967" lon="-1.47592">
        <ele>56</ele>
        <time>2021-08-23T17:01:17.000Z</time>
      </trkpt>
      <trkpt lat="47.21954" lon="-1.47602">
        <ele>57</ele>
        <time>2021-08-23T17:01:19.000Z</time>
      </trkpt>
      <trkpt lat="47.21943" lon="-1.47613">
        <ele>57</ele>
        <time>2021-08-23T17:01:21.000Z</time>
      </trkpt>
      <trkpt lat="47.21931" lon="-1.47624">
        <ele>57</ele>
        <time>2021-08-23T17:01:23.000Z</time>
      </trkpt>
      <trkpt lat="47.21919" lon="-1.47634">
        <ele>57</ele>
        <time>2021-08-23T17:01:25.000Z</time>
      </trkpt>
      <trkpt lat="47.21907" lon="-1.47646">
        <ele>56</ele>
        <time>2021-08-23T17:01:27.000Z</time>
      </trkpt>
      <trkpt lat="47.21895" lon="-1.47657">
        <ele>57</ele>
        <time>2021-08-23T17:01:29.000Z</time>
      </trkpt>
      <trkpt lat="47.21883" lon="-1.47667">
        <ele>57</ele>
        <time>2021-08-23T17:01:31.000Z</time>
      </trkpt>
      <trkpt lat="47.21871" lon="-1.47678">
        <ele>57</ele>
        <time>2021-08-23T17:01:33.000Z</time>
      </trkpt>
      <trkpt lat="47.21859" lon="-1.47689">
        <ele>57</ele>
        <time>2021-08-23T17:01:35.000Z</time>
      </trkpt>
      <trkpt lat="47.21848" lon="-1.47699">
        <ele>57</ele>
        <time>2021-08-23T17:01:37.000Z</time>
      </trkpt>
      <trkpt lat="47.21837" lon="-1.47707">
        <ele>58</ele>
        <time>2021-08-23T17:01:39.000Z</time>
      </trkpt>
      <trkpt lat="47.21826" lon="-1.47716">
        <ele>58</ele>
        <time>2021-08-23T17:01:41.000Z</time>
      </trkpt>
      <trkpt lat="47.21815" lon="-1.47724">
        <ele>58</ele>
        <time>2021-08-23T17:01:43.000Z</time>
      </trkpt>
      <trkpt lat="47.21804" lon="-1.47733">
        <ele>58</ele>
        <time>2021-08-23T17:01:45.000Z</time>
      </trkpt>
      <trkpt lat="47.21794" lon="-1.47743">
        <ele>59</ele>
        <time>2021-08-23T17:01:47.000Z</time>
      </trkpt>
      <trkpt lat="47.21784" lon="-1.47752">
        <ele>58</ele>
        <time>2021-08-23T17:01:49.000Z</time>
      </trkpt>
      <trkpt lat="47.21773" lon="-1.47761">
        <ele>58</ele>
        <time>2021-08-23T17:01:51.000Z</time>
      </trkpt>
      <trkpt lat="47.21764" lon="-1.47769">
        <ele>58</ele>
        <time>2021-08-23T17:01:53.000Z</time>
      </trkpt>
      <trkpt lat="47.21755" lon="-1.47776">
        <ele>58</ele>
        <time>2021-08-23T17:01:58.000Z</time>
      </trkpt>
      <trkpt lat="47.21744" lon="-1.47786">
        <ele>58</ele>
        <time>2021-08-23T17:02:01.000Z</time>
      </trkpt>
      <trkpt lat="47.21735" lon="-1.47793">
        <ele>58</ele>
        <time>2021-08-23T17:02:03.000Z</time>
      </trkpt>
      <trkpt lat="47.21725" lon="-1.47803">
        <ele>58</ele>
        <time>2021-08-23T17:02:05.000Z</time>
      </trkpt>
      <trkpt lat="47.21715" lon="-1.47813">
        <ele>58</ele>
        <time>2021-08-23T17:02:07.000Z</time>
      </trkpt>
      <trkpt lat="47.21703" lon="-1.47824">
        <ele>58</ele>
        <time>2021-08-23T17:02:09.000Z</time>
      </trkpt>
      <trkpt lat="47.21692" lon="-1.47835">
        <ele>57</ele>
        <time>2021-08-23T17:02:11.000Z</time>
      </trkpt>
      <trkpt lat="47.21681" lon="-1.47844">
        <ele>57</ele>
        <time>2021-08-23T17:02:13.000Z</time>
      </trkpt>
      <trkpt lat="47.21671" lon="-1.47854">
        <ele>58</ele>
        <time>2021-08-23T17:02:15.000Z</time>
      </trkpt>
      <trkpt lat="47.2166" lon="-1.47864">
        <ele>58</ele>
        <time>2021-08-23T17:02:17.000Z</time>
      </trkpt>
      <trkpt lat="47.21648" lon="-1.47874">
        <ele>58</ele>
        <time>2021-08-23T17:02:19.000Z</time>
      </trkpt>
      <trkpt lat="47.21637" lon="-1.47885">
        <ele>58</ele>
        <time>2021-08-23T17:02:21.000Z</time>
      </trkpt>
      <trkpt lat="47.21627" lon="-1.47895">
        <ele>58</ele>
        <time>2021-08-23T17:02:23.000Z</time>
      </trkpt>
      <trkpt lat="47.21616" lon="-1.47905">
        <ele>58</ele>
        <time>2021-08-23T17:02:25.000Z</time>
      </trkpt>
      <trkpt lat="47.21605" lon="-1.47915">
        <ele>58</ele>
        <time>2021-08-23T17:02:27.000Z</time>
      </trkpt>
      <trkpt lat="47.21594" lon="-1.47926">
        <ele>58</ele>
        <time>2021-08-23T17:02:29.000Z</time>
      </trkpt>
      <trkpt lat="47.21583" lon="-1.47936">
        <ele>58</ele>
        <time>2021-08-23T17:02:31.000Z</time>
      </trkpt>
      <trkpt lat="47.21572" lon="-1.47947">
        <ele>57</ele>
        <time>2021-08-23T17:02:33.000Z</time>
      </trkpt>
      <trkpt lat="47.21561" lon="-1.47957">
        <ele>57</ele>
        <time>2021-08-23T17:02:35.000Z</time>
      </trkpt>
      <trkpt lat="47.21551" lon="-1.47968">
        <ele>56</ele>
        <time>2021-08-23T17:02:37.000Z</time>
      </trkpt>
      <trkpt lat="47.21539" lon="-1.47979">
        <ele>56</ele>
        <time>2021-08-23T17:02:39.000Z</time>
      </trkpt>
      <trkpt lat="47.21528" lon="-1.47991">
        <ele>56</ele>
        <time>2021-08-23T17:02:41.000Z</time>
      </trkpt>
      <trkpt lat="47.21517" lon="-1.48003">
        <ele>56</ele>
        <time>2021-08-23T17:02:43.000Z</time>
      </trkpt>
      <trkpt lat="47.21506" lon="-1.48016">
        <ele>56</ele>
        <time>2021-08-23T17:02:45.000Z</time>
      </trkpt>
      <trkpt lat="47.21494" lon="-1.48029">
        <ele>55</ele>
        <time>2021-08-23T17:02:47.000Z</time>
      </trkpt>
      <trkpt lat="47.21482" lon="-1.48042">
        <ele>55</ele>
        <time>2021-08-23T17:02:49.000Z</time>
      </trkpt>
      <trkpt lat="47.21472" lon="-1.48056">
        <ele>56</ele>
        <time>2021-08-23T17:02:51.000Z</time>
      </trkpt>
      <trkpt lat="47.21461" lon="-1.48069">
        <ele>56</ele>
        <time>2021-08-23T17:02:53.000Z</time>
      </trkpt>
      <trkpt lat="47.21451" lon="-1.48084">
        <ele>56</ele>
        <time>2021-08-23T17:02:55.000Z</time>
      </trkpt>
      <trkpt lat="47.21441" lon="-1.481">
        <ele>57</ele>
        <time>2021-08-23T17:02:57.000Z</time>
      </trkpt>
      <trkpt lat="47.21432" lon="-1.48116">
        <ele>58</ele>
        <time>2021-08-23T17:02:59.000Z</time>
      </trkpt>
      <trkpt lat="47.21423" lon="-1.48132">
        <ele>58</ele>
        <time>2021-08-23T17:03:01.000Z</time>
      </trkpt>
      <trkpt lat="47.21415" lon="-1.48148">
        <ele>57</ele>
        <time>2021-08-23T17:03:03.000Z</time>
      </trkpt>
      <trkpt lat="47.21406" lon="-1.48164">
        <ele>58</ele>
        <time>2021-08-23T17:03:05.000Z</time>
      </trkpt>
      <trkpt lat="47.21398" lon="-1.4818">
        <ele>58</ele>
        <time>2021-08-23T17:03:07.000Z</time>
      </trkpt>
      <trkpt lat="47.2139" lon="-1.48196">
        <ele>58</ele>
        <time>2021-08-23T17:03:09.000Z</time>
      </trkpt>
      <trkpt lat="47.21384" lon="-1.48213">
        <ele>58</ele>
        <time>2021-08-23T17:03:11.000Z</time>
      </trkpt>
      <trkpt lat="47.21377" lon="-1.48232">
        <ele>57</ele>
        <time>2021-08-23T17:03:13.000Z</time>
      </trkpt>
      <trkpt lat="47.21371" lon="-1.4825">
        <ele>56</ele>
        <time>2021-08-23T17:03:15.000Z</time>
      </trkpt>
      <trkpt lat="47.21365" lon="-1.48269">
        <ele>56</ele>
        <time>2021-08-23T17:03:17.000Z</time>
      </trkpt>
      <trkpt lat="47.21359" lon="-1.48287">
        <ele>55</ele>
        <time>2021-08-23T17:03:19.000Z</time>
      </trkpt>
      <trkpt lat="47.21354" lon="-1.48305">
        <ele>55</ele>
        <time>2021-08-23T17:03:21.000Z</time>
      </trkpt>
      <trkpt lat="47.21348" lon="-1.48324">
        <ele>55</ele>
        <time>2021-08-23T17:03:23.000Z</time>
      </trkpt>
      <trkpt lat="47.21342" lon="-1.48341">
        <ele>54</ele>
        <time>2021-08-23T17:03:25.000Z</time>
      </trkpt>
      <trkpt lat="47.21337" lon="-1.48359">
        <ele>54</ele>
        <time>2021-08-23T17:03:27.000Z</time>
      </trkpt>
      <trkpt lat="47.21331" lon="-1.48376">
        <ele>54</ele>
        <time>2021-08-23T17:03:29.000Z</time>
      </trkpt>
      <trkpt lat="47.21325" lon="-1.48393">
        <ele>55</ele>
        <time>2021-08-23T17:03:31.000Z</time>
      </trkpt>
      <trkpt lat="47.21319" lon="-1.4841">
        <ele>55</ele>
        <time>2021-08-23T17:03:33.000Z</time>
      </trkpt>
      <trkpt lat="47.21314" lon="-1.48429">
        <ele>55</ele>
        <time>2021-08-23T17:03:35.000Z</time>
      </trkpt>
      <trkpt lat="47.21308" lon="-1.48446">
        <ele>55</ele>
        <time>2021-08-23T17:03:37.000Z</time>
      </trkpt>
      <trkpt lat="47.21305" lon="-1.48463">
        <ele>55</ele>
        <time>2021-08-23T17:03:39.000Z</time>
      </trkpt>
      <trkpt lat="47.21302" lon="-1.48482">
        <ele>55</ele>
        <time>2021-08-23T17:03:41.000Z</time>
      </trkpt>
      <trkpt lat="47.21299" lon="-1.485">
        <ele>55</ele>
        <time>2021-08-23T17:03:43.000Z</time>
      </trkpt>
      <trkpt lat="47.21292" lon="-1.48515">
        <ele>56</ele>
        <time>2021-08-23T17:03:45.000Z</time>
      </trkpt>
      <trkpt lat="47.21281" lon="-1.4852">
        <ele>57</ele>
        <time>2021-08-23T17:03:47.000Z</time>
      </trkpt>
      <trkpt lat="47.21272" lon="-1.48526">
        <ele>57</ele>
        <time>2021-08-23T17:03:49.000Z</time>
      </trkpt>
      <trkpt lat="47.21267" lon="-1.48543">
        <ele>57</ele>
        <time>2021-08-23T17:03:51.000Z</time>
      </trkpt>
      <trkpt lat="47.21261" lon="-1.4856">
        <ele>57</ele>
        <time>2021-08-23T17:03:53.000Z</time>
      </trkpt>
      <trkpt lat="47.21256" lon="-1.48578">
        <ele>56</ele>
        <time>2021-08-23T17:03:55.000Z</time>
      </trkpt>
      <trkpt lat="47.21252" lon="-1.48597">
        <ele>57</ele>
        <time>2021-08-23T17:03:57.000Z</time>
      </trkpt>
      <trkpt lat="47.21246" lon="-1.48614">
        <ele>57</ele>
        <time>2021-08-23T17:03:59.000Z</time>
      </trkpt>
      <trkpt lat="47.21241" lon="-1.48633">
        <ele>56</ele>
        <time>2021-08-23T17:04:01.000Z</time>
      </trkpt>
      <trkpt lat="47.21236" lon="-1.48651">
        <ele>56</ele>
        <time>2021-08-23T17:04:03.000Z</time>
      </trkpt>
      <trkpt lat="47.21231" lon="-1.48669">
        <ele>56</ele>
        <time>2021-08-23T17:04:05.000Z</time>
      </trkpt>
      <trkpt lat="47.21227" lon="-1.48687">
        <ele>56</ele>
        <time>2021-08-23T17:04:07.000Z</time>
      </trkpt>
      <trkpt lat="47.21222" lon="-1.48706">
        <ele>56</ele>
        <time>2021-08-23T17:04:09.000Z</time>
      </trkpt>
      <trkpt lat="47.21217" lon="-1.48725">
        <ele>56</ele>
        <time>2021-08-23T17:04:11.000Z</time>
      </trkpt>
      <trkpt lat="47.21212" lon="-1.48744">
        <ele>56</ele>
        <time>2021-08-23T17:04:13.000Z</time>
      </trkpt>
      <trkpt lat="47.21208" lon="-1.48762">
        <ele>56</ele>
        <time>2021-08-23T17:04:15.000Z</time>
      </trkpt>
      <trkpt lat="47.21203" lon="-1.4878">
        <ele>56</ele>
        <time>2021-08-23T17:04:17.000Z</time>
      </trkpt>
      <trkpt lat="47.21198" lon="-1.48798">
        <ele>56</ele>
        <time>2021-08-23T17:04:19.000Z</time>
      </trkpt>
      <trkpt lat="47.21195" lon="-1.48816">
        <ele>56</ele>
        <time>2021-08-23T17:04:21.000Z</time>
      </trkpt>
      <trkpt lat="47.21191" lon="-1.48835">
        <ele>56</ele>
        <time>2021-08-23T17:04:23.000Z</time>
      </trkpt>
      <trkpt lat="47.21188" lon="-1.48852">
        <ele>56</ele>
        <time>2021-08-23T17:04:25.000Z</time>
      </trkpt>
      <trkpt lat="47.21188" lon="-1.48871">
        <ele>57</ele>
        <time>2021-08-23T17:04:27.000Z</time>
      </trkpt>
      <trkpt lat="47.21186" lon="-1.48889">
        <ele>57</ele>
        <time>2021-08-23T17:04:29.000Z</time>
      </trkpt>
      <trkpt lat="47.2118" lon="-1.48906">
        <ele>57</ele>
        <time>2021-08-23T17:04:31.000Z</time>
      </trkpt>
      <trkpt lat="47.21174" lon="-1.48921">
        <ele>57</ele>
        <time>2021-08-23T17:04:33.000Z</time>
      </trkpt>
      <trkpt lat="47.21171" lon="-1.48938">
        <ele>58</ele>
        <time>2021-08-23T17:04:35.000Z</time>
      </trkpt>
      <trkpt lat="47.21169" lon="-1.48956">
        <ele>58</ele>
        <time>2021-08-23T17:04:37.000Z</time>
      </trkpt>
      <trkpt lat="47.21165" lon="-1.48973">
        <ele>58</ele>
        <time>2021-08-23T17:04:39.000Z</time>
      </trkpt>
      <trkpt lat="47.21163" lon="-1.48989">
        <ele>58</ele>
        <time>2021-08-23T17:04:41.000Z</time>
      </trkpt>
      <trkpt lat="47.21159" lon="-1.49007">
        <ele>58</ele>
        <time>2021-08-23T17:04:43.000Z</time>
      </trkpt>
      <trkpt lat="47.21156" lon="-1.49023">
        <ele>58</ele>
        <time>2021-08-23T17:04:45.000Z</time>
      </trkpt>
      <trkpt lat="47.21154" lon="-1.49038">
        <ele>59</ele>
        <time>2021-08-23T17:04:47.000Z</time>
      </trkpt>
      <trkpt lat="47.21155" lon="-1.49053">
        <ele>59</ele>
        <time>2021-08-23T17:04:49.000Z</time>
      </trkpt>
      <trkpt lat="47.21161" lon="-1.49068">
        <ele>58</ele>
        <time>2021-08-23T17:04:51.000Z</time>
      </trkpt>
      <trkpt lat="47.21162" lon="-1.49087">
        <ele>57</ele>
        <time>2021-08-23T17:04:53.000Z</time>
      </trkpt>
      <trkpt lat="47.21156" lon="-1.49105">
        <ele>57</ele>
        <time>2021-08-23T17:04:55.000Z</time>
      </trkpt>
      <trkpt lat="47.21152" lon="-1.49121">
        <ele>56</ele>
        <time>2021-08-23T17:04:57.000Z</time>
      </trkpt>
      <trkpt lat="47.21149" lon="-1.49139">
        <ele>57</ele>
        <time>2021-08-23T17:04:59.000Z</time>
      </trkpt>
      <trkpt lat="47.21146" lon="-1.49158">
        <ele>57</ele>
        <time>2021-08-23T17:05:01.000Z</time>
      </trkpt>
      <trkpt lat="47.21144" lon="-1.49179">
        <ele>57</ele>
        <time>2021-08-23T17:05:03.000Z</time>
      </trkpt>
      <trkpt lat="47.21143" lon="-1.49199">
        <ele>57</ele>
        <time>2021-08-23T17:05:05.000Z</time>
      </trkpt>
      <trkpt lat="47.21141" lon="-1.4922">
        <ele>57</ele>
        <time>2021-08-23T17:05:07.000Z</time>
      </trkpt>
      <trkpt lat="47.21139" lon="-1.4924">
        <ele>57</ele>
        <time>2021-08-23T17:05:09.000Z</time>
      </trkpt>
      <trkpt lat="47.21138" lon="-1.49262">
        <ele>57</ele>
        <time>2021-08-23T17:05:11.000Z</time>
      </trkpt>
      <trkpt lat="47.21137" lon="-1.49284">
        <ele>57</ele>
        <time>2021-08-23T17:05:13.000Z</time>
      </trkpt>
      <trkpt lat="47.21136" lon="-1.49304">
        <ele>56</ele>
        <time>2021-08-23T17:05:15.000Z</time>
      </trkpt>
      <trkpt lat="47.21135" lon="-1.49324">
        <ele>56</ele>
        <time>2021-08-23T17:05:17.000Z</time>
      </trkpt>
      <trkpt lat="47.21134" lon="-1.49345">
        <ele>56</ele>
        <time>2021-08-23T17:05:19.000Z</time>
      </trkpt>
      <trkpt lat="47.21134" lon="-1.49366">
        <ele>56</ele>
        <time>2021-08-23T17:05:21.000Z</time>
      </trkpt>
      <trkpt lat="47.21133" lon="-1.49386">
        <ele>56</ele>
        <time>2021-08-23T17:05:23.000Z</time>
      </trkpt>
      <trkpt lat="47.21132" lon="-1.49406">
        <ele>56</ele>
        <time>2021-08-23T17:05:25.000Z</time>
      </trkpt>
      <trkpt lat="47.21131" lon="-1.49426">
        <ele>56</ele>
        <time>2021-08-23T17:05:27.000Z</time>
      </trkpt>
      <trkpt lat="47.21131" lon="-1.49446">
        <ele>56</ele>
        <time>2021-08-23T17:05:29.000Z</time>
      </trkpt>
      <trkpt lat="47.2113" lon="-1.49466">
        <ele>56</ele>
        <time>2021-08-23T17:05:31.000Z</time>
      </trkpt>
      <trkpt lat="47.21129" lon="-1.49485">
        <ele>56</ele>
        <time>2021-08-23T17:05:33.000Z</time>
      </trkpt>
      <trkpt lat="47.21129" lon="-1.49504">
        <ele>56</ele>
        <time>2021-08-23T17:05:35.000Z</time>
      </trkpt>
      <trkpt lat="47.21129" lon="-1.49523">
        <ele>56</ele>
        <time>2021-08-23T17:05:37.000Z</time>
      </trkpt>
      <trkpt lat="47.21131" lon="-1.49542">
        <ele>56</ele>
        <time>2021-08-23T17:05:39.000Z</time>
      </trkpt>
      <trkpt lat="47.21135" lon="-1.4956">
        <ele>55</ele>
        <time>2021-08-23T17:05:41.000Z</time>
      </trkpt>
      <trkpt lat="47.2114" lon="-1.49575">
        <ele>55</ele>
        <time>2021-08-23T17:05:43.000Z</time>
      </trkpt>
      <trkpt lat="47.21139" lon="-1.4959">
        <ele>54</ele>
        <time>2021-08-23T17:05:45.000Z</time>
      </trkpt>
      <trkpt lat="47.21131" lon="-1.49604">
        <ele>54</ele>
        <time>2021-08-23T17:05:47.000Z</time>
      </trkpt>
      <trkpt lat="47.21125" lon="-1.4962">
        <ele>55</ele>
        <time>2021-08-23T17:05:49.000Z</time>
      </trkpt>
      <trkpt lat="47.21123" lon="-1.49643">
        <ele>54</ele>
        <time>2021-08-23T17:05:51.000Z</time>
      </trkpt>
      <trkpt lat="47.21121" lon="-1.49664">
        <ele>54</ele>
        <time>2021-08-23T17:05:53.000Z</time>
      </trkpt>
      <trkpt lat="47.2112" lon="-1.49685">
        <ele>54</ele>
        <time>2021-08-23T17:05:55.000Z</time>
      </trkpt>
      <trkpt lat="47.21119" lon="-1.49706">
        <ele>54</ele>
        <time>2021-08-23T17:05:57.000Z</time>
      </trkpt>
      <trkpt lat="47.21118" lon="-1.49725">
        <ele>55</ele>
        <time>2021-08-23T17:05:59.000Z</time>
      </trkpt>
      <trkpt lat="47.21116" lon="-1.49745">
        <ele>55</ele>
        <time>2021-08-23T17:06:01.000Z</time>
      </trkpt>
      <trkpt lat="47.21114" lon="-1.49765">
        <ele>55</ele>
        <time>2021-08-23T17:06:03.000Z</time>
      </trkpt>
      <trkpt lat="47.21112" lon="-1.49787">
        <ele>54</ele>
        <time>2021-08-23T17:06:05.000Z</time>
      </trkpt>
      <trkpt lat="47.2111" lon="-1.49807">
        <ele>55</ele>
        <time>2021-08-23T17:06:07.000Z</time>
      </trkpt>
      <trkpt lat="47.21107" lon="-1.49827">
        <ele>55</ele>
        <time>2021-08-23T17:06:09.000Z</time>
      </trkpt>
      <trkpt lat="47.21103" lon="-1.49845">
        <ele>55</ele>
        <time>2021-08-23T17:06:11.000Z</time>
      </trkpt>
      <trkpt lat="47.21099" lon="-1.49863">
        <ele>55</ele>
        <time>2021-08-23T17:06:13.000Z</time>
      </trkpt>
      <trkpt lat="47.21098" lon="-1.49881">
        <ele>55</ele>
        <time>2021-08-23T17:06:15.000Z</time>
      </trkpt>
      <trkpt lat="47.21091" lon="-1.49897">
        <ele>55</ele>
        <time>2021-08-23T17:06:17.000Z</time>
      </trkpt>
      <trkpt lat="47.21085" lon="-1.49914">
        <ele>56</ele>
        <time>2021-08-23T17:06:19.000Z</time>
      </trkpt>
      <trkpt lat="47.2108" lon="-1.49933">
        <ele>56</ele>
        <time>2021-08-23T17:06:21.000Z</time>
      </trkpt>
      <trkpt lat="47.21075" lon="-1.49952">
        <ele>56</ele>
        <time>2021-08-23T17:06:23.000Z</time>
      </trkpt>
      <trkpt lat="47.2107" lon="-1.49971">
        <ele>56</ele>
        <time>2021-08-23T17:06:25.000Z</time>
      </trkpt>
      <trkpt lat="47.21066" lon="-1.4999">
        <ele>56</ele>
        <time>2021-08-23T17:06:27.000Z</time>
      </trkpt>
      <trkpt lat="47.21061" lon="-1.50008">
        <ele>56</ele>
        <time>2021-08-23T17:06:29.000Z</time>
      </trkpt>
      <trkpt lat="47.21056" lon="-1.50027">
        <ele>56</ele>
        <time>2021-08-23T17:06:31.000Z</time>
      </trkpt>
      <trkpt lat="47.21052" lon="-1.50045">
        <ele>56</ele>
        <time>2021-08-23T17:06:33.000Z</time>
      </trkpt>
      <trkpt lat="47.21048" lon="-1.50064">
        <ele>55</ele>
        <time>2021-08-23T17:06:35.000Z</time>
      </trkpt>
      <trkpt lat="47.21043" lon="-1.50082">
        <ele>56</ele>
        <time>2021-08-23T17:06:37.000Z</time>
      </trkpt>
      <trkpt lat="47.21037" lon="-1.501">
        <ele>56</ele>
        <time>2021-08-23T17:06:39.000Z</time>
      </trkpt>
      <trkpt lat="47.21033" lon="-1.50118">
        <ele>56</ele>
        <time>2021-08-23T17:06:41.000Z</time>
      </trkpt>
      <trkpt lat="47.21028" lon="-1.50137">
        <ele>55</ele>
        <time>2021-08-23T17:06:43.000Z</time>
      </trkpt>
      <trkpt lat="47.21024" lon="-1.50156">
        <ele>55</ele>
        <time>2021-08-23T17:06:45.000Z</time>
      </trkpt>
      <trkpt lat="47.21019" lon="-1.50173">
        <ele>55</ele>
        <time>2021-08-23T17:06:47.000Z</time>
      </trkpt>
      <trkpt lat="47.21015" lon="-1.50192">
        <ele>55</ele>
        <time>2021-08-23T17:06:49.000Z</time>
      </trkpt>
      <trkpt lat="47.21015" lon="-1.5021">
        <ele>55</ele>
        <time>2021-08-23T17:06:51.000Z</time>
      </trkpt>
      <trkpt lat="47.21019" lon="-1.50228">
        <ele>55</ele>
        <time>2021-08-23T17:06:53.000Z</time>
      </trkpt>
      <trkpt lat="47.21017" lon="-1.50242">
        <ele>55</ele>
        <time>2021-08-23T17:06:55.000Z</time>
      </trkpt>
      <trkpt lat="47.2101" lon="-1.50251">
        <ele>55</ele>
        <time>2021-08-23T17:06:57.000Z</time>
      </trkpt>
      <trkpt lat="47.21004" lon="-1.50265">
        <ele>56</ele>
        <time>2021-08-23T17:06:59.000Z</time>
      </trkpt>
      <trkpt lat="47.21003" lon="-1.50283">
        <ele>56</ele>
        <time>2021-08-23T17:07:01.000Z</time>
      </trkpt>
      <trkpt lat="47.21001" lon="-1.50303">
        <ele>56</ele>
        <time>2021-08-23T17:07:03.000Z</time>
      </trkpt>
      <trkpt lat="47.21001" lon="-1.50322">
        <ele>56</ele>
        <time>2021-08-23T17:07:05.000Z</time>
      </trkpt>
      <trkpt lat="47.21" lon="-1.50342">
        <ele>56</ele>
        <time>2021-08-23T17:07:07.000Z</time>
      </trkpt>
      <trkpt lat="47.21" lon="-1.50363">
        <ele>56</ele>
        <time>2021-08-23T17:07:09.000Z</time>
      </trkpt>
      <trkpt lat="47.21" lon="-1.50383">
        <ele>56</ele>
        <time>2021-08-23T17:07:11.000Z</time>
      </trkpt>
      <trkpt lat="47.21" lon="-1.50404">
        <ele>56</ele>
        <time>2021-08-23T17:07:13.000Z</time>
      </trkpt>
      <trkpt lat="47.21001" lon="-1.50423">
        <ele>56</ele>
        <time>2021-08-23T17:07:15.000Z</time>
      </trkpt>
      <trkpt lat="47.21001" lon="-1.50443">
        <ele>56</ele>
        <time>2021-08-23T17:07:17.000Z</time>
      </trkpt>
      <trkpt lat="47.21001" lon="-1.50464">
        <ele>56</ele>
        <time>2021-08-23T17:07:19.000Z</time>
      </trkpt>
      <trkpt lat="47.21001" lon="-1.50484">
        <ele>56</ele>
        <time>2021-08-23T17:07:21.000Z</time>
      </trkpt>
      <trkpt lat="47.21001" lon="-1.50504">
        <ele>56</ele>
        <time>2021-08-23T17:07:23.000Z</time>
      </trkpt>
      <trkpt lat="47.21002" lon="-1.50524">
        <ele>56</ele>
        <time>2021-08-23T17:07:25.000Z</time>
      </trkpt>
      <trkpt lat="47.21003" lon="-1.50544">
        <ele>56</ele>
        <time>2021-08-23T17:07:27.000Z</time>
      </trkpt>
      <trkpt lat="47.21003" lon="-1.50565">
        <ele>55</ele>
        <time>2021-08-23T17:07:29.000Z</time>
      </trkpt>
      <trkpt lat="47.21004" lon="-1.50586">
        <ele>55</ele>
        <time>2021-08-23T17:07:31.000Z</time>
      </trkpt>
      <trkpt lat="47.21003" lon="-1.50606">
        <ele>56</ele>
        <time>2021-08-23T17:07:33.000Z</time>
      </trkpt>
      <trkpt lat="47.21003" lon="-1.50625">
        <ele>56</ele>
        <time>2021-08-23T17:07:35.000Z</time>
      </trkpt>
      <trkpt lat="47.21002" lon="-1.50646">
        <ele>56</ele>
        <time>2021-08-23T17:07:37.000Z</time>
      </trkpt>
      <trkpt lat="47.21001" lon="-1.50665">
        <ele>56</ele>
        <time>2021-08-23T17:07:39.000Z</time>
      </trkpt>
      <trkpt lat="47.21" lon="-1.50685">
        <ele>56</ele>
        <time>2021-08-23T17:07:41.000Z</time>
      </trkpt>
      <trkpt lat="47.20999" lon="-1.50704">
        <ele>56</ele>
        <time>2021-08-23T17:07:43.000Z</time>
      </trkpt>
      <trkpt lat="47.20997" lon="-1.50723">
        <ele>56</ele>
        <time>2021-08-23T17:07:45.000Z</time>
      </trkpt>
      <trkpt lat="47.20995" lon="-1.50743">
        <ele>55</ele>
        <time>2021-08-23T17:07:47.000Z</time>
      </trkpt>
      <trkpt lat="47.20993" lon="-1.50761">
        <ele>55</ele>
        <time>2021-08-23T17:07:49.000Z</time>
      </trkpt>
      <trkpt lat="47.2099" lon="-1.5078">
        <ele>55</ele>
        <time>2021-08-23T17:07:51.000Z</time>
      </trkpt>
      <trkpt lat="47.20988" lon="-1.50799">
        <ele>56</ele>
        <time>2021-08-23T17:07:53.000Z</time>
      </trkpt>
      <trkpt lat="47.20985" lon="-1.50819">
        <ele>55</ele>
        <time>2021-08-23T17:07:55.000Z</time>
      </trkpt>
      <trkpt lat="47.20983" lon="-1.50839">
        <ele>55</ele>
        <time>2021-08-23T17:07:57.000Z</time>
      </trkpt>
      <trkpt lat="47.20981" lon="-1.50858">
        <ele>55</ele>
        <time>2021-08-23T17:07:59.000Z</time>
      </trkpt>
      <trkpt lat="47.2098" lon="-1.50877">
        <ele>55</ele>
        <time>2021-08-23T17:08:01.000Z</time>
      </trkpt>
      <trkpt lat="47.20978" lon="-1.50896">
        <ele>54</ele>
        <time>2021-08-23T17:08:03.000Z</time>
      </trkpt>
      <trkpt lat="47.20975" lon="-1.50915">
        <ele>55</ele>
        <time>2021-08-23T17:08:05.000Z</time>
      </trkpt>
      <trkpt lat="47.20973" lon="-1.50933">
        <ele>55</ele>
        <time>2021-08-23T17:08:07.000Z</time>
      </trkpt>
      <trkpt lat="47.20971" lon="-1.50951">
        <ele>55</ele>
        <time>2021-08-23T17:08:09.000Z</time>
      </trkpt>
      <trkpt lat="47.20969" lon="-1.5097">
        <ele>55</ele>
        <time>2021-08-23T17:08:11.000Z</time>
      </trkpt>
      <trkpt lat="47.20967" lon="-1.50988">
        <ele>55</ele>
        <time>2021-08-23T17:08:13.000Z</time>
      </trkpt>
      <trkpt lat="47.20962" lon="-1.51006">
        <ele>55</ele>
        <time>2021-08-23T17:08:15.000Z</time>
      </trkpt>
      <trkpt lat="47.20957" lon="-1.51022">
        <ele>55</ele>
        <time>2021-08-23T17:08:17.000Z</time>
      </trkpt>
      <trkpt lat="47.20953" lon="-1.51039">
        <ele>55</ele>
        <time>2021-08-23T17:08:19.000Z</time>
      </trkpt>
      <trkpt lat="47.2095" lon="-1.51057">
        <ele>55</ele>
        <time>2021-08-23T17:08:21.000Z</time>
      </trkpt>
      <trkpt lat="47.20947" lon="-1.51073">
        <ele>55</ele>
        <time>2021-08-23T17:08:23.000Z</time>
      </trkpt>
      <trkpt lat="47.20944" lon="-1.51089">
        <ele>55</ele>
        <time>2021-08-23T17:08:25.000Z</time>
      </trkpt>
      <trkpt lat="47.20941" lon="-1.51103">
        <ele>55</ele>
        <time>2021-08-23T17:08:27.000Z</time>
      </trkpt>
      <trkpt lat="47.20937" lon="-1.51117">
        <ele>55</ele>
        <time>2021-08-23T17:08:29.000Z</time>
      </trkpt>
      <trkpt lat="47.20931" lon="-1.51131">
        <ele>55</ele>
        <time>2021-08-23T17:08:31.000Z</time>
      </trkpt>
      <trkpt lat="47.20925" lon="-1.51149">
        <ele>56</ele>
        <time>2021-08-23T17:08:33.000Z</time>
      </trkpt>
      <trkpt lat="47.20918" lon="-1.51169">
        <ele>56</ele>
        <time>2021-08-23T17:08:35.000Z</time>
      </trkpt>
      <trkpt lat="47.2091" lon="-1.51189">
        <ele>56</ele>
        <time>2021-08-23T17:08:37.000Z</time>
      </trkpt>
      <trkpt lat="47.20903" lon="-1.51209">
        <ele>56</ele>
        <time>2021-08-23T17:08:39.000Z</time>
      </trkpt>
      <trkpt lat="47.20896" lon="-1.51229">
        <ele>57</ele>
        <time>2021-08-23T17:08:41.000Z</time>
      </trkpt>
      <trkpt lat="47.20889" lon="-1.51249">
        <ele>57</ele>
        <time>2021-08-23T17:08:43.000Z</time>
      </trkpt>
      <trkpt lat="47.20882" lon="-1.51269">
        <ele>57</ele>
        <time>2021-08-23T17:08:45.000Z</time>
      </trkpt>
      <trkpt lat="47.20874" lon="-1.51287">
        <ele>57</ele>
        <time>2021-08-23T17:08:47.000Z</time>
      </trkpt>
      <trkpt lat="47.20866" lon="-1.51305">
        <ele>57</ele>
        <time>2021-08-23T17:08:49.000Z</time>
      </trkpt>
      <trkpt lat="47.20859" lon="-1.51324">
        <ele>57</ele>
        <time>2021-08-23T17:08:51.000Z</time>
      </trkpt>
      <trkpt lat="47.20852" lon="-1.51342">
        <ele>57</ele>
        <time>2021-08-23T17:08:53.000Z</time>
      </trkpt>
      <trkpt lat="47.20846" lon="-1.51361">
        <ele>57</ele>
        <time>2021-08-23T17:08:55.000Z</time>
      </trkpt>
      <trkpt lat="47.20841" lon="-1.51381">
        <ele>57</ele>
        <time>2021-08-23T17:08:57.000Z</time>
      </trkpt>
      <trkpt lat="47.20836" lon="-1.51399">
        <ele>57</ele>
        <time>2021-08-23T17:08:59.000Z</time>
      </trkpt>
      <trkpt lat="47.20831" lon="-1.51419">
        <ele>57</ele>
        <time>2021-08-23T17:09:01.000Z</time>
      </trkpt>
      <trkpt lat="47.20827" lon="-1.5144">
        <ele>57</ele>
        <time>2021-08-23T17:09:03.000Z</time>
      </trkpt>
      <trkpt lat="47.20825" lon="-1.51461">
        <ele>57</ele>
        <time>2021-08-23T17:09:05.000Z</time>
      </trkpt>
      <trkpt lat="47.20822" lon="-1.51481">
        <ele>57</ele>
        <time>2021-08-23T17:09:07.000Z</time>
      </trkpt>
      <trkpt lat="47.20818" lon="-1.51501">
        <ele>57</ele>
        <time>2021-08-23T17:09:09.000Z</time>
      </trkpt>
      <trkpt lat="47.20815" lon="-1.51521">
        <ele>56</ele>
        <time>2021-08-23T17:09:11.000Z</time>
      </trkpt>
      <trkpt lat="47.20812" lon="-1.5154">
        <ele>56</ele>
        <time>2021-08-23T17:09:13.000Z</time>
      </trkpt>
      <trkpt lat="47.20809" lon="-1.5156">
        <ele>56</ele>
        <time>2021-08-23T17:09:15.000Z</time>
      </trkpt>
      <trkpt lat="47.20807" lon="-1.51579">
        <ele>56</ele>
        <time>2021-08-23T17:09:17.000Z</time>
      </trkpt>
      <trkpt lat="47.20805" lon="-1.51599">
        <ele>56</ele>
        <time>2021-08-23T17:09:19.000Z</time>
      </trkpt>
      <trkpt lat="47.20803" lon="-1.51618">
        <ele>56</ele>
        <time>2021-08-23T17:09:21.000Z</time>
      </trkpt>
      <trkpt lat="47.20801" lon="-1.51637">
        <ele>56</ele>
        <time>2021-08-23T17:09:23.000Z</time>
      </trkpt>
      <trkpt lat="47.20798" lon="-1.51656">
        <ele>56</ele>
        <time>2021-08-23T17:09:25.000Z</time>
      </trkpt>
      <trkpt lat="47.20794" lon="-1.51675">
        <ele>56</ele>
        <time>2021-08-23T17:09:27.000Z</time>
      </trkpt>
      <trkpt lat="47.20791" lon="-1.51693">
        <ele>56</ele>
        <time>2021-08-23T17:09:29.000Z</time>
      </trkpt>
      <trkpt lat="47.20788" lon="-1.51711">
        <ele>56</ele>
        <time>2021-08-23T17:09:31.000Z</time>
      </trkpt>
      <trkpt lat="47.20784" lon="-1.51729">
        <ele>56</ele>
        <time>2021-08-23T17:09:33.000Z</time>
      </trkpt>
      <trkpt lat="47.20779" lon="-1.51747">
        <ele>56</ele>
        <time>2021-08-23T17:09:35.000Z</time>
      </trkpt>
      <trkpt lat="47.20774" lon="-1.51766">
        <ele>55</ele>
        <time>2021-08-23T17:09:37.000Z</time>
      </trkpt>
      <trkpt lat="47.2077" lon="-1.51785">
        <ele>55</ele>
        <time>2021-08-23T17:09:39.000Z</time>
      </trkpt>
      <trkpt lat="47.20767" lon="-1.51805">
        <ele>56</ele>
        <time>2021-08-23T17:09:41.000Z</time>
      </trkpt>
      <trkpt lat="47.20762" lon="-1.51823">
        <ele>56</ele>
        <time>2021-08-23T17:09:43.000Z</time>
      </trkpt>
      <trkpt lat="47.20758" lon="-1.5184">
        <ele>55</ele>
        <time>2021-08-23T17:09:45.000Z</time>
      </trkpt>
      <trkpt lat="47.2075" lon="-1.51857">
        <ele>55</ele>
        <time>2021-08-23T17:09:47.000Z</time>
      </trkpt>
      <trkpt lat="47.20743" lon="-1.51873">
        <ele>55</ele>
        <time>2021-08-23T17:09:49.000Z</time>
      </trkpt>
      <trkpt lat="47.20736" lon="-1.51891">
        <ele>56</ele>
        <time>2021-08-23T17:09:51.000Z</time>
      </trkpt>
      <trkpt lat="47.20729" lon="-1.51908">
        <ele>55</ele>
        <time>2021-08-23T17:09:53.000Z</time>
      </trkpt>
      <trkpt lat="47.20721" lon="-1.51925">
        <ele>55</ele>
        <time>2021-08-23T17:09:55.000Z</time>
      </trkpt>
      <trkpt lat="47.20713" lon="-1.51942">
        <ele>56</ele>
        <time>2021-08-23T17:09:57.000Z</time>
      </trkpt>
      <trkpt lat="47.20705" lon="-1.51957">
        <ele>55</ele>
        <time>2021-08-23T17:09:59.000Z</time>
      </trkpt>
      <trkpt lat="47.20695" lon="-1.51971">
        <ele>55</ele>
        <time>2021-08-23T17:10:01.000Z</time>
      </trkpt>
      <trkpt lat="47.20686" lon="-1.51987">
        <ele>56</ele>
        <time>2021-08-23T17:10:03.000Z</time>
      </trkpt>
      <trkpt lat="47.20678" lon="-1.52003">
        <ele>56</ele>
        <time>2021-08-23T17:10:05.000Z</time>
      </trkpt>
      <trkpt lat="47.20669" lon="-1.52019">
        <ele>56</ele>
        <time>2021-08-23T17:10:07.000Z</time>
      </trkpt>
      <trkpt lat="47.2066" lon="-1.52035">
        <ele>57</ele>
        <time>2021-08-23T17:10:09.000Z</time>
      </trkpt>
      <trkpt lat="47.20651" lon="-1.5205">
        <ele>57</ele>
        <time>2021-08-23T17:10:11.000Z</time>
      </trkpt>
      <trkpt lat="47.20641" lon="-1.52064">
        <ele>56</ele>
        <time>2021-08-23T17:10:13.000Z</time>
      </trkpt>
      <trkpt lat="47.20632" lon="-1.52078">
        <ele>56</ele>
        <time>2021-08-23T17:10:15.000Z</time>
      </trkpt>
      <trkpt lat="47.20623" lon="-1.52093">
        <ele>56</ele>
        <time>2021-08-23T17:10:17.000Z</time>
      </trkpt>
      <trkpt lat="47.20615" lon="-1.52108">
        <ele>56</ele>
        <time>2021-08-23T17:10:19.000Z</time>
      </trkpt>
      <trkpt lat="47.20606" lon="-1.52124">
        <ele>56</ele>
        <time>2021-08-23T17:10:21.000Z</time>
      </trkpt>
      <trkpt lat="47.20597" lon="-1.52139">
        <ele>57</ele>
        <time>2021-08-23T17:10:23.000Z</time>
      </trkpt>
      <trkpt lat="47.20589" lon="-1.52155">
        <ele>57</ele>
        <time>2021-08-23T17:10:25.000Z</time>
      </trkpt>
      <trkpt lat="47.20579" lon="-1.52171">
        <ele>56</ele>
        <time>2021-08-23T17:10:27.000Z</time>
      </trkpt>
      <trkpt lat="47.2057" lon="-1.52186">
        <ele>56</ele>
        <time>2021-08-23T17:10:29.000Z</time>
      </trkpt>
      <trkpt lat="47.20562" lon="-1.52202">
        <ele>56</ele>
        <time>2021-08-23T17:10:31.000Z</time>
      </trkpt>
      <trkpt lat="47.20554" lon="-1.52218">
        <ele>57</ele>
        <time>2021-08-23T17:10:33.000Z</time>
      </trkpt>
      <trkpt lat="47.20546" lon="-1.52234">
        <ele>57</ele>
        <time>2021-08-23T17:10:35.000Z</time>
      </trkpt>
      <trkpt lat="47.20537" lon="-1.5225">
        <ele>56</ele>
        <time>2021-08-23T17:10:37.000Z</time>
      </trkpt>
      <trkpt lat="47.2053" lon="-1.52266">
        <ele>56</ele>
        <time>2021-08-23T17:10:39.000Z</time>
      </trkpt>
      <trkpt lat="47.20524" lon="-1.52283">
        <ele>56</ele>
        <time>2021-08-23T17:10:41.000Z</time>
      </trkpt>
      <trkpt lat="47.2052" lon="-1.52302">
        <ele>56</ele>
        <time>2021-08-23T17:10:43.000Z</time>
      </trkpt>
      <trkpt lat="47.20515" lon="-1.52323">
        <ele>55</ele>
        <time>2021-08-23T17:10:45.000Z</time>
      </trkpt>
      <trkpt lat="47.20509" lon="-1.52344">
        <ele>55</ele>
        <time>2021-08-23T17:10:47.000Z</time>
      </trkpt>
      <trkpt lat="47.20503" lon="-1.52364">
        <ele>55</ele>
        <time>2021-08-23T17:10:49.000Z</time>
      </trkpt>
      <trkpt lat="47.20498" lon="-1.52382">
        <ele>54</ele>
        <time>2021-08-23T17:10:51.000Z</time>
      </trkpt>
      <trkpt lat="47.20495" lon="-1.52397">
        <ele>55</ele>
        <time>2021-08-23T17:10:53.000Z</time>
      </trkpt>
      <trkpt lat="47.2049" lon="-1.52412">
        <ele>56</ele>
        <time>2021-08-23T17:10:55.000Z</time>
      </trkpt>
      <trkpt lat="47.20482" lon="-1.52428">
        <ele>58</ele>
        <time>2021-08-23T17:10:57.000Z</time>
      </trkpt>
      <trkpt lat="47.20475" lon="-1.52445">
        <ele>58</ele>
        <time>2021-08-23T17:10:59.000Z</time>
      </trkpt>
      <trkpt lat="47.20468" lon="-1.52463">
        <ele>58</ele>
        <time>2021-08-23T17:11:01.000Z</time>
      </trkpt>
      <trkpt lat="47.20461" lon="-1.5248">
        <ele>58</ele>
        <time>2021-08-23T17:11:03.000Z</time>
      </trkpt>
      <trkpt lat="47.20454" lon="-1.52499">
        <ele>57</ele>
        <time>2021-08-23T17:11:05.000Z</time>
      </trkpt>
      <trkpt lat="47.20447" lon="-1.52518">
        <ele>57</ele>
        <time>2021-08-23T17:11:07.000Z</time>
      </trkpt>
      <trkpt lat="47.20439" lon="-1.52537">
        <ele>57</ele>
        <time>2021-08-23T17:11:09.000Z</time>
      </trkpt>
      <trkpt lat="47.20433" lon="-1.52555">
        <ele>56</ele>
        <time>2021-08-23T17:11:11.000Z</time>
      </trkpt>
      <trkpt lat="47.20427" lon="-1.52573">
        <ele>56</ele>
        <time>2021-08-23T17:11:13.000Z</time>
      </trkpt>
      <trkpt lat="47.20422" lon="-1.52592">
        <ele>56</ele>
        <time>2021-08-23T17:11:15.000Z</time>
      </trkpt>
      <trkpt lat="47.20416" lon="-1.52611">
        <ele>56</ele>
        <time>2021-08-23T17:11:17.000Z</time>
      </trkpt>
      <trkpt lat="47.20411" lon="-1.52629">
        <ele>56</ele>
        <time>2021-08-23T17:11:19.000Z</time>
      </trkpt>
      <trkpt lat="47.20404" lon="-1.52647">
        <ele>56</ele>
        <time>2021-08-23T17:11:21.000Z</time>
      </trkpt>
      <trkpt lat="47.20397" lon="-1.52663">
        <ele>56</ele>
        <time>2021-08-23T17:11:23.000Z</time>
      </trkpt>
      <trkpt lat="47.2039" lon="-1.5268">
        <ele>56</ele>
        <time>2021-08-23T17:11:25.000Z</time>
      </trkpt>
      <trkpt lat="47.20381" lon="-1.52696">
        <ele>56</ele>
        <time>2021-08-23T17:11:27.000Z</time>
      </trkpt>
      <trkpt lat="47.20372" lon="-1.52712">
        <ele>56</ele>
        <time>2021-08-23T17:11:29.000Z</time>
      </trkpt>
      <trkpt lat="47.20363" lon="-1.52728">
        <ele>55</ele>
        <time>2021-08-23T17:11:31.000Z</time>
      </trkpt>
      <trkpt lat="47.20354" lon="-1.52744">
        <ele>55</ele>
        <time>2021-08-23T17:11:33.000Z</time>
      </trkpt>
      <trkpt lat="47.20346" lon="-1.5276">
        <ele>56</ele>
        <time>2021-08-23T17:11:35.000Z</time>
      </trkpt>
      <trkpt lat="47.20339" lon="-1.52777">
        <ele>55</ele>
        <time>2021-08-23T17:11:37.000Z</time>
      </trkpt>
      <trkpt lat="47.20331" lon="-1.52793">
        <ele>56</ele>
        <time>2021-08-23T17:11:39.000Z</time>
      </trkpt>
      <trkpt lat="47.20324" lon="-1.5281">
        <ele>56</ele>
        <time>2021-08-23T17:11:41.000Z</time>
      </trkpt>
      <trkpt lat="47.20315" lon="-1.52827">
        <ele>56</ele>
        <time>2021-08-23T17:11:43.000Z</time>
      </trkpt>
      <trkpt lat="47.20307" lon="-1.52843">
        <ele>56</ele>
        <time>2021-08-23T17:11:45.000Z</time>
      </trkpt>
      <trkpt lat="47.20299" lon="-1.52859">
        <ele>56</ele>
        <time>2021-08-23T17:11:47.000Z</time>
      </trkpt>
      <trkpt lat="47.20292" lon="-1.52875">
        <ele>56</ele>
        <time>2021-08-23T17:11:49.000Z</time>
      </trkpt>
      <trkpt lat="47.20286" lon="-1.52892">
        <ele>57</ele>
        <time>2021-08-23T17:11:51.000Z</time>
      </trkpt>
      <trkpt lat="47.2028" lon="-1.52909">
        <ele>57</ele>
        <time>2021-08-23T17:11:53.000Z</time>
      </trkpt>
      <trkpt lat="47.20273" lon="-1.52925">
        <ele>56</ele>
        <time>2021-08-23T17:11:55.000Z</time>
      </trkpt>
      <trkpt lat="47.20265" lon="-1.52939">
        <ele>56</ele>
        <time>2021-08-23T17:11:57.000Z</time>
      </trkpt>
      <trkpt lat="47.20257" lon="-1.52954">
        <ele>56</ele>
        <time>2021-08-23T17:11:59.000Z</time>
      </trkpt>
      <trkpt lat="47.20248" lon="-1.52969">
        <ele>56</ele>
        <time>2021-08-23T17:12:01.000Z</time>
      </trkpt>
      <trkpt lat="47.2024" lon="-1.52983">
        <ele>56</ele>
        <time>2021-08-23T17:12:03.000Z</time>
      </trkpt>
      <trkpt lat="47.20232" lon="-1.52999">
        <ele>56</ele>
        <time>2021-08-23T17:12:05.000Z</time>
      </trkpt>
      <trkpt lat="47.20224" lon="-1.53014">
        <ele>56</ele>
        <time>2021-08-23T17:12:07.000Z</time>
      </trkpt>
      <trkpt lat="47.20215" lon="-1.53026">
        <ele>57</ele>
        <time>2021-08-23T17:12:09.000Z</time>
      </trkpt>
      <trkpt lat="47.20204" lon="-1.53037">
        <ele>56</ele>
        <time>2021-08-23T17:12:11.000Z</time>
      </trkpt>
      <trkpt lat="47.20194" lon="-1.53047">
        <ele>56</ele>
        <time>2021-08-23T17:12:13.000Z</time>
      </trkpt>
      <trkpt lat="47.20184" lon="-1.5306">
        <ele>57</ele>
        <time>2021-08-23T17:12:15.000Z</time>
      </trkpt>
      <trkpt lat="47.20176" lon="-1.53073">
        <ele>57</ele>
        <time>2021-08-23T17:12:17.000Z</time>
      </trkpt>
      <trkpt lat="47.20168" lon="-1.53089">
        <ele>57</ele>
        <time>2021-08-23T17:12:19.000Z</time>
      </trkpt>
      <trkpt lat="47.2016" lon="-1.53104">
        <ele>57</ele>
        <time>2021-08-23T17:12:21.000Z</time>
      </trkpt>
      <trkpt lat="47.20153" lon="-1.53121">
        <ele>56</ele>
        <time>2021-08-23T17:12:23.000Z</time>
      </trkpt>
      <trkpt lat="47.20146" lon="-1.53137">
        <ele>56</ele>
        <time>2021-08-23T17:12:25.000Z</time>
      </trkpt>
      <trkpt lat="47.20139" lon="-1.53154">
        <ele>57</ele>
        <time>2021-08-23T17:12:27.000Z</time>
      </trkpt>
      <trkpt lat="47.20132" lon="-1.5317">
        <ele>57</ele>
        <time>2021-08-23T17:12:29.000Z</time>
      </trkpt>
      <trkpt lat="47.20127" lon="-1.53187">
        <ele>57</ele>
        <time>2021-08-23T17:12:31.000Z</time>
      </trkpt>
      <trkpt lat="47.20123" lon="-1.53205">
        <ele>56</ele>
        <time>2021-08-23T17:12:33.000Z</time>
      </trkpt>
      <trkpt lat="47.20119" lon="-1.53223">
        <ele>56</ele>
        <time>2021-08-23T17:12:35.000Z</time>
      </trkpt>
      <trkpt lat="47.20115" lon="-1.53242">
        <ele>56</ele>
        <time>2021-08-23T17:12:37.000Z</time>
      </trkpt>
      <trkpt lat="47.20109" lon="-1.5326">
        <ele>56</ele>
        <time>2021-08-23T17:12:39.000Z</time>
      </trkpt>
      <trkpt lat="47.20104" lon="-1.53276">
        <ele>56</ele>
        <time>2021-08-23T17:12:41.000Z</time>
      </trkpt>
      <trkpt lat="47.20098" lon="-1.53294">
        <ele>57</ele>
        <time>2021-08-23T17:12:43.000Z</time>
      </trkpt>
      <trkpt lat="47.20092" lon="-1.5331">
        <ele>56</ele>
        <time>2021-08-23T17:12:45.000Z</time>
      </trkpt>
      <trkpt lat="47.20085" lon="-1.53326">
        <ele>57</ele>
        <time>2021-08-23T17:12:47.000Z</time>
      </trkpt>
      <trkpt lat="47.20078" lon="-1.53341">
        <ele>57</ele>
        <time>2021-08-23T17:12:49.000Z</time>
      </trkpt>
      <trkpt lat="47.20072" lon="-1.53356">
        <ele>57</ele>
        <time>2021-08-23T17:12:51.000Z</time>
      </trkpt>
      <trkpt lat="47.20065" lon="-1.53372">
        <ele>57</ele>
        <time>2021-08-23T17:12:53.000Z</time>
      </trkpt>
      <trkpt lat="47.20059" lon="-1.53388">
        <ele>56</ele>
        <time>2021-08-23T17:12:55.000Z</time>
      </trkpt>
      <trkpt lat="47.20053" lon="-1.53403">
        <ele>56</ele>
        <time>2021-08-23T17:12:57.000Z</time>
      </trkpt>
      <trkpt lat="47.20046" lon="-1.53417">
        <ele>56</ele>
        <time>2021-08-23T17:12:59.000Z</time>
      </trkpt>
      <trkpt lat="47.20041" lon="-1.53433">
        <ele>56</ele>
        <time>2021-08-23T17:13:01.000Z</time>
      </trkpt>
      <trkpt lat="47.20035" lon="-1.53452">
        <ele>56</ele>
        <time>2021-08-23T17:13:03.000Z</time>
      </trkpt>
      <trkpt lat="47.20027" lon="-1.53471">
        <ele>56</ele>
        <time>2021-08-23T17:13:05.000Z</time>
      </trkpt>
      <trkpt lat="47.2002" lon="-1.53489">
        <ele>56</ele>
        <time>2021-08-23T17:13:07.000Z</time>
      </trkpt>
      <trkpt lat="47.20011" lon="-1.53505">
        <ele>56</ele>
        <time>2021-08-23T17:13:09.000Z</time>
      </trkpt>
      <trkpt lat="47.2" lon="-1.53518">
        <ele>56</ele>
        <time>2021-08-23T17:13:11.000Z</time>
      </trkpt>
      <trkpt lat="47.19989" lon="-1.53531">
        <ele>56</ele>
        <time>2021-08-23T17:13:13.000Z</time>
      </trkpt>
      <trkpt lat="47.19981" lon="-1.53545">
        <ele>57</ele>
        <time>2021-08-23T17:13:15.000Z</time>
      </trkpt>
      <trkpt lat="47.19975" lon="-1.53563">
        <ele>57</ele>
        <time>2021-08-23T17:13:17.000Z</time>
      </trkpt>
      <trkpt lat="47.19971" lon="-1.5358">
        <ele>58</ele>
        <time>2021-08-23T17:13:19.000Z</time>
      </trkpt>
      <trkpt lat="47.19967" lon="-1.53599">
        <ele>59</ele>
        <time>2021-08-23T17:13:21.000Z</time>
      </trkpt>
      <trkpt lat="47.19964" lon="-1.53618">
        <ele>60</ele>
        <time>2021-08-23T17:13:23.000Z</time>
      </trkpt>
      <trkpt lat="47.19957" lon="-1.53648">
        <ele>60</ele>
        <time>2021-08-23T17:13:26.000Z</time>
      </trkpt>
      <trkpt lat="47.19953" lon="-1.53667">
        <ele>60</ele>
        <time>2021-08-23T17:13:28.000Z</time>
      </trkpt>
      <trkpt lat="47.19949" lon="-1.53686">
        <ele>61</ele>
        <time>2021-08-23T17:13:30.000Z</time>
      </trkpt>
      <trkpt lat="47.19944" lon="-1.53705">
        <ele>61</ele>
        <time>2021-08-23T17:13:32.000Z</time>
      </trkpt>
      <trkpt lat="47.19941" lon="-1.53725">
        <ele>61</ele>
        <time>2021-08-23T17:13:34.000Z</time>
      </trkpt>
      <trkpt lat="47.19936" lon="-1.53754">
        <ele>62</ele>
        <time>2021-08-23T17:13:37.000Z</time>
      </trkpt>
      <trkpt lat="47.1993" lon="-1.53781">
        <ele>63</ele>
        <time>2021-08-23T17:13:40.000Z</time>
      </trkpt>
      <trkpt lat="47.19928" lon="-1.538">
        <ele>63</ele>
        <time>2021-08-23T17:13:42.000Z</time>
      </trkpt>
      <trkpt lat="47.19926" lon="-1.53817">
        <ele>63</ele>
        <time>2021-08-23T17:13:44.000Z</time>
      </trkpt>
      <trkpt lat="47.19922" lon="-1.53835">
        <ele>63</ele>
        <time>2021-08-23T17:13:46.000Z</time>
      </trkpt>
      <trkpt lat="47.19917" lon="-1.53853">
        <ele>63</ele>
        <time>2021-08-23T17:13:48.000Z</time>
      </trkpt>
      <trkpt lat="47.19911" lon="-1.53881">
        <ele>63</ele>
        <time>2021-08-23T17:13:51.000Z</time>
      </trkpt>
      <trkpt lat="47.19908" lon="-1.53898">
        <ele>64</ele>
        <time>2021-08-23T17:13:53.000Z</time>
      </trkpt>
      <trkpt lat="47.19901" lon="-1.53916">
        <ele>64</ele>
        <time>2021-08-23T17:13:55.000Z</time>
      </trkpt>
      <trkpt lat="47.19895" lon="-1.53935">
        <ele>63</ele>
        <time>2021-08-23T17:13:57.000Z</time>
      </trkpt>
      <trkpt lat="47.19889" lon="-1.53953">
        <ele>63</ele>
        <time>2021-08-23T17:13:59.000Z</time>
      </trkpt>
      <trkpt lat="47.19884" lon="-1.53973">
        <ele>62</ele>
        <time>2021-08-23T17:14:01.000Z</time>
      </trkpt>
      <trkpt lat="47.19878" lon="-1.53991">
        <ele>62</ele>
        <time>2021-08-23T17:14:03.000Z</time>
      </trkpt>
      <trkpt lat="47.19873" lon="-1.54009">
        <ele>62</ele>
        <time>2021-08-23T17:14:05.000Z</time>
      </trkpt>
      <trkpt lat="47.19867" lon="-1.54026">
        <ele>61</ele>
        <time>2021-08-23T17:14:07.000Z</time>
      </trkpt>
      <trkpt lat="47.19862" lon="-1.54042">
        <ele>62</ele>
        <time>2021-08-23T17:14:09.000Z</time>
      </trkpt>
      <trkpt lat="47.19855" lon="-1.54058">
        <ele>61</ele>
        <time>2021-08-23T17:14:11.000Z</time>
      </trkpt>
      <trkpt lat="47.19849" lon="-1.54079">
        <ele>61</ele>
        <time>2021-08-23T17:14:13.000Z</time>
      </trkpt>
      <trkpt lat="47.19844" lon="-1.54099">
        <ele>61</ele>
        <time>2021-08-23T17:14:15.000Z</time>
      </trkpt>
      <trkpt lat="47.19836" lon="-1.54114">
        <ele>60</ele>
        <time>2021-08-23T17:14:17.000Z</time>
      </trkpt>
      <trkpt lat="47.19831" lon="-1.54129">
        <ele>60</ele>
        <time>2021-08-23T17:14:19.000Z</time>
      </trkpt>
      <trkpt lat="47.19827" lon="-1.54142">
        <ele>60</ele>
        <time>2021-08-23T17:14:21.000Z</time>
      </trkpt>
      <trkpt lat="47.1982" lon="-1.54153">
        <ele>60</ele>
        <time>2021-08-23T17:14:23.000Z</time>
      </trkpt>
      <trkpt lat="47.19813" lon="-1.54163">
        <ele>60</ele>
        <time>2021-08-23T17:14:25.000Z</time>
      </trkpt>
      <trkpt lat="47.19808" lon="-1.54175">
        <ele>61</ele>
        <time>2021-08-23T17:14:27.000Z</time>
      </trkpt>
      <trkpt lat="47.19803" lon="-1.5419">
        <ele>60</ele>
        <time>2021-08-23T17:14:30.000Z</time>
      </trkpt>
      <trkpt lat="47.19799" lon="-1.54203">
        <ele>60</ele>
        <time>2021-08-23T17:14:35.000Z</time>
      </trkpt>
      <trkpt lat="47.19795" lon="-1.54216">
        <ele>59</ele>
        <time>2021-08-23T17:14:50.000Z</time>
      </trkpt>
      <trkpt lat="47.19789" lon="-1.5423">
        <ele>60</ele>
        <time>2021-08-23T17:14:52.000Z</time>
      </trkpt>
      <trkpt lat="47.19783" lon="-1.54245">
        <ele>60</ele>
        <time>2021-08-23T17:14:54.000Z</time>
      </trkpt>
      <trkpt lat="47.19774" lon="-1.5426">
        <ele>59</ele>
        <time>2021-08-23T17:14:56.000Z</time>
      </trkpt>
      <trkpt lat="47.19762" lon="-1.54275">
        <ele>59</ele>
        <time>2021-08-23T17:14:58.000Z</time>
      </trkpt>
      <trkpt lat="47.19752" lon="-1.5429">
        <ele>58</ele>
        <time>2021-08-23T17:15:00.000Z</time>
      </trkpt>
      <trkpt lat="47.1974" lon="-1.54301">
        <ele>58</ele>
        <time>2021-08-23T17:15:02.000Z</time>
      </trkpt>
      <trkpt lat="47.19726" lon="-1.54311">
        <ele>57</ele>
        <time>2021-08-23T17:15:04.000Z</time>
      </trkpt>
      <trkpt lat="47.19712" lon="-1.54322">
        <ele>57</ele>
        <time>2021-08-23T17:15:06.000Z</time>
      </trkpt>
      <trkpt lat="47.19699" lon="-1.54332">
        <ele>57</ele>
        <time>2021-08-23T17:15:08.000Z</time>
      </trkpt>
      <trkpt lat="47.19685" lon="-1.54343">
        <ele>57</ele>
        <time>2021-08-23T17:15:10.000Z</time>
      </trkpt>
      <trkpt lat="47.19672" lon="-1.54353">
        <ele>57</ele>
        <time>2021-08-23T17:15:12.000Z</time>
      </trkpt>
      <trkpt lat="47.19659" lon="-1.54362">
        <ele>57</ele>
        <time>2021-08-23T17:15:14.000Z</time>
      </trkpt>
      <trkpt lat="47.19647" lon="-1.54373">
        <ele>57</ele>
        <time>2021-08-23T17:15:16.000Z</time>
      </trkpt>
      <trkpt lat="47.19635" lon="-1.54384">
        <ele>57</ele>
        <time>2021-08-23T17:15:18.000Z</time>
      </trkpt>
      <trkpt lat="47.19623" lon="-1.54395">
        <ele>57</ele>
        <time>2021-08-23T17:15:20.000Z</time>
      </trkpt>
      <trkpt lat="47.19611" lon="-1.54408">
        <ele>57</ele>
        <time>2021-08-23T17:15:22.000Z</time>
      </trkpt>
      <trkpt lat="47.196" lon="-1.54419">
        <ele>57</ele>
        <time>2021-08-23T17:15:24.000Z</time>
      </trkpt>
      <trkpt lat="47.19589" lon="-1.5443">
        <ele>57</ele>
        <time>2021-08-23T17:15:26.000Z</time>
      </trkpt>
      <trkpt lat="47.19576" lon="-1.54441">
        <ele>58</ele>
        <time>2021-08-23T17:15:28.000Z</time>
      </trkpt>
      <trkpt lat="47.19564" lon="-1.54453">
        <ele>58</ele>
        <time>2021-08-23T17:15:30.000Z</time>
      </trkpt>
      <trkpt lat="47.19553" lon="-1.54464">
        <ele>59</ele>
        <time>2021-08-23T17:15:32.000Z</time>
      </trkpt>
      <trkpt lat="47.19542" lon="-1.54475">
        <ele>59</ele>
        <time>2021-08-23T17:15:34.000Z</time>
      </trkpt>
      <trkpt lat="47.19531" lon="-1.54486">
        <ele>59</ele>
        <time>2021-08-23T17:15:36.000Z</time>
      </trkpt>
      <trkpt lat="47.1952" lon="-1.54496">
        <ele>59</ele>
        <time>2021-08-23T17:15:38.000Z</time>
      </trkpt>
      <trkpt lat="47.19508" lon="-1.54506">
        <ele>59</ele>
        <time>2021-08-23T17:15:40.000Z</time>
      </trkpt>
      <trkpt lat="47.19496" lon="-1.54515">
        <ele>59</ele>
        <time>2021-08-23T17:15:42.000Z</time>
      </trkpt>
      <trkpt lat="47.19485" lon="-1.54526">
        <ele>58</ele>
        <time>2021-08-23T17:15:44.000Z</time>
      </trkpt>
      <trkpt lat="47.19476" lon="-1.54541">
        <ele>58</ele>
        <time>2021-08-23T17:15:46.000Z</time>
      </trkpt>
      <trkpt lat="47.1947" lon="-1.54559">
        <ele>58</ele>
        <time>2021-08-23T17:15:48.000Z</time>
      </trkpt>
      <trkpt lat="47.1947" lon="-1.54578">
        <ele>58</ele>
        <time>2021-08-23T17:15:50.000Z</time>
      </trkpt>
      <trkpt lat="47.19474" lon="-1.54598">
        <ele>57</ele>
        <time>2021-08-23T17:15:52.000Z</time>
      </trkpt>
      <trkpt lat="47.19469" lon="-1.54619">
        <ele>57</ele>
        <time>2021-08-23T17:15:54.000Z</time>
      </trkpt>
      <trkpt lat="47.19457" lon="-1.54632">
        <ele>57</ele>
        <time>2021-08-23T17:15:56.000Z</time>
      </trkpt>
      <trkpt lat="47.19444" lon="-1.5464">
        <ele>58</ele>
        <time>2021-08-23T17:15:58.000Z</time>
      </trkpt>
      <trkpt lat="47.19437" lon="-1.54658">
        <ele>58</ele>
        <time>2021-08-23T17:16:00.000Z</time>
      </trkpt>
      <trkpt lat="47.19434" lon="-1.54678">
        <ele>58</ele>
        <time>2021-08-23T17:16:02.000Z</time>
      </trkpt>
      <trkpt lat="47.1943" lon="-1.54699">
        <ele>59</ele>
        <time>2021-08-23T17:16:04.000Z</time>
      </trkpt>
      <trkpt lat="47.19424" lon="-1.54718">
        <ele>59</ele>
        <time>2021-08-23T17:16:06.000Z</time>
      </trkpt>
      <trkpt lat="47.19418" lon="-1.54736">
        <ele>59</ele>
        <time>2021-08-23T17:16:08.000Z</time>
      </trkpt>
      <trkpt lat="47.19413" lon="-1.54754">
        <ele>59</ele>
        <time>2021-08-23T17:16:10.000Z</time>
      </trkpt>
      <trkpt lat="47.19409" lon="-1.54771">
        <ele>60</ele>
        <time>2021-08-23T17:16:12.000Z</time>
      </trkpt>
      <trkpt lat="47.19404" lon="-1.54788">
        <ele>61</ele>
        <time>2021-08-23T17:16:14.000Z</time>
      </trkpt>
      <trkpt lat="47.194" lon="-1.54806">
        <ele>61</ele>
        <time>2021-08-23T17:16:16.000Z</time>
      </trkpt>
      <trkpt lat="47.19396" lon="-1.54822">
        <ele>61</ele>
        <time>2021-08-23T17:16:18.000Z</time>
      </trkpt>
      <trkpt lat="47.19392" lon="-1.54838">
        <ele>62</ele>
        <time>2021-08-23T17:16:20.000Z</time>
      </trkpt>
      <trkpt lat="47.19389" lon="-1.54855">
        <ele>62</ele>
        <time>2021-08-23T17:16:22.000Z</time>
      </trkpt>
      <trkpt lat="47.19384" lon="-1.54872">
        <ele>63</ele>
        <time>2021-08-23T17:16:24.000Z</time>
      </trkpt>
      <trkpt lat="47.1938" lon="-1.5489">
        <ele>63</ele>
        <time>2021-08-23T17:16:26.000Z</time>
      </trkpt>
      <trkpt lat="47.19376" lon="-1.54906">
        <ele>64</ele>
        <time>2021-08-23T17:16:28.000Z</time>
      </trkpt>
      <trkpt lat="47.19372" lon="-1.54921">
        <ele>64</ele>
        <time>2021-08-23T17:16:30.000Z</time>
      </trkpt>
      <trkpt lat="47.19368" lon="-1.54936">
        <ele>64</ele>
        <time>2021-08-23T17:16:32.000Z</time>
      </trkpt>
      <trkpt lat="47.19364" lon="-1.5495">
        <ele>65</ele>
        <time>2021-08-23T17:16:34.000Z</time>
      </trkpt>
      <trkpt lat="47.1936" lon="-1.54966">
        <ele>64</ele>
        <time>2021-08-23T17:16:36.000Z</time>
      </trkpt>
      <trkpt lat="47.19356" lon="-1.54982">
        <ele>64</ele>
        <time>2021-08-23T17:16:38.000Z</time>
      </trkpt>
      <trkpt lat="47.19353" lon="-1.55">
        <ele>64</ele>
        <time>2021-08-23T17:16:40.000Z</time>
      </trkpt>
      <trkpt lat="47.19348" lon="-1.55017">
        <ele>64</ele>
        <time>2021-08-23T17:16:42.000Z</time>
      </trkpt>
      <trkpt lat="47.19344" lon="-1.55034">
        <ele>63</ele>
        <time>2021-08-23T17:16:44.000Z</time>
      </trkpt>
      <trkpt lat="47.1934" lon="-1.55052">
        <ele>62</ele>
        <time>2021-08-23T17:16:46.000Z</time>
      </trkpt>
      <trkpt lat="47.19335" lon="-1.5507">
        <ele>62</ele>
        <time>2021-08-23T17:16:48.000Z</time>
      </trkpt>
      <trkpt lat="47.1933" lon="-1.55088">
        <ele>61</ele>
        <time>2021-08-23T17:16:50.000Z</time>
      </trkpt>
      <trkpt lat="47.19325" lon="-1.55108">
        <ele>61</ele>
        <time>2021-08-23T17:16:52.000Z</time>
      </trkpt>
      <trkpt lat="47.1932" lon="-1.55129">
        <ele>60</ele>
        <time>2021-08-23T17:16:54.000Z</time>
      </trkpt>
      <trkpt lat="47.19316" lon="-1.55149">
        <ele>59</ele>
        <time>2021-08-23T17:16:56.000Z</time>
      </trkpt>
      <trkpt lat="47.1931" lon="-1.5517">
        <ele>59</ele>
        <time>2021-08-23T17:16:58.000Z</time>
      </trkpt>
      <trkpt lat="47.19305" lon="-1.55191">
        <ele>58</ele>
        <time>2021-08-23T17:17:00.000Z</time>
      </trkpt>
      <trkpt lat="47.193" lon="-1.55211">
        <ele>58</ele>
        <time>2021-08-23T17:17:02.000Z</time>
      </trkpt>
      <trkpt lat="47.19295" lon="-1.55231">
        <ele>58</ele>
        <time>2021-08-23T17:17:04.000Z</time>
      </trkpt>
      <trkpt lat="47.1929" lon="-1.55252">
        <ele>58</ele>
        <time>2021-08-23T17:17:06.000Z</time>
      </trkpt>
      <trkpt lat="47.19285" lon="-1.55273">
        <ele>57</ele>
        <time>2021-08-23T17:17:08.000Z</time>
      </trkpt>
      <trkpt lat="47.1928" lon="-1.55296">
        <ele>57</ele>
        <time>2021-08-23T17:17:10.000Z</time>
      </trkpt>
      <trkpt lat="47.19277" lon="-1.55317">
        <ele>57</ele>
        <time>2021-08-23T17:17:12.000Z</time>
      </trkpt>
      <trkpt lat="47.19272" lon="-1.55338">
        <ele>57</ele>
        <time>2021-08-23T17:17:14.000Z</time>
      </trkpt>
      <trkpt lat="47.19266" lon="-1.55358">
        <ele>57</ele>
        <time>2021-08-23T17:17:16.000Z</time>
      </trkpt>
      <trkpt lat="47.19261" lon="-1.55377">
        <ele>57</ele>
        <time>2021-08-23T17:17:18.000Z</time>
      </trkpt>
      <trkpt lat="47.19255" lon="-1.55394">
        <ele>57</ele>
        <time>2021-08-23T17:17:20.000Z</time>
      </trkpt>
      <trkpt lat="47.19253" lon="-1.55413">
        <ele>57</ele>
        <time>2021-08-23T17:17:22.000Z</time>
      </trkpt>
      <trkpt lat="47.19257" lon="-1.55431">
        <ele>57</ele>
        <time>2021-08-23T17:17:24.000Z</time>
      </trkpt>
      <trkpt lat="47.19255" lon="-1.55453">
        <ele>56</ele>
        <time>2021-08-23T17:17:26.000Z</time>
      </trkpt>
      <trkpt lat="47.19247" lon="-1.55472">
        <ele>57</ele>
        <time>2021-08-23T17:17:28.000Z</time>
      </trkpt>
      <trkpt lat="47.19246" lon="-1.55495">
        <ele>57</ele>
        <time>2021-08-23T17:17:30.000Z</time>
      </trkpt>
      <trkpt lat="47.19246" lon="-1.55521">
        <ele>57</ele>
        <time>2021-08-23T17:17:32.000Z</time>
      </trkpt>
      <trkpt lat="47.19245" lon="-1.55547">
        <ele>57</ele>
        <time>2021-08-23T17:17:34.000Z</time>
      </trkpt>
      <trkpt lat="47.19244" lon="-1.5556">
        <ele>57</ele>
        <time>2021-08-23T17:17:35.000Z</time>
      </trkpt>
      <trkpt lat="47.19242" lon="-1.55573">
        <ele>57</ele>
        <time>2021-08-23T17:17:36.000Z</time>
      </trkpt>
      <trkpt lat="47.19241" lon="-1.55586">
        <ele>57</ele>
        <time>2021-08-23T17:17:37.000Z</time>
      </trkpt>
      <trkpt lat="47.1924" lon="-1.556">
        <ele>57</ele>
        <time>2021-08-23T17:17:38.000Z</time>
      </trkpt>
      <trkpt lat="47.19239" lon="-1.55626">
        <ele>57</ele>
        <time>2021-08-23T17:17:40.000Z</time>
      </trkpt>
      <trkpt lat="47.19238" lon="-1.55639">
        <ele>57</ele>
        <time>2021-08-23T17:17:41.000Z</time>
      </trkpt>
      <trkpt lat="47.19238" lon="-1.55653">
        <ele>57</ele>
        <time>2021-08-23T17:17:42.000Z</time>
      </trkpt>
      <trkpt lat="47.19238" lon="-1.55666">
        <ele>57</ele>
        <time>2021-08-23T17:17:43.000Z</time>
      </trkpt>
      <trkpt lat="47.19238" lon="-1.55679">
        <ele>57</ele>
        <time>2021-08-23T17:17:44.000Z</time>
      </trkpt>
      <trkpt lat="47.19237" lon="-1.55693">
        <ele>57</ele>
        <time>2021-08-23T17:17:45.000Z</time>
      </trkpt>
      <trkpt lat="47.19237" lon="-1.55706">
        <ele>57</ele>
        <time>2021-08-23T17:17:46.000Z</time>
      </trkpt>
      <trkpt lat="47.19237" lon="-1.55732">
        <ele>57</ele>
        <time>2021-08-23T17:17:48.000Z</time>
      </trkpt>
      <trkpt lat="47.19237" lon="-1.55758">
        <ele>58</ele>
        <time>2021-08-23T17:17:50.000Z</time>
      </trkpt>
      <trkpt lat="47.19237" lon="-1.55783">
        <ele>58</ele>
        <time>2021-08-23T17:17:52.000Z</time>
      </trkpt>
      <trkpt lat="47.19238" lon="-1.55809">
        <ele>58</ele>
        <time>2021-08-23T17:17:54.000Z</time>
      </trkpt>
      <trkpt lat="47.19238" lon="-1.55834">
        <ele>58</ele>
        <time>2021-08-23T17:17:56.000Z</time>
      </trkpt>
      <trkpt lat="47.1924" lon="-1.5586">
        <ele>58</ele>
        <time>2021-08-23T17:17:58.000Z</time>
      </trkpt>
      <trkpt lat="47.19241" lon="-1.55886">
        <ele>58</ele>
        <time>2021-08-23T17:18:00.000Z</time>
      </trkpt>
      <trkpt lat="47.19243" lon="-1.55911">
        <ele>57</ele>
        <time>2021-08-23T17:18:02.000Z</time>
      </trkpt>
      <trkpt lat="47.19245" lon="-1.55936">
        <ele>58</ele>
        <time>2021-08-23T17:18:04.000Z</time>
      </trkpt>
      <trkpt lat="47.19247" lon="-1.5596">
        <ele>57</ele>
        <time>2021-08-23T17:18:06.000Z</time>
      </trkpt>
      <trkpt lat="47.19249" lon="-1.55983">
        <ele>57</ele>
        <time>2021-08-23T17:18:08.000Z</time>
      </trkpt>
      <trkpt lat="47.19251" lon="-1.56007">
        <ele>57</ele>
        <time>2021-08-23T17:18:10.000Z</time>
      </trkpt>
      <trkpt lat="47.19253" lon="-1.5603">
        <ele>57</ele>
        <time>2021-08-23T17:18:12.000Z</time>
      </trkpt>
      <trkpt lat="47.19256" lon="-1.56053">
        <ele>57</ele>
        <time>2021-08-23T17:18:14.000Z</time>
      </trkpt>
      <trkpt lat="47.19258" lon="-1.56076">
        <ele>57</ele>
        <time>2021-08-23T17:18:16.000Z</time>
      </trkpt>
      <trkpt lat="47.1926" lon="-1.56099">
        <ele>58</ele>
        <time>2021-08-23T17:18:18.000Z</time>
      </trkpt>
      <trkpt lat="47.19261" lon="-1.56121">
        <ele>58</ele>
        <time>2021-08-23T17:18:20.000Z</time>
      </trkpt>
      <trkpt lat="47.19263" lon="-1.56144">
        <ele>58</ele>
        <time>2021-08-23T17:18:22.000Z</time>
      </trkpt>
      <trkpt lat="47.19263" lon="-1.56165">
        <ele>58</ele>
        <time>2021-08-23T17:18:24.000Z</time>
      </trkpt>
      <trkpt lat="47.19264" lon="-1.56187">
        <ele>57</ele>
        <time>2021-08-23T17:18:26.000Z</time>
      </trkpt>
      <trkpt lat="47.19266" lon="-1.56207">
        <ele>58</ele>
        <time>2021-08-23T17:18:28.000Z</time>
      </trkpt>
      <trkpt lat="47.19268" lon="-1.56225">
        <ele>58</ele>
        <time>2021-08-23T17:18:30.000Z</time>
      </trkpt>
      <trkpt lat="47.19273" lon="-1.56243">
        <ele>58</ele>
        <time>2021-08-23T17:18:32.000Z</time>
      </trkpt>
      <trkpt lat="47.19282" lon="-1.56257">
        <ele>57</ele>
        <time>2021-08-23T17:18:34.000Z</time>
      </trkpt>
      <trkpt lat="47.19289" lon="-1.56275">
        <ele>58</ele>
        <time>2021-08-23T17:18:36.000Z</time>
      </trkpt>
      <trkpt lat="47.1929" lon="-1.56297">
        <ele>58</ele>
        <time>2021-08-23T17:18:38.000Z</time>
      </trkpt>
      <trkpt lat="47.19285" lon="-1.56317">
        <ele>58</ele>
        <time>2021-08-23T17:18:40.000Z</time>
      </trkpt>
      <trkpt lat="47.19279" lon="-1.56338">
        <ele>58</ele>
        <time>2021-08-23T17:18:42.000Z</time>
      </trkpt>
      <trkpt lat="47.19282" lon="-1.56361">
        <ele>57</ele>
        <time>2021-08-23T17:18:44.000Z</time>
      </trkpt>
      <trkpt lat="47.19285" lon="-1.56385">
        <ele>57</ele>
        <time>2021-08-23T17:18:46.000Z</time>
      </trkpt>
      <trkpt lat="47.19287" lon="-1.56408">
        <ele>57</ele>
        <time>2021-08-23T17:18:48.000Z</time>
      </trkpt>
      <trkpt lat="47.19289" lon="-1.56431">
        <ele>57</ele>
        <time>2021-08-23T17:18:50.000Z</time>
      </trkpt>
      <trkpt lat="47.19291" lon="-1.56454">
        <ele>57</ele>
        <time>2021-08-23T17:18:52.000Z</time>
      </trkpt>
      <trkpt lat="47.19293" lon="-1.56477">
        <ele>57</ele>
        <time>2021-08-23T17:18:54.000Z</time>
      </trkpt>
      <trkpt lat="47.19295" lon="-1.565">
        <ele>57</ele>
        <time>2021-08-23T17:18:56.000Z</time>
      </trkpt>
      <trkpt lat="47.19298" lon="-1.56523">
        <ele>57</ele>
        <time>2021-08-23T17:18:58.000Z</time>
      </trkpt>
      <trkpt lat="47.193" lon="-1.56545">
        <ele>57</ele>
        <time>2021-08-23T17:19:00.000Z</time>
      </trkpt>
      <trkpt lat="47.19302" lon="-1.56568">
        <ele>57</ele>
        <time>2021-08-23T17:19:02.000Z</time>
      </trkpt>
      <trkpt lat="47.19304" lon="-1.56591">
        <ele>57</ele>
        <time>2021-08-23T17:19:04.000Z</time>
      </trkpt>
      <trkpt lat="47.19306" lon="-1.56613">
        <ele>57</ele>
        <time>2021-08-23T17:19:06.000Z</time>
      </trkpt>
      <trkpt lat="47.19308" lon="-1.56636">
        <ele>57</ele>
        <time>2021-08-23T17:19:08.000Z</time>
      </trkpt>
      <trkpt lat="47.1931" lon="-1.56659">
        <ele>57</ele>
        <time>2021-08-23T17:19:10.000Z</time>
      </trkpt>
      <trkpt lat="47.19312" lon="-1.56681">
        <ele>57</ele>
        <time>2021-08-23T17:19:12.000Z</time>
      </trkpt>
      <trkpt lat="47.19314" lon="-1.56703">
        <ele>57</ele>
        <time>2021-08-23T17:19:14.000Z</time>
      </trkpt>
      <trkpt lat="47.19316" lon="-1.56724">
        <ele>57</ele>
        <time>2021-08-23T17:19:16.000Z</time>
      </trkpt>
      <trkpt lat="47.19318" lon="-1.56747">
        <ele>57</ele>
        <time>2021-08-23T17:19:18.000Z</time>
      </trkpt>
      <trkpt lat="47.1932" lon="-1.56768">
        <ele>57</ele>
        <time>2021-08-23T17:19:20.000Z</time>
      </trkpt>
      <trkpt lat="47.19322" lon="-1.5679">
        <ele>57</ele>
        <time>2021-08-23T17:19:22.000Z</time>
      </trkpt>
      <trkpt lat="47.19324" lon="-1.56811">
        <ele>57</ele>
        <time>2021-08-23T17:19:24.000Z</time>
      </trkpt>
      <trkpt lat="47.19325" lon="-1.56832">
        <ele>57</ele>
        <time>2021-08-23T17:19:26.000Z</time>
      </trkpt>
      <trkpt lat="47.19326" lon="-1.56854">
        <ele>57</ele>
        <time>2021-08-23T17:19:28.000Z</time>
      </trkpt>
      <trkpt lat="47.19328" lon="-1.56875">
        <ele>57</ele>
        <time>2021-08-23T17:19:30.000Z</time>
      </trkpt>
      <trkpt lat="47.19328" lon="-1.56896">
        <ele>57</ele>
        <time>2021-08-23T17:19:32.000Z</time>
      </trkpt>
      <trkpt lat="47.19328" lon="-1.56918">
        <ele>57</ele>
        <time>2021-08-23T17:19:34.000Z</time>
      </trkpt>
      <trkpt lat="47.19328" lon="-1.56938">
        <ele>57</ele>
        <time>2021-08-23T17:19:36.000Z</time>
      </trkpt>
      <trkpt lat="47.19328" lon="-1.56959">
        <ele>58</ele>
        <time>2021-08-23T17:19:38.000Z</time>
      </trkpt>
      <trkpt lat="47.19327" lon="-1.56979">
        <ele>58</ele>
        <time>2021-08-23T17:19:40.000Z</time>
      </trkpt>
      <trkpt lat="47.19324" lon="-1.56999">
        <ele>58</ele>
        <time>2021-08-23T17:19:42.000Z</time>
      </trkpt>
      <trkpt lat="47.19323" lon="-1.57018">
        <ele>58</ele>
        <time>2021-08-23T17:19:44.000Z</time>
      </trkpt>
      <trkpt lat="47.19324" lon="-1.57032">
        <ele>57</ele>
        <time>2021-08-23T17:19:46.000Z</time>
      </trkpt>
      <trkpt lat="47.19333" lon="-1.57042">
        <ele>58</ele>
        <time>2021-08-23T17:19:50.000Z</time>
      </trkpt>
      <trkpt lat="47.19337" lon="-1.57055">
        <ele>58</ele>
        <time>2021-08-23T17:19:52.000Z</time>
      </trkpt>
      <trkpt lat="47.19336" lon="-1.57073">
        <ele>58</ele>
        <time>2021-08-23T17:19:54.000Z</time>
      </trkpt>
      <trkpt lat="47.19324" lon="-1.57087">
        <ele>58</ele>
        <time>2021-08-23T17:19:56.000Z</time>
      </trkpt>
      <trkpt lat="47.19312" lon="-1.57101">
        <ele>57</ele>
        <time>2021-08-23T17:19:58.000Z</time>
      </trkpt>
      <trkpt lat="47.19307" lon="-1.57121">
        <ele>57</ele>
        <time>2021-08-23T17:20:00.000Z</time>
      </trkpt>
      <trkpt lat="47.19305" lon="-1.57143">
        <ele>56</ele>
        <time>2021-08-23T17:20:02.000Z</time>
      </trkpt>
      <trkpt lat="47.19302" lon="-1.57164">
        <ele>56</ele>
        <time>2021-08-23T17:20:04.000Z</time>
      </trkpt>
      <trkpt lat="47.19299" lon="-1.57187">
        <ele>56</ele>
        <time>2021-08-23T17:20:06.000Z</time>
      </trkpt>
      <trkpt lat="47.19294" lon="-1.57209">
        <ele>57</ele>
        <time>2021-08-23T17:20:08.000Z</time>
      </trkpt>
      <trkpt lat="47.19289" lon="-1.57229">
        <ele>57</ele>
        <time>2021-08-23T17:20:10.000Z</time>
      </trkpt>
      <trkpt lat="47.19285" lon="-1.5725">
        <ele>57</ele>
        <time>2021-08-23T17:20:12.000Z</time>
      </trkpt>
      <trkpt lat="47.19282" lon="-1.57271">
        <ele>57</ele>
        <time>2021-08-23T17:20:14.000Z</time>
      </trkpt>
      <trkpt lat="47.19276" lon="-1.57291">
        <ele>57</ele>
        <time>2021-08-23T17:20:16.000Z</time>
      </trkpt>
      <trkpt lat="47.19271" lon="-1.5731">
        <ele>58</ele>
        <time>2021-08-23T17:20:18.000Z</time>
      </trkpt>
      <trkpt lat="47.19264" lon="-1.5733">
        <ele>58</ele>
        <time>2021-08-23T17:20:20.000Z</time>
      </trkpt>
      <trkpt lat="47.19258" lon="-1.57349">
        <ele>57</ele>
        <time>2021-08-23T17:20:22.000Z</time>
      </trkpt>
      <trkpt lat="47.19251" lon="-1.57369">
        <ele>58</ele>
        <time>2021-08-23T17:20:24.000Z</time>
      </trkpt>
      <trkpt lat="47.19245" lon="-1.57388">
        <ele>58</ele>
        <time>2021-08-23T17:20:26.000Z</time>
      </trkpt>
      <trkpt lat="47.19239" lon="-1.57408">
        <ele>58</ele>
        <time>2021-08-23T17:20:28.000Z</time>
      </trkpt>
      <trkpt lat="47.19232" lon="-1.57428">
        <ele>57</ele>
        <time>2021-08-23T17:20:30.000Z</time>
      </trkpt>
      <trkpt lat="47.19225" lon="-1.57447">
        <ele>58</ele>
        <time>2021-08-23T17:20:32.000Z</time>
      </trkpt>
      <trkpt lat="47.19217" lon="-1.57466">
        <ele>58</ele>
        <time>2021-08-23T17:20:34.000Z</time>
      </trkpt>
      <trkpt lat="47.19211" lon="-1.57486">
        <ele>58</ele>
        <time>2021-08-23T17:20:36.000Z</time>
      </trkpt>
      <trkpt lat="47.19203" lon="-1.57506">
        <ele>58</ele>
        <time>2021-08-23T17:20:38.000Z</time>
      </trkpt>
      <trkpt lat="47.19196" lon="-1.57525">
        <ele>58</ele>
        <time>2021-08-23T17:20:40.000Z</time>
      </trkpt>
      <trkpt lat="47.19189" lon="-1.57544">
        <ele>58</ele>
        <time>2021-08-23T17:20:42.000Z</time>
      </trkpt>
      <trkpt lat="47.19182" lon="-1.57564">
        <ele>58</ele>
        <time>2021-08-23T17:20:44.000Z</time>
      </trkpt>
      <trkpt lat="47.19176" lon="-1.57583">
        <ele>58</ele>
        <time>2021-08-23T17:20:46.000Z</time>
      </trkpt>
      <trkpt lat="47.19169" lon="-1.57602">
        <ele>58</ele>
        <time>2021-08-23T17:20:48.000Z</time>
      </trkpt>
      <trkpt lat="47.19162" lon="-1.57621">
        <ele>58</ele>
        <time>2021-08-23T17:20:50.000Z</time>
      </trkpt>
      <trkpt lat="47.19155" lon="-1.5764">
        <ele>58</ele>
        <time>2021-08-23T17:20:52.000Z</time>
      </trkpt>
      <trkpt lat="47.19148" lon="-1.57659">
        <ele>57</ele>
        <time>2021-08-23T17:20:54.000Z</time>
      </trkpt>
      <trkpt lat="47.19141" lon="-1.57678">
        <ele>57</ele>
        <time>2021-08-23T17:20:56.000Z</time>
      </trkpt>
      <trkpt lat="47.19135" lon="-1.57697">
        <ele>57</ele>
        <time>2021-08-23T17:20:58.000Z</time>
      </trkpt>
      <trkpt lat="47.19128" lon="-1.57715">
        <ele>57</ele>
        <time>2021-08-23T17:21:00.000Z</time>
      </trkpt>
      <trkpt lat="47.19122" lon="-1.57734">
        <ele>57</ele>
        <time>2021-08-23T17:21:02.000Z</time>
      </trkpt>
      <trkpt lat="47.19115" lon="-1.57752">
        <ele>57</ele>
        <time>2021-08-23T17:21:04.000Z</time>
      </trkpt>
      <trkpt lat="47.19108" lon="-1.57771">
        <ele>56</ele>
        <time>2021-08-23T17:21:06.000Z</time>
      </trkpt>
      <trkpt lat="47.19102" lon="-1.5779">
        <ele>56</ele>
        <time>2021-08-23T17:21:08.000Z</time>
      </trkpt>
      <trkpt lat="47.19095" lon="-1.57808">
        <ele>56</ele>
        <time>2021-08-23T17:21:10.000Z</time>
      </trkpt>
      <trkpt lat="47.19089" lon="-1.57827">
        <ele>56</ele>
        <time>2021-08-23T17:21:12.000Z</time>
      </trkpt>
      <trkpt lat="47.19082" lon="-1.57846">
        <ele>56</ele>
        <time>2021-08-23T17:21:14.000Z</time>
      </trkpt>
      <trkpt lat="47.19076" lon="-1.57864">
        <ele>56</ele>
        <time>2021-08-23T17:21:16.000Z</time>
      </trkpt>
      <trkpt lat="47.1907" lon="-1.57883">
        <ele>56</ele>
        <time>2021-08-23T17:21:18.000Z</time>
      </trkpt>
      <trkpt lat="47.19063" lon="-1.57901">
        <ele>56</ele>
        <time>2021-08-23T17:21:20.000Z</time>
      </trkpt>
      <trkpt lat="47.19056" lon="-1.5792">
        <ele>56</ele>
        <time>2021-08-23T17:21:22.000Z</time>
      </trkpt>
      <trkpt lat="47.19049" lon="-1.57939">
        <ele>56</ele>
        <time>2021-08-23T17:21:24.000Z</time>
      </trkpt>
      <trkpt lat="47.19042" lon="-1.57958">
        <ele>57</ele>
        <time>2021-08-23T17:21:26.000Z</time>
      </trkpt>
      <trkpt lat="47.19036" lon="-1.57977">
        <ele>57</ele>
        <time>2021-08-23T17:21:28.000Z</time>
      </trkpt>
      <trkpt lat="47.19029" lon="-1.57996">
        <ele>57</ele>
        <time>2021-08-23T17:21:30.000Z</time>
      </trkpt>
      <trkpt lat="47.19022" lon="-1.58015">
        <ele>57</ele>
        <time>2021-08-23T17:21:32.000Z</time>
      </trkpt>
      <trkpt lat="47.19016" lon="-1.58034">
        <ele>57</ele>
        <time>2021-08-23T17:21:34.000Z</time>
      </trkpt>
      <trkpt lat="47.19008" lon="-1.58053">
        <ele>57</ele>
        <time>2021-08-23T17:21:36.000Z</time>
      </trkpt>
      <trkpt lat="47.19002" lon="-1.58072">
        <ele>57</ele>
        <time>2021-08-23T17:21:38.000Z</time>
      </trkpt>
      <trkpt lat="47.18995" lon="-1.58091">
        <ele>57</ele>
        <time>2021-08-23T17:21:40.000Z</time>
      </trkpt>
      <trkpt lat="47.18989" lon="-1.5811">
        <ele>57</ele>
        <time>2021-08-23T17:21:42.000Z</time>
      </trkpt>
      <trkpt lat="47.18983" lon="-1.58129">
        <ele>57</ele>
        <time>2021-08-23T17:21:44.000Z</time>
      </trkpt>
      <trkpt lat="47.18976" lon="-1.58148">
        <ele>57</ele>
        <time>2021-08-23T17:21:46.000Z</time>
      </trkpt>
      <trkpt lat="47.18969" lon="-1.58166">
        <ele>57</ele>
        <time>2021-08-23T17:21:48.000Z</time>
      </trkpt>
      <trkpt lat="47.18962" lon="-1.58185">
        <ele>57</ele>
        <time>2021-08-23T17:21:50.000Z</time>
      </trkpt>
      <trkpt lat="47.18955" lon="-1.58205">
        <ele>57</ele>
        <time>2021-08-23T17:21:52.000Z</time>
      </trkpt>
      <trkpt lat="47.18948" lon="-1.58224">
        <ele>57</ele>
        <time>2021-08-23T17:21:54.000Z</time>
      </trkpt>
      <trkpt lat="47.18941" lon="-1.58244">
        <ele>57</ele>
        <time>2021-08-23T17:21:56.000Z</time>
      </trkpt>
      <trkpt lat="47.18934" lon="-1.58263">
        <ele>56</ele>
        <time>2021-08-23T17:21:58.000Z</time>
      </trkpt>
      <trkpt lat="47.18927" lon="-1.58282">
        <ele>56</ele>
        <time>2021-08-23T17:22:00.000Z</time>
      </trkpt>
      <trkpt lat="47.1892" lon="-1.58301">
        <ele>56</ele>
        <time>2021-08-23T17:22:02.000Z</time>
      </trkpt>
      <trkpt lat="47.18913" lon="-1.5832">
        <ele>56</ele>
        <time>2021-08-23T17:22:04.000Z</time>
      </trkpt>
      <trkpt lat="47.18906" lon="-1.5834">
        <ele>56</ele>
        <time>2021-08-23T17:22:06.000Z</time>
      </trkpt>
      <trkpt lat="47.18899" lon="-1.5836">
        <ele>56</ele>
        <time>2021-08-23T17:22:08.000Z</time>
      </trkpt>
      <trkpt lat="47.18892" lon="-1.58379">
        <ele>57</ele>
        <time>2021-08-23T17:22:10.000Z</time>
      </trkpt>
      <trkpt lat="47.18886" lon="-1.58399">
        <ele>57</ele>
        <time>2021-08-23T17:22:12.000Z</time>
      </trkpt>
      <trkpt lat="47.18879" lon="-1.58418">
        <ele>56</ele>
        <time>2021-08-23T17:22:14.000Z</time>
      </trkpt>
      <trkpt lat="47.18873" lon="-1.58437">
        <ele>57</ele>
        <time>2021-08-23T17:22:16.000Z</time>
      </trkpt>
      <trkpt lat="47.18867" lon="-1.58457">
        <ele>56</ele>
        <time>2021-08-23T17:22:18.000Z</time>
      </trkpt>
      <trkpt lat="47.18861" lon="-1.58476">
        <ele>56</ele>
        <time>2021-08-23T17:22:20.000Z</time>
      </trkpt>
      <trkpt lat="47.18856" lon="-1.58495">
        <ele>56</ele>
        <time>2021-08-23T17:22:22.000Z</time>
      </trkpt>
      <trkpt lat="47.1885" lon="-1.58515">
        <ele>56</ele>
        <time>2021-08-23T17:22:24.000Z</time>
      </trkpt>
      <trkpt lat="47.18845" lon="-1.58535">
        <ele>56</ele>
        <time>2021-08-23T17:22:26.000Z</time>
      </trkpt>
      <trkpt lat="47.1884" lon="-1.58555">
        <ele>56</ele>
        <time>2021-08-23T17:22:28.000Z</time>
      </trkpt>
      <trkpt lat="47.18835" lon="-1.58575">
        <ele>56</ele>
        <time>2021-08-23T17:22:30.000Z</time>
      </trkpt>
      <trkpt lat="47.1883" lon="-1.58595">
        <ele>57</ele>
        <time>2021-08-23T17:22:32.000Z</time>
      </trkpt>
      <trkpt lat="47.18826" lon="-1.58615">
        <ele>57</ele>
        <time>2021-08-23T17:22:34.000Z</time>
      </trkpt>
      <trkpt lat="47.18821" lon="-1.58635">
        <ele>57</ele>
        <time>2021-08-23T17:22:36.000Z</time>
      </trkpt>
      <trkpt lat="47.18817" lon="-1.58654">
        <ele>57</ele>
        <time>2021-08-23T17:22:38.000Z</time>
      </trkpt>
      <trkpt lat="47.18815" lon="-1.58674">
        <ele>57</ele>
        <time>2021-08-23T17:22:40.000Z</time>
      </trkpt>
      <trkpt lat="47.18813" lon="-1.58692">
        <ele>57</ele>
        <time>2021-08-23T17:22:42.000Z</time>
      </trkpt>
      <trkpt lat="47.18815" lon="-1.5871">
        <ele>57</ele>
        <time>2021-08-23T17:22:44.000Z</time>
      </trkpt>
      <trkpt lat="47.18823" lon="-1.58726">
        <ele>56</ele>
        <time>2021-08-23T17:22:46.000Z</time>
      </trkpt>
      <trkpt lat="47.18828" lon="-1.58745">
        <ele>56</ele>
        <time>2021-08-23T17:22:48.000Z</time>
      </trkpt>
      <trkpt lat="47.18827" lon="-1.58767">
        <ele>56</ele>
        <time>2021-08-23T17:22:50.000Z</time>
      </trkpt>
      <trkpt lat="47.18819" lon="-1.58786">
        <ele>56</ele>
        <time>2021-08-23T17:22:52.000Z</time>
      </trkpt>
      <trkpt lat="47.18808" lon="-1.58799">
        <ele>56</ele>
        <time>2021-08-23T17:22:54.000Z</time>
      </trkpt>
      <trkpt lat="47.18795" lon="-1.58809">
        <ele>56</ele>
        <time>2021-08-23T17:22:56.000Z</time>
      </trkpt>
      <trkpt lat="47.18787" lon="-1.58828">
        <ele>56</ele>
        <time>2021-08-23T17:22:58.000Z</time>
      </trkpt>
      <trkpt lat="47.18784" lon="-1.58848">
        <ele>56</ele>
        <time>2021-08-23T17:23:00.000Z</time>
      </trkpt>
      <trkpt lat="47.18781" lon="-1.58868">
        <ele>56</ele>
        <time>2021-08-23T17:23:02.000Z</time>
      </trkpt>
      <trkpt lat="47.18778" lon="-1.58889">
        <ele>56</ele>
        <time>2021-08-23T17:23:04.000Z</time>
      </trkpt>
      <trkpt lat="47.18775" lon="-1.58909">
        <ele>56</ele>
        <time>2021-08-23T17:23:06.000Z</time>
      </trkpt>
      <trkpt lat="47.18772" lon="-1.58932">
        <ele>56</ele>
        <time>2021-08-23T17:23:08.000Z</time>
      </trkpt>
      <trkpt lat="47.18769" lon="-1.58955">
        <ele>56</ele>
        <time>2021-08-23T17:23:10.000Z</time>
      </trkpt>
      <trkpt lat="47.18767" lon="-1.58981">
        <ele>57</ele>
        <time>2021-08-23T17:23:12.000Z</time>
      </trkpt>
      <trkpt lat="47.18764" lon="-1.59007">
        <ele>57</ele>
        <time>2021-08-23T17:23:14.000Z</time>
      </trkpt>
      <trkpt lat="47.18762" lon="-1.5902">
        <ele>57</ele>
        <time>2021-08-23T17:23:15.000Z</time>
      </trkpt>
      <trkpt lat="47.18761" lon="-1.59033">
        <ele>57</ele>
        <time>2021-08-23T17:23:16.000Z</time>
      </trkpt>
      <trkpt lat="47.18758" lon="-1.59058">
        <ele>57</ele>
        <time>2021-08-23T17:23:18.000Z</time>
      </trkpt>
      <trkpt lat="47.18755" lon="-1.59082">
        <ele>57</ele>
        <time>2021-08-23T17:23:20.000Z</time>
      </trkpt>
      <trkpt lat="47.18753" lon="-1.59107">
        <ele>57</ele>
        <time>2021-08-23T17:23:22.000Z</time>
      </trkpt>
      <trkpt lat="47.1875" lon="-1.59132">
        <ele>57</ele>
        <time>2021-08-23T17:23:24.000Z</time>
      </trkpt>
      <trkpt lat="47.18748" lon="-1.59156">
        <ele>57</ele>
        <time>2021-08-23T17:23:26.000Z</time>
      </trkpt>
      <trkpt lat="47.18745" lon="-1.59181">
        <ele>57</ele>
        <time>2021-08-23T17:23:28.000Z</time>
      </trkpt>
      <trkpt lat="47.18742" lon="-1.59206">
        <ele>56</ele>
        <time>2021-08-23T17:23:30.000Z</time>
      </trkpt>
      <trkpt lat="47.18739" lon="-1.59232">
        <ele>57</ele>
        <time>2021-08-23T17:23:32.000Z</time>
      </trkpt>
      <trkpt lat="47.18736" lon="-1.59256">
        <ele>56</ele>
        <time>2021-08-23T17:23:34.000Z</time>
      </trkpt>
      <trkpt lat="47.18733" lon="-1.59281">
        <ele>56</ele>
        <time>2021-08-23T17:23:36.000Z</time>
      </trkpt>
      <trkpt lat="47.18731" lon="-1.59306">
        <ele>56</ele>
        <time>2021-08-23T17:23:38.000Z</time>
      </trkpt>
      <trkpt lat="47.18728" lon="-1.59332">
        <ele>56</ele>
        <time>2021-08-23T17:23:40.000Z</time>
      </trkpt>
      <trkpt lat="47.18726" lon="-1.59357">
        <ele>56</ele>
        <time>2021-08-23T17:23:42.000Z</time>
      </trkpt>
      <trkpt lat="47.18723" lon="-1.59383">
        <ele>56</ele>
        <time>2021-08-23T17:23:44.000Z</time>
      </trkpt>
      <trkpt lat="47.1872" lon="-1.59408">
        <ele>57</ele>
        <time>2021-08-23T17:23:46.000Z</time>
      </trkpt>
      <trkpt lat="47.18717" lon="-1.59433">
        <ele>57</ele>
        <time>2021-08-23T17:23:48.000Z</time>
      </trkpt>
      <trkpt lat="47.18714" lon="-1.59458">
        <ele>57</ele>
        <time>2021-08-23T17:23:50.000Z</time>
      </trkpt>
      <trkpt lat="47.18711" lon="-1.59484">
        <ele>57</ele>
        <time>2021-08-23T17:23:52.000Z</time>
      </trkpt>
      <trkpt lat="47.18708" lon="-1.59508">
        <ele>56</ele>
        <time>2021-08-23T17:23:54.000Z</time>
      </trkpt>
      <trkpt lat="47.18706" lon="-1.59533">
        <ele>57</ele>
        <time>2021-08-23T17:23:56.000Z</time>
      </trkpt>
      <trkpt lat="47.18703" lon="-1.59558">
        <ele>57</ele>
        <time>2021-08-23T17:23:58.000Z</time>
      </trkpt>
      <trkpt lat="47.187" lon="-1.59582">
        <ele>57</ele>
        <time>2021-08-23T17:24:00.000Z</time>
      </trkpt>
      <trkpt lat="47.18697" lon="-1.59606">
        <ele>57</ele>
        <time>2021-08-23T17:24:02.000Z</time>
      </trkpt>
      <trkpt lat="47.18694" lon="-1.59628">
        <ele>57</ele>
        <time>2021-08-23T17:24:04.000Z</time>
      </trkpt>
      <trkpt lat="47.18692" lon="-1.59651">
        <ele>57</ele>
        <time>2021-08-23T17:24:06.000Z</time>
      </trkpt>
      <trkpt lat="47.18688" lon="-1.59674">
        <ele>57</ele>
        <time>2021-08-23T17:24:08.000Z</time>
      </trkpt>
      <trkpt lat="47.18685" lon="-1.59697">
        <ele>57</ele>
        <time>2021-08-23T17:24:10.000Z</time>
      </trkpt>
      <trkpt lat="47.18683" lon="-1.5972">
        <ele>57</ele>
        <time>2021-08-23T17:24:12.000Z</time>
      </trkpt>
      <trkpt lat="47.18683" lon="-1.59741">
        <ele>57</ele>
        <time>2021-08-23T17:24:14.000Z</time>
      </trkpt>
      <trkpt lat="47.18684" lon="-1.59761">
        <ele>57</ele>
        <time>2021-08-23T17:24:16.000Z</time>
      </trkpt>
      <trkpt lat="47.18684" lon="-1.59782">
        <ele>57</ele>
        <time>2021-08-23T17:24:18.000Z</time>
      </trkpt>
      <trkpt lat="47.18685" lon="-1.59804">
        <ele>57</ele>
        <time>2021-08-23T17:24:20.000Z</time>
      </trkpt>
      <trkpt lat="47.18678" lon="-1.59827">
        <ele>57</ele>
        <time>2021-08-23T17:24:22.000Z</time>
      </trkpt>
      <trkpt lat="47.18665" lon="-1.59843">
        <ele>57</ele>
        <time>2021-08-23T17:24:24.000Z</time>
      </trkpt>
      <trkpt lat="47.18649" lon="-1.59845">
        <ele>57</ele>
        <time>2021-08-23T17:24:26.000Z</time>
      </trkpt>
      <trkpt lat="47.18635" lon="-1.59837">
        <ele>57</ele>
        <time>2021-08-23T17:24:28.000Z</time>
      </trkpt>
      <trkpt lat="47.18622" lon="-1.59832">
        <ele>56</ele>
        <time>2021-08-23T17:24:30.000Z</time>
      </trkpt>
      <trkpt lat="47.18616" lon="-1.59844">
        <ele>56</ele>
        <time>2021-08-23T17:24:32.000Z</time>
      </trkpt>
      <trkpt lat="47.18623" lon="-1.5986">
        <ele>56</ele>
        <time>2021-08-23T17:24:34.000Z</time>
      </trkpt>
      <trkpt lat="47.18624" lon="-1.59878">
        <ele>56</ele>
        <time>2021-08-23T17:24:36.000Z</time>
      </trkpt>
      <trkpt lat="47.18618" lon="-1.59897">
        <ele>56</ele>
        <time>2021-08-23T17:24:38.000Z</time>
      </trkpt>
      <trkpt lat="47.18612" lon="-1.59919">
        <ele>56</ele>
        <time>2021-08-23T17:24:40.000Z</time>
      </trkpt>
      <trkpt lat="47.18606" lon="-1.5994">
        <ele>56</ele>
        <time>2021-08-23T17:24:42.000Z</time>
      </trkpt>
      <trkpt lat="47.18599" lon="-1.59963">
        <ele>56</ele>
        <time>2021-08-23T17:24:44.000Z</time>
      </trkpt>
      <trkpt lat="47.18592" lon="-1.59986">
        <ele>56</ele>
        <time>2021-08-23T17:24:46.000Z</time>
      </trkpt>
      <trkpt lat="47.18585" lon="-1.60008">
        <ele>56</ele>
        <time>2021-08-23T17:24:48.000Z</time>
      </trkpt>
      <trkpt lat="47.18577" lon="-1.6003">
        <ele>56</ele>
        <time>2021-08-23T17:24:50.000Z</time>
      </trkpt>
      <trkpt lat="47.18569" lon="-1.60052">
        <ele>56</ele>
        <time>2021-08-23T17:24:52.000Z</time>
      </trkpt>
      <trkpt lat="47.18561" lon="-1.60074">
        <ele>56</ele>
        <time>2021-08-23T17:24:54.000Z</time>
      </trkpt>
      <trkpt lat="47.18552" lon="-1.60096">
        <ele>57</ele>
        <time>2021-08-23T17:24:56.000Z</time>
      </trkpt>
      <trkpt lat="47.18543" lon="-1.60118">
        <ele>56</ele>
        <time>2021-08-23T17:24:58.000Z</time>
      </trkpt>
      <trkpt lat="47.18534" lon="-1.60139">
        <ele>56</ele>
        <time>2021-08-23T17:25:00.000Z</time>
      </trkpt>
      <trkpt lat="47.18524" lon="-1.6016">
        <ele>56</ele>
        <time>2021-08-23T17:25:02.000Z</time>
      </trkpt>
      <trkpt lat="47.18514" lon="-1.6018">
        <ele>56</ele>
        <time>2021-08-23T17:25:04.000Z</time>
      </trkpt>
      <trkpt lat="47.18504" lon="-1.602">
        <ele>56</ele>
        <time>2021-08-23T17:25:06.000Z</time>
      </trkpt>
      <trkpt lat="47.18494" lon="-1.6022">
        <ele>56</ele>
        <time>2021-08-23T17:25:08.000Z</time>
      </trkpt>
      <trkpt lat="47.18484" lon="-1.6024">
        <ele>56</ele>
        <time>2021-08-23T17:25:10.000Z</time>
      </trkpt>
      <trkpt lat="47.18473" lon="-1.6026">
        <ele>56</ele>
        <time>2021-08-23T17:25:12.000Z</time>
      </trkpt>
      <trkpt lat="47.18462" lon="-1.60279">
        <ele>56</ele>
        <time>2021-08-23T17:25:14.000Z</time>
      </trkpt>
      <trkpt lat="47.18451" lon="-1.60298">
        <ele>56</ele>
        <time>2021-08-23T17:25:16.000Z</time>
      </trkpt>
      <trkpt lat="47.1844" lon="-1.60316">
        <ele>57</ele>
        <time>2021-08-23T17:25:18.000Z</time>
      </trkpt>
      <trkpt lat="47.18429" lon="-1.60335">
        <ele>57</ele>
        <time>2021-08-23T17:25:20.000Z</time>
      </trkpt>
      <trkpt lat="47.18417" lon="-1.60353">
        <ele>57</ele>
        <time>2021-08-23T17:25:22.000Z</time>
      </trkpt>
      <trkpt lat="47.18404" lon="-1.6037">
        <ele>56</ele>
        <time>2021-08-23T17:25:24.000Z</time>
      </trkpt>
      <trkpt lat="47.18392" lon="-1.60387">
        <ele>56</ele>
        <time>2021-08-23T17:25:26.000Z</time>
      </trkpt>
      <trkpt lat="47.18379" lon="-1.60403">
        <ele>56</ele>
        <time>2021-08-23T17:25:28.000Z</time>
      </trkpt>
      <trkpt lat="47.18366" lon="-1.6042">
        <ele>56</ele>
        <time>2021-08-23T17:25:30.000Z</time>
      </trkpt>
      <trkpt lat="47.18353" lon="-1.60436">
        <ele>56</ele>
        <time>2021-08-23T17:25:32.000Z</time>
      </trkpt>
      <trkpt lat="47.18341" lon="-1.60452">
        <ele>56</ele>
        <time>2021-08-23T17:25:34.000Z</time>
      </trkpt>
      <trkpt lat="47.18328" lon="-1.60467">
        <ele>55</ele>
        <time>2021-08-23T17:25:36.000Z</time>
      </trkpt>
      <trkpt lat="47.18315" lon="-1.60482">
        <ele>56</ele>
        <time>2021-08-23T17:25:38.000Z</time>
      </trkpt>
      <trkpt lat="47.18302" lon="-1.60497">
        <ele>55</ele>
        <time>2021-08-23T17:25:40.000Z</time>
      </trkpt>
      <trkpt lat="47.18288" lon="-1.60511">
        <ele>56</ele>
        <time>2021-08-23T17:25:42.000Z</time>
      </trkpt>
      <trkpt lat="47.18275" lon="-1.60525">
        <ele>56</ele>
        <time>2021-08-23T17:25:44.000Z</time>
      </trkpt>
      <trkpt lat="47.18262" lon="-1.60537">
        <ele>56</ele>
        <time>2021-08-23T17:25:46.000Z</time>
      </trkpt>
      <trkpt lat="47.18249" lon="-1.60548">
        <ele>56</ele>
        <time>2021-08-23T17:25:48.000Z</time>
      </trkpt>
      <trkpt lat="47.18236" lon="-1.60557">
        <ele>56</ele>
        <time>2021-08-23T17:25:50.000Z</time>
      </trkpt>
      <trkpt lat="47.18223" lon="-1.60566">
        <ele>56</ele>
        <time>2021-08-23T17:25:52.000Z</time>
      </trkpt>
      <trkpt lat="47.18211" lon="-1.60572">
        <ele>56</ele>
        <time>2021-08-23T17:25:54.000Z</time>
      </trkpt>
      <trkpt lat="47.18199" lon="-1.60577">
        <ele>56</ele>
        <time>2021-08-23T17:25:56.000Z</time>
      </trkpt>
      <trkpt lat="47.1819" lon="-1.60586">
        <ele>57</ele>
        <time>2021-08-23T17:25:59.000Z</time>
      </trkpt>
      <trkpt lat="47.18188" lon="-1.60599">
        <ele>57</ele>
        <time>2021-08-23T17:26:01.000Z</time>
      </trkpt>
      <trkpt lat="47.18176" lon="-1.60604">
        <ele>57</ele>
        <time>2021-08-23T17:26:03.000Z</time>
      </trkpt>
      <trkpt lat="47.18161" lon="-1.60605">
        <ele>57</ele>
        <time>2021-08-23T17:26:05.000Z</time>
      </trkpt>
      <trkpt lat="47.18146" lon="-1.60605">
        <ele>57</ele>
        <time>2021-08-23T17:26:07.000Z</time>
      </trkpt>
      <trkpt lat="47.18132" lon="-1.60602">
        <ele>56</ele>
        <time>2021-08-23T17:26:09.000Z</time>
      </trkpt>
      <trkpt lat="47.18117" lon="-1.60598">
        <ele>56</ele>
        <time>2021-08-23T17:26:11.000Z</time>
      </trkpt>
      <trkpt lat="47.18102" lon="-1.60593">
        <ele>56</ele>
        <time>2021-08-23T17:26:13.000Z</time>
      </trkpt>
      <trkpt lat="47.18086" lon="-1.60586">
        <ele>56</ele>
        <time>2021-08-23T17:26:15.000Z</time>
      </trkpt>
      <trkpt lat="47.18072" lon="-1.60578">
        <ele>56</ele>
        <time>2021-08-23T17:26:17.000Z</time>
      </trkpt>
      <trkpt lat="47.18058" lon="-1.60569">
        <ele>56</ele>
        <time>2021-08-23T17:26:19.000Z</time>
      </trkpt>
      <trkpt lat="47.18045" lon="-1.60561">
        <ele>56</ele>
        <time>2021-08-23T17:26:21.000Z</time>
      </trkpt>
      <trkpt lat="47.18031" lon="-1.60554">
        <ele>56</ele>
        <time>2021-08-23T17:26:23.000Z</time>
      </trkpt>
      <trkpt lat="47.18016" lon="-1.60554">
        <ele>56</ele>
        <time>2021-08-23T17:26:25.000Z</time>
      </trkpt>
      <trkpt lat="47.18001" lon="-1.60558">
        <ele>57</ele>
        <time>2021-08-23T17:26:27.000Z</time>
      </trkpt>
      <trkpt lat="47.17986" lon="-1.60562">
        <ele>57</ele>
        <time>2021-08-23T17:26:29.000Z</time>
      </trkpt>
      <trkpt lat="47.17973" lon="-1.60568">
        <ele>57</ele>
        <time>2021-08-23T17:26:31.000Z</time>
      </trkpt>
      <trkpt lat="47.17961" lon="-1.60574">
        <ele>57</ele>
        <time>2021-08-23T17:26:33.000Z</time>
      </trkpt>
      <trkpt lat="47.17949" lon="-1.60584">
        <ele>57</ele>
        <time>2021-08-23T17:26:35.000Z</time>
      </trkpt>
      <trkpt lat="47.17937" lon="-1.60589">
        <ele>57</ele>
        <time>2021-08-23T17:26:37.000Z</time>
      </trkpt>
      <trkpt lat="47.17927" lon="-1.6059">
        <ele>58</ele>
        <time>2021-08-23T17:26:39.000Z</time>
      </trkpt>
      <trkpt lat="47.17915" lon="-1.6059">
        <ele>59</ele>
        <time>2021-08-23T17:26:43.000Z</time>
      </trkpt>
      <trkpt lat="47.17906" lon="-1.60597">
        <ele>59</ele>
        <time>2021-08-23T17:26:45.000Z</time>
      </trkpt>
      <trkpt lat="47.17902" lon="-1.60616">
        <ele>58</ele>
        <time>2021-08-23T17:26:47.000Z</time>
      </trkpt>
      <trkpt lat="47.17893" lon="-1.60647">
        <ele>57</ele>
        <time>2021-08-23T17:26:50.000Z</time>
      </trkpt>
      <trkpt lat="47.17886" lon="-1.60668">
        <ele>56</ele>
        <time>2021-08-23T17:26:52.000Z</time>
      </trkpt>
      <trkpt lat="47.17879" lon="-1.60689">
        <ele>56</ele>
        <time>2021-08-23T17:26:54.000Z</time>
      </trkpt>
      <trkpt lat="47.17873" lon="-1.60711">
        <ele>56</ele>
        <time>2021-08-23T17:26:56.000Z</time>
      </trkpt>
      <trkpt lat="47.17868" lon="-1.60732">
        <ele>56</ele>
        <time>2021-08-23T17:26:58.000Z</time>
      </trkpt>
      <trkpt lat="47.17863" lon="-1.60753">
        <ele>56</ele>
        <time>2021-08-23T17:27:00.000Z</time>
      </trkpt>
      <trkpt lat="47.17858" lon="-1.60774">
        <ele>56</ele>
        <time>2021-08-23T17:27:02.000Z</time>
      </trkpt>
      <trkpt lat="47.17854" lon="-1.60795">
        <ele>56</ele>
        <time>2021-08-23T17:27:04.000Z</time>
      </trkpt>
      <trkpt lat="47.17849" lon="-1.60814">
        <ele>57</ele>
        <time>2021-08-23T17:27:06.000Z</time>
      </trkpt>
      <trkpt lat="47.17844" lon="-1.60835">
        <ele>57</ele>
        <time>2021-08-23T17:27:08.000Z</time>
      </trkpt>
      <trkpt lat="47.17836" lon="-1.60854">
        <ele>57</ele>
        <time>2021-08-23T17:27:10.000Z</time>
      </trkpt>
      <trkpt lat="47.17827" lon="-1.60871">
        <ele>57</ele>
        <time>2021-08-23T17:27:12.000Z</time>
      </trkpt>
      <trkpt lat="47.17816" lon="-1.60886">
        <ele>57</ele>
        <time>2021-08-23T17:27:14.000Z</time>
      </trkpt>
      <trkpt lat="47.17804" lon="-1.60898">
        <ele>57</ele>
        <time>2021-08-23T17:27:16.000Z</time>
      </trkpt>
      <trkpt lat="47.17791" lon="-1.60908">
        <ele>57</ele>
        <time>2021-08-23T17:27:18.000Z</time>
      </trkpt>
      <trkpt lat="47.17777" lon="-1.60918">
        <ele>57</ele>
        <time>2021-08-23T17:27:20.000Z</time>
      </trkpt>
      <trkpt lat="47.17764" lon="-1.60928">
        <ele>57</ele>
        <time>2021-08-23T17:27:22.000Z</time>
      </trkpt>
      <trkpt lat="47.17751" lon="-1.60937">
        <ele>57</ele>
        <time>2021-08-23T17:27:24.000Z</time>
      </trkpt>
      <trkpt lat="47.17738" lon="-1.60948">
        <ele>57</ele>
        <time>2021-08-23T17:27:26.000Z</time>
      </trkpt>
      <trkpt lat="47.17719" lon="-1.60963">
        <ele>57</ele>
        <time>2021-08-23T17:27:29.000Z</time>
      </trkpt>
      <trkpt lat="47.17698" lon="-1.60974">
        <ele>57</ele>
        <time>2021-08-23T17:27:32.000Z</time>
      </trkpt>
      <trkpt lat="47.17683" lon="-1.60974">
        <ele>56</ele>
        <time>2021-08-23T17:27:34.000Z</time>
      </trkpt>
      <trkpt lat="47.17667" lon="-1.60972">
        <ele>55</ele>
        <time>2021-08-23T17:27:36.000Z</time>
      </trkpt>
      <trkpt lat="47.17651" lon="-1.60979">
        <ele>55</ele>
        <time>2021-08-23T17:27:38.000Z</time>
      </trkpt>
      <trkpt lat="47.17637" lon="-1.60992">
        <ele>54</ele>
        <time>2021-08-23T17:27:40.000Z</time>
      </trkpt>
      <trkpt lat="47.17624" lon="-1.61004">
        <ele>54</ele>
        <time>2021-08-23T17:27:42.000Z</time>
      </trkpt>
      <trkpt lat="47.17611" lon="-1.61016">
        <ele>54</ele>
        <time>2021-08-23T17:27:44.000Z</time>
      </trkpt>
      <trkpt lat="47.17598" lon="-1.61028">
        <ele>53</ele>
        <time>2021-08-23T17:27:46.000Z</time>
      </trkpt>
      <trkpt lat="47.17585" lon="-1.61039">
        <ele>54</ele>
        <time>2021-08-23T17:27:48.000Z</time>
      </trkpt>
      <trkpt lat="47.17573" lon="-1.61051">
        <ele>54</ele>
        <time>2021-08-23T17:27:50.000Z</time>
      </trkpt>
      <trkpt lat="47.1756" lon="-1.61062">
        <ele>55</ele>
        <time>2021-08-23T17:27:52.000Z</time>
      </trkpt>
      <trkpt lat="47.17547" lon="-1.61073">
        <ele>55</ele>
        <time>2021-08-23T17:27:54.000Z</time>
      </trkpt>
      <trkpt lat="47.17534" lon="-1.61084">
        <ele>55</ele>
        <time>2021-08-23T17:27:56.000Z</time>
      </trkpt>
      <trkpt lat="47.17521" lon="-1.61095">
        <ele>55</ele>
        <time>2021-08-23T17:27:58.000Z</time>
      </trkpt>
      <trkpt lat="47.17509" lon="-1.61104">
        <ele>55</ele>
        <time>2021-08-23T17:28:00.000Z</time>
      </trkpt>
      <trkpt lat="47.17495" lon="-1.61106">
        <ele>55</ele>
        <time>2021-08-23T17:28:02.000Z</time>
      </trkpt>
      <trkpt lat="47.17481" lon="-1.61105">
        <ele>55</ele>
        <time>2021-08-23T17:28:04.000Z</time>
      </trkpt>
      <trkpt lat="47.17468" lon="-1.61096">
        <ele>56</ele>
        <time>2021-08-23T17:28:06.000Z</time>
      </trkpt>
      <trkpt lat="47.17455" lon="-1.61086">
        <ele>55</ele>
        <time>2021-08-23T17:28:08.000Z</time>
      </trkpt>
      <trkpt lat="47.17445" lon="-1.61074">
        <ele>56</ele>
        <time>2021-08-23T17:28:10.000Z</time>
      </trkpt>
      <trkpt lat="47.17437" lon="-1.61059">
        <ele>56</ele>
        <time>2021-08-23T17:28:12.000Z</time>
      </trkpt>
      <trkpt lat="47.17432" lon="-1.61045">
        <ele>57</ele>
        <time>2021-08-23T17:28:14.000Z</time>
      </trkpt>
      <trkpt lat="47.17428" lon="-1.6103">
        <ele>57</ele>
        <time>2021-08-23T17:28:16.000Z</time>
      </trkpt>
      <trkpt lat="47.17422" lon="-1.6102">
        <ele>58</ele>
        <time>2021-08-23T17:28:19.000Z</time>
      </trkpt>
      <trkpt lat="47.17422" lon="-1.61037">
        <ele>57</ele>
        <time>2021-08-23T17:28:22.000Z</time>
      </trkpt>
      <trkpt lat="47.17426" lon="-1.61052">
        <ele>58</ele>
        <time>2021-08-23T17:28:24.000Z</time>
      </trkpt>
      <trkpt lat="47.17432" lon="-1.61066">
        <ele>58</ele>
        <time>2021-08-23T17:28:26.000Z</time>
      </trkpt>
      <trkpt lat="47.17439" lon="-1.61082">
        <ele>58</ele>
        <time>2021-08-23T17:28:28.000Z</time>
      </trkpt>
      <trkpt lat="47.17446" lon="-1.61099">
        <ele>59</ele>
        <time>2021-08-23T17:28:30.000Z</time>
      </trkpt>
      <trkpt lat="47.17453" lon="-1.61116">
        <ele>59</ele>
        <time>2021-08-23T17:28:32.000Z</time>
      </trkpt>
      <trkpt lat="47.17459" lon="-1.61132">
        <ele>60</ele>
        <time>2021-08-23T17:28:34.000Z</time>
      </trkpt>
      <trkpt lat="47.17465" lon="-1.61148">
        <ele>60</ele>
        <time>2021-08-23T17:28:36.000Z</time>
      </trkpt>
      <trkpt lat="47.17471" lon="-1.61164">
        <ele>61</ele>
        <time>2021-08-23T17:28:38.000Z</time>
      </trkpt>
      <trkpt lat="47.17478" lon="-1.61179">
        <ele>61</ele>
        <time>2021-08-23T17:28:40.000Z</time>
      </trkpt>
      <trkpt lat="47.17483" lon="-1.61193">
        <ele>62</ele>
        <time>2021-08-23T17:28:42.000Z</time>
      </trkpt>
      <trkpt lat="47.17489" lon="-1.61208">
        <ele>62</ele>
        <time>2021-08-23T17:28:44.000Z</time>
      </trkpt>
      <trkpt lat="47.17495" lon="-1.61223">
        <ele>63</ele>
        <time>2021-08-23T17:28:46.000Z</time>
      </trkpt>
      <trkpt lat="47.17501" lon="-1.61238">
        <ele>63</ele>
        <time>2021-08-23T17:28:48.000Z</time>
      </trkpt>
      <trkpt lat="47.17508" lon="-1.61252">
        <ele>63</ele>
        <time>2021-08-23T17:28:50.000Z</time>
      </trkpt>
      <trkpt lat="47.17516" lon="-1.61265">
        <ele>63</ele>
        <time>2021-08-23T17:28:52.000Z</time>
      </trkpt>
      <trkpt lat="47.17524" lon="-1.61277">
        <ele>63</ele>
        <time>2021-08-23T17:28:54.000Z</time>
      </trkpt>
      <trkpt lat="47.17534" lon="-1.61288">
        <ele>63</ele>
        <time>2021-08-23T17:28:56.000Z</time>
      </trkpt>
      <trkpt lat="47.17545" lon="-1.61295">
        <ele>63</ele>
        <time>2021-08-23T17:28:58.000Z</time>
      </trkpt>
      <trkpt lat="47.17556" lon="-1.61303">
        <ele>63</ele>
        <time>2021-08-23T17:29:00.000Z</time>
      </trkpt>
      <trkpt lat="47.17561" lon="-1.61321">
        <ele>63</ele>
        <time>2021-08-23T17:29:02.000Z</time>
      </trkpt>
      <trkpt lat="47.17558" lon="-1.61339">
        <ele>62</ele>
        <time>2021-08-23T17:29:04.000Z</time>
      </trkpt>
      <trkpt lat="47.17548" lon="-1.61354">
        <ele>62</ele>
        <time>2021-08-23T17:29:06.000Z</time>
      </trkpt>
      <trkpt lat="47.17537" lon="-1.61365">
        <ele>62</ele>
        <time>2021-08-23T17:29:08.000Z</time>
      </trkpt>
      <trkpt lat="47.17529" lon="-1.61381">
        <ele>62</ele>
        <time>2021-08-23T17:29:10.000Z</time>
      </trkpt>
      <trkpt lat="47.17524" lon="-1.61399">
        <ele>62</ele>
        <time>2021-08-23T17:29:12.000Z</time>
      </trkpt>
      <trkpt lat="47.1752" lon="-1.61417">
        <ele>63</ele>
        <time>2021-08-23T17:29:14.000Z</time>
      </trkpt>
      <trkpt lat="47.17516" lon="-1.61434">
        <ele>64</ele>
        <time>2021-08-23T17:29:16.000Z</time>
      </trkpt>
      <trkpt lat="47.17512" lon="-1.61449">
        <ele>64</ele>
        <time>2021-08-23T17:29:18.000Z</time>
      </trkpt>
      <trkpt lat="47.17504" lon="-1.61461">
        <ele>65</ele>
        <time>2021-08-23T17:29:20.000Z</time>
      </trkpt>
      <trkpt lat="47.17492" lon="-1.61467">
        <ele>65</ele>
        <time>2021-08-23T17:29:22.000Z</time>
      </trkpt>
      <trkpt lat="47.17481" lon="-1.61472">
        <ele>65</ele>
        <time>2021-08-23T17:29:24.000Z</time>
      </trkpt>
      <trkpt lat="47.17469" lon="-1.61477">
        <ele>65</ele>
        <time>2021-08-23T17:29:26.000Z</time>
      </trkpt>
      <trkpt lat="47.17458" lon="-1.61482">
        <ele>66</ele>
        <time>2021-08-23T17:29:28.000Z</time>
      </trkpt>
      <trkpt lat="47.17447" lon="-1.61487">
        <ele>66</ele>
        <time>2021-08-23T17:29:30.000Z</time>
      </trkpt>
      <trkpt lat="47.17436" lon="-1.61494">
        <ele>66</ele>
        <time>2021-08-23T17:29:32.000Z</time>
      </trkpt>
      <trkpt lat="47.17425" lon="-1.61501">
        <ele>66</ele>
        <time>2021-08-23T17:29:34.000Z</time>
      </trkpt>
      <trkpt lat="47.17414" lon="-1.61509">
        <ele>67</ele>
        <time>2021-08-23T17:29:36.000Z</time>
      </trkpt>
      <trkpt lat="47.17404" lon="-1.61518">
        <ele>68</ele>
        <time>2021-08-23T17:29:38.000Z</time>
      </trkpt>
      <trkpt lat="47.17394" lon="-1.61525">
        <ele>68</ele>
        <time>2021-08-23T17:29:40.000Z</time>
      </trkpt>
      <trkpt lat="47.17385" lon="-1.61534">
        <ele>68</ele>
        <time>2021-08-23T17:29:42.000Z</time>
      </trkpt>
      <trkpt lat="47.17375" lon="-1.61543">
        <ele>69</ele>
        <time>2021-08-23T17:29:44.000Z</time>
      </trkpt>
      <trkpt lat="47.17366" lon="-1.61553">
        <ele>70</ele>
        <time>2021-08-23T17:29:46.000Z</time>
      </trkpt>
      <trkpt lat="47.17357" lon="-1.61563">
        <ele>71</ele>
        <time>2021-08-23T17:29:48.000Z</time>
      </trkpt>
      <trkpt lat="47.17349" lon="-1.61574">
        <ele>71</ele>
        <time>2021-08-23T17:29:50.000Z</time>
      </trkpt>
      <trkpt lat="47.17341" lon="-1.61584">
        <ele>72</ele>
        <time>2021-08-23T17:29:52.000Z</time>
      </trkpt>
      <trkpt lat="47.17332" lon="-1.61595">
        <ele>72</ele>
        <time>2021-08-23T17:29:54.000Z</time>
      </trkpt>
      <trkpt lat="47.17322" lon="-1.61605">
        <ele>72</ele>
        <time>2021-08-23T17:29:56.000Z</time>
      </trkpt>
      <trkpt lat="47.17313" lon="-1.61616">
        <ele>72</ele>
        <time>2021-08-23T17:29:58.000Z</time>
      </trkpt>
      <trkpt lat="47.17304" lon="-1.6163">
        <ele>72</ele>
        <time>2021-08-23T17:30:00.000Z</time>
      </trkpt>
      <trkpt lat="47.17296" lon="-1.61643">
        <ele>72</ele>
        <time>2021-08-23T17:30:02.000Z</time>
      </trkpt>
      <trkpt lat="47.17289" lon="-1.61657">
        <ele>72</ele>
        <time>2021-08-23T17:30:04.000Z</time>
      </trkpt>
      <trkpt lat="47.17281" lon="-1.61671">
        <ele>72</ele>
        <time>2021-08-23T17:30:06.000Z</time>
      </trkpt>
      <trkpt lat="47.17273" lon="-1.61686">
        <ele>72</ele>
        <time>2021-08-23T17:30:08.000Z</time>
      </trkpt>
      <trkpt lat="47.17265" lon="-1.61701">
        <ele>72</ele>
        <time>2021-08-23T17:30:10.000Z</time>
      </trkpt>
      <trkpt lat="47.17258" lon="-1.61717">
        <ele>71</ele>
        <time>2021-08-23T17:30:12.000Z</time>
      </trkpt>
      <trkpt lat="47.1725" lon="-1.61733">
        <ele>72</ele>
        <time>2021-08-23T17:30:14.000Z</time>
      </trkpt>
      <trkpt lat="47.17245" lon="-1.61751">
        <ele>72</ele>
        <time>2021-08-23T17:30:16.000Z</time>
      </trkpt>
      <trkpt lat="47.17243" lon="-1.6177">
        <ele>71</ele>
        <time>2021-08-23T17:30:18.000Z</time>
      </trkpt>
      <trkpt lat="47.17233" lon="-1.61784">
        <ele>71</ele>
        <time>2021-08-23T17:30:20.000Z</time>
      </trkpt>
      <trkpt lat="47.17221" lon="-1.61795">
        <ele>71</ele>
        <time>2021-08-23T17:30:22.000Z</time>
      </trkpt>
      <trkpt lat="47.17209" lon="-1.61807">
        <ele>71</ele>
        <time>2021-08-23T17:30:24.000Z</time>
      </trkpt>
      <trkpt lat="47.17198" lon="-1.61817">
        <ele>71</ele>
        <time>2021-08-23T17:30:26.000Z</time>
      </trkpt>
      <trkpt lat="47.17186" lon="-1.61828">
        <ele>71</ele>
        <time>2021-08-23T17:30:28.000Z</time>
      </trkpt>
      <trkpt lat="47.17175" lon="-1.61839">
        <ele>71</ele>
        <time>2021-08-23T17:30:30.000Z</time>
      </trkpt>
      <trkpt lat="47.17163" lon="-1.6185">
        <ele>71</ele>
        <time>2021-08-23T17:30:32.000Z</time>
      </trkpt>
      <trkpt lat="47.17151" lon="-1.61861">
        <ele>71</ele>
        <time>2021-08-23T17:30:34.000Z</time>
      </trkpt>
      <trkpt lat="47.1714" lon="-1.61872">
        <ele>71</ele>
        <time>2021-08-23T17:30:36.000Z</time>
      </trkpt>
      <trkpt lat="47.17127" lon="-1.61884">
        <ele>71</ele>
        <time>2021-08-23T17:30:38.000Z</time>
      </trkpt>
      <trkpt lat="47.17116" lon="-1.61895">
        <ele>70</ele>
        <time>2021-08-23T17:30:40.000Z</time>
      </trkpt>
      <trkpt lat="47.17104" lon="-1.61907">
        <ele>71</ele>
        <time>2021-08-23T17:30:42.000Z</time>
      </trkpt>
      <trkpt lat="47.17092" lon="-1.61918">
        <ele>71</ele>
        <time>2021-08-23T17:30:44.000Z</time>
      </trkpt>
      <trkpt lat="47.17081" lon="-1.61929">
        <ele>71</ele>
        <time>2021-08-23T17:30:46.000Z</time>
      </trkpt>
      <trkpt lat="47.1707" lon="-1.6194">
        <ele>71</ele>
        <time>2021-08-23T17:30:48.000Z</time>
      </trkpt>
      <trkpt lat="47.17059" lon="-1.61952">
        <ele>72</ele>
        <time>2021-08-23T17:30:50.000Z</time>
      </trkpt>
      <trkpt lat="47.17048" lon="-1.61967">
        <ele>71</ele>
        <time>2021-08-23T17:30:52.000Z</time>
      </trkpt>
      <trkpt lat="47.17037" lon="-1.61983">
        <ele>71</ele>
        <time>2021-08-23T17:30:54.000Z</time>
      </trkpt>
      <trkpt lat="47.17026" lon="-1.61999">
        <ele>71</ele>
        <time>2021-08-23T17:30:56.000Z</time>
      </trkpt>
      <trkpt lat="47.17016" lon="-1.62014">
        <ele>71</ele>
        <time>2021-08-23T17:30:58.000Z</time>
      </trkpt>
      <trkpt lat="47.17005" lon="-1.6203">
        <ele>70</ele>
        <time>2021-08-23T17:31:00.000Z</time>
      </trkpt>
      <trkpt lat="47.16996" lon="-1.62047">
        <ele>70</ele>
        <time>2021-08-23T17:31:02.000Z</time>
      </trkpt>
      <trkpt lat="47.16987" lon="-1.62063">
        <ele>70</ele>
        <time>2021-08-23T17:31:04.000Z</time>
      </trkpt>
      <trkpt lat="47.16977" lon="-1.6208">
        <ele>70</ele>
        <time>2021-08-23T17:31:06.000Z</time>
      </trkpt>
      <trkpt lat="47.16968" lon="-1.62096">
        <ele>70</ele>
        <time>2021-08-23T17:31:08.000Z</time>
      </trkpt>
      <trkpt lat="47.16959" lon="-1.62113">
        <ele>70</ele>
        <time>2021-08-23T17:31:10.000Z</time>
      </trkpt>
      <trkpt lat="47.16951" lon="-1.62129">
        <ele>71</ele>
        <time>2021-08-23T17:31:12.000Z</time>
      </trkpt>
      <trkpt lat="47.16943" lon="-1.62146">
        <ele>71</ele>
        <time>2021-08-23T17:31:14.000Z</time>
      </trkpt>
      <trkpt lat="47.16935" lon="-1.62162">
        <ele>71</ele>
        <time>2021-08-23T17:31:16.000Z</time>
      </trkpt>
      <trkpt lat="47.16927" lon="-1.62179">
        <ele>71</ele>
        <time>2021-08-23T17:31:18.000Z</time>
      </trkpt>
      <trkpt lat="47.16919" lon="-1.62194">
        <ele>71</ele>
        <time>2021-08-23T17:31:20.000Z</time>
      </trkpt>
      <trkpt lat="47.16909" lon="-1.6221">
        <ele>71</ele>
        <time>2021-08-23T17:31:22.000Z</time>
      </trkpt>
      <trkpt lat="47.16899" lon="-1.62223">
        <ele>71</ele>
        <time>2021-08-23T17:31:24.000Z</time>
      </trkpt>
      <trkpt lat="47.16889" lon="-1.62236">
        <ele>71</ele>
        <time>2021-08-23T17:31:26.000Z</time>
      </trkpt>
      <trkpt lat="47.16878" lon="-1.62249">
        <ele>71</ele>
        <time>2021-08-23T17:31:28.000Z</time>
      </trkpt>
      <trkpt lat="47.16868" lon="-1.62263">
        <ele>71</ele>
        <time>2021-08-23T17:31:30.000Z</time>
      </trkpt>
      <trkpt lat="47.16857" lon="-1.62276">
        <ele>72</ele>
        <time>2021-08-23T17:31:32.000Z</time>
      </trkpt>
      <trkpt lat="47.16847" lon="-1.62289">
        <ele>71</ele>
        <time>2021-08-23T17:31:34.000Z</time>
      </trkpt>
      <trkpt lat="47.16836" lon="-1.62301">
        <ele>72</ele>
        <time>2021-08-23T17:31:36.000Z</time>
      </trkpt>
      <trkpt lat="47.16826" lon="-1.62312">
        <ele>72</ele>
        <time>2021-08-23T17:31:38.000Z</time>
      </trkpt>
      <trkpt lat="47.16814" lon="-1.62321">
        <ele>72</ele>
        <time>2021-08-23T17:31:40.000Z</time>
      </trkpt>
      <trkpt lat="47.16802" lon="-1.62328">
        <ele>72</ele>
        <time>2021-08-23T17:31:42.000Z</time>
      </trkpt>
      <trkpt lat="47.1679" lon="-1.62335">
        <ele>72</ele>
        <time>2021-08-23T17:31:44.000Z</time>
      </trkpt>
      <trkpt lat="47.16777" lon="-1.62341">
        <ele>72</ele>
        <time>2021-08-23T17:31:46.000Z</time>
      </trkpt>
      <trkpt lat="47.16765" lon="-1.62349">
        <ele>73</ele>
        <time>2021-08-23T17:31:48.000Z</time>
      </trkpt>
      <trkpt lat="47.16753" lon="-1.62359">
        <ele>72</ele>
        <time>2021-08-23T17:31:50.000Z</time>
      </trkpt>
      <trkpt lat="47.16742" lon="-1.62371">
        <ele>72</ele>
        <time>2021-08-23T17:31:52.000Z</time>
      </trkpt>
      <trkpt lat="47.16735" lon="-1.62388">
        <ele>72</ele>
        <time>2021-08-23T17:31:54.000Z</time>
      </trkpt>
      <trkpt lat="47.16732" lon="-1.62406">
        <ele>72</ele>
        <time>2021-08-23T17:31:56.000Z</time>
      </trkpt>
      <trkpt lat="47.16729" lon="-1.62425">
        <ele>72</ele>
        <time>2021-08-23T17:31:58.000Z</time>
      </trkpt>
      <trkpt lat="47.16726" lon="-1.62442">
        <ele>72</ele>
        <time>2021-08-23T17:32:00.000Z</time>
      </trkpt>
      <trkpt lat="47.16721" lon="-1.62458">
        <ele>72</ele>
        <time>2021-08-23T17:32:02.000Z</time>
      </trkpt>
      <trkpt lat="47.16718" lon="-1.62476">
        <ele>72</ele>
        <time>2021-08-23T17:32:04.000Z</time>
      </trkpt>
      <trkpt lat="47.16717" lon="-1.62492">
        <ele>72</ele>
        <time>2021-08-23T17:32:06.000Z</time>
      </trkpt>
      <trkpt lat="47.16728" lon="-1.62498">
        <ele>72</ele>
        <time>2021-08-23T17:32:08.000Z</time>
      </trkpt>
      <trkpt lat="47.16739" lon="-1.62502">
        <ele>72</ele>
        <time>2021-08-23T17:32:10.000Z</time>
      </trkpt>
      <trkpt lat="47.16749" lon="-1.62507">
        <ele>73</ele>
        <time>2021-08-23T17:32:12.000Z</time>
      </trkpt>
      <trkpt lat="47.16759" lon="-1.62513">
        <ele>72</ele>
        <time>2021-08-23T17:32:14.000Z</time>
      </trkpt>
      <trkpt lat="47.16769" lon="-1.6252">
        <ele>72</ele>
        <time>2021-08-23T17:32:16.000Z</time>
      </trkpt>
      <trkpt lat="47.16778" lon="-1.62526">
        <ele>72</ele>
        <time>2021-08-23T17:32:18.000Z</time>
      </trkpt>
      <trkpt lat="47.16787" lon="-1.62532">
        <ele>73</ele>
        <time>2021-08-23T17:32:20.000Z</time>
      </trkpt>
      <trkpt lat="47.16799" lon="-1.62538">
        <ele>72</ele>
        <time>2021-08-23T17:32:23.000Z</time>
      </trkpt>
      <trkpt lat="47.16807" lon="-1.62545">
        <ele>73</ele>
        <time>2021-08-23T17:32:26.000Z</time>
      </trkpt>
      <trkpt lat="47.16812" lon="-1.62557">
        <ele>74</ele>
        <time>2021-08-23T17:32:48.000Z</time>
      </trkpt>
      <trkpt lat="47.16823" lon="-1.62562">
        <ele>74</ele>
        <time>2021-08-23T17:32:56.000Z</time>
      </trkpt>
      <trkpt lat="47.1683" lon="-1.62574">
        <ele>74</ele>
        <time>2021-08-23T17:32:58.000Z</time>
      </trkpt>
      <trkpt lat="47.16828" lon="-1.62589">
        <ele>74</ele>
        <time>2021-08-23T17:33:00.000Z</time>
      </trkpt>
      <trkpt lat="47.1682" lon="-1.62602">
        <ele>73</ele>
        <time>2021-08-23T17:33:02.000Z</time>
      </trkpt>
      <trkpt lat="47.16813" lon="-1.62615">
        <ele>73</ele>
        <time>2021-08-23T17:33:04.000Z</time>
      </trkpt>
      <trkpt lat="47.16806" lon="-1.62628">
        <ele>74</ele>
        <time>2021-08-23T17:33:06.000Z</time>
      </trkpt>
      <trkpt lat="47.16799" lon="-1.62638">
        <ele>74</ele>
        <time>2021-08-23T17:33:08.000Z</time>
      </trkpt>
      <trkpt lat="47.16793" lon="-1.62648">
        <ele>74</ele>
        <time>2021-08-23T17:33:10.000Z</time>
      </trkpt>
      <trkpt lat="47.16785" lon="-1.6266">
        <ele>74</ele>
        <time>2021-08-23T17:33:13.000Z</time>
      </trkpt>
    </trkseg>
  </trk>
</gpx>